# Wetter Temperatur Luftdruck Luftfeuchtigkeit Sichtweite Windgeschwindigkeit Windrichtung Zeit
1 Fog 13 1021 68 800 2.24 345 07:39 02.10.2022
2 Clear 15 1022 76 10000 2.68 55 02:55 02.10.2022
3 Clear 15 1021 74 10000 3.6 100 00:46 02.10.2022
4 Clear 15 1021 75 10000 3.6 100 00:20 02.10.2022
5 Clear 16 1021 72 10000 3.6 170 22:37 01.10.2022
6 Clouds 17 1021 68 10000 4.63 170 20:34 01.10.2022
7 Clouds 17 1022 69 10000 4.12 140 18:40 01.10.2022
8 Clouds 16 1022 72 10000 2.06 160 16:36 01.10.2022
9 Clouds 15 1022 75 10000 1.79 100 14:35 01.10.2022
10 Clouds 14 1022 77 10000 2.06 70 13:31 01.10.2022
11 Fog 13 1021 81 10000 1.03 60 12:32 01.10.2022
12 Mist 12 1021 82 2000 0.89 38 11:20 01.10.2022
13 Fog 8 1021 100 800 0 0 10:32 01.10.2022
14 Fog 12 1020 82 4000 1.54 60 09:28 01.10.2022
15 Fog 13 1020 82 800 0 0 08:58 01.10.2022
16 Clear 14 1022 81 10000 2.57 100 05:28 01.10.2022
17 Clear 15 1022 79 10000 3.09 120 03:32 01.10.2022
18 Clear 15 1021 72 10000 4.63 110 00:18 01.10.2022
19 Clouds 18 1021 55 10000 6.17 130 22:48 30.09.2022
20 Clouds 18 1021 59 10000 6.69 120 21:29 30.09.2022
21 Rain 17 1022 63 10000 5.14 130 20:44 30.09.2022
22 Clouds 17 1022 63 10000 5.14 130 20:18 30.09.2022
23 Clouds 14 1023 76 10000 5.14 120 17:38 30.09.2022
24 Clouds 14 1024 78 10000 5.14 100 15:58 30.09.2022
25 Clear 14 1024 82 10000 4.92 45 13:34 30.09.2022
26 Clear 13 1024 83 10000 4.47 54 11:58 30.09.2022
27 Clear 13 1024 79 10000 4.47 68 11:28 30.09.2022
28 Clouds 12 1024 82 10000 3.09 90 08:37 30.09.2022
29 Clear 13 1025 78 10000 3.13 57 06:27 30.09.2022
30 Clouds 13 1026 77 10000 6.71 67 02:42 30.09.2022
31 Clear 13 1025 74 10000 6.69 120 23:35 29.09.2022
32 Clear 13 1025 65 10000 7.2 120 21:29 29.09.2022
33 Clear 14 1025 64 10000 6.17 130 20:59 29.09.2022
34 Clear 14 1027 58 10000 6.69 120 18:45 29.09.2022
35 Clear 14 1027 57 10000 5.66 120 17:32 29.09.2022
36 Clear 14 1029 61 10000 5.66 120 16:28 29.09.2022
37 Clear 14 1029 57 10000 5.14 130 15:36 29.09.2022
38 Clear 14 1029 58 10000 3.6 110 14:54 29.09.2022
39 Clear 10 1030 67 10000 1.03 320 11:48 29.09.2022
40 Clear 12 1029 65 10000 1.34 42 07:26 29.09.2022
41 Clear 13 1030 61 10000 5.66 120 02:55 29.09.2022
42 Clear 13 1029 62 10000 6.71 102 00:28 29.09.2022
43 Clear 13 1029 52 10000 8.49 109 23:19 28.09.2022
44 Clear 13 1029 60 10000 8.23 130 21:30 28.09.2022
45 Clear 13 1029 61 10000 8.05 118 20:31 28.09.2022
46 Clear 13 1031 63 10000 6.69 120 18:42 28.09.2022
47 Clear 13 1031 58 10000 6.17 120 15:46 28.09.2022
48 Clear 12 1029 63 10000 7.72 140 13:28 28.09.2022
49 Clear 12 1028 64 10000 6.26 119 11:34 28.09.2022
50 Clear 12 1027 67 10000 7.15 121 09:25 28.09.2022
51 Clouds 13 1027 73 10000 7.6 134 07:40 28.09.2022
52 Clear 13 1027 68 10000 7.15 139 04:41 28.09.2022
53 Clear 14 1025 65 10000 8.05 134 01:40 28.09.2022
54 Clouds 15 1022 77 10000 8.05 171 23:30 27.09.2022
55 Clouds 17 1020 66 10000 5.14 160 21:55 27.09.2022
56 Clouds 17 1020 65 10000 5.66 190 20:56 27.09.2022
57 Clouds 18 1020 65 10000 5.66 190 20:19 27.09.2022
58 Clouds 20 1020 57 10000 7.2 190 19:36 27.09.2022
59 Clouds 20 1019 51 10000 4.63 220 17:46 27.09.2022
60 Clear 19 1019 60 10000 5.14 230 16:20 27.09.2022
61 Clear 18 1019 62 10000 4.63 240 14:59 27.09.2022
62 Mist 16 1018 81 5000 3.13 278 13:36 27.09.2022
63 Fog 13 1017 88 200 3.13 307 12:23 27.09.2022
64 Fog 13 1016 87 100 2.68 311 09:54 27.09.2022
65 Rain 14 1015 86 50 1.54 310 07:41 27.09.2022
66 Mist 15 1014 86 1500 1.34 80 03:51 27.09.2022
67 Clouds 15 1013 85 10000 2.06 150 01:36 27.09.2022
68 Clouds 16 1012 82 10000 4.63 190 23:45 26.09.2022
69 Clouds 16 1012 81 10000 4.63 190 23:21 26.09.2022
70 Clouds 18 1011 72 10000 5.14 210 20:58 26.09.2022
71 Clouds 18 1011 73 10000 5.66 210 19:42 26.09.2022
72 Clouds 18 1012 73 10000 4.12 180 18:39 26.09.2022
73 Clouds 17 1013 77 10000 3.6 270 17:24 26.09.2022
74 Clouds 17 1014 82 10000 3.6 320 14:57 26.09.2022
75 Clouds 14 1013 83 10000 3.09 60 12:31 26.09.2022
76 Clouds 14 1013 80 10000 2.24 61 10:42 26.09.2022
77 Clouds 14 1013 80 10000 2.24 61 10:23 26.09.2022
78 Clouds 14 1013 79 10000 2.06 50 09:57 26.09.2022
79 Clouds 14 1013 78 10000 2.68 43 09:27 26.09.2022
80 Clouds 14 1014 75 10000 3.13 39 08:59 26.09.2022
81 Clear 14 1015 75 10000 5.36 52 05:30 26.09.2022
82 Rain 15 1016 71 10000 6.26 60 01:57 26.09.2022
83 Clear 15 1015 76 10000 5.66 110 23:23 25.09.2022
84 Clear 14 1015 74 10000 7.2 120 21:44 25.09.2022
85 Clear 14 1015 71 10000 7.2 120 20:59 25.09.2022
86 Clear 15 1016 67 10000 7.2 130 20:34 25.09.2022
87 Clear 15 1017 68 10000 6.71 128 18:49 25.09.2022
88 Rain 15 1018 62 10000 5.36 121 18:24 25.09.2022
89 Clear 15 1018 59 10000 5.36 128 17:22 25.09.2022
90 Clear 15 1020 56 10000 3.6 50 15:50 25.09.2022
91 Clear 15 1020 33 10000 5.14 30 14:35 25.09.2022
92 Clear 15 1020 38 10000 5.14 30 13:58 25.09.2022
93 Clear 12 1018 65 10000 3.6 40 10:38 25.09.2022
94 Clear 12 1018 62 10000 4.02 13 09:37 25.09.2022
95 Clear 14 1019 57 10000 4.02 29 06:53 25.09.2022
96 Clear 15 1019 64 10000 3.6 100 05:19 25.09.2022
97 Clear 16 1018 66 10000 4.63 120 23:36 24.09.2022
98 Clear 17 1018 58 10000 5.14 160 21:19 24.09.2022
99 Clear 17 1019 62 10000 4.63 140 19:34 24.09.2022
100 Clear 18 1020 59 10000 3.13 181 18:57 24.09.2022
101 Clear 18 1021 39 10000 5.14 350 16:50 24.09.2022
102 Clear 17 1021 46 10000 5.14 340 15:23 24.09.2022
103 Clear 15 1021 48 10000 4.63 360 14:36 24.09.2022
104 Clear 13 1021 52 10000 4.12 10 13:18 24.09.2022
105 Clear 11 1021 56 10000 4.12 20 12:22 24.09.2022
106 Clear 7 1020 81 10000 2.06 20 09:58 24.09.2022
107 Clear 7 1020 81 10000 3.09 20 08:56 24.09.2022
108 Clear 9 1020 71 10000 2.06 40 07:41 24.09.2022
109 Clear 12 1020 62 10000 3.09 70 04:52 24.09.2022
110 Clear 13 1020 70 10000 2.24 36 03:48 24.09.2022
111 Clouds 15 1019 56 10000 3.6 180 22:54 23.09.2022
112 Clouds 16 1019 54 10000 3.6 190 21:33 23.09.2022
113 Clouds 16 1019 57 10000 3.6 190 20:57 23.09.2022
114 Clouds 16 1019 57 10000 4.63 180 20:37 23.09.2022
115 Clouds 16 1019 61 10000 3.6 190 19:19 23.09.2022
116 Clouds 15 1020 64 10000 1.79 195 15:31 23.09.2022
117 Clear 10 1019 75 10000 2.24 292 12:39 23.09.2022
118 Clouds 10 1017 66 10000 3.13 298 09:36 23.09.2022
119 Clear 12 1018 64 8000 1.54 360 06:51 23.09.2022
120 Smoke 13 1017 63 10000 1.54 100 00:44 23.09.2022
121 Clouds 13 1016 64 10000 3.09 150 23:28 22.09.2022
122 Clouds 13 1016 69 10000 5.14 170 22:27 22.09.2022
123 Clouds 13 1017 66 10000 4.63 190 21:23 22.09.2022
124 Clouds 14 1017 66 10000 4.63 230 19:58 22.09.2022
125 Rain 14 1017 65 10000 4.63 210 17:41 22.09.2022
126 Rain 11 1018 74 10000 2.06 330 13:38 22.09.2022
127 Rain 10 1016 76 10000 2.57 160 10:37 22.09.2022
128 Clear 10 1016 76 10000 2.57 160 10:18 22.09.2022
129 Clear 12 1016 69 10000 4.47 176 07:36 22.09.2022
130 Clear 12 1017 72 10000 3.58 62 04:37 22.09.2022
131 Clear 12 1017 69 10000 4.63 110 23:46 21.09.2022
132 Clear 13 1016 67 10000 6.17 110 22:26 21.09.2022
133 Clear 13 1016 62 10000 6.69 110 20:54 21.09.2022
134 Clear 13 1017 64 10000 6.69 110 18:30 21.09.2022
135 Clear 13 1017 62 10000 7.2 100 17:22 21.09.2022
136 Clear 13 1018 62 10000 6.17 100 15:29 21.09.2022
137 Clear 12 1018 66 10000 5.66 140 13:39 21.09.2022
138 Clear 12 1017 69 10000 4.47 131 11:34 21.09.2022
139 Clear 12 1017 68 10000 4.92 135 10:52 21.09.2022
140 Clear 12 1018 69 10000 2.68 138 09:38 21.09.2022
141 Clear 12 1018 72 10000 3.6 170 08:23 21.09.2022
142 Clouds 12 1017 72 10000 4.92 93 02:54 21.09.2022
143 Clouds 12 1017 74 10000 3.13 104 02:34 21.09.2022
144 Clouds 12 1017 72 10000 3.6 130 01:50 21.09.2022
145 Clouds 12 1018 70 10000 2.06 120 23:58 20.09.2022
146 Clouds 12 1017 70 10000 5.66 130 21:40 20.09.2022
147 Clouds 12 1016 68 10000 4.63 160 20:26 20.09.2022
148 Clouds 12 1016 73 10000 4.12 170 17:53 20.09.2022
149 Clouds 13 1017 72 10000 4.63 190 15:33 20.09.2022
150 Clouds 12 1017 74 10000 4.63 210 13:59 20.09.2022
151 Clouds 13 1016 75 10000 5.66 210 11:28 20.09.2022
152 Clouds 14 1015 83 10000 4.12 170 08:36 20.09.2022
153 Clouds 14 1015 76 10000 4.63 210 07:32 20.09.2022
154 Clouds 15 1014 82 10000 5.14 200 04:35 20.09.2022
155 Clear 17 1013 73 10000 1.79 257 01:32 20.09.2022
156 Clear 19 1012 67 10000 5.14 260 22:41 19.09.2022
157 Clouds 20 1011 62 10000 5.66 270 21:28 19.09.2022
158 Clouds 20 1012 66 10000 4.63 260 20:39 19.09.2022
159 Clouds 19 1012 72 10000 5.66 270 18:43 19.09.2022
160 Clouds 19 1012 72 10000 5.66 270 18:43 19.09.2022
161 Rain 19 1013 68 10000 3.09 230 16:37 19.09.2022
162 Clear 15 1013 79 10000 2.57 50 13:47 19.09.2022
163 Clear 13 1012 90 10000 2.57 100 11:57 19.09.2022
164 Fog 14 1013 83 10000 0.45 347 09:38 19.09.2022
165 Clear 14 1012 80 10000 1.03 20 08:20 19.09.2022
166 Rain 16 1013 73 9000 6.69 60 03:37 19.09.2022
167 Rain 16 1012 77 10000 4.12 50 00:44 19.09.2022
168 Clear 20 1012 60 10000 5.66 50 22:32 18.09.2022
169 Clear 19 1012 62 10000 6.17 60 20:47 18.09.2022
170 Clear 18 1012 63 10000 6.17 60 19:33 18.09.2022
171 Clear 18 1014 64 10000 5.66 50 17:51 18.09.2022
172 Clear 17 1015 66 10000 6.17 40 16:47 18.09.2022
173 Clear 14 1016 79 10000 5.66 60 14:44 18.09.2022
174 Clear 14 1016 79 10000 5.14 60 13:34 18.09.2022
175 Clear 14 1017 81 10000 5.66 70 11:55 18.09.2022
176 Clear 14 1017 77 10000 3.13 50 09:25 18.09.2022
177 Clear 18 1017 63 10000 5.81 38 01:43 18.09.2022
178 Clear 19 1017 61 10000 5.81 44 01:19 18.09.2022
179 Clear 21 1016 54 10000 7.72 50 22:56 17.09.2022
180 Clear 22 1016 48 10000 7.2 40 20:53 17.09.2022
181 Clear 22 1017 48 10000 7.72 40 19:37 17.09.2022
182 Clear 20 1019 53 10000 7.2 30 17:44 17.09.2022
183 Clear 15 1021 69 10000 8.75 40 14:24 17.09.2022
184 Clear 13 1022 74 10000 7.72 40 13:26 17.09.2022
185 Clear 13 1021 73 10000 5.36 26 10:49 17.09.2022
186 Clear 14 1022 71 10000 6.26 36 06:53 17.09.2022
187 Clear 15 1022 69 10000 5.66 60 06:19 17.09.2022
188 Clear 21 1020 49 10000 7.2 50 23:41 16.09.2022
189 Clear 21 1020 48 10000 8.75 40 22:19 16.09.2022
190 Clouds 21 1021 46 10000 7.2 30 20:53 16.09.2022
191 Clouds 21 1023 47 10000 8.23 30 19:29 16.09.2022
192 Clouds 18 1025 59 10000 9.26 20 16:22 16.09.2022
193 Clear 17 1024 71 10000 7.2 40 14:52 16.09.2022
194 Clear 13 1024 85 10000 7.2 40 13:21 16.09.2022
195 Clear 12 1024 86 10000 4.02 63 10:24 16.09.2022
196 Clear 13 1024 80 10000 3.6 50 07:23 16.09.2022
197 Clear 13 1024 79 10000 3.6 60 06:48 16.09.2022
198 Clear 14 1024 79 10000 4.63 80 05:55 16.09.2022
199 Clear 15 1024 84 10000 3.6 90 02:30 16.09.2022
200 Clear 15 1024 77 10000 6.17 120 21:44 15.09.2022
201 Clear 15 1024 75 10000 5.14 120 20:37 15.09.2022
202 Clear 15 1025 73 10000 4.12 120 19:24 15.09.2022
203 Clear 14 1026 76 10000 4.63 30 17:41 15.09.2022
204 Clear 14 1026 75 10000 4.63 30 17:22 15.09.2022
205 Clear 14 1026 75 10000 3.13 98 15:38 15.09.2022
206 Clear 10 1026 84 10000 3.09 50 12:50 15.09.2022
207 Mist 8 1026 86 3000 2.24 32 11:48 15.09.2022
208 Fog 9 1025 90 100 1.79 36 09:44 15.09.2022
209 Mist 12 1025 86 3000 3.58 42 06:58 15.09.2022
210 Clear 13 1026 78 10000 2.68 79 03:46 15.09.2022
211 Clear 12 1024 78 10000 3.6 140 22:57 14.09.2022
212 Clouds 13 1025 75 10000 4.12 180 20:37 14.09.2022
213 Clouds 13 1025 74 10000 4.63 170 19:32 14.09.2022
214 Clouds 13 1026 74 10000 4.63 190 17:47 14.09.2022
215 Clouds 13 1026 74 10000 4.63 170 16:36 14.09.2022
216 Clouds 13 1025 80 10000 3.6 170 14:56 14.09.2022
217 Fog 11 1024 88 100 1.03 300 12:40 14.09.2022
218 Fog 11 1023 85 300 1.03 350 09:52 14.09.2022
219 Fog 12 1022 85 500 1.03 300 08:38 14.09.2022
220 Mist 12 1023 82 2000 1.54 20 06:50 14.09.2022
221 Mist 12 1023 82 2000 1.54 20 06:50 14.09.2022
222 Mist 13 1023 81 5000 1.79 74 06:29 14.09.2022
223 Clouds 13 1022 82 10000 3.13 112 02:43 14.09.2022
224 Clouds 12 1021 94 10000 3.6 150 01:36 14.09.2022
225 Clouds 12 1020 82 10000 3.09 140 00:53 14.09.2022
226 Clouds 12 1020 82 10000 3.09 140 23:55 13.09.2022
227 Clouds 14 1020 77 10000 4.63 170 23:36 13.09.2022
228 Clouds 14 1020 77 10000 4.63 170 23:18 13.09.2022
229 Clouds 15 1019 72 10000 5.14 190 22:29 13.09.2022
230 Clouds 16 1019 67 10000 5.14 180 21:38 13.09.2022
231 Clouds 17 1020 63 10000 5.14 160 18:56 13.09.2022
232 Clouds 13 1020 79 10000 3.6 180 16:42 13.09.2022
233 Clouds 13 1019 78 10000 3.09 120 15:19 13.09.2022
234 Clouds 13 1019 87 10000 2.24 140 13:40 13.09.2022
235 Clouds 13 1017 87 10000 3.13 168 10:30 13.09.2022
236 Clouds 13 1017 86 10000 3.13 143 07:56 13.09.2022
237 Clouds 13 1017 85 10000 4.47 172 02:22 13.09.2022
238 Clouds 13 1017 82 10000 4.63 140 23:22 12.09.2022
239 Clouds 13 1016 80 10000 5.14 140 22:40 12.09.2022
240 Clouds 13 1016 79 10000 6.69 150 21:35 12.09.2022
241 Clouds 13 1016 80 10000 5.14 130 20:22 12.09.2022
242 Clouds 13 1017 78 10000 4.63 140 18:24 12.09.2022
243 Clear 13 1019 71 10000 3.6 120 15:53 12.09.2022
244 Clear 6 1019 93 10000 1.54 0 12:35 12.09.2022
245 Clear 6 1020 93 10000 0 0 10:31 12.09.2022
246 Clear 10 1019 71 10000 3.09 70 07:40 12.09.2022
247 Clear 11 1021 62 10000 3.09 100 04:39 12.09.2022
248 Clear 12 1020 71 10000 5.66 120 02:25 12.09.2022
249 Clear 15 1020 41 10000 4.63 130 22:46 11.09.2022
250 Clear 16 1020 41 10000 4.63 150 21:30 11.09.2022
251 Clear 17 1020 45 10000 4.63 180 20:44 11.09.2022
252 Clear 17 1021 45 10000 5.14 170 19:45 11.09.2022
253 Clear 17 1021 45 10000 5.14 170 19:21 11.09.2022
254 Clear 13 1022 53 10000 3.09 140 17:47 11.09.2022
255 Clear 13 1023 52 10000 1.79 148 15:51 11.09.2022
256 Clear 10 1023 60 10000 2.68 299 13:52 11.09.2022
257 Fog 8 1023 64 10000 3.13 298 12:31 11.09.2022
258 Clear 9 1023 59 9000 1.54 360 08:25 11.09.2022
259 Clear 10 1023 67 7000 1.54 10 05:55 11.09.2022
260 Clear 12 1022 57 10000 1.03 0 00:34 11.09.2022
261 Clear 13 1021 49 10000 4.63 210 22:26 10.09.2022
262 Clear 13 1022 47 10000 7.2 240 20:51 10.09.2022
263 Clear 12 1022 60 10000 5.66 250 19:45 10.09.2022
264 Clear 12 1022 60 10000 5.66 250 19:45 10.09.2022
265 Clear 12 1022 59 10000 5.66 250 19:27 10.09.2022
266 Clear 11 1023 61 10000 6.69 240 17:53 10.09.2022
267 Clouds 10 1022 69 10000 6.69 240 15:45 10.09.2022
268 Clouds 9 1022 69 10000 6.17 250 14:37 10.09.2022
269 Clouds 9 1020 72 10000 4.47 232 12:52 10.09.2022
270 Clouds 8 1019 68 10000 4.02 251 10:35 10.09.2022
271 Clouds 9 1019 66 10000 7.2 220 08:43 10.09.2022
272 Clouds 9 1020 64 10000 7.2 220 08:23 10.09.2022
273 Clouds 10 1019 61 10000 8.23 230 05:25 10.09.2022
274 Clouds 11 1016 60 10000 6.69 220 23:52 09.09.2022
275 Clouds 11 1016 57 10000 6.69 220 23:29 09.09.2022
276 Clouds 10 1015 62 10000 7.72 210 21:24 09.09.2022
277 Clouds 10 1015 62 10000 7.72 220 20:28 09.09.2022
278 Clouds 11 1015 63 10000 8.75 200 19:23 09.09.2022
279 Clouds 10 1015 65 10000 8.23 190 18:33 09.09.2022
280 Clouds 10 1014 72 10000 8.23 190 16:18 09.09.2022
281 Clouds 10 1013 81 7000 9.26 190 13:47 09.09.2022
282 Clouds 10 1011 86 8000 8.75 190 11:51 09.09.2022
283 Clouds 12 1009 82 8000 10.73 176 09:21 09.09.2022
284 Rain 13 1006 91 10000 5.14 150 03:48 09.09.2022
285 Mist 15 1006 88 8000 7.2 180 00:40 09.09.2022
286 Clouds 25 1005 44 10000 4.12 140 21:52 08.09.2022
287 Clouds 25 1005 47 10000 3.6 360 20:50 08.09.2022
288 Clouds 25 1005 47 10000 3.6 360 20:29 08.09.2022
289 Clouds 25 1006 44 10000 4.63 340 19:39 08.09.2022
290 Clear 24 1007 53 10000 5.14 10 17:40 08.09.2022
291 Clear 22 1007 56 10000 5.66 10 16:19 08.09.2022
292 Clear 14 1008 94 10000 4.63 20 13:56 08.09.2022
293 Clear 13 1008 94 10000 4.12 40 12:51 08.09.2022
294 Clear 13 1008 94 10000 4.12 20 11:36 08.09.2022
295 Clear 13 1008 88 10000 2.57 10 09:58 08.09.2022
296 Clear 15 1007 88 10000 3.09 30 07:45 08.09.2022
297 Clear 15 1008 82 10000 2.57 20 05:30 08.09.2022
298 Clear 18 1008 68 10000 3.09 40 02:36 08.09.2022
299 Clear 18 1008 68 10000 3.09 40 02:18 08.09.2022
300 Clear 18 1007 68 10000 3.09 30 00:22 08.09.2022
301 Clear 23 1007 46 10000 6.17 10 22:19 07.09.2022
302 Clear 23 1008 46 10000 6.17 20 21:39 07.09.2022
303 Clear 22 1008 53 10000 5.14 360 20:31 07.09.2022
304 Clouds 23 1009 49 10000 6.17 340 19:26 07.09.2022
305 Clouds 21 1012 64 10000 6.69 350 17:22 07.09.2022
306 Mist 13 1013 94 3000 5.66 30 12:41 07.09.2022
307 Clear 12 1013 100 10000 3.09 40 10:45 07.09.2022
308 Clear 13 1014 94 10000 3.09 40 08:33 07.09.2022
309 Clear 14 1015 94 10000 2.57 40 06:50 07.09.2022
310 Clouds 18 1017 68 10000 3.09 30 00:53 07.09.2022
311 Clouds 20 1017 56 10000 5.66 10 22:28 06.09.2022
312 Clouds 20 1017 56 10000 6.17 10 21:38 06.09.2022
313 Clouds 19 1020 59 10000 5.14 20 19:57 06.09.2022
314 Clouds 18 1021 63 10000 4.63 10 18:42 06.09.2022
315 Clouds 17 1022 72 10000 5.14 30 17:51 06.09.2022
316 Clouds 16 1023 77 10000 5.66 20 16:53 06.09.2022
317 Clouds 16 1023 77 10000 5.66 20 16:26 06.09.2022
318 Clear 12 1024 87 10000 5.14 50 14:54 06.09.2022
319 Clear 10 1023 93 10000 4.63 50 13:44 06.09.2022
320 Clear 10 1023 93 10000 4.63 50 13:44 06.09.2022
321 Clear 10 1023 93 10000 4.63 50 13:20 06.09.2022
322 Clear 8 1023 81 10000 2.06 50 10:57 06.09.2022
323 Clear 8 1023 81 10000 1.54 40 09:56 06.09.2022
324 Clear 9 1024 76 10000 1.03 40 08:29 06.09.2022
325 Clear 12 1025 58 10000 2.57 30 06:58 06.09.2022
326 Clear 13 1025 76 10000 3.09 90 01:23 06.09.2022
327 Clear 18 1024 42 10000 2.57 160 23:19 05.09.2022
328 Clear 21 1024 35 10000 3.09 180 21:50 05.09.2022
329 Clear 20 1024 40 10000 3.6 160 20:32 05.09.2022
330 Clear 19 1026 42 10000 3.6 260 18:59 05.09.2022
331 Clear 19 1026 42 10000 3.6 260 18:38 05.09.2022
332 Clear 19 1026 42 10000 3.6 260 18:19 05.09.2022
333 Clear 18 1027 45 10000 3.6 300 16:25 05.09.2022
334 Clear 15 1027 51 10000 3.09 310 15:23 05.09.2022
335 Clear 7 1026 81 10000 3.09 350 13:21 05.09.2022
336 Clear 6 1025 81 10000 2.06 350 11:53 05.09.2022
337 Clear 7 1025 76 10000 2.06 350 08:58 05.09.2022
338 Clear 8 1025 81 10000 3.09 360 06:38 05.09.2022
339 Clear 14 1025 72 10000 1.54 20 01:56 05.09.2022
340 Clear 18 1024 45 10000 3.6 250 22:39 04.09.2022
341 Clear 18 1024 45 10000 3.6 250 22:19 04.09.2022
342 Clear 19 1024 45 10000 4.12 250 20:37 04.09.2022
343 Clear 19 1026 42 10000 4.63 320 18:55 04.09.2022
344 Clear 17 1027 45 10000 4.63 330 17:43 04.09.2022
345 Clear 15 1027 51 10000 4.63 320 16:28 04.09.2022
346 Clear 8 1027 71 10000 3.6 330 14:26 04.09.2022
347 Clear 3 1026 93 10000 3.09 350 12:57 04.09.2022
348 Clear 5 1025 81 10000 2.57 350 11:51 04.09.2022
349 Clear 5 1025 87 10000 2.57 360 09:50 04.09.2022
350 Clear 7 1026 81 10000 2.57 20 06:51 04.09.2022
351 Clear 8 1027 81 10000 1.54 30 03:31 04.09.2022
352 Clear 13 1026 54 10000 1.54 280 23:33 03.09.2022
353 Clear 14 1026 38 10000 3.09 280 22:20 03.09.2022
354 Clear 15 1027 29 10000 3.09 260 21:22 03.09.2022
355 Clear 14 1027 51 10000 5.14 200 18:58 03.09.2022
356 Clear 13 1028 62 10000 2.57 230 17:25 03.09.2022
357 Clouds 11 1028 76 10000 2.06 300 16:26 03.09.2022
358 Clear 7 1028 93 10000 1.03 340 14:44 03.09.2022
359 Clear 4 1028 93 10000 2.06 360 13:50 03.09.2022
360 Clear 7 1026 81 10000 0 0 11:37 03.09.2022
361 Clouds 8 1026 76 10000 4.12 170 09:51 03.09.2022
362 Clear 8 1027 76 10000 4.12 200 07:57 03.09.2022
363 Clear 9 1026 71 10000 4.12 200 04:57 03.09.2022
364 Clear 9 1026 71 10000 3.6 210 03:57 03.09.2022
365 Clear 10 1024 66 10000 7.2 190 23:49 02.09.2022
366 Clear 11 1023 62 10000 7.2 190 22:39 02.09.2022
367 Clouds 12 1022 58 10000 8.23 210 20:59 02.09.2022
368 Clouds 12 1022 58 10000 8.23 210 20:27 02.09.2022
369 Clouds 12 1022 71 10000 8.75 190 18:59 02.09.2022
370 Clouds 12 1022 71 10000 8.75 190 18:27 02.09.2022
371 Clouds 12 1021 76 10000 8.75 190 17:36 02.09.2022
372 Clouds 12 1020 76 10000 8.23 190 16:45 02.09.2022
373 Clouds 10 1018 87 10000 8.23 190 13:51 02.09.2022
374 Clouds 10 1016 93 10000 7.2 190 11:47 02.09.2022
375 Clouds 11 1015 87 10000 9.26 190 09:49 02.09.2022
376 Clouds 11 1014 100 10000 8.75 180 08:55 02.09.2022
377 Rain 12 1014 100 8000 7.72 190 07:24 02.09.2022
378 Drizzle 13 1013 100 4000 5.66 210 06:35 02.09.2022
379 Mist 14 1014 100 2000 1.03 190 02:37 02.09.2022
380 Rain 16 1012 88 10000 0.51 0 22:26 01.09.2022
381 Rain 15 1011 94 10000 1.54 30 21:40 01.09.2022
382 Clouds 15 1011 94 10000 1.54 30 21:21 01.09.2022
383 Mist 15 1011 94 10000 4.63 70 20:37 01.09.2022
384 Rain 16 1012 88 10000 2.57 10 18:49 01.09.2022
385 Rain 15 1013 88 10000 4.12 20 17:21 01.09.2022
386 Rain 13 1014 94 6000 1.54 0 15:34 01.09.2022
387 Rain 14 1013 88 10000 3.09 30 13:55 01.09.2022
388 Rain 14 1013 88 10000 3.09 30 12:57 01.09.2022
389 Rain 14 1013 88 10000 3.09 20 11:52 01.09.2022
390 Clear 14 1013 88 10000 3.09 20 11:30 01.09.2022
391 Clear 14 1013 88 10000 2.57 20 09:49 01.09.2022
392 Clear 14 1014 88 10000 2.57 20 07:51 01.09.2022
393 Clear 15 1014 88 10000 2.57 40 06:21 01.09.2022
394 Clouds 15 1015 88 10000 2.06 130 01:31 01.09.2022
395 Clouds 15 1015 88 10000 2.06 130 01:31 01.09.2022
396 Clear 20 1014 64 10000 3.09 130 23:19 31.08.2022
397 Clear 21 1015 60 10000 4.12 10 21:20 31.08.2022
398 Clear 19 1017 63 10000 5.14 20 19:46 31.08.2022
399 Clear 17 1019 72 10000 5.66 10 17:52 31.08.2022
400 Clear 14 1021 77 10000 6.17 30 15:44 31.08.2022
401 Clear 12 1021 87 10000 5.66 50 13:56 31.08.2022
402 Clear 10 1021 93 10000 3.09 60 12:20 31.08.2022
403 Clear 12 1021 82 10000 2.57 50 10:30 31.08.2022
404 Clear 11 1021 87 10000 4.63 80 08:34 31.08.2022
405 Clear 12 1024 76 10000 4.63 60 03:46 31.08.2022
406 Clear 19 1024 39 10000 5.66 10 22:58 30.08.2022
407 Clear 19 1024 39 10000 5.66 20 21:33 30.08.2022
408 Clear 18 1025 45 10000 5.14 30 20:47 30.08.2022
409 Clear 14 1028 54 10000 5.66 30 17:25 30.08.2022
410 Clear 7 1030 87 10000 4.12 20 14:42 30.08.2022
411 Clear 4 1030 93 9000 1.54 10 13:24 30.08.2022
412 Clear 3 1030 100 10000 1.03 350 11:21 30.08.2022
413 Clear 5 1029 93 10000 2.06 30 10:35 30.08.2022
414 Clear 7 1031 87 10000 3.6 50 06:50 30.08.2022
415 Clear 10 1031 76 10000 1.03 80 01:53 30.08.2022
416 Clear 11 1031 68 10000 3.09 160 22:54 29.08.2022
417 Clear 11 1031 68 10000 3.09 160 22:24 29.08.2022
418 Clear 12 1031 65 10000 3.09 200 21:25 29.08.2022
419 Clear 13 1032 57 10000 4.12 180 19:51 29.08.2022
420 Clouds 12 1034 63 10000 2.68 250 17:50 29.08.2022
421 Clouds 11 1034 63 10000 3.58 270 17:24 29.08.2022
422 Clouds 12 1034 64 10000 4.12 280 16:22 29.08.2022
423 Clear 9 1034 70 10000 3.58 289 14:44 29.08.2022
424 Clear 6 1034 75 10000 2.68 304 12:52 29.08.2022
425 Clear 6 1033 70 10000 2.68 306 10:56 29.08.2022
426 Clear 7 1033 68 10000 2.24 304 09:45 29.08.2022
427 Clear 7 1034 67 10000 2.24 304 08:28 29.08.2022
428 Clouds 10 1033 56 10000 2.24 226 02:49 29.08.2022
429 Clouds 9 1033 55 10000 4.12 210 23:55 28.08.2022
430 Clouds 9 1032 52 10000 5.14 200 22:36 28.08.2022
431 Clouds 10 1033 52 10000 6.69 200 21:43 28.08.2022
432 Clouds 10 1032 52 10000 8.75 190 20:54 28.08.2022
433 Clouds 10 1032 53 10000 8.23 190 19:20 28.08.2022
434 Clouds 10 1033 51 10000 7.72 200 18:20 28.08.2022
435 Clouds 9 1032 56 10000 9.26 200 16:57 28.08.2022
436 Clouds 9 1032 59 10000 8.75 200 15:55 28.08.2022
437 Clouds 9 1031 53 10000 7.2 190 14:21 28.08.2022
438 Clouds 8 1028 59 10000 7.2 190 12:31 28.08.2022
439 Clouds 8 1027 58 10000 7.6 209 10:42 28.08.2022
440 Clouds 8 1026 57 10000 5.81 186 09:41 28.08.2022
441 Clouds 9 1026 62 10000 6.26 203 08:37 28.08.2022
442 Clouds 9 1026 61 10000 8.49 192 07:42 28.08.2022
443 Clouds 11 1022 59 10000 9.39 200 02:31 28.08.2022
444 Clouds 12 1019 72 10000 9.83 168 00:25 28.08.2022
445 Clouds 13 1016 71 10000 7.72 200 22:34 27.08.2022
446 Clear 13 1014 69 10000 7.72 200 21:28 27.08.2022
447 Clouds 14 1012 74 10000 7.2 210 19:40 27.08.2022
448 Clouds 17 1008 89 10000 7.2 10 16:48 27.08.2022
449 Rain 17 1008 89 10000 8.23 20 15:53 27.08.2022
450 Rain 16 1008 90 10000 8.23 20 15:24 27.08.2022
451 Thunderstorm 16 1008 92 800 2.06 320 12:23 27.08.2022
452 Thunderstorm 17 1008 91 2000 2.24 271 11:25 27.08.2022
453 Thunderstorm 16 1007 90 4000 2.06 270 09:42 27.08.2022
454 Thunderstorm 17 1006 83 10000 3.6 340 07:37 27.08.2022
455 Clouds 15 1008 89 10000 2.57 60 02:34 27.08.2022
456 Clouds 23 1010 68 10000 4.12 20 23:56 26.08.2022
457 Clouds 24 1011 57 10000 6.17 10 22:37 26.08.2022
458 Clouds 25 1012 50 10000 4.63 30 20:42 26.08.2022
459 Clear 24 1013 57 10000 4.12 20 19:23 26.08.2022
460 Fog 15 1017 100 50 3.6 350 16:46 26.08.2022
461 Fog 14 1017 100 50 0.51 0 15:31 26.08.2022
462 Fog 12 1017 100 50 0.51 0 14:29 26.08.2022
463 Fog 11 1016 100 50 2.06 330 12:47 26.08.2022
464 Fog 12 1016 100 200 2.06 330 11:27 26.08.2022
465 Fog 13 1015 100 800 1.54 350 10:29 26.08.2022
466 Fog 12 1017 100 900 2.06 360 07:28 26.08.2022
467 Clear 15 1016 82 10000 1.34 45 01:41 26.08.2022
468 Clouds 16 1016 85 6000 3.09 140 23:32 25.08.2022
469 Clouds 16 1016 81 10000 2.57 130 21:36 25.08.2022
470 Clouds 16 1015 81 10000 2.57 140 20:29 25.08.2022
471 Clear 16 1015 77 10000 2.57 120 18:53 25.08.2022
472 Clear 17 1016 76 10000 1.54 20 17:50 25.08.2022
473 Clear 17 1016 77 10000 1.54 20 17:31 25.08.2022
474 Clear 19 1017 69 10000 5.14 20 15:40 25.08.2022
475 Clear 16 1017 76 10000 3.6 30 14:34 25.08.2022
476 Clear 15 1017 78 10000 3.6 40 11:54 25.08.2022
477 Clear 15 1016 77 10000 3.09 20 10:46 25.08.2022
478 Clear 15 1016 74 10000 3.13 11 08:54 25.08.2022
479 Rain 16 1018 77 10000 2.57 40 05:24 25.08.2022
480 Rain 16 1018 73 10000 3.6 110 01:37 25.08.2022
481 Clear 17 1017 76 10000 3.6 130 23:26 24.08.2022
482 Clouds 18 1017 73 10000 4.63 180 22:22 24.08.2022
483 Clouds 18 1016 69 10000 3.09 150 21:35 24.08.2022
484 Clouds 17 1016 72 10000 3.6 170 20:32 24.08.2022
485 Clouds 17 1018 73 10000 2.57 160 18:58 24.08.2022
486 Clear 19 1020 68 10000 3.09 350 16:37 24.08.2022
487 Clear 16 1020 77 10000 2.57 350 15:52 24.08.2022
488 Mist 10 1019 100 8000 4.12 20 13:40 24.08.2022
489 Clear 9 1019 93 10000 2.57 10 11:29 24.08.2022
490 Fog 8 1018 100 5000 1.54 10 09:35 24.08.2022
491 Fog 9 1019 93 3000 2.57 20 07:59 24.08.2022
492 Fog 12 1019 94 8000 1.54 140 02:36 24.08.2022
493 Clear 15 1018 72 10000 2.57 190 23:32 23.08.2022
494 Clear 18 1018 52 10000 3.09 150 22:32 23.08.2022
495 Clear 18 1018 52 10000 3.6 140 21:29 23.08.2022
496 Clear 18 1019 55 10000 2.57 130 20:21 23.08.2022
497 Clouds 16 1021 63 10000 3.6 360 18:46 23.08.2022
498 Clouds 15 1022 67 10000 5.14 20 17:49 23.08.2022
499 Clouds 14 1022 77 10000 5.66 30 16:54 23.08.2022
500 Clouds 12 1023 87 10000 5.14 50 15:39 23.08.2022
501 Mist 9 1023 100 1000 3.09 50 13:29 23.08.2022
502 Mist 9 1023 100 5000 2.57 50 11:33 23.08.2022
503 Mist 9 1022 100 3000 2.57 70 10:48 23.08.2022
504 Mist 9 1022 100 3000 2.57 70 10:24 23.08.2022
505 Fog 8 1023 100 500 3.09 50 08:52 23.08.2022
506 Fog 8 1023 100 800 2.57 50 08:21 23.08.2022
507 Mist 8 1024 100 5000 1.03 50 07:38 23.08.2022
508 Clear 9 1024 93 10000 1.54 60 06:29 23.08.2022
509 Clear 9 1024 93 10000 1.54 60 06:29 23.08.2022
510 Clouds 10 1024 85 10000 4.32 41 04:45 23.08.2022
511 Clear 10 1024 87 10000 5.14 120 00:28 23.08.2022
512 Clear 10 1024 87 10000 5.14 120 23:54 22.08.2022
513 Clear 13 1024 71 10000 5.66 110 22:45 22.08.2022
514 Clear 14 1024 67 10000 5.14 110 21:45 22.08.2022
515 Clear 16 1025 51 10000 4.63 130 19:49 22.08.2022
516 Clear 16 1025 51 10000 4.63 130 19:18 22.08.2022
517 Clouds 13 1027 62 10000 4.12 87 17:37 22.08.2022
518 Clouds 10 1028 80 10000 2.68 98 15:39 22.08.2022
519 Clouds 9 1028 80 10000 2.57 90 14:32 22.08.2022
520 Clouds 9 1027 83 10000 3.13 132 10:49 22.08.2022
521 Clouds 9 1027 84 10000 2.24 59 08:21 22.08.2022
522 Clouds 10 1029 84 10000 3.13 161 04:30 22.08.2022
523 Clear 11 1027 78 10000 3.13 165 00:49 22.08.2022
524 Clear 11 1027 79 10000 2.57 190 00:26 22.08.2022
525 Clear 13 1026 50 10000 2.06 240 22:54 21.08.2022
526 Clear 15 1026 40 10000 3.09 220 21:36 21.08.2022
527 Clear 15 1026 37 10000 3.09 240 20:57 21.08.2022
528 Clear 14 1027 37 10000 3.13 257 19:27 21.08.2022
529 Clear 14 1028 41 10000 3.58 269 17:39 21.08.2022
530 Clear 13 1029 41 10000 3.09 330 15:58 21.08.2022
531 Clear 12 1028 44 10000 3.09 330 15:22 21.08.2022
532 Rain 10 1028 56 10000 2.57 10 13:54 21.08.2022
533 Rain 10 1028 57 10000 2.57 10 13:34 21.08.2022
534 Clear 9 1027 55 10000 1.79 315 11:55 21.08.2022
535 Rain 10 1027 50 10000 2.06 360 09:32 21.08.2022
536 Clear 10 1027 48 10000 2.06 20 08:56 21.08.2022
537 Clear 10 1027 48 10000 2.06 20 08:38 21.08.2022
538 Clear 10 1027 47 10000 2.24 331 07:27 21.08.2022
539 Smoke 11 1027 51 4000 1.79 2 03:41 21.08.2022
540 Clear 12 1027 67 10000 3.09 110 00:24 21.08.2022
541 Clear 12 1027 64 10000 3.6 360 22:59 20.08.2022
542 Clear 14 1026 49 10000 4.12 350 21:39 20.08.2022
543 Clear 15 1027 41 10000 5.14 360 20:43 20.08.2022
544 Clear 15 1027 29 10000 5.66 310 19:41 20.08.2022
545 Clear 15 1028 31 10000 6.69 350 18:33 20.08.2022
546 Clear 14 1028 35 10000 7.72 320 17:52 20.08.2022
547 Clear 14 1029 34 10000 7.72 320 17:18 20.08.2022
548 Clear 12 1030 39 10000 4.63 340 15:37 20.08.2022
549 Clear 8 1029 51 10000 4.12 360 13:27 20.08.2022
550 Clear 8 1029 47 10000 3.6 360 11:52 20.08.2022
551 Clear 9 1028 44 10000 3.6 350 09:43 20.08.2022
552 Clear 9 1027 44 10000 4.12 360 08:50 20.08.2022
553 Clear 10 1028 44 10000 4.12 350 05:57 20.08.2022
554 Clear 12 1028 38 10000 3.09 10 01:46 20.08.2022
555 Clear 13 1028 38 10000 3.09 350 00:51 20.08.2022
556 Clear 14 1027 34 10000 4.12 320 23:19 19.08.2022
557 Clear 14 1028 33 10000 5.14 310 22:35 19.08.2022
558 Clear 14 1027 26 10000 6.69 270 20:28 19.08.2022
559 Clear 13 1028 33 10000 6.69 270 18:28 19.08.2022
560 Clouds 10 1029 59 10000 4.63 300 15:21 19.08.2022
561 Clear 6 1029 68 10000 2.57 350 13:26 19.08.2022
562 Clear 7 1027 81 10000 2.06 350 10:55 19.08.2022
563 Clear 7 1027 81 10000 2.06 350 10:26 19.08.2022
564 Clouds 9 1026 58 10000 3.13 261 06:58 19.08.2022
565 Clouds 9 1023 66 10000 9.26 210 00:58 19.08.2022
566 Clouds 9 1023 66 10000 9.26 210 00:30 19.08.2022
567 Clouds 10 1022 58 10000 6.69 230 23:44 18.08.2022
568 Clouds 10 1021 55 10000 7.2 220 22:51 18.08.2022
569 Clouds 10 1021 60 10000 9.26 220 21:57 18.08.2022
570 Clouds 10 1020 58 10000 9.26 220 21:35 18.08.2022
571 Clouds 10 1019 60 10000 8.75 230 20:25 18.08.2022
572 Clouds 10 1019 63 10000 10.29 220 19:30 18.08.2022
573 Clouds 9 1019 65 10000 8.75 220 17:50 18.08.2022
574 Clouds 9 1019 68 10000 8.75 220 17:18 18.08.2022
575 Clouds 9 1017 65 10000 7.72 230 14:57 18.08.2022
576 Clouds 9 1017 65 10000 7.72 230 14:19 18.08.2022
577 Clouds 9 1016 63 10000 5.14 230 13:29 18.08.2022
578 Clouds 9 1015 59 10000 4.02 250 11:51 18.08.2022
579 Clouds 8 1014 71 10000 3.09 240 09:43 18.08.2022
580 Clouds 9 1014 66 10000 3.09 220 08:42 18.08.2022
581 Clouds 9 1014 66 10000 3.6 200 07:19 18.08.2022
582 Clear 11 1011 58 10000 5.66 240 04:37 18.08.2022
583 Clouds 10 1009 75 10000 3.58 271 23:37 17.08.2022
584 Clouds 10 1008 80 10000 7.2 220 21:53 17.08.2022
585 Clouds 11 1006 84 10000 8.23 200 20:20 17.08.2022
586 Clouds 12 1006 83 10000 7.72 230 19:31 17.08.2022
587 Clouds 14 1006 56 10000 7.15 298 17:37 17.08.2022
588 Rain 15 1006 53 10000 3.09 340 16:39 17.08.2022
589 Clear 13 1006 61 10000 3.6 60 15:28 17.08.2022
590 Clear 11 1007 69 10000 2.57 100 13:31 17.08.2022
591 Clear 10 1007 69 10000 1.34 42 11:39 17.08.2022
592 Clear 10 1006 61 10000 1.34 34 09:59 17.08.2022
593 Clear 11 1007 64 10000 0.45 285 08:24 17.08.2022
594 Clear 13 1007 49 10000 4.63 20 03:39 17.08.2022
595 Clear 15 1007 40 10000 4.12 360 00:38 17.08.2022
596 Clear 17 1007 36 10000 5.66 340 22:42 16.08.2022
597 Clear 17 1006 28 10000 7.72 330 20:59 16.08.2022
598 Clear 18 1006 26 10000 7.2 320 19:54 16.08.2022
599 Clear 15 1007 27 10000 7.72 320 18:44 16.08.2022
600 Clear 15 1008 28 10000 7.72 290 17:53 16.08.2022
601 Clear 13 1009 42 10000 4.63 320 15:59 16.08.2022
602 Clear 10 1009 45 10000 4.47 286 14:55 16.08.2022
603 Clear 10 1009 45 10000 4.12 320 14:37 16.08.2022
604 Clear 10 1009 41 10000 3.58 284 13:54 16.08.2022
605 Clear 8 1008 58 10000 2.57 330 11:30 16.08.2022
606 Clear 9 1008 56 10000 2.57 330 09:52 16.08.2022
607 Clear 10 1008 51 10000 2.57 320 08:48 16.08.2022
608 Clear 12 1008 50 10000 2.57 320 08:18 16.08.2022
609 Clear 12 1007 43 10000 6.71 276 04:25 16.08.2022
610 Clouds 13 1005 76 10000 6.17 250 22:55 15.08.2022
611 Clouds 13 1005 75 10000 6.17 240 21:56 15.08.2022
612 Clouds 13 1005 76 10000 6.17 240 21:35 15.08.2022
613 Clouds 14 1005 74 10000 6.69 220 20:29 15.08.2022
614 Clouds 14 1005 74 10000 6.69 220 20:29 15.08.2022
615 Rain 13 1003 78 10000 7.2 240 18:46 15.08.2022
616 Clouds 14 1002 74 10000 5.14 230 17:47 15.08.2022
617 Clear 14 1003 75 10000 2.06 250 16:22 15.08.2022
618 Clouds 13 1002 77 10000 6.17 110 14:31 15.08.2022
619 Rain 12 1003 80 10000 8.75 150 12:54 15.08.2022
620 Clear 18 999 76 10000 6.69 350 10:23 15.08.2022
621 Clear 18 999 73 10000 5.66 10 08:52 15.08.2022
622 Clear 19 1000 69 10000 8.23 20 06:34 15.08.2022
623 Clear 19 1003 74 10000 5.66 40 03:34 15.08.2022
624 Clear 21 1005 61 10000 6.17 50 23:24 14.08.2022
625 Clear 24 1008 53 10000 7.2 40 21:43 14.08.2022
626 Clear 24 1009 53 10000 6.69 30 20:41 14.08.2022
627 Clear 19 1008 64 10000 6.17 30 19:36 14.08.2022
628 Clear 22 1012 60 10000 6.69 50 18:21 14.08.2022
629 Clear 20 1012 57 10000 6.69 50 17:31 14.08.2022
630 Clear 20 1014 68 10000 6.69 40 16:23 14.08.2022
631 Clear 16 1014 72 10000 4.47 40 14:55 14.08.2022
632 Clear 14 1015 78 10000 5.14 50 13:51 14.08.2022
633 Clear 14 1015 80 10000 5.14 50 13:31 14.08.2022
634 Clear 14 1015 80 10000 5.14 50 13:31 14.08.2022
635 Clear 13 1015 84 10000 5.14 50 12:35 14.08.2022
636 Clear 13 1015 80 10000 3.6 60 11:22 14.08.2022
637 Clear 14 1015 78 10000 3.58 3 08:56 14.08.2022
638 Clear 14 1016 82 10000 3.58 17 06:27 14.08.2022
639 Clear 14 1017 81 10000 3.6 80 04:47 14.08.2022
640 Clear 14 1017 84 10000 3.58 59 01:36 14.08.2022
641 Clear 16 1017 80 10000 3.6 100 22:56 13.08.2022
642 Clouds 17 1017 75 10000 4.63 160 21:59 13.08.2022
643 Clouds 17 1017 70 10000 4.63 140 20:49 13.08.2022
644 Clouds 18 1017 70 10000 4.12 170 19:48 13.08.2022
645 Clouds 18 1017 68 10000 4.12 170 19:18 13.08.2022
646 Clear 20 1019 73 10000 2.06 260 17:21 13.08.2022
647 Clear 16 1018 80 10000 2.68 302 14:42 13.08.2022
648 Fog 15 1018 82 10000 3.09 10 13:49 13.08.2022
649 Fog 15 1017 84 10000 3.09 10 13:25 13.08.2022
650 Clouds 15 1016 80 10000 3.09 10 11:29 13.08.2022
651 Clouds 15 1016 83 10000 3.09 360 09:23 13.08.2022
652 Clouds 14 1017 87 3000 3.09 260 06:44 13.08.2022
653 Clear 13 1016 87 10000 3.09 120 01:51 13.08.2022
654 Clouds 13 1015 81 10000 1.54 340 23:32 12.08.2022
655 Clouds 18 1015 58 10000 4.63 340 21:37 12.08.2022
656 Clouds 18 1015 58 10000 5.14 20 19:48 12.08.2022
657 Clouds 18 1016 56 10000 5.14 20 19:23 12.08.2022
658 Clouds 18 1017 59 10000 6.17 20 18:26 12.08.2022
659 Clouds 16 1019 67 10000 4.12 10 16:27 12.08.2022
660 Clear 13 1020 76 10000 4.63 20 15:19 12.08.2022
661 Clear 8 1020 93 10000 3.6 40 13:43 12.08.2022
662 Clear 7 1020 93 10000 4.12 30 12:32 12.08.2022
663 Clear 9 1020 81 10000 2.57 30 08:52 12.08.2022
664 Clear 9 1021 81 10000 2.06 30 07:46 12.08.2022
665 Clear 9 1021 81 10000 1.54 20 06:23 12.08.2022
666 Clear 12 1021 66 10000 3.6 30 00:32 12.08.2022
667 Clouds 14 1021 62 10000 3.6 10 23:59 11.08.2022
668 Clouds 14 1021 62 10000 3.6 10 23:25 11.08.2022
669 Clouds 17 1021 51 10000 6.69 320 21:53 11.08.2022
670 Clouds 17 1021 51 10000 6.69 320 21:28 11.08.2022
671 Clouds 16 1022 55 10000 6.17 360 20:31 11.08.2022
672 Clouds 16 1022 55 10000 6.17 360 20:31 11.08.2022
673 Clouds 16 1023 55 10000 5.14 360 19:33 11.08.2022
674 Clouds 16 1023 55 10000 8.75 360 18:57 11.08.2022
675 Clouds 15 1025 63 10000 5.14 10 17:22 11.08.2022
676 Clear 11 1025 82 10000 4.63 20 15:48 11.08.2022
677 Clear 9 1025 87 10000 4.63 30 14:46 11.08.2022
678 Clear 6 1024 93 10000 3.09 40 11:59 11.08.2022
679 Clear 8 1024 79 10000 3.13 12 09:22 11.08.2022
680 Clear 8 1025 77 10000 3.6 60 06:52 11.08.2022
681 Clear 11 1025 79 10000 3.6 80 02:49 11.08.2022
682 Clear 12 1025 83 10000 4.12 100 00:19 11.08.2022
683 Clear 12 1025 73 10000 5.14 110 21:56 10.08.2022
684 Clear 12 1025 72 10000 5.14 110 21:19 10.08.2022
685 Clear 12 1026 72 10000 5.14 130 20:42 10.08.2022
686 Clouds 12 1026 73 10000 3.6 120 18:53 10.08.2022
687 Clouds 11 1028 78 10000 4.12 110 17:28 10.08.2022
688 Mist 9 1029 87 9000 0.51 0 15:26 10.08.2022
689 Fog 2 1029 100 50 0.51 0 13:34 10.08.2022
690 Fog 1 1029 100 50 0 0 11:47 10.08.2022
691 Fog 4 1030 100 400 0 0 08:44 10.08.2022
692 Fog 5 1031 100 200 0 0 07:36 10.08.2022
693 Fog 5 1031 100 8000 0 0 05:46 10.08.2022
694 Clouds 10 1031 77 10000 3.58 119 02:44 10.08.2022
695 Clouds 11 1031 75 10000 4.02 125 23:33 09.08.2022
696 Clouds 11 1030 73 10000 5.14 140 22:48 09.08.2022
697 Clouds 12 1030 76 10000 5.14 140 21:34 09.08.2022
698 Clouds 12 1030 73 10000 5.14 130 19:33 09.08.2022
699 Clouds 12 1031 73 10000 5.14 140 17:59 09.08.2022
700 Clouds 12 1031 73 10000 5.14 120 17:26 09.08.2022
701 Clouds 12 1032 73 10000 7.72 110 16:40 09.08.2022
702 Clouds 12 1032 75 10000 5.66 110 15:31 09.08.2022
703 Clear 11 1030 84 10000 4.47 107 12:20 09.08.2022
704 Clear 11 1029 81 10000 3.6 120 09:22 09.08.2022
705 Clear 11 1029 82 10000 4.02 99 08:26 09.08.2022
706 Clouds 11 1030 81 10000 4.12 110 07:18 09.08.2022
707 Clouds 12 1029 79 10000 5.14 130 02:54 09.08.2022
708 Clouds 12 1027 77 10000 6.26 133 23:26 08.08.2022
709 Clear 12 1026 73 10000 6.26 134 22:53 08.08.2022
710 Clouds 12 1026 76 10000 6.69 140 21:48 08.08.2022
711 Clouds 12 1025 75 10000 7.15 125 20:52 08.08.2022
712 Clouds 12 1026 75 10000 7.15 123 19:50 08.08.2022
713 Clouds 12 1027 79 10000 6.69 140 18:19 08.08.2022
714 Clouds 11 1028 80 10000 5.81 126 16:34 08.08.2022
715 Clouds 11 1028 83 10000 6.26 126 15:38 08.08.2022
716 Clouds 10 1027 85 10000 5.81 140 12:50 08.08.2022
717 Clouds 10 1026 84 10000 5.36 149 11:48 08.08.2022
718 Clouds 10 1025 76 10000 5.36 120 09:36 08.08.2022
719 Clouds 10 1026 80 10000 6.26 113 05:37 08.08.2022
720 Clouds 10 1025 78 10000 6.26 127 02:24 08.08.2022
721 Clouds 9 1023 75 10000 6.71 134 22:25 07.08.2022
722 Clouds 9 1023 76 10000 5.66 120 21:38 07.08.2022
723 Clouds 9 1023 73 10000 6.71 133 20:25 07.08.2022
724 Clouds 9 1023 73 10000 6.69 130 19:54 07.08.2022
725 Clouds 9 1023 73 10000 6.69 150 19:33 07.08.2022
726 Clouds 10 1024 74 10000 7.15 132 18:22 07.08.2022
727 Clouds 10 1025 74 10000 6.71 117 16:54 07.08.2022
728 Clouds 10 1025 75 10000 5.66 130 16:28 07.08.2022
729 Clouds 10 1025 76 10000 6.26 144 15:19 07.08.2022
730 Clouds 8 1024 93 10000 4.63 130 13:22 07.08.2022
731 Clouds 9 1023 93 10000 4.12 130 10:59 07.08.2022
732 Clouds 9 1023 93 10000 4.12 130 10:33 07.08.2022
733 Clear 10 1023 81 10000 3.09 110 05:48 07.08.2022
734 Rain 10 1023 81 10000 4.12 130 03:19 07.08.2022
735 Clear 12 1022 50 10000 3.09 130 23:37 06.08.2022
736 Clear 13 1021 47 10000 3.6 120 22:20 06.08.2022
737 Clear 13 1021 62 10000 5.14 170 20:26 06.08.2022
738 Clear 15 1020 51 10000 3.6 160 19:41 06.08.2022
739 Clear 15 1020 51 10000 3.6 160 19:41 06.08.2022
740 Clear 15 1021 51 10000 3.09 140 18:25 06.08.2022
741 Clear 13 1022 67 10000 2.06 40 17:28 06.08.2022
742 Clear 6 1023 93 10000 3.6 10 14:35 06.08.2022
743 Mist 2 1022 93 6000 3.09 350 13:44 06.08.2022
744 Mist 5 1021 100 2000 1.54 10 11:24 06.08.2022
745 Fog 6 1020 100 50 0 0 09:51 06.08.2022
746 Fog 6 1020 100 50 0 0 08:32 06.08.2022
747 Fog 7 1020 100 500 0 0 03:51 06.08.2022
748 Clouds 9 1019 93 10000 1.54 230 23:34 05.08.2022
749 Clouds 11 1018 76 10000 3.09 220 22:22 05.08.2022
750 Clouds 12 1019 71 10000 5.14 260 19:33 05.08.2022
751 Clouds 12 1019 71 10000 4.12 270 18:44 05.08.2022
752 Clouds 12 1019 82 6000 4.63 280 17:54 05.08.2022
753 Mist 9 1019 100 2000 4.63 270 16:49 05.08.2022
754 Mist 9 1019 100 2000 4.63 270 16:49 05.08.2022
755 Fog 7 1018 100 100 2.57 310 15:22 05.08.2022
756 Fog 4 1018 100 300 2.57 340 14:19 05.08.2022
757 Fog 2 1018 100 10000 2.06 330 13:23 05.08.2022
758 Fog 3 1017 100 10000 2.06 340 12:28 05.08.2022
759 Fog 5 1017 100 10000 2.06 300 10:49 05.08.2022
760 Clouds 7 1016 93 10000 1.03 280 08:25 05.08.2022
761 Clouds 7 1016 87 10000 2.06 290 06:41 05.08.2022
762 Drizzle 9 1014 87 10000 6.17 210 00:34 05.08.2022
763 Clouds 9 1013 93 10000 7.2 210 22:31 04.08.2022
764 Clouds 10 1013 87 10000 7.2 200 21:27 04.08.2022
765 Clouds 10 1013 87 10000 7.72 200 20:43 04.08.2022
766 Clouds 10 1013 87 10000 8.75 200 19:46 04.08.2022
767 Clouds 10 1014 93 10000 7.72 190 18:37 04.08.2022
768 Clouds 10 1014 93 10000 7.72 190 18:18 04.08.2022
769 Clouds 11 1013 87 10000 6.69 170 14:23 04.08.2022
770 Clouds 11 1012 93 10000 7.2 180 12:57 04.08.2022
771 Clouds 11 1012 93 10000 6.17 180 11:18 04.08.2022
772 Clouds 10 1013 100 10000 6.17 180 07:54 04.08.2022
773 Clouds 11 1014 93 10000 4.63 180 06:40 04.08.2022
774 Clouds 11 1015 93 10000 3.6 160 02:33 04.08.2022
775 Fog 11 1014 100 600 5.66 160 23:45 03.08.2022
776 Fog 12 1014 94 500 4.12 170 22:55 03.08.2022
777 Fog 13 1014 94 800 3.6 170 20:50 03.08.2022
778 Mist 12 1014 100 1600 2.57 170 19:46 03.08.2022
779 Fog 12 1015 94 500 3.6 190 18:37 03.08.2022
780 Mist 13 1016 100 2000 1.03 0 16:26 03.08.2022
781 Fog 12 1015 100 500 2.06 150 15:45 03.08.2022
782 Fog 11 1015 100 50 2.06 60 12:44 03.08.2022
783 Clear 12 1015 94 10000 0.51 0 09:46 03.08.2022
784 Clear 13 1016 100 10000 1.54 120 04:51 03.08.2022
785 Clear 13 1016 100 10000 2.57 120 03:52 03.08.2022
786 Clear 13 1016 100 10000 2.06 120 02:25 03.08.2022
787 Clear 16 1015 82 10000 4.63 110 23:41 02.08.2022
788 Clouds 18 1015 72 10000 5.66 120 21:59 02.08.2022
789 Clouds 18 1015 72 10000 5.66 120 21:40 02.08.2022
790 Clouds 18 1016 72 10000 5.14 120 20:20 02.08.2022
791 Clouds 14 1019 88 10000 4.12 80 16:49 02.08.2022
792 Fog 11 1019 100 800 5.14 110 13:40 02.08.2022
793 Clouds 12 1019 94 10000 2.06 140 10:34 02.08.2022
794 Clouds 11 1019 93 10000 3.6 70 08:29 02.08.2022
795 Clouds 9 1019 100 10000 0 0 07:50 02.08.2022
796 Clear 11 1019 93 10000 1.54 80 04:56 02.08.2022
797 Clear 12 1019 87 10000 3.6 100 02:20 02.08.2022
798 Clear 13 1017 67 10000 4.12 110 23:23 01.08.2022
799 Clear 12 1017 73 10000 3.6 160 21:37 01.08.2022
800 Clear 12 1017 71 10000 2.57 30 19:45 01.08.2022
801 Clear 12 1017 74 10000 3.09 40 18:55 01.08.2022
802 Clear 12 1019 77 10000 3.09 30 16:56 01.08.2022
803 Clear 12 1019 76 10000 3.09 30 16:33 01.08.2022
804 Clear 13 1019 69 10000 3.09 40 15:44 01.08.2022
805 Clear 12 1019 73 10000 3.09 30 14:45 01.08.2022
806 Clear 10 1019 83 10000 2.24 342 13:32 01.08.2022
807 Clear 9 1018 76 10000 1.34 35 10:48 01.08.2022
808 Clear 10 1018 72 10000 0.89 9 08:55 01.08.2022
809 Clear 10 1019 75 10000 0.51 10 07:23 01.08.2022
810 Clear 12 1018 67 10000 4.12 50 04:32 01.08.2022
811 Clear 13 1018 76 10000 3.09 110 01:23 01.08.2022
812 Clear 13 1017 74 10000 2.57 60 22:47 31.07.2022
813 Clear 14 1017 73 10000 2.57 60 22:29 31.07.2022
814 Clear 14 1017 74 10000 5.14 80 20:39 31.07.2022
815 Clear 14 1018 68 10000 1.54 0 18:40 31.07.2022
816 Clear 13 1020 71 10000 1.54 0 17:29 31.07.2022
817 Clouds 12 1019 76 10000 1.34 59 14:43 31.07.2022
818 Clear 11 1020 76 10000 0.89 307 12:59 31.07.2022
819 Clear 11 1018 78 10000 0.45 213 11:39 31.07.2022
820 Clear 11 1017 69 10000 2.24 325 08:47 31.07.2022
821 Clouds 12 1018 75 6000 0.89 65 05:38 31.07.2022
822 Clear 13 1017 63 10000 0.89 67 02:29 31.07.2022
823 Clear 14 1016 59 10000 2.57 230 22:49 30.07.2022
824 Clear 15 1017 49 10000 2.57 240 21:52 30.07.2022
825 Clear 16 1017 50 10000 2.57 240 21:33 30.07.2022
826 Clear 16 1016 56 10000 3.6 290 20:38 30.07.2022
827 Clear 16 1016 56 10000 3.6 290 20:38 30.07.2022
828 Clear 18 1018 42 10000 3.09 320 19:50 30.07.2022
829 Clear 17 1018 48 10000 3.6 310 18:19 30.07.2022
830 Clear 15 1018 52 10000 3.09 310 16:40 30.07.2022
831 Clear 13 1018 54 10000 3.58 292 15:33 30.07.2022
832 Clear 11 1018 59 10000 3.58 288 14:23 30.07.2022
833 Clear 10 1017 62 10000 4.02 328 12:32 30.07.2022
834 Clear 10 1017 57 10000 4.47 322 11:53 30.07.2022
835 Clear 10 1016 58 10000 4.47 298 10:20 30.07.2022
836 Clear 10 1016 56 10000 4.47 329 09:32 30.07.2022
837 Rain 10 1017 53 10000 4.02 304 07:44 30.07.2022
838 Clear 12 1017 54 10000 2.06 360 02:33 30.07.2022
839 Clear 11 1016 57 10000 2.06 350 00:32 30.07.2022
840 Clear 13 1016 50 10000 4.12 270 21:38 29.07.2022
841 Clear 12 1015 67 10000 3.6 260 20:51 29.07.2022
842 Clear 12 1015 66 10000 4.63 290 19:47 29.07.2022
843 Clouds 10 1017 72 10000 4.12 250 17:39 29.07.2022
844 Clouds 10 1017 76 10000 3.6 230 14:51 29.07.2022
845 Clouds 10 1015 78 10000 4.63 240 12:55 29.07.2022
846 Clouds 10 1015 85 10000 7.2 200 09:34 29.07.2022
847 Clouds 10 1015 83 10000 5.14 230 08:41 29.07.2022
848 Clouds 12 1014 79 10000 7.72 220 06:40 29.07.2022
849 Clouds 12 1012 76 10000 6.17 220 01:46 29.07.2022
850 Clouds 10 1010 81 10000 7.2 240 21:54 28.07.2022
851 Clouds 10 1010 81 10000 7.2 230 20:54 28.07.2022
852 Clouds 10 1010 81 10000 7.2 230 20:21 28.07.2022
853 Clouds 10 1010 87 10000 7.72 230 19:40 28.07.2022
854 Drizzle 10 1011 87 10000 9.26 230 18:25 28.07.2022
855 Drizzle 10 1011 100 10000 8.23 240 17:42 28.07.2022
856 Mist 10 1011 100 2500 7.72 220 16:41 28.07.2022
857 Fog 11 1010 100 1000 5.14 220 14:50 28.07.2022
858 Mist 12 1009 100 1500 4.63 200 12:41 28.07.2022
859 Fog 13 1008 100 800 3.09 210 09:34 28.07.2022
860 Mist 13 1008 100 4000 5.14 160 05:45 28.07.2022
861 Mist 15 1008 100 3000 1.54 240 05:24 28.07.2022
862 Thunderstorm 15 1009 94 8000 7.2 110 00:29 28.07.2022
863 Thunderstorm 15 1010 94 6000 6.69 160 22:26 27.07.2022
864 Clear 17 1011 88 10000 4.63 110 20:20 27.07.2022
865 Rain 18 1012 82 10000 5.66 120 19:34 27.07.2022
866 Rain 15 1015 85 10000 5.14 70 16:54 27.07.2022
867 Clear 14 1015 90 10000 7.72 90 15:51 27.07.2022
868 Clouds 16 1015 86 10000 7.72 110 14:46 27.07.2022
869 Rain 17 1015 83 10000 8.49 59 14:27 27.07.2022
870 Thunderstorm 15 1016 91 8000 7.15 68 12:48 27.07.2022
871 Clouds 14 1017 92 10000 4.12 100 07:53 27.07.2022
872 Rain 14 1017 91 10000 4.63 130 06:18 27.07.2022
873 Drizzle 20 1016 88 8000 2.06 90 00:46 27.07.2022
874 Thunderstorm 19 1015 81 10000 2.57 30 22:24 26.07.2022
875 Clouds 21 1015 78 10000 3.09 30 21:19 26.07.2022
876 Clouds 22 1016 73 10000 4.63 30 19:40 26.07.2022
877 Clouds 21 1017 78 10000 5.14 20 18:41 26.07.2022
878 Clouds 21 1017 78 10000 5.14 20 17:57 26.07.2022
879 Clouds 14 1018 91 10000 5.14 50 15:50 26.07.2022
880 Rain 14 1018 91 10000 7.2 60 14:49 26.07.2022
881 Clouds 13 1017 91 5000 7.72 50 12:50 26.07.2022
882 Clouds 14 1016 88 10000 3.58 36 10:58 26.07.2022
883 Thunderstorm 16 1017 85 10000 3.6 30 08:43 26.07.2022
884 Clouds 15 1016 89 10000 4.63 60 05:30 26.07.2022
885 Mist 14 1017 95 10000 4.92 56 00:27 26.07.2022
886 Mist 14 1017 96 10000 6.17 50 22:51 25.07.2022
887 Rain 14 1017 96 10000 6.17 50 22:22 25.07.2022
888 Thunderstorm 14 1017 96 8000 5.14 50 21:38 25.07.2022
889 Rain 13 1018 96 1000 3.13 48 20:40 25.07.2022
890 Rain 12 1018 96 800 4.92 39 19:27 25.07.2022
891 Rain 12 1019 96 1500 5.36 104 18:18 25.07.2022
892 Mist 12 1019 95 1500 6.17 110 17:27 25.07.2022
893 Thunderstorm 12 1021 99 2000 7.2 110 14:32 25.07.2022
894 Fog 12 1019 94 600 6.17 130 11:50 25.07.2022
895 Clouds 12 1018 94 10000 4.02 133 09:18 25.07.2022
896 Clouds 12 1018 91 10000 3.13 82 03:23 25.07.2022
897 Fog 12 1016 92 800 6.69 120 23:54 24.07.2022
898 Mist 12 1016 93 1500 6.17 120 22:59 24.07.2022
899 Mist 12 1016 93 1500 8.05 113 22:29 24.07.2022
900 Mist 12 1015 92 2500 6.17 110 21:19 24.07.2022
901 Mist 12 1015 93 2500 6.17 120 20:50 24.07.2022
902 Mist 13 1015 100 2500 6.17 120 20:19 24.07.2022
903 Fog 12 1016 95 300 6.71 152 18:46 24.07.2022
904 Fog 12 1017 93 1000 2.57 90 16:29 24.07.2022
905 Fog 12 1016 94 8000 3.6 120 15:50 24.07.2022
906 Fog 13 1016 94 300 3.09 100 14:29 24.07.2022
907 Fog 13 1015 94 50 2.06 100 12:54 24.07.2022
908 Fog 13 1014 92 200 0 0 11:40 24.07.2022
909 Fog 13 1014 92 200 0 0 11:18 24.07.2022
910 Fog 13 1014 91 800 1.03 340 08:33 24.07.2022
911 Mist 13 1014 91 5000 2.06 360 07:52 24.07.2022
912 Clear 14 1014 85 10000 3.6 10 05:49 24.07.2022
913 Clear 17 1012 83 10000 3.6 40 01:27 24.07.2022
914 Clear 19 1011 75 10000 4.63 10 22:21 23.07.2022
915 Clouds 19 1012 75 10000 6.17 10 20:28 23.07.2022
916 Clouds 17 1012 81 10000 6.69 40 18:50 23.07.2022
917 Mist 12 1014 91 5000 5.14 60 17:29 23.07.2022
918 Mist 12 1014 92 1600 3.6 70 16:36 23.07.2022
919 Mist 12 1015 92 1200 3.6 80 15:32 23.07.2022
920 Mist 12 1015 92 1200 4.63 120 14:59 23.07.2022
921 Mist 12 1015 92 1200 4.63 100 14:30 23.07.2022
922 Mist 12 1015 91 1500 3.6 90 13:36 23.07.2022
923 Mist 11 1014 92 4000 4.12 130 11:18 23.07.2022
924 Fog 10 1015 92 600 2.57 100 10:22 23.07.2022
925 Fog 10 1015 91 1500 2.06 100 08:50 23.07.2022
926 Fog 12 1016 88 5000 1.34 72 03:40 23.07.2022
927 Clear 12 1015 88 10000 4.63 120 01:33 23.07.2022
928 Clear 12 1015 86 8000 4.12 130 23:19 22.07.2022
929 Clear 12 1014 82 10000 4.63 120 20:57 22.07.2022
930 Clouds 12 1014 82 10000 4.12 140 19:46 22.07.2022
931 Clear 12 1015 84 10000 2.24 109 18:28 22.07.2022
932 Clear 12 1015 84 10000 3.13 82 17:28 22.07.2022
933 Clouds 11 1016 85 7000 4.12 110 14:57 22.07.2022
934 Clear 10 1015 87 10000 2.24 82 11:49 22.07.2022
935 Clear 10 1014 86 10000 1.79 68 09:27 22.07.2022
936 Clear 10 1014 84 10000 3.13 60 08:43 22.07.2022
937 Clear 11 1015 84 10000 3.09 120 07:20 22.07.2022
938 Clear 11 1014 82 10000 3.6 110 03:43 22.07.2022
939 Clear 12 1014 80 10000 6.69 130 22:53 21.07.2022
940 Clear 12 1015 80 10000 5.66 130 21:34 21.07.2022
941 Clear 12 1013 77 10000 5.14 170 19:30 21.07.2022
942 Clear 13 1014 75 10000 5.66 170 18:28 21.07.2022
943 Clear 13 1014 75 10000 5.14 180 17:19 21.07.2022
944 Mist 14 1013 80 5000 5.66 230 15:39 21.07.2022
945 Mist 14 1012 83 2000 3.58 285 14:39 21.07.2022
946 Fog 14 1010 88 50 3.58 263 12:46 21.07.2022
947 Clouds 14 1010 85 7000 3.6 280 11:23 21.07.2022
948 Clear 14 1010 88 10000 2.57 320 09:42 21.07.2022
949 Clear 14 1010 88 10000 2.57 300 08:52 21.07.2022
950 Clear 14 1010 88 10000 3.6 320 07:50 21.07.2022
951 Clear 15 1009 79 10000 3.6 340 06:25 21.07.2022
952 Clear 17 1010 72 10000 2.68 22 01:42 21.07.2022
953 Clear 18 1010 59 10000 5.14 20 22:22 20.07.2022
954 Clear 18 1010 59 10000 5.14 20 22:22 20.07.2022
955 Clear 18 1010 57 10000 5.66 10 21:42 20.07.2022
956 Rain 18 1011 55 10000 5.14 20 20:39 20.07.2022
957 Clear 17 1012 56 10000 4.63 360 19:43 20.07.2022
958 Clear 17 1013 60 10000 7.72 10 18:52 20.07.2022
959 Rain 15 1014 62 10000 7.72 10 18:29 20.07.2022
960 Clear 12 1017 82 10000 7.2 10 16:46 20.07.2022
961 Clear 9 1018 87 10000 5.66 10 15:32 20.07.2022
962 Clear 7 1018 87 10000 6.17 30 14:32 20.07.2022
963 Fog 5 1018 100 10000 4.12 20 12:41 20.07.2022
964 Clear 6 1019 93 10000 2.57 30 10:28 20.07.2022
965 Clear 8 1022 81 10000 3.6 20 05:44 20.07.2022
966 Clear 11 1022 62 10000 3.09 60 00:54 20.07.2022
967 Clear 11 1022 62 10000 3.09 60 00:36 20.07.2022
968 Clear 14 1023 51 10000 4.63 20 22:34 19.07.2022
969 Clear 15 1023 44 10000 5.66 20 21:53 19.07.2022
970 Clear 15 1024 44 10000 4.12 40 20:49 19.07.2022
971 Clear 14 1025 47 10000 3.6 40 19:22 19.07.2022
972 Clear 14 1026 47 10000 4.63 40 18:35 19.07.2022
973 Clear 13 1027 62 10000 3.6 50 17:51 19.07.2022
974 Mist 8 1028 100 9000 2.57 50 15:26 19.07.2022
975 Fog 4 1027 100 50 2.57 80 12:44 19.07.2022
976 Fog 2 1027 100 50 0 0 11:32 19.07.2022
977 Fog 1 1027 100 50 0 0 09:51 19.07.2022
978 Fog 3 1027 100 50 0 0 08:46 19.07.2022
979 Fog 6 1027 100 50 0 0 07:19 19.07.2022
980 Fog 6 1026 100 500 0 0 06:27 19.07.2022
981 Fog 6 1026 100 900 0 0 05:18 19.07.2022
982 Mist 8 1025 93 4000 0 0 02:37 19.07.2022
983 Clear 10 1024 81 10000 2.06 270 23:52 18.07.2022
984 Clear 12 1023 69 10000 2.06 270 23:19 18.07.2022
985 Clear 12 1023 66 10000 4.12 260 22:26 18.07.2022
986 Clear 13 1022 63 10000 4.63 260 21:20 18.07.2022
987 Clear 13 1022 62 10000 6.17 280 20:22 18.07.2022
988 Clear 12 1022 64 10000 8.75 270 18:31 18.07.2022
989 Clear 10 1022 67 10000 5.66 330 16:34 18.07.2022
990 Clear 9 1023 70 10000 5.66 330 15:28 18.07.2022
991 Clear 7 1021 77 10000 5.14 350 13:32 18.07.2022
992 Clear 7 1020 78 10000 3.6 330 11:43 18.07.2022
993 Clear 7 1019 77 10000 5.66 350 09:55 18.07.2022
994 Clear 7 1019 77 10000 5.66 350 09:55 18.07.2022
995 Clear 7 1019 73 10000 4.63 350 07:59 18.07.2022
996 Clear 9 1020 68 10000 4.12 360 05:25 18.07.2022
997 Clear 12 1017 47 10000 4.63 320 22:57 17.07.2022
998 Clear 12 1017 47 10000 4.63 320 22:32 17.07.2022
999 Clear 13 1017 45 10000 6.69 320 21:40 17.07.2022
1000 Clear 12 1017 44 10000 7.72 290 20:46 17.07.2022
1001 Clear 12 1017 43 10000 8.23 310 19:50 17.07.2022
1002 Clear 12 1017 45 10000 8.23 310 19:24 17.07.2022
1003 Clear 10 1018 54 10000 10.29 310 17:55 17.07.2022
1004 Clear 10 1019 55 10000 10.29 310 17:36 17.07.2022
1005 Clouds 9 1019 69 10000 6.69 310 16:45 17.07.2022
1006 Clouds 9 1019 71 10000 6.69 310 16:22 17.07.2022
1007 Clear 8 1018 71 10000 3.09 340 13:58 17.07.2022
1008 Clear 8 1017 69 10000 2.57 310 12:56 17.07.2022
1009 Clouds 7 1016 66 10000 4.47 230 10:23 17.07.2022
1010 Clouds 8 1015 64 10000 7.2 240 07:55 17.07.2022
1011 Clouds 9 1011 72 10000 6.17 240 02:36 17.07.2022
1012 Drizzle 9 1009 77 10000 7.72 210 00:33 17.07.2022
1013 Drizzle 8 1008 89 2000 9.26 200 22:43 16.07.2022
1014 Drizzle 9 1007 89 4000 9.39 197 20:53 16.07.2022
1015 Drizzle 9 1007 88 1000 8.05 176 18:59 16.07.2022
1016 Drizzle 9 1008 89 1500 6.71 186 17:48 16.07.2022
1017 Drizzle 9 1008 90 1500 6.26 210 16:23 16.07.2022
1018 Drizzle 9 1007 89 8000 6.26 205 13:36 16.07.2022
1019 Drizzle 10 1007 86 7000 7.72 210 10:35 16.07.2022
1020 Clouds 10 1007 90 10000 6.69 210 09:29 16.07.2022
1021 Drizzle 10 1009 91 7000 5.66 220 08:42 16.07.2022
1022 Drizzle 10 1010 91 3000 2.68 222 07:41 16.07.2022
1023 Mist 10 1008 90 3000 5.66 210 03:39 16.07.2022
1024 Fog 10 1008 92 800 5.14 220 01:39 16.07.2022
1025 Mist 11 1006 93 600 4.63 190 23:21 15.07.2022
1026 Mist 11 1007 92 1500 3.09 140 22:37 15.07.2022
1027 Fog 11 1006 93 700 5.14 200 21:18 15.07.2022
1028 Mist 11 1006 92 2000 5.66 190 19:51 15.07.2022
1029 Mist 11 1007 91 10000 5.14 170 18:32 15.07.2022
1030 Clouds 12 1007 91 7000 5.14 100 17:25 15.07.2022
1031 Fog 12 1007 94 300 5.14 190 14:35 15.07.2022
1032 Fog 13 1007 93 100 3.09 210 12:43 15.07.2022
1033 Mist 12 1006 91 1500 2.06 50 10:53 15.07.2022
1034 Mist 13 1008 92 3000 0 0 08:42 15.07.2022
1035 Drizzle 12 1008 90 1000 0 0 05:55 15.07.2022
1036 Clouds 15 1007 80 8000 5.14 70 00:51 15.07.2022
1037 Clouds 15 1007 82 8000 5.14 70 23:35 14.07.2022
1038 Clouds 13 1007 86 10000 5.66 80 22:42 14.07.2022
1039 Clouds 13 1007 86 10000 4.12 80 21:43 14.07.2022
1040 Clouds 13 1007 86 10000 4.12 80 21:24 14.07.2022
1041 Rain 13 1008 85 8000 4.63 70 20:43 14.07.2022
1042 Rain 13 1007 84 10000 5.66 50 20:19 14.07.2022
1043 Clouds 15 1009 74 10000 7.72 60 18:42 14.07.2022
1044 Clear 12 1013 80 10000 6.69 60 16:22 14.07.2022
1045 Clear 12 1013 79 10000 6.69 70 15:29 14.07.2022
1046 Clear 10 1013 82 10000 4.12 90 13:53 14.07.2022
1047 Clear 9 1013 80 10000 4.63 80 12:48 14.07.2022
1048 Clear 10 1013 79 10000 3.13 61 11:43 14.07.2022
1049 Clear 10 1013 79 10000 3.58 39 11:22 14.07.2022
1050 Clear 9 1014 80 10000 3.09 100 09:49 14.07.2022
1051 Clear 9 1017 77 10000 3.58 62 06:54 14.07.2022
1052 Clear 11 1016 64 10000 3.13 44 01:24 14.07.2022
1053 Clear 11 1016 59 10000 4.12 50 00:53 14.07.2022
1054 Clear 13 1016 51 10000 4.63 30 22:33 13.07.2022
1055 Clear 14 1016 49 10000 5.14 10 21:56 13.07.2022
1056 Clear 14 1017 49 10000 5.14 10 20:53 13.07.2022
1057 Clear 13 1018 54 10000 5.66 10 19:30 13.07.2022
1058 Clear 12 1019 62 10000 7.2 350 17:51 13.07.2022
1059 Clear 10 1020 68 10000 6.69 10 16:43 13.07.2022
1060 Clear 8 1020 70 10000 6.17 360 15:24 13.07.2022
1061 Clear 5 1019 78 10000 5.14 30 12:56 13.07.2022
1062 Clear 5 1018 74 10000 3.09 30 10:46 13.07.2022
1063 Clear 5 1018 74 10000 3.13 30 10:24 13.07.2022
1064 Clear 5 1019 75 10000 1.79 21 09:25 13.07.2022
1065 Clear 7 1019 71 10000 3.6 10 06:46 13.07.2022
1066 Clear 8 1019 64 10000 2.06 20 02:38 13.07.2022
1067 Clear 8 1019 68 10000 2.57 290 23:52 12.07.2022
1068 Clear 8 1018 64 10000 3.6 290 22:18 12.07.2022
1069 Clouds 9 1018 63 10000 4.12 280 21:35 12.07.2022
1070 Clouds 8 1018 64 10000 4.12 280 20:42 12.07.2022
1071 Clouds 8 1018 64 10000 3.6 260 19:37 12.07.2022
1072 Clouds 8 1019 69 10000 5.14 230 17:55 12.07.2022
1073 Clouds 8 1019 73 10000 6.17 220 16:20 12.07.2022
1074 Clouds 8 1019 67 10000 5.14 220 14:31 12.07.2022
1075 Clouds 8 1018 67 10000 6.17 230 13:21 12.07.2022
1076 Clouds 8 1016 69 10000 7.72 220 11:42 12.07.2022
1077 Rain 8 1015 70 10000 6.69 220 10:18 12.07.2022
1078 Clouds 8 1015 71 10000 7.72 220 08:38 12.07.2022
1079 Clouds 8 1015 73 10000 6.71 186 07:38 12.07.2022
1080 Drizzle 8 1014 83 10000 6.71 186 05:44 12.07.2022
1081 Clouds 9 1013 78 10000 7.2 200 03:50 12.07.2022
1082 Clouds 10 1011 79 10000 8.75 180 23:43 11.07.2022
1083 Clouds 10 1011 79 10000 8.23 190 22:37 11.07.2022
1084 Rain 10 1009 80 10000 8.49 194 20:54 11.07.2022
1085 Rain 10 1009 78 10000 8.94 181 20:29 11.07.2022
1086 Rain 10 1008 85 8000 8.05 176 18:39 11.07.2022
1087 Rain 10 1009 85 8000 6.69 160 17:57 11.07.2022
1088 Rain 11 1010 82 10000 6.17 140 16:26 11.07.2022
1089 Clouds 11 1010 84 10000 7.6 205 14:58 11.07.2022
1090 Rain 11 1008 84 10000 6.17 150 12:38 11.07.2022
1091 Thunderstorm 11 1009 87 8000 4.12 190 10:56 11.07.2022
1092 Thunderstorm 11 1007 87 8000 7.72 200 09:54 11.07.2022
1093 Thunderstorm 12 1006 88 10000 7.72 200 09:21 11.07.2022
1094 Clouds 12 1007 87 10000 4.47 176 07:52 11.07.2022
1095 Clouds 12 1006 87 8000 4.12 180 00:54 11.07.2022
1096 Clouds 13 1005 89 8000 4.12 150 23:53 10.07.2022
1097 Clouds 13 1004 86 10000 6.69 210 22:37 10.07.2022
1098 Clouds 18 1002 71 10000 5.66 310 20:55 10.07.2022
1099 Clouds 19 1002 67 10000 5.66 310 20:24 10.07.2022
1100 Clear 25 1003 57 10000 6.17 320 19:28 10.07.2022
1101 Clouds 24 1004 60 10000 9.26 350 17:59 10.07.2022
1102 Clear 23 1004 60 10000 7.72 360 16:59 10.07.2022
1103 Clear 23 1004 60 10000 7.72 360 16:20 10.07.2022
1104 Clouds 19 1004 77 10000 7.72 10 14:44 10.07.2022
1105 Clouds 19 1004 77 10000 7.72 10 13:18 10.07.2022
1106 Clear 19 1004 72 10000 5.66 30 11:39 10.07.2022
1107 Clear 18 1005 77 10000 5.66 20 09:45 10.07.2022
1108 Clear 18 1005 77 10000 5.14 10 08:43 10.07.2022
1109 Clear 19 1006 77 10000 8.23 20 06:39 10.07.2022
1110 Clear 19 1006 77 10000 6.17 30 23:47 09.07.2022
1111 Clear 19 1006 77 10000 7.2 20 22:26 09.07.2022
1112 Clear 20 1007 73 10000 8.75 10 21:41 09.07.2022
1113 Clouds 19 1009 77 10000 8.75 30 19:44 09.07.2022
1114 Clouds 19 1009 77 10000 8.75 30 19:44 09.07.2022
1115 Clouds 17 1010 82 10000 8.23 20 18:26 09.07.2022
1116 Clouds 17 1010 82 10000 8.23 20 18:26 09.07.2022
1117 Clouds 17 1012 77 10000 8.23 20 17:32 09.07.2022
1118 Clouds 15 1013 88 10000 7.72 30 16:34 09.07.2022
1119 Clear 14 1013 88 10000 6.17 30 15:39 09.07.2022
1120 Clouds 13 1014 94 10000 5.66 30 14:23 09.07.2022
1121 Clouds 12 1013 94 10000 6.69 40 13:48 09.07.2022
1122 Clouds 12 1013 94 10000 5.14 40 12:22 09.07.2022
1123 Clouds 13 1013 89 10000 4.12 60 10:27 09.07.2022
1124 Clouds 13 1014 89 10000 4.12 90 09:57 09.07.2022
1125 Thunderstorm 11 1016 85 10000 5.36 51 07:44 09.07.2022
1126 Thunderstorm 12 1020 49 10000 8.75 60 04:49 09.07.2022
1127 Rain 11 1019 67 10000 6.71 60 00:38 09.07.2022
1128 Clear 11 1020 69 10000 5.81 70 22:41 08.07.2022
1129 Clear 11 1020 64 10000 6.17 100 21:27 08.07.2022
1130 Clear 11 1020 65 10000 6.17 100 20:40 08.07.2022
1131 Clear 11 1021 61 10000 5.66 100 19:48 08.07.2022
1132 Clear 12 1023 41 10000 6.26 55 17:57 08.07.2022
1133 Clear 10 1023 54 10000 4.12 80 16:37 08.07.2022
1134 Fog 8 1024 67 10000 2.57 50 14:51 08.07.2022
1135 Clear 6 1024 78 10000 2.06 10 12:42 08.07.2022
1136 Clear 8 1023 69 10000 1.54 10 11:25 08.07.2022
1137 Clear 8 1023 67 10000 2.06 350 10:26 08.07.2022
1138 Clear 8 1023 65 10000 1.34 311 08:24 08.07.2022
1139 Clear 8 1023 69 10000 2.24 318 06:47 08.07.2022
1140 Clear 9 1020 66 10000 2.24 316 01:19 08.07.2022
1141 Clear 10 1018 58 10000 6.69 280 22:57 07.07.2022
1142 Clear 10 1018 55 10000 6.69 280 22:27 07.07.2022
1143 Clear 11 1017 58 10000 7.2 270 19:53 07.07.2022
1144 Clear 11 1017 62 10000 5.66 260 18:18 07.07.2022
1145 Clear 10 1016 66 10000 6.69 260 16:43 07.07.2022
1146 Clear 9 1014 71 10000 7.2 250 14:32 07.07.2022
1147 Clear 9 1012 87 10000 5.14 260 12:53 07.07.2022
1148 Clear 9 1012 87 10000 5.14 260 12:23 07.07.2022
1149 Clouds 10 1010 93 10000 4.12 260 11:35 07.07.2022
1150 Clouds 11 1010 93 10000 5.14 250 10:47 07.07.2022
1151 Clouds 11 1010 93 10000 5.14 250 10:29 07.07.2022
1152 Clouds 11 1008 100 10000 5.66 250 09:52 07.07.2022
1153 Drizzle 12 1005 88 8000 8.23 270 06:32 07.07.2022
1154 Clouds 15 1003 88 10000 2.24 27 00:31 07.07.2022
1155 Clouds 15 1004 86 10000 2.68 42 23:36 06.07.2022
1156 Clouds 15 1004 86 10000 2.24 44 23:18 06.07.2022
1157 Clouds 15 1004 86 10000 4.63 40 22:52 06.07.2022
1158 Rain 15 1004 86 10000 4.63 40 22:33 06.07.2022
1159 Rain 15 1004 86 10000 4.63 40 22:33 06.07.2022
1160 Clouds 12 1005 87 10000 4.63 40 20:30 06.07.2022
1161 Clouds 12 1005 87 10000 4.63 40 20:30 06.07.2022
1162 Clouds 12 1006 87 10000 5.14 40 19:32 06.07.2022
1163 Rain 12 1010 85 10000 6.69 50 17:22 06.07.2022
1164 Clouds 13 1012 79 10000 6.17 50 15:58 06.07.2022
1165 Drizzle 12 1014 85 10000 4.63 50 12:57 06.07.2022
1166 Drizzle 11 1014 86 10000 4.63 50 12:28 06.07.2022
1167 Clouds 11 1014 85 10000 3.58 34 11:44 06.07.2022
1168 Clouds 10 1015 84 10000 2.24 34 09:50 06.07.2022
1169 Clouds 9 1016 85 10000 3.6 60 07:44 06.07.2022
1170 Clear 9 1016 83 10000 3.6 80 06:49 06.07.2022
1171 Mist 10 1018 93 1500 4.63 120 00:38 06.07.2022
1172 Fog 13 1017 76 10000 3.6 120 22:43 05.07.2022
1173 Clouds 14 1017 77 10000 3.09 160 20:49 05.07.2022
1174 Clouds 14 1017 77 10000 3.09 160 20:31 05.07.2022
1175 Clouds 14 1017 77 10000 3.09 180 19:38 05.07.2022
1176 Clouds 13 1018 88 8000 2.06 60 17:51 05.07.2022
1177 Clouds 13 1018 88 8000 2.06 60 17:25 05.07.2022
1178 Mist 12 1018 94 3000 2.57 160 16:32 05.07.2022
1179 Fog 9 1018 100 500 0.51 0 14:54 05.07.2022
1180 Fog 6 1017 100 200 1.54 30 13:36 05.07.2022
1181 Fog 8 1017 100 10000 3.09 180 12:26 05.07.2022
1182 Clouds 9 1016 100 10000 2.57 160 10:46 05.07.2022
1183 Clouds 10 1017 100 10000 3.09 110 09:58 05.07.2022
1184 Clouds 10 1017 100 10000 4.63 130 08:23 05.07.2022
1185 Drizzle 11 1016 100 1000 5.66 160 06:59 05.07.2022
1186 Fog 11 1015 100 50 2.06 260 04:37 05.07.2022
1187 Fog 12 1014 92 500 0 0 01:33 05.07.2022
1188 Drizzle 11 1014 91 100 1.54 210 23:38 04.07.2022
1189 Fog 11 1013 92 200 1.54 190 22:57 04.07.2022
1190 Drizzle 12 1013 92 200 1.03 0 22:19 04.07.2022
1191 Fog 12 1013 100 800 2.06 170 20:57 04.07.2022
1192 Drizzle 13 1013 100 1200 2.06 150 20:36 04.07.2022
1193 Drizzle 13 1013 94 1500 2.06 150 19:57 04.07.2022
1194 Drizzle 13 1013 94 1500 0.51 0 19:37 04.07.2022
1195 Clouds 13 1015 88 8000 2.57 80 18:52 04.07.2022
1196 Clouds 11 1017 87 10000 3.6 70 16:54 04.07.2022
1197 Clouds 11 1016 82 10000 6.17 90 15:35 04.07.2022
1198 Clouds 10 1017 81 10000 4.12 100 14:19 04.07.2022
1199 Clear 9 1017 87 10000 5.14 100 12:55 04.07.2022
1200 Clear 9 1019 76 10000 2.57 110 10:57 04.07.2022
1201 Clear 9 1019 76 10000 2.57 110 10:27 04.07.2022
1202 Clear 7 1019 76 10000 3.09 100 09:21 04.07.2022
1203 Rain 7 1021 81 10000 4.63 60 06:27 04.07.2022
1204 Clear 9 1022 87 10000 3.6 110 01:49 04.07.2022
1205 Clear 10 1022 71 10000 4.12 120 23:39 03.07.2022
1206 Clear 13 1022 44 10000 5.14 120 22:29 03.07.2022
1207 Clear 14 1022 44 10000 3.09 130 20:45 03.07.2022
1208 Clear 13 1023 44 10000 2.57 90 19:52 03.07.2022
1209 Clear 13 1023 44 10000 2.57 90 19:24 03.07.2022
1210 Clear 11 1023 62 10000 4.63 50 18:27 03.07.2022
1211 Clear 10 1024 66 10000 3.6 30 17:38 03.07.2022
1212 Clear 4 1024 93 10000 3.6 20 15:27 03.07.2022
1213 Clear 3 1023 93 10000 3.09 20 14:53 03.07.2022
1214 Fog 1 1022 93 10000 2.06 30 13:50 03.07.2022
1215 Fog 2 1022 93 10000 2.57 10 12:44 03.07.2022
1216 Fog 2 1022 93 10000 2.57 10 12:18 03.07.2022
1217 Fog 1 1022 100 800 1.54 350 10:54 03.07.2022
1218 Fog 1 1022 100 800 1.54 350 10:35 03.07.2022
1219 Fog 3 1021 100 800 1.03 0 07:38 03.07.2022
1220 Fog 4 1020 100 3000 2.06 350 06:34 03.07.2022
1221 Clear 7 1017 93 10000 1.54 280 00:38 03.07.2022
1222 Clear 8 1017 87 10000 2.06 260 23:36 02.07.2022
1223 Clear 10 1016 76 10000 3.6 280 22:31 02.07.2022
1224 Clouds 11 1015 71 10000 5.14 240 20:28 02.07.2022
1225 Clouds 11 1015 71 10000 5.66 240 19:49 02.07.2022
1226 Clouds 11 1014 71 10000 5.66 230 18:24 02.07.2022
1227 Clouds 11 1014 76 10000 5.66 240 17:38 02.07.2022
1228 Clouds 10 1013 87 10000 4.63 250 15:56 02.07.2022
1229 Mist 8 1011 100 1000 4.12 280 13:35 02.07.2022
1230 Clouds 9 1009 100 10000 4.63 270 11:48 02.07.2022
1231 Clear 9 1008 100 10000 3.09 280 10:50 02.07.2022
1232 Clear 9 1008 100 10000 3.09 280 10:21 02.07.2022
1233 Clear 9 1008 100 10000 2.57 290 08:37 02.07.2022
1234 Clear 9 1008 100 10000 2.57 290 08:19 02.07.2022
1235 Rain 10 1008 100 7000 2.57 20 02:59 02.07.2022
1236 Rain 9 1007 100 3000 5.14 40 00:28 02.07.2022
1237 Rain 10 1007 87 3000 5.14 60 23:21 01.07.2022
1238 Rain 11 1007 76 2000 6.17 50 22:33 01.07.2022
1239 Rain 13 1008 62 10000 5.14 50 21:38 01.07.2022
1240 Clouds 13 1008 62 10000 6.69 40 20:58 01.07.2022
1241 Clear 13 1009 54 10000 7.2 60 20:32 01.07.2022
1242 Clear 13 1009 44 10000 9.26 40 19:36 01.07.2022
1243 Clear 10 1012 60 10000 8.23 60 16:42 01.07.2022
1244 Clear 6 1015 65 10000 6.69 60 14:32 01.07.2022
1245 Clear 5 1016 60 10000 6.69 40 13:51 01.07.2022
1246 Clear 3 1016 60 10000 2.57 50 11:22 01.07.2022
1247 Clear 4 1016 60 10000 3.6 50 10:19 01.07.2022
1248 Clear 6 1018 56 10000 3.09 60 07:32 01.07.2022
1249 Mist 7 1020 70 5000 0 0 02:43 01.07.2022
1250 Clear 9 1019 81 10000 0 0 00:21 01.07.2022
1251 Clear 12 1018 47 10000 2.57 180 22:52 30.06.2022
1252 Clear 12 1018 47 10000 2.57 180 22:32 30.06.2022
1253 Clear 12 1018 47 10000 2.57 180 22:32 30.06.2022
1254 Clear 12 1018 47 10000 2.57 180 22:32 30.06.2022
1255 Clear 12 1018 47 10000 3.09 200 21:54 30.06.2022
1256 Clear 13 1019 50 10000 3.6 210 20:53 30.06.2022
1257 Clear 13 1018 50 10000 3.6 190 20:21 30.06.2022
1258 Clear 13 1019 58 10000 5.66 200 19:48 30.06.2022
1259 Clear 13 1019 58 10000 5.66 200 18:56 30.06.2022
1260 Clear 15 1018 41 10000 3.6 200 18:34 30.06.2022
1261 Clear 14 1019 58 10000 4.12 190 17:36 30.06.2022
1262 Clear 13 1019 71 10000 4.63 190 16:22 30.06.2022
1263 Clear 7 1017 93 10000 2.57 300 14:20 30.06.2022
1264 Clear 6 1017 93 10000 3.09 280 13:29 30.06.2022
1265 Clear 5 1015 100 10000 2.57 320 12:34 30.06.2022
1266 Clear 7 1014 93 10000 3.09 350 11:21 30.06.2022
1267 Clear 9 1015 87 10000 3.09 310 09:52 30.06.2022
1268 Clear 9 1015 87 10000 3.09 310 09:29 30.06.2022
1269 Clear 9 1014 87 10000 3.09 330 07:41 30.06.2022
1270 Clear 11 1014 76 10000 3.6 340 05:46 30.06.2022
1271 Clear 13 1012 58 10000 5.14 340 00:27 30.06.2022
1272 Clear 17 1012 45 10000 5.14 330 22:58 29.06.2022
1273 Clear 17 1012 45 10000 5.14 330 22:37 29.06.2022
1274 Clear 18 1012 42 10000 6.17 320 21:31 29.06.2022
1275 Clear 18 1013 42 10000 7.2 320 20:33 29.06.2022
1276 Clear 18 1013 45 10000 6.69 320 19:36 29.06.2022
1277 Clear 16 1015 67 10000 9.77 300 17:42 29.06.2022
1278 Clear 12 1016 71 10000 5.14 300 16:35 29.06.2022
1279 Clear 6 1016 87 10000 3.09 340 14:50 29.06.2022
1280 Clear 4 1015 93 10000 2.57 350 12:39 29.06.2022
1281 Clear 4 1015 100 10000 2.57 360 10:37 29.06.2022
1282 Clear 5 1015 93 10000 2.06 340 09:32 29.06.2022
1283 Clear 6 1016 100 10000 2.06 340 07:36 29.06.2022
1284 Fog 5 1016 100 800 2.57 310 04:50 29.06.2022
1285 Clear 8 1015 93 10000 2.06 280 00:56 29.06.2022
1286 Clear 8 1015 93 10000 2.06 280 00:35 29.06.2022
1287 Clear 10 1015 87 10000 2.06 290 22:53 28.06.2022
1288 Clear 10 1015 87 10000 2.06 290 22:23 28.06.2022
1289 Clear 11 1015 76 10000 2.57 280 21:53 28.06.2022
1290 Clear 11 1015 76 10000 2.57 280 21:31 28.06.2022
1291 Clouds 11 1015 82 10000 3.09 250 20:34 28.06.2022
1292 Clouds 11 1015 76 10000 3.6 260 19:33 28.06.2022
1293 Clouds 11 1015 76 10000 3.6 260 19:33 28.06.2022
1294 Rain 12 1016 76 10000 3.6 260 18:45 28.06.2022
1295 Rain 12 1016 76 10000 3.6 260 18:45 28.06.2022
1296 Rain 10 1017 93 10000 3.09 250 17:39 28.06.2022
1297 Clouds 10 1017 93 8000 3.09 250 15:57 28.06.2022
1298 Mist 9 1016 93 8000 2.06 270 15:36 28.06.2022
1299 Mist 8 1016 93 5000 1.54 290 14:20 28.06.2022
1300 Mist 7 1016 100 5000 1.54 330 13:51 28.06.2022
1301 Fog 7 1017 100 1000 2.57 310 12:55 28.06.2022
1302 Rain 7 1016 100 7000 2.06 20 11:18 28.06.2022
1303 Fog 7 1016 100 7000 1.54 320 09:28 28.06.2022
1304 Fog 7 1016 100 4000 1.54 250 08:43 28.06.2022
1305 Mist 7 1017 100 5000 2.06 340 07:42 28.06.2022
1306 Mist 8 1017 100 4000 1.54 320 06:20 28.06.2022
1307 Rain 9 1015 87 10000 1.03 0 00:56 28.06.2022
1308 Clear 9 1015 93 10000 2.06 330 23:37 27.06.2022
1309 Clear 10 1015 87 10000 2.06 310 22:52 27.06.2022
1310 Rain 10 1015 87 10000 2.06 290 21:37 27.06.2022
1311 Rain 10 1016 87 10000 2.57 330 20:52 27.06.2022
1312 Rain 10 1016 87 10000 3.09 320 19:31 27.06.2022
1313 Clear 10 1017 87 10000 2.06 320 18:25 27.06.2022
1314 Rain 9 1018 87 10000 3.6 10 16:20 27.06.2022
1315 Rain 9 1019 87 10000 2.57 360 15:22 27.06.2022
1316 Rain 8 1018 93 8000 3.09 30 13:36 27.06.2022
1317 Rain 8 1018 93 8000 3.09 30 12:56 27.06.2022
1318 Clear 8 1018 93 10000 2.06 20 10:34 27.06.2022
1319 Rain 8 1019 93 10000 2.06 20 09:18 27.06.2022
1320 Rain 8 1020 87 10000 2.57 30 08:29 27.06.2022
1321 Rain 8 1021 81 10000 2.06 80 06:38 27.06.2022
1322 Rain 8 1022 76 10000 2.06 90 03:24 27.06.2022
1323 Rain 8 1024 71 9000 2.57 100 23:56 26.06.2022
1324 Mist 9 1023 66 5000 2.57 100 21:59 26.06.2022
1325 Rain 9 1023 66 5000 4.12 110 20:44 26.06.2022
1326 Mist 9 1024 75 5000 3.09 110 19:40 26.06.2022
1327 Mist 9 1025 78 4000 1.79 203 18:31 26.06.2022
1328 Mist 9 1027 69 3500 1.03 0 16:45 26.06.2022
1329 Fog 8 1026 78 800 1.34 342 14:42 26.06.2022
1330 Fog 8 1026 77 800 2.06 90 13:38 26.06.2022
1331 Fog 8 1026 77 800 2.06 90 13:18 26.06.2022
1332 Clouds 8 1026 73 10000 3.13 108 11:26 26.06.2022
1333 Mist 8 1027 75 2000 2.68 142 10:26 26.06.2022
1334 Mist 8 1028 75 2000 0.89 176 09:22 26.06.2022
1335 Mist 8 1029 73 2500 1.79 171 07:44 26.06.2022
1336 Clouds 9 1030 70 10000 1.34 205 01:55 26.06.2022
1337 Clouds 9 1030 75 10000 1.54 210 00:21 26.06.2022
1338 Clouds 9 1030 74 10000 2.06 200 23:49 25.06.2022
1339 Clouds 9 1030 74 10000 2.24 202 23:20 25.06.2022
1340 Clouds 9 1029 74 10000 4.12 180 22:27 25.06.2022
1341 Rain 9 1029 74 10000 5.14 200 21:40 25.06.2022
1342 Clouds 9 1029 74 10000 5.14 200 21:18 25.06.2022
1343 Clouds 9 1030 75 10000 5.14 200 20:27 25.06.2022
1344 Clouds 10 1030 74 10000 5.14 210 19:21 25.06.2022
1345 Clouds 10 1031 76 10000 3.6 210 17:57 25.06.2022
1346 Rain 10 1031 76 10000 3.6 210 17:22 25.06.2022
1347 Clouds 9 1031 80 10000 3.09 210 15:36 25.06.2022
1348 Clouds 9 1031 81 10000 2.68 204 13:34 25.06.2022
1349 Rain 9 1030 80 10000 3.58 201 12:38 25.06.2022
1350 Clouds 9 1029 75 10000 4.47 186 10:35 25.06.2022
1351 Clouds 9 1029 75 10000 4.02 192 08:59 25.06.2022
1352 Clouds 9 1029 75 10000 4.92 186 08:37 25.06.2022
1353 Clouds 9 1029 77 10000 4.02 186 08:18 25.06.2022
1354 Clouds 9 1029 75 10000 4.92 176 03:34 25.06.2022
1355 Clouds 9 1027 74 10000 4.02 186 00:35 25.06.2022
1356 Clouds 9 1026 75 10000 4.63 170 22:54 24.06.2022
1357 Clouds 10 1025 76 10000 4.63 180 21:42 24.06.2022
1358 Clouds 11 1024 76 10000 4.12 150 20:48 24.06.2022
1359 Clouds 11 1024 76 10000 4.12 150 20:19 24.06.2022
1360 Clouds 10 1024 81 10000 4.12 140 19:21 24.06.2022
1361 Clouds 10 1024 81 10000 4.12 110 18:49 24.06.2022
1362 Clouds 10 1024 81 10000 4.12 110 18:30 24.06.2022
1363 Clouds 10 1024 81 10000 4.63 120 17:20 24.06.2022
1364 Drizzle 9 1024 93 10000 4.63 120 15:47 24.06.2022
1365 Drizzle 9 1024 87 10000 4.12 140 14:28 24.06.2022
1366 Clouds 9 1023 87 10000 3.6 150 13:55 24.06.2022
1367 Clouds 9 1022 93 10000 3.09 150 11:44 24.06.2022
1368 Clouds 9 1022 93 10000 3.09 150 11:18 24.06.2022
1369 Rain 10 1022 76 10000 2.57 150 09:55 24.06.2022
1370 Clouds 10 1022 76 10000 2.57 150 09:29 24.06.2022
1371 Clouds 10 1022 76 10000 2.06 130 08:52 24.06.2022
1372 Clouds 10 1022 76 10000 2.57 140 06:48 24.06.2022
1373 Clouds 10 1022 76 10000 2.57 140 06:30 24.06.2022
1374 Clouds 10 1021 76 10000 3.6 130 05:52 24.06.2022
1375 Clouds 10 1021 76 10000 3.6 140 01:28 24.06.2022
1376 Clouds 9 1020 81 10000 4.12 170 22:45 23.06.2022
1377 Clouds 9 1020 81 10000 4.12 170 22:18 23.06.2022
1378 Clouds 10 1020 81 10000 4.12 170 20:54 23.06.2022
1379 Clouds 10 1020 81 10000 4.12 170 20:32 23.06.2022
1380 Clouds 9 1021 87 10000 5.66 170 18:49 23.06.2022
1381 Clouds 9 1021 87 10000 6.17 160 17:50 23.06.2022
1382 Drizzle 8 1022 93 2000 5.66 160 16:42 23.06.2022
1383 Drizzle 8 1022 93 2000 5.14 170 15:43 23.06.2022
1384 Drizzle 8 1022 93 2000 4.63 170 15:23 23.06.2022
1385 Mist 7 1020 93 9000 3.09 150 12:43 23.06.2022
1386 Drizzle 8 1020 93 5000 2.06 160 11:20 23.06.2022
1387 Rain 8 1020 87 10000 2.57 150 09:46 23.06.2022
1388 Rain 8 1020 87 10000 3.6 150 08:18 23.06.2022
1389 Rain 9 1020 71 10000 7.2 150 02:19 23.06.2022
1390 Clouds 8 1019 76 10000 7.2 160 00:25 23.06.2022
1391 Clouds 8 1018 76 10000 6.17 160 23:27 22.06.2022
1392 Clouds 9 1018 66 10000 6.69 160 22:24 22.06.2022
1393 Clouds 9 1019 61 10000 6.17 130 20:57 22.06.2022
1394 Clouds 9 1019 61 10000 6.17 130 20:21 22.06.2022
1395 Clouds 9 1019 61 10000 6.69 140 19:48 22.06.2022
1396 Clouds 9 1019 66 10000 6.69 140 18:21 22.06.2022
1397 Clouds 9 1020 61 10000 6.69 150 17:24 22.06.2022
1398 Clouds 9 1020 61 10000 7.2 130 16:18 22.06.2022
1399 Clouds 8 1020 66 10000 6.17 150 15:25 22.06.2022
1400 Clouds 7 1020 70 10000 6.17 150 13:52 22.06.2022
1401 Clouds 7 1020 70 10000 6.17 150 13:26 22.06.2022
1402 Clear 7 1020 70 10000 5.66 150 12:56 22.06.2022
1403 Clouds 8 1020 61 10000 6.17 160 11:47 22.06.2022
1404 Clouds 8 1019 71 10000 7.2 160 10:54 22.06.2022
1405 Clouds 9 1019 71 10000 8.23 160 09:54 22.06.2022
1406 Clouds 9 1021 70 10000 7.87 150 07:56 22.06.2022
1407 Clouds 9 1019 71 10000 8.75 160 03:30 22.06.2022
1408 Clouds 10 1017 71 10000 6.69 170 01:22 22.06.2022
1409 Clouds 11 1015 87 10000 8.23 170 23:41 21.06.2022
1410 Clouds 12 1015 82 10000 7.2 140 21:32 21.06.2022
1411 Clouds 13 1014 76 10000 9.26 150 19:47 21.06.2022
1412 Clouds 13 1014 71 10000 8.75 150 18:32 21.06.2022
1413 Clouds 12 1014 82 10000 7.72 160 17:25 21.06.2022
1414 Fog 7 1014 93 10000 2.57 130 13:33 21.06.2022
1415 Clear 10 1013 84 10000 2.24 126 11:31 21.06.2022
1416 Clear 8 1015 81 10000 1.03 180 09:48 21.06.2022
1417 Clear 9 1015 71 10000 1.03 220 08:37 21.06.2022
1418 Clear 9 1015 68 10000 1.79 53 06:35 21.06.2022
1419 Mist 11 1016 88 4000 3.6 100 00:44 21.06.2022
1420 Mist 11 1016 84 5000 4.63 110 23:18 20.06.2022
1421 Clear 11 1015 74 10000 5.14 120 21:52 20.06.2022
1422 Clear 11 1015 71 10000 3.6 20 20:47 20.06.2022
1423 Clear 11 1016 69 10000 2.68 55 19:39 20.06.2022
1424 Clear 11 1017 71 10000 2.57 30 18:45 20.06.2022
1425 Clear 12 1017 68 10000 2.57 30 17:52 20.06.2022
1426 Clear 12 1018 60 10000 2.57 30 17:32 20.06.2022
1427 Clouds 9 1019 65 8000 2.06 40 15:56 20.06.2022
1428 Clear 7 1018 74 10000 2.06 30 12:54 20.06.2022
1429 Clear 8 1018 74 10000 1.03 0 10:58 20.06.2022
1430 Clouds 9 1018 77 8000 0.51 0 09:41 20.06.2022
1431 Clouds 9 1018 78 7000 0.51 0 08:44 20.06.2022
1432 Mist 9 1019 77 4000 1.03 0 06:37 20.06.2022
1433 Clear 11 1018 66 10000 1.54 240 02:56 20.06.2022
1434 Clear 13 1017 53 10000 2.06 310 00:32 20.06.2022
1435 Clear 14 1016 47 10000 3.09 290 23:18 19.06.2022
1436 Clear 15 1015 44 10000 7.2 300 21:59 19.06.2022
1437 Clear 14 1015 45 10000 7.2 300 21:40 19.06.2022
1438 Clear 15 1015 36 10000 6.17 310 20:44 19.06.2022
1439 Clear 16 1016 36 10000 7.72 320 19:48 19.06.2022
1440 Clear 16 1015 35 10000 7.72 320 19:20 19.06.2022
1441 Clear 16 1016 34 10000 8.75 300 18:30 19.06.2022
1442 Clear 15 1017 36 10000 7.72 310 17:34 19.06.2022
1443 Clear 13 1017 46 10000 6.69 330 16:38 19.06.2022
1444 Clear 11 1017 50 10000 5.14 350 15:44 19.06.2022
1445 Clear 10 1017 50 10000 5.14 350 15:25 19.06.2022
1446 Clear 8 1017 58 10000 5.14 360 14:20 19.06.2022
1447 Clear 8 1017 60 10000 5.14 360 13:43 19.06.2022
1448 Clear 8 1016 58 10000 4.63 350 11:52 19.06.2022
1449 Clear 8 1016 59 10000 4.92 327 10:49 19.06.2022
1450 Clear 9 1016 57 10000 5.14 340 08:54 19.06.2022
1451 Clear 9 1016 57 10000 5.14 340 08:30 19.06.2022
1452 Clear 10 1016 52 10000 5.14 340 06:41 19.06.2022
1453 Clear 10 1016 48 10000 3.6 340 03:19 19.06.2022
1454 Clear 12 1016 42 10000 4.12 340 00:27 19.06.2022
1455 Clear 13 1016 39 10000 3.6 320 23:37 18.06.2022
1456 Clear 13 1016 37 10000 3.6 320 23:19 18.06.2022
1457 Clear 14 1015 32 10000 7.72 300 21:54 18.06.2022
1458 Clear 14 1015 32 10000 7.72 300 20:50 18.06.2022
1459 Clear 13 1016 32 10000 6.69 290 19:50 18.06.2022
1460 Clear 12 1016 32 10000 6.17 300 18:54 18.06.2022
1461 Clear 12 1017 33 10000 6.17 300 18:30 18.06.2022
1462 Clear 11 1017 43 10000 6.69 300 17:28 18.06.2022
1463 Clear 9 1018 66 10000 3.09 300 15:39 18.06.2022
1464 Clear 7 1018 68 10000 3.13 346 14:50 18.06.2022
1465 Clear 7 1017 63 10000 2.57 330 13:58 18.06.2022
1466 Clear 8 1016 58 10000 2.68 271 12:28 18.06.2022
1467 Clear 8 1015 56 10000 3.13 293 10:59 18.06.2022
1468 Clear 8 1015 59 10000 3.6 240 09:31 18.06.2022
1469 Clear 8 1015 58 10000 4.63 240 08:40 18.06.2022
1470 Clouds 8 1015 59 10000 5.66 220 07:34 18.06.2022
1471 Clouds 8 1014 59 10000 7.2 240 05:20 18.06.2022
1472 Clouds 10 1012 54 10000 7.2 240 01:47 18.06.2022
1473 Clouds 10 1012 54 10000 7.2 240 01:21 18.06.2022
1474 Clouds 10 1011 54 10000 8.23 250 00:23 18.06.2022
1475 Clouds 10 1010 54 10000 7.2 240 23:36 17.06.2022
1476 Clouds 10 1009 54 10000 8.23 240 22:27 17.06.2022
1477 Clouds 11 1008 59 10000 8.23 270 20:29 17.06.2022
1478 Clouds 10 1008 62 10000 8.75 260 19:24 17.06.2022
1479 Clouds 10 1008 62 10000 8.75 260 19:24 17.06.2022
1480 Clear 11 1008 67 10000 9.26 260 17:56 17.06.2022
1481 Clear 11 1008 68 10000 6.17 280 16:44 17.06.2022
1482 Clear 11 1008 69 10000 6.17 280 16:25 17.06.2022
1483 Clouds 10 1009 74 10000 4.63 300 15:40 17.06.2022
1484 Clouds 9 1008 85 8000 4.02 288 14:23 17.06.2022
1485 Mist 9 1008 84 4000 3.09 270 13:58 17.06.2022
1486 Mist 9 1008 84 4000 3.09 270 13:58 17.06.2022
1487 Mist 9 1008 85 4000 3.09 270 13:38 17.06.2022
1488 Drizzle 9 1008 92 1200 7.72 220 12:24 17.06.2022
1489 Clouds 9 1008 93 10000 4.47 263 11:55 17.06.2022
1490 Clouds 10 1008 93 10000 3.13 277 11:33 17.06.2022
1491 Fog 10 1008 93 200 1.54 220 08:58 17.06.2022
1492 Fog 10 1008 93 200 1.54 220 08:25 17.06.2022
1493 Fog 10 1010 94 700 2.06 180 06:44 17.06.2022
1494 Mist 10 1010 91 3000 2.24 194 03:59 17.06.2022
1495 Mist 12 1009 86 5000 1.34 40 01:56 17.06.2022
1496 Clear 12 1009 84 10000 0.51 0 23:47 16.06.2022
1497 Clear 13 1010 79 10000 2.06 20 22:42 16.06.2022
1498 Clear 13 1010 78 10000 1.54 120 21:22 16.06.2022
1499 Clear 13 1011 76 10000 1.54 0 20:52 16.06.2022
1500 Clear 13 1011 77 10000 1.54 0 20:33 16.06.2022
1501 Clear 14 1011 71 10000 1.03 0 19:32 16.06.2022
1502 Clear 14 1012 79 10000 1.54 30 18:24 16.06.2022
1503 Clear 14 1013 76 10000 1.03 0 17:42 16.06.2022
1504 Clear 14 1014 78 10000 2.06 330 16:33 16.06.2022
1505 Clear 13 1015 81 10000 2.57 340 15:22 16.06.2022
1506 Clear 13 1015 82 10000 2.24 294 14:37 16.06.2022
1507 Fog 12 1015 84 10000 2.57 10 13:20 16.06.2022
1508 Fog 12 1014 84 10000 4.63 20 12:36 16.06.2022
1509 Fog 12 1014 82 4000 2.68 336 11:49 16.06.2022
1510 Mist 13 1014 80 2000 1.79 314 10:55 16.06.2022
1511 Mist 13 1014 80 2000 2.24 315 09:53 16.06.2022
1512 Fog 13 1014 80 5000 1.79 343 09:21 16.06.2022
1513 Fog 13 1014 80 8000 2.24 321 08:28 16.06.2022
1514 Clear 13 1015 79 10000 2.57 20 07:24 16.06.2022
1515 Clouds 14 1015 74 8000 2.06 30 04:42 16.06.2022
1516 Clear 14 1015 71 10000 2.06 20 02:20 16.06.2022
1517 Clear 14 1015 74 10000 3.6 50 01:35 16.06.2022
1518 Clear 14 1015 74 10000 3.6 60 00:39 16.06.2022
1519 Clear 15 1014 70 10000 2.57 90 23:43 15.06.2022
1520 Clear 14 1014 72 10000 2.57 60 22:35 15.06.2022
1521 Clouds 14 1014 73 10000 2.57 160 21:22 15.06.2022
1522 Clouds 14 1015 74 10000 1.54 20 20:42 15.06.2022
1523 Clouds 15 1015 74 10000 1.54 20 20:23 15.06.2022
1524 Clouds 16 1015 71 10000 3.09 360 19:29 15.06.2022
1525 Clear 17 1016 65 10000 3.09 10 17:56 15.06.2022
1526 Clear 15 1016 69 10000 3.09 10 17:25 15.06.2022
1527 Clear 13 1017 75 10000 4.12 10 15:37 15.06.2022
1528 Clear 11 1017 84 10000 3.09 10 14:18 15.06.2022
1529 Clear 11 1017 84 10000 2.24 5 12:54 15.06.2022
1530 Clear 12 1017 80 10000 2.06 20 11:58 15.06.2022
1531 Clouds 12 1017 78 10000 2.24 1 10:24 15.06.2022
1532 Clouds 13 1017 76 10000 1.79 352 09:43 15.06.2022
1533 Clouds 13 1017 76 10000 2.68 348 08:40 15.06.2022
1534 Clouds 13 1017 78 10000 2.68 26 06:34 15.06.2022
1535 Clouds 12 1017 81 10000 1.34 3 04:34 15.06.2022
1536 Clear 13 1016 76 10000 2.06 60 01:54 15.06.2022
1537 Clear 13 1016 74 10000 3.09 30 00:50 15.06.2022
1538 Clear 15 1016 70 10000 2.57 50 23:39 14.06.2022
1539 Clear 15 1016 70 10000 2.57 50 23:21 14.06.2022
1540 Clear 16 1016 63 10000 2.57 20 22:23 14.06.2022
1541 Clear 17 1016 60 10000 4.63 30 21:38 14.06.2022
1542 Clear 17 1016 60 10000 4.12 10 20:54 14.06.2022
1543 Clear 17 1016 60 10000 4.12 10 20:31 14.06.2022
1544 Clear 17 1017 59 10000 5.14 10 19:20 14.06.2022
1545 Clear 16 1017 62 10000 6.17 360 18:20 14.06.2022
1546 Clear 14 1018 67 10000 7.72 10 16:47 14.06.2022
1547 Clear 13 1019 75 10000 6.69 20 15:50 14.06.2022
1548 Clear 12 1019 77 10000 6.69 20 15:28 14.06.2022
1549 Clear 10 1019 82 10000 5.14 20 14:37 14.06.2022
1550 Clear 9 1019 86 10000 6.17 30 13:46 14.06.2022
1551 Fog 9 1019 87 10000 4.63 30 12:45 14.06.2022
1552 Clouds 8 1018 86 10000 1.79 44 11:41 14.06.2022
1553 Clouds 8 1019 85 10000 2.24 48 10:48 14.06.2022
1554 Clouds 9 1019 83 10000 1.79 38 10:22 14.06.2022
1555 Clouds 9 1019 80 10000 2.68 13 08:49 14.06.2022
1556 Clouds 9 1019 78 10000 3.13 11 07:49 14.06.2022
1557 Clouds 10 1020 72 10000 3.13 30 05:46 14.06.2022
1558 Clouds 12 1020 52 10000 3.58 29 03:20 14.06.2022
1559 Clear 11 1021 72 10000 3.6 50 00:54 14.06.2022
1560 Clear 12 1021 71 10000 3.09 40 23:48 13.06.2022
1561 Clear 13 1021 69 10000 3.09 30 22:26 13.06.2022
1562 Clear 13 1021 68 10000 3.09 10 21:54 13.06.2022
1563 Clear 12 1021 72 10000 4.63 360 20:42 13.06.2022
1564 Clear 17 1022 31 10000 4.12 340 19:35 13.06.2022
1565 Clear 16 1022 39 10000 3.09 360 18:36 13.06.2022
1566 Clear 16 1023 40 10000 3.6 340 17:48 13.06.2022
1567 Clear 14 1024 48 10000 3.09 360 16:54 13.06.2022
1568 Clear 12 1024 53 10000 2.68 331 15:41 13.06.2022
1569 Clear 11 1024 56 10000 3.09 10 14:47 13.06.2022
1570 Clear 10 1024 61 10000 2.57 20 13:55 13.06.2022
1571 Clear 9 1024 56 10000 3.09 20 12:59 13.06.2022
1572 Mist 8 1023 57 2000 2.24 324 11:38 13.06.2022
1573 Mist 8 1023 72 1500 2.06 20 10:34 13.06.2022
1574 Fog 8 1023 63 100 2.06 360 09:42 13.06.2022
1575 Fog 7 1024 68 100 2.06 10 08:27 13.06.2022
1576 Rain 8 1024 76 1000 1.03 330 06:34 13.06.2022
1577 Mist 8 1024 65 3000 0.89 353 04:18 13.06.2022
1578 Clear 9 1024 65 8000 0 0 01:39 13.06.2022
1579 Clear 9 1024 64 10000 0.51 0 00:59 13.06.2022
1580 Clear 10 1023 64 10000 1.54 190 23:33 12.06.2022
1581 Clear 12 1023 55 10000 3.09 160 22:23 12.06.2022
1582 Clear 12 1022 50 10000 2.68 263 21:41 12.06.2022
1583 Clear 13 1022 52 10000 2.57 250 20:43 12.06.2022
1584 Clear 12 1022 53 10000 3.6 230 19:42 12.06.2022
1585 Clear 12 1023 59 10000 3.09 200 18:46 12.06.2022
1586 Clear 12 1023 68 10000 2.06 260 16:57 12.06.2022
1587 Clear 11 1023 74 10000 1.54 0 15:33 12.06.2022
1588 Clear 11 1023 76 10000 1.54 330 14:48 12.06.2022
1589 Clear 10 1023 79 10000 1.54 330 14:18 12.06.2022
1590 Fog 10 1022 80 8000 3.6 300 13:43 12.06.2022
1591 Fog 9 1022 83 10000 0.89 242 11:58 12.06.2022
1592 Clear 9 1021 79 10000 0.89 255 10:46 12.06.2022
1593 Clear 9 1021 78 10000 1.03 330 09:36 12.06.2022
1594 Clear 10 1021 72 10000 2.68 284 08:50 12.06.2022
1595 Clear 10 1021 73 10000 3.09 260 07:51 12.06.2022
1596 Clear 10 1020 68 10000 4.12 260 06:27 12.06.2022
1597 Clear 11 1021 63 10000 3.58 304 03:44 12.06.2022
1598 Clear 11 1021 66 10000 3.13 259 01:49 12.06.2022
1599 Clear 11 1021 65 10000 3.13 265 01:29 12.06.2022
1600 Clear 11 1020 62 10000 3.09 280 00:44 12.06.2022
1601 Clear 11 1020 61 10000 3.09 280 00:18 12.06.2022
1602 Clear 10 1020 58 10000 4.12 270 23:18 11.06.2022
1603 Clear 10 1020 51 10000 5.66 280 22:35 11.06.2022
1604 Clear 10 1019 52 10000 7.2 260 21:18 11.06.2022
1605 Clear 10 1019 52 10000 7.2 260 21:18 11.06.2022
1606 Clear 11 1020 54 10000 7.2 260 20:26 11.06.2022
1607 Clear 10 1020 56 10000 7.2 260 19:33 11.06.2022
1608 Clear 9 1020 60 10000 6.17 260 18:43 11.06.2022
1609 Clear 9 1021 60 10000 6.26 287 18:25 11.06.2022
1610 Clear 9 1021 60 10000 6.69 250 17:47 11.06.2022
1611 Clear 9 1021 60 10000 6.69 250 17:25 11.06.2022
1612 Clear 9 1022 62 10000 6.69 240 16:42 11.06.2022
1613 Clear 9 1022 62 10000 7.72 230 15:57 11.06.2022
1614 Clear 9 1022 63 10000 5.66 230 14:43 11.06.2022
1615 Clear 9 1022 63 10000 6.17 240 13:50 11.06.2022
1616 Clouds 8 1021 54 10000 8.23 230 11:46 11.06.2022
1617 Clouds 8 1020 57 10000 6.69 230 10:30 11.06.2022
1618 Clear 8 1020 57 10000 6.69 230 09:41 11.06.2022
1619 Clear 8 1021 58 10000 6.17 250 08:37 11.06.2022
1620 Clear 8 1021 62 10000 6.69 240 06:33 11.06.2022
1621 Clear 8 1021 60 10000 6.69 240 05:26 11.06.2022
1622 Clear 9 1022 49 10000 7.2 240 02:55 11.06.2022
1623 Clear 9 1022 43 10000 6.71 257 01:41 11.06.2022
1624 Clear 9 1022 45 10000 6.17 250 00:54 11.06.2022
1625 Clear 9 1022 46 10000 7.2 250 23:25 10.06.2022
1626 Clear 9 1022 39 10000 7.72 260 22:20 10.06.2022
1627 Clouds 9 1022 44 10000 8.23 250 21:22 10.06.2022
1628 Clouds 9 1022 47 10000 7.72 250 20:37 10.06.2022
1629 Clouds 9 1022 49 10000 7.72 250 20:19 10.06.2022
1630 Clouds 9 1022 53 10000 8.75 220 19:19 10.06.2022
1631 Clouds 9 1022 61 10000 8.23 240 18:29 10.06.2022
1632 Clouds 9 1023 61 10000 9.77 240 17:43 10.06.2022
1633 Clouds 8 1023 65 10000 9.77 240 17:21 10.06.2022
1634 Clouds 9 1024 67 10000 7.72 240 16:25 10.06.2022
1635 Clouds 8 1024 65 10000 8.23 220 15:37 10.06.2022
1636 Clouds 8 1023 70 10000 7.72 220 13:57 10.06.2022
1637 Clouds 8 1023 70 10000 7.72 220 12:50 10.06.2022
1638 Clouds 8 1023 68 10000 7.72 220 11:53 10.06.2022
1639 Clouds 9 1022 70 10000 8.23 220 10:45 10.06.2022
1640 Clouds 9 1021 70 10000 7.2 220 09:54 10.06.2022
1641 Clouds 10 1021 68 10000 6.69 220 08:42 10.06.2022
1642 Clouds 10 1021 69 10000 6.69 220 07:26 10.06.2022
1643 Clouds 10 1021 71 10000 7.2 210 06:44 10.06.2022
1644 Clouds 10 1021 72 10000 7.2 210 06:25 10.06.2022
1645 Clouds 10 1020 83 10000 4.02 266 03:56 10.06.2022
1646 Clouds 10 1020 81 10000 6.69 220 01:42 10.06.2022
1647 Clouds 11 1019 84 10000 3.6 230 00:32 10.06.2022
1648 Mist 11 1019 84 3000 2.57 270 23:47 09.06.2022
1649 Mist 12 1018 84 2000 5.14 260 22:18 09.06.2022
1650 Mist 12 1017 83 2000 4.63 270 21:33 09.06.2022
1651 Mist 12 1017 87 2000 4.63 270 20:54 09.06.2022
1652 Clouds 12 1017 85 7000 5.14 270 20:21 09.06.2022
1653 Clouds 13 1017 77 10000 5.66 270 19:29 09.06.2022
1654 Clouds 13 1017 79 10000 3.6 280 18:34 09.06.2022
1655 Mist 13 1018 87 2000 2.68 326 16:56 09.06.2022
1656 Fog 12 1019 94 200 2.57 290 15:49 09.06.2022
1657 Fog 11 1019 94 300 3.09 310 14:38 09.06.2022
1658 Fog 12 1018 94 300 5.14 360 13:55 09.06.2022
1659 Fog 11 1018 93 300 5.14 360 13:28 09.06.2022
1660 Fog 10 1017 93 300 2.68 2 11:54 09.06.2022
1661 Fog 10 1016 93 700 2.06 10 11:19 09.06.2022
1662 Fog 9 1017 91 100 1.79 342 09:50 09.06.2022
1663 Fog 9 1017 92 100 1.79 11 09:31 09.06.2022
1664 Fog 9 1017 90 50 0.45 20 07:56 09.06.2022
1665 Fog 9 1017 90 300 2.24 47 06:41 09.06.2022
1666 Fog 10 1017 88 300 0 0 03:19 09.06.2022
1667 Clouds 11 1017 85 10000 2.06 60 23:49 08.06.2022
1668 Clouds 11 1016 83 10000 1.54 140 22:58 08.06.2022
1669 Clouds 11 1017 82 10000 1.54 140 22:27 08.06.2022
1670 Clouds 11 1016 82 9000 1.54 340 21:56 08.06.2022
1671 Clouds 11 1016 81 9000 1.54 340 21:23 08.06.2022
1672 Clouds 12 1017 85 9000 2.06 280 20:22 08.06.2022
1673 Clouds 12 1017 82 9000 3.09 300 19:39 08.06.2022
1674 Clouds 12 1017 86 9000 2.57 300 18:47 08.06.2022
1675 Mist 11 1018 94 5000 2.57 350 17:25 08.06.2022
1676 Mist 10 1018 100 1500 3.09 300 15:48 08.06.2022
1677 Mist 9 1017 95 2000 2.57 20 13:58 08.06.2022
1678 Mist 9 1017 100 8000 1.03 0 12:22 08.06.2022
1679 Mist 8 1016 100 4000 1.03 0 11:33 08.06.2022
1680 Mist 8 1016 100 3000 1.54 240 10:20 08.06.2022
1681 Mist 8 1016 97 5000 0.51 0 09:22 08.06.2022
1682 Mist 8 1017 97 3000 1.54 50 08:43 08.06.2022
1683 Clouds 9 1017 95 6000 1.03 0 06:35 08.06.2022
1684 Clouds 11 1015 91 8000 0.51 0 03:58 08.06.2022
1685 Mist 10 1015 93 5000 3.6 10 00:49 08.06.2022
1686 Mist 10 1015 93 5000 5.14 10 23:30 07.06.2022
1687 Mist 10 1015 93 5000 4.12 20 22:48 07.06.2022
1688 Mist 10 1015 93 5000 4.12 20 22:30 07.06.2022
1689 Mist 10 1014 93 5000 3.09 30 21:35 07.06.2022
1690 Mist 10 1014 93 5000 4.63 10 20:59 07.06.2022
1691 Mist 10 1014 93 5000 4.63 10 20:33 07.06.2022
1692 Mist 10 1015 93 5000 4.12 10 19:45 07.06.2022
1693 Mist 9 1016 100 4000 3.09 20 18:24 07.06.2022
1694 Mist 10 1016 87 1200 3.6 30 17:27 07.06.2022
1695 Fog 8 1017 100 300 4.12 10 16:43 07.06.2022
1696 Fog 7 1017 93 200 4.12 20 15:56 07.06.2022
1697 Fog 7 1017 93 200 4.12 20 15:26 07.06.2022
1698 Fog 6 1017 100 100 2.57 360 14:52 07.06.2022
1699 Fog 6 1017 100 100 2.57 360 14:32 07.06.2022
1700 Fog 6 1017 99 100 2.57 350 13:32 07.06.2022
1701 Fog 6 1016 100 50 2.06 330 12:52 07.06.2022
1702 Fog 7 1016 97 400 1.54 340 11:47 07.06.2022
1703 Fog 7 1016 97 500 1.03 340 10:27 07.06.2022
1704 Fog 7 1016 97 500 3.09 330 08:50 07.06.2022
1705 Fog 7 1016 97 200 2.06 320 07:34 07.06.2022
1706 Mist 8 1017 97 2500 2.06 320 06:22 07.06.2022
1707 Mist 8 1017 99 5000 1.54 40 03:32 07.06.2022
1708 Clouds 10 1017 97 6000 0 0 01:27 07.06.2022
1709 Fog 9 1017 99 200 2.06 210 23:46 06.06.2022
1710 Fog 9 1017 98 600 3.09 190 22:54 06.06.2022
1711 Fog 9 1017 97 600 4.12 200 22:28 06.06.2022
1712 Mist 11 1016 91 7000 2.57 220 20:42 06.06.2022
1713 Mist 12 1016 85 2000 2.57 210 19:24 06.06.2022
1714 Clouds 13 1017 82 8000 3.6 230 18:48 06.06.2022
1715 Clouds 13 1017 80 8000 3.09 190 17:59 06.06.2022
1716 Clouds 13 1017 89 6000 2.57 160 16:57 06.06.2022
1717 Clouds 12 1016 94 6000 2.57 150 15:57 06.06.2022
1718 Mist 11 1016 100 2000 2.57 150 14:59 06.06.2022
1719 Mist 10 1016 100 2000 2 0 14:26 06.06.2022
1720 Mist 10 1016 95 1000 0.51 0 13:21 06.06.2022
1721 Fog 9 1015 100 400 2 0 12:35 06.06.2022
1722 Clouds 11 1015 99 6000 1.54 230 11:50 06.06.2022
1723 Mist 11 1015 99 2000 0 0 10:21 06.06.2022
1724 Mist 11 1015 99 2000 0 0 09:23 06.06.2022
1725 Mist 11 1014 100 1000 0 0 08:31 06.06.2022
1726 Fog 11 1014 100 100 0 0 07:28 06.06.2022
1727 Fog 10 1015 100 100 0 0 04:42 06.06.2022
1728 Fog 10 1015 96 500 0 0 02:27 06.06.2022
1729 Mist 11 1015 93 10000 1.54 0 00:57 06.06.2022
1730 Mist 11 1015 93 10000 1.54 0 00:35 06.06.2022
1731 Clouds 11 1015 91 10000 2.06 190 23:28 05.06.2022
1732 Clouds 13 1015 85 10000 2.57 190 22:33 05.06.2022
1733 Clouds 14 1015 76 10000 3.6 170 20:40 05.06.2022
1734 Clouds 15 1015 72 10000 3.09 180 19:26 05.06.2022
1735 Clouds 16 1015 63 10000 2.57 190 18:26 05.06.2022
1736 Clouds 15 1016 67 10000 2.06 190 17:50 05.06.2022
1737 Clouds 15 1016 67 10000 2.06 190 17:23 05.06.2022
1738 Clouds 15 1017 77 10000 2.06 260 16:49 05.06.2022
1739 Clear 13 1017 82 10000 2.06 280 15:50 05.06.2022
1740 Clouds 9 1017 100 10000 1.54 0 14:22 05.06.2022
1741 Clear 9 1016 93 10000 3.09 30 12:43 05.06.2022
1742 Clouds 9 1016 93 10000 3.09 20 11:35 05.06.2022
1743 Clouds 11 1016 86 10000 2.06 30 10:25 05.06.2022
1744 Clouds 11 1016 86 10000 2.06 10 09:59 05.06.2022
1745 Clouds 11 1016 84 10000 3.09 40 08:28 05.06.2022
1746 Clear 12 1017 83 10000 3.09 40 07:41 05.06.2022
1747 Clear 12 1018 79 10000 2.57 70 05:21 05.06.2022
1748 Clear 12 1019 76 10000 2.57 120 03:43 05.06.2022
1749 Clear 12 1018 76 10000 3.6 70 01:32 05.06.2022
1750 Clear 13 1018 72 10000 3.09 90 00:29 05.06.2022
1751 Clear 15 1018 63 10000 5.14 50 21:58 04.06.2022
1752 Clear 14 1019 62 10000 6.17 60 20:21 04.06.2022
1753 Clear 14 1020 65 10000 7.2 40 18:18 04.06.2022
1754 Clear 13 1022 71 10000 8.75 40 16:43 04.06.2022
1755 Clear 13 1022 71 10000 8.75 40 16:18 04.06.2022
1756 Clear 7 1022 93 10000 5.14 60 14:47 04.06.2022
1757 Fog 5 1023 100 500 4.12 60 12:35 04.06.2022
1758 Clear 6 1023 100 10000 3.09 60 11:18 04.06.2022
1759 Clear 6 1024 100 10000 0 0 10:43 04.06.2022
1760 Clear 6 1025 97 10000 0 0 09:42 04.06.2022
1761 Clear 6 1025 94 10000 1.03 50 08:41 04.06.2022
1762 Clear 7 1025 93 10000 1.03 50 07:40 04.06.2022
1763 Clear 8 1025 81 10000 3.6 70 04:57 04.06.2022
1764 Clear 8 1025 81 10000 3.6 100 01:27 04.06.2022
1765 Clear 9 1025 75 10000 4.12 100 23:59 03.06.2022
1766 Clear 11 1025 52 10000 3.6 60 22:40 03.06.2022
1767 Clouds 12 1025 47 10000 4.12 20 21:30 03.06.2022
1768 Clouds 12 1026 50 10000 3.09 360 20:37 03.06.2022
1769 Clouds 12 1026 60 10000 3.6 130 18:28 03.06.2022
1770 Clouds 10 1028 66 10000 2.57 90 16:47 03.06.2022
1771 Clouds 10 1028 74 10000 0.51 0 15:23 03.06.2022
1772 Clear 1 1027 93 10000 2.06 160 13:22 03.06.2022
1773 Clouds 5 1026 91 8000 0 0 11:40 03.06.2022
1774 Clouds 7 1027 70 8000 0 0 09:45 03.06.2022
1775 Clear 8 1027 70 10000 2.81 153 09:24 03.06.2022
1776 Clouds 5 1026 85 6000 0 0 07:27 03.06.2022
1777 Clouds 5 1027 83 6000 0 0 06:39 03.06.2022
1778 Clouds 7 1027 84 6000 0 0 06:20 03.06.2022
1779 Clouds 7 1025 78 10000 2.57 180 00:41 03.06.2022
1780 Clouds 10 1024 66 10000 4.63 210 22:48 02.06.2022
1781 Clouds 11 1024 62 10000 4.63 200 21:51 02.06.2022
1782 Clouds 11 1024 62 10000 5.66 200 20:22 02.06.2022
1783 Clouds 11 1024 62 10000 5.66 200 20:22 02.06.2022
1784 Clouds 12 1024 58 10000 5.66 190 19:50 02.06.2022
1785 Clouds 12 1024 58 10000 5.66 190 19:32 02.06.2022
1786 Clouds 11 1024 64 10000 5.14 210 17:35 02.06.2022
1787 Clouds 10 1024 73 10000 4.12 210 16:28 02.06.2022
1788 Fog 4 1024 93 10000 1.03 0 14:22 02.06.2022
1789 Mist 1 1023 93 10000 2.57 320 13:30 02.06.2022
1790 Mist 1 1023 93 10000 2.57 320 13:30 02.06.2022
1791 Clouds 1 1023 93 10000 2.06 310 12:21 02.06.2022
1792 Clouds 4 1021 75 10000 2.06 340 10:20 02.06.2022
1793 Clouds 4 1021 81 8000 1.03 290 09:28 02.06.2022
1794 Clouds 6 1021 78 7000 2.06 350 08:28 02.06.2022
1795 Clear 2 1021 87 7000 2.06 350 07:34 02.06.2022
1796 Clear 4 1022 81 7000 1.54 350 05:29 02.06.2022
1797 Mist 4 1022 81 5000 2.06 320 03:45 02.06.2022
1798 Clear 8 1021 73 10000 2.06 270 23:52 01.06.2022
1799 Clear 9 1021 69 10000 2.06 280 22:54 01.06.2022
1800 Clear 10 1021 53 10000 4.12 250 21:39 01.06.2022
1801 Clear 10 1021 53 10000 4.12 250 21:20 01.06.2022
1802 Clear 12 1021 49 10000 4.63 260 20:37 01.06.2022
1803 Clear 11 1021 54 10000 4.12 260 19:48 01.06.2022
1804 Clear 11 1022 55 10000 5.14 240 17:57 01.06.2022
1805 Clear 10 1022 61 10000 3.09 230 16:41 01.06.2022
1806 Clear 6 1022 75 10000 2.06 300 15:37 01.06.2022
1807 Clear 0 1022 93 10000 1.54 0 13:57 01.06.2022
1808 Clear 0 1021 100 10000 2.57 360 12:29 01.06.2022
1809 Clear 2 1021 80 10000 1.54 350 10:37 01.06.2022
1810 Clear 1 1021 86 10000 2.06 360 09:25 01.06.2022
1811 Clear 3 1021 75 10000 2.06 350 07:25 01.06.2022
1812 Clouds 2 1021 80 10000 1.54 340 06:40 01.06.2022
1813 Clear 5 1021 65 10000 2.06 360 01:30 01.06.2022
1814 Clouds 7 1021 65 10000 2.06 260 23:41 31.05.2022
1815 Clouds 9 1020 57 10000 3.09 250 22:37 31.05.2022
1816 Clouds 10 1020 53 10000 5.66 250 21:46 31.05.2022
1817 Clouds 10 1020 53 10000 5.66 230 20:52 31.05.2022
1818 Clouds 10 1020 53 10000 5.66 230 20:31 31.05.2022
1819 Clouds 10 1022 66 10000 5.14 250 18:54 31.05.2022
1820 Clouds 9 1022 76 10000 6.69 250 17:51 31.05.2022
1821 Clouds 9 1022 76 10000 6.69 250 17:20 31.05.2022
1822 Clouds 8 1023 87 10000 2.57 310 15:42 31.05.2022
1823 Clouds 7 1022 81 10000 2.06 300 14:34 31.05.2022
1824 Clouds 6 1021 77 10000 2.57 310 12:22 31.05.2022
1825 Clouds 7 1021 56 10000 2.06 320 11:42 31.05.2022
1826 Clouds 8 1020 55 10000 0 0 09:49 31.05.2022
1827 Clouds 7 1021 60 10000 3.09 220 07:41 31.05.2022
1828 Clouds 7 1021 60 10000 3.09 220 07:41 31.05.2022
1829 Clouds 8 1021 64 10000 3.6 230 05:24 31.05.2022
1830 Clouds 8 1020 64 10000 2.57 220 02:33 31.05.2022
1831 Clouds 7 1019 78 10000 6.17 200 23:29 30.05.2022
1832 Clouds 10 1019 55 10000 5.66 240 22:59 30.05.2022
1833 Clouds 10 1019 53 10000 5.66 240 22:24 30.05.2022
1834 Clouds 10 1018 58 10000 6.17 230 21:35 30.05.2022
1835 Clouds 10 1018 63 10000 7.72 230 20:22 30.05.2022
1836 Clouds 11 1017 62 10000 8.75 210 19:26 30.05.2022
1837 Clouds 9 1017 68 10000 9.26 230 17:43 30.05.2022
1838 Clouds 9 1017 62 10000 9.26 250 16:54 30.05.2022
1839 Clear 9 1016 54 10000 8.23 250 15:43 30.05.2022
1840 Clear 7 1015 57 10000 5.66 260 12:44 30.05.2022
1841 Clouds 8 1014 53 10000 5.14 250 10:57 30.05.2022
1842 Clouds 8 1014 53 10000 5.14 240 09:39 30.05.2022
1843 Clouds 8 1015 56 10000 2.57 280 07:24 30.05.2022
1844 Clouds 8 1015 58 10000 2.57 330 05:50 30.05.2022
1845 Clouds 7 1015 61 10000 2.06 320 02:35 30.05.2022
1846 Clouds 7 1014 74 10000 3.09 250 23:28 29.05.2022
1847 Clouds 9 1013 69 10000 4.63 250 22:39 29.05.2022
1848 Clouds 10 1013 68 10000 5.14 250 21:31 29.05.2022
1849 Clouds 10 1013 65 10000 6.17 220 19:48 29.05.2022
1850 Clouds 11 1013 64 10000 6.17 220 19:27 29.05.2022
1851 Clouds 11 1013 69 10000 7.2 210 17:41 29.05.2022
1852 Clouds 10 1014 68 10000 6.69 210 15:49 29.05.2022
1853 Clouds 11 1014 66 10000 6.69 210 15:28 29.05.2022
1854 Clear 10 1013 74 10000 6.17 210 14:23 29.05.2022
1855 Clouds 11 1012 90 10000 2.57 240 11:55 29.05.2022
1856 Clear 10 1011 91 10000 2.06 330 10:44 29.05.2022
1857 Rain 9 1011 92 10000 1.54 330 09:52 29.05.2022
1858 Clear 11 1011 86 10000 1.54 220 06:57 29.05.2022
1859 Clear 11 1012 89 10000 1.54 290 04:49 29.05.2022
1860 Clear 11 1012 88 10000 1.54 290 04:24 29.05.2022
1861 Clear 11 1011 82 10000 2.06 120 23:59 28.05.2022
1862 Clear 11 1011 82 10000 2.06 120 23:39 28.05.2022
1863 Clear 11 1011 81 10000 3.09 110 22:46 28.05.2022
1864 Clear 12 1012 75 10000 1.03 0 21:42 28.05.2022
1865 Clouds 12 1013 75 10000 2.57 90 19:52 28.05.2022
1866 Clouds 12 1013 74 10000 2.57 90 19:18 28.05.2022
1867 Clouds 13 1015 74 10000 1.54 110 17:48 28.05.2022
1868 Fog 12 1016 74 10000 0.51 0 16:53 28.05.2022
1869 Mist 11 1017 84 10000 0.51 0 15:44 28.05.2022
1870 Fog 9 1017 88 8000 1.03 0 14:37 28.05.2022
1871 Mist 8 1016 91 7000 0.51 0 13:21 28.05.2022
1872 Mist 8 1016 92 4000 1.54 200 12:40 28.05.2022
1873 Clear 9 1016 95 8000 0.51 0 11:27 28.05.2022
1874 Mist 7 1016 96 5000 0.51 0 10:25 28.05.2022
1875 Mist 6 1016 93 5000 1.03 350 09:30 28.05.2022
1876 Fog 8 1017 92 7000 1.03 310 07:53 28.05.2022
1877 Fog 8 1017 91 8000 1.03 330 06:32 28.05.2022
1878 Clouds 8 1017 86 10000 0.51 0 04:21 28.05.2022
1879 Clear 9 1017 76 10000 3.6 180 00:50 28.05.2022
1880 Clear 10 1017 76 10000 3.09 180 23:53 27.05.2022
1881 Clear 12 1016 66 10000 4.12 180 22:24 27.05.2022
1882 Clouds 14 1016 62 10000 6.17 170 20:59 27.05.2022
1883 Clouds 14 1016 62 10000 6.17 170 20:40 27.05.2022
1884 Clouds 14 1016 62 10000 5.14 170 19:56 27.05.2022
1885 Clouds 14 1016 62 10000 5.14 170 19:34 27.05.2022
1886 Clouds 14 1018 67 10000 5.14 170 18:41 27.05.2022
1887 Clouds 13 1019 82 10000 5.66 170 16:42 27.05.2022
1888 Drizzle 12 1019 94 600 5.14 170 15:46 27.05.2022
1889 Fog 12 1018 94 800 4.12 160 14:45 27.05.2022
1890 Mist 12 1018 94 3000 5.14 160 13:35 27.05.2022
1891 Drizzle 12 1017 94 8000 5.14 150 11:48 27.05.2022
1892 Drizzle 12 1017 94 6000 5.66 150 11:26 27.05.2022
1893 Drizzle 13 1018 88 8000 4.63 150 10:35 27.05.2022
1894 Drizzle 12 1018 96 8000 4.63 140 09:42 27.05.2022
1895 Clouds 12 1019 94 10000 3.6 160 08:48 27.05.2022
1896 Clouds 12 1020 90 10000 3.09 130 06:58 27.05.2022
1897 Clouds 12 1022 82 10000 5.66 110 02:57 27.05.2022
1898 Clear 10 1022 73 10000 4.63 110 00:54 27.05.2022
1899 Clear 12 1022 71 10000 5.14 120 22:53 26.05.2022
1900 Clouds 12 1023 71 10000 5.14 120 21:45 26.05.2022
1901 Clouds 12 1023 66 10000 6.17 110 20:59 26.05.2022
1902 Clouds 14 1024 59 10000 5.66 110 19:30 26.05.2022
1903 Clouds 14 1024 60 10000 6.17 120 18:24 26.05.2022
1904 Clouds 13 1025 62 10000 5.14 110 16:59 26.05.2022
1905 Clouds 13 1026 65 10000 5.66 140 15:52 26.05.2022
1906 Clouds 12 1026 66 10000 5.66 140 15:18 26.05.2022
1907 Clouds 11 1025 74 10000 4.63 150 13:46 26.05.2022
1908 Clouds 11 1024 75 10000 5.14 150 11:47 26.05.2022
1909 Clouds 11 1024 78 10000 5.66 150 10:39 26.05.2022
1910 Clouds 12 1024 81 10000 7.2 150 09:37 26.05.2022
1911 Clouds 12 1024 82 10000 6.69 160 08:38 26.05.2022
1912 Clouds 12 1024 97 10000 6.17 170 05:25 26.05.2022
1913 Drizzle 12 1022 97 5000 7.2 160 02:19 26.05.2022
1914 Clouds 11 1020 89 3000 7.72 150 23:41 25.05.2022
1915 Rain 11 1019 90 10000 7.72 150 22:51 25.05.2022
1916 Clouds 11 1018 94 1000 10.8 150 21:39 25.05.2022
1917 Clouds 10 1018 99 1000 10.29 160 20:43 25.05.2022
1918 Clouds 12 1018 93 10000 9.26 160 19:32 25.05.2022
1919 Clouds 12 1017 95 7000 9.77 150 18:36 25.05.2022
1920 Clouds 12 1016 95 2000 10.29 130 16:53 25.05.2022
1921 Clouds 12 1018 99 800 9.26 160 16:25 25.05.2022
1922 Clouds 13 1018 100 800 7.72 150 15:36 25.05.2022
1923 Rain 15 1017 96 800 5.66 130 14:42 25.05.2022
1924 Clouds 15 1017 96 800 5.66 130 14:24 25.05.2022
1925 Clouds 14 1017 100 800 4.63 120 13:21 25.05.2022
1926 Rain 15 1017 96 8310 3.83 62 11:32 25.05.2022
1927 Clouds 15 1016 96 10000 5.66 100 10:23 25.05.2022
1928 Clouds 15 1016 96 10000 4.63 100 09:29 25.05.2022
1929 Clouds 15 1017 97 10000 4.78 108 07:26 25.05.2022
1930 Clear 14 1017 95 10000 2.57 160 05:41 25.05.2022
1931 Clouds 16 1017 84 10000 2.11 168 01:51 25.05.2022
1932 Clear 18 1015 76 10000 2.57 10 23:48 24.05.2022
1933 Clear 19 1014 72 10000 3.6 20 22:58 24.05.2022
1934 Clear 19 1013 61 10000 3.09 350 21:47 24.05.2022
1935 Clear 19 1013 61 10000 3.09 350 21:23 24.05.2022
1936 Clear 19 1013 61 10000 4.12 340 20:59 24.05.2022
1937 Clear 18 1013 61 10000 4.63 320 19:23 24.05.2022
1938 Clear 18 1013 62 10000 4.63 20 18:29 24.05.2022
1939 Clear 18 1014 63 10000 4.12 340 16:39 24.05.2022
1940 Clear 17 1014 66 10000 4.12 350 15:31 24.05.2022
1941 Clear 16 1014 66 10000 3.6 20 14:38 24.05.2022
1942 Clear 11 1015 93 10000 2.06 350 13:46 24.05.2022
1943 Clear 11 1014 92 10000 3.6 10 12:24 24.05.2022
1944 Clear 12 1013 90 10000 3.09 30 09:52 24.05.2022
1945 Clear 13 1014 91 10000 3.09 30 08:52 24.05.2022
1946 Clear 12 1015 91 10000 2.06 20 07:56 24.05.2022
1947 Clouds 13 1015 91 8000 2.57 30 06:39 24.05.2022
1948 Fog 14 1015 94 200 0 0 03:38 24.05.2022
1949 Clouds 13 1015 90 9000 3.09 100 01:46 24.05.2022
1950 Clouds 13 1015 87 10000 3.09 110 00:30 24.05.2022
1951 Clouds 18 1014 59 10000 3.09 170 22:24 23.05.2022
1952 Clouds 18 1014 58 10000 3.09 170 21:53 23.05.2022
1953 Clouds 18 1014 60 10000 3.6 10 20:49 23.05.2022
1954 Clouds 18 1014 60 10000 4.12 330 19:55 23.05.2022
1955 Clouds 17 1014 60 10000 4.12 330 19:24 23.05.2022
1956 Clouds 17 1015 60 10000 4.12 350 18:41 23.05.2022
1957 Clouds 17 1015 60 10000 4.12 350 18:41 23.05.2022
1958 Clear 17 1016 63 10000 4.12 10 17:56 23.05.2022
1959 Clear 17 1017 61 10000 3.6 360 16:29 23.05.2022
1960 Clear 11 1019 89 10000 4.63 20 14:18 23.05.2022
1961 Clouds 11 1018 96 10000 2.57 30 11:53 23.05.2022
1962 Clear 10 1017 96 10000 1.54 10 10:58 23.05.2022
1963 Clear 10 1018 95 10000 1.03 0 09:48 23.05.2022
1964 Clear 10 1017 95 10000 3.09 30 08:47 23.05.2022
1965 Clear 11 1018 94 10000 0 0 07:37 23.05.2022
1966 Clear 11 1018 92 10000 2.57 50 06:41 23.05.2022
1967 Clear 12 1018 89 10000 2.06 30 03:52 23.05.2022
1968 Clear 13 1018 83 10000 1.54 20 02:18 23.05.2022
1969 Clear 13 1017 82 10000 2.06 50 01:33 23.05.2022
1970 Clear 17 1018 66 10000 3.09 40 23:22 22.05.2022
1971 Clear 18 1018 59 10000 4.12 360 22:33 22.05.2022
1972 Clear 19 1018 59 10000 4.63 20 21:53 22.05.2022
1973 Clear 19 1018 59 10000 3.6 20 20:51 22.05.2022
1974 Clear 19 1018 59 10000 3.6 20 20:23 22.05.2022
1975 Clear 19 1019 59 10000 3.6 360 19:42 22.05.2022
1976 Clear 18 1020 72 10000 2.06 360 18:53 22.05.2022
1977 Clear 18 1020 72 10000 2.06 360 18:22 22.05.2022
1978 Clear 17 1021 77 10000 2.06 360 17:28 22.05.2022
1979 Clear 13 1021 92 8000 2.06 360 15:59 22.05.2022
1980 Mist 10 1021 99 8000 2.57 10 14:48 22.05.2022
1981 Fog 7 1021 99 6000 3.09 20 13:27 22.05.2022
1982 Fog 7 1021 100 200 2.06 360 12:50 22.05.2022
1983 Fog 7 1020 97 6000 2.06 10 11:32 22.05.2022
1984 Mist 8 1020 99 5000 2.06 350 09:41 22.05.2022
1985 Fog 9 1020 100 5000 2.06 360 08:31 22.05.2022
1986 Fog 9 1021 100 4000 2.06 340 07:21 22.05.2022
1987 Mist 10 1020 87 5000 2.06 340 05:22 22.05.2022
1988 Rain 13 1020 76 8000 1.54 350 01:26 22.05.2022
1989 Rain 14 1020 77 10000 2.57 310 00:43 22.05.2022
1990 Clear 15 1019 77 10000 2.06 310 23:52 21.05.2022
1991 Clear 17 1019 67 10000 3.09 290 22:28 21.05.2022
1992 Clear 18 1019 68 10000 5.14 310 21:42 21.05.2022
1993 Clouds 17 1019 70 10000 5.66 290 20:51 21.05.2022
1994 Clouds 18 1019 68 10000 5.66 290 20:22 21.05.2022
1995 Clear 18 1019 66 10000 4.12 300 19:27 21.05.2022
1996 Clear 16 1020 77 10000 4.12 280 17:48 21.05.2022
1997 Clear 12 1020 85 10000 3.09 330 15:54 21.05.2022
1998 Clear 10 1020 95 10000 2.57 350 14:37 21.05.2022
1999 Clear 8 1020 95 10000 3.09 350 13:42 21.05.2022
2000 Rain 8 1019 100 10000 2.06 10 12:49 21.05.2022
2001 Clear 8 1019 100 10000 2.06 10 12:25 21.05.2022
2002 Clear 7 1019 100 10000 3.09 350 10:24 21.05.2022
2003 Clear 8 1018 93 10000 2.06 20 09:43 21.05.2022
2004 Clear 8 1018 93 10000 2.06 20 08:57 21.05.2022
2005 Clear 8 1018 93 10000 2.06 340 07:53 21.05.2022
2006 Clear 9 1018 93 10000 2.06 360 03:58 21.05.2022
2007 Clear 13 1016 88 10000 1.54 280 23:53 20.05.2022
2008 Clear 15 1016 67 10000 3.6 280 22:57 20.05.2022
2009 Clear 15 1016 67 10000 3.6 280 22:23 20.05.2022
2010 Clear 16 1016 67 10000 3.6 280 21:43 20.05.2022
2011 Clear 17 1016 63 10000 3.09 270 20:56 20.05.2022
2012 Clouds 17 1017 59 10000 5.14 310 19:59 20.05.2022
2013 Clouds 17 1017 59 10000 5.14 310 19:26 20.05.2022
2014 Clouds 17 1017 63 10000 7.2 310 18:44 20.05.2022
2015 Clear 15 1018 67 10000 7.2 320 17:24 20.05.2022
2016 Clear 13 1018 76 10000 6.17 310 16:19 20.05.2022
2017 Clear 10 1019 87 10000 3.6 320 15:47 20.05.2022
2018 Clear 7 1019 93 10000 3.09 330 14:30 20.05.2022
2019 Clear 4 1019 93 10000 2.06 330 13:55 20.05.2022
2020 Clouds 4 1018 100 8000 2.06 350 11:34 20.05.2022
2021 Clouds 5 1018 93 6000 2.06 350 10:19 20.05.2022
2022 Mist 5 1019 100 3000 2.06 340 08:45 20.05.2022
2023 Clear 6 1020 93 6000 2.06 20 07:18 20.05.2022
2024 Mist 7 1020 87 5000 2.06 10 06:32 20.05.2022
2025 Mist 7 1020 87 3000 0 0 04:42 20.05.2022
2026 Clear 9 1019 81 10000 0.51 0 00:48 20.05.2022
2027 Clear 12 1018 77 10000 3.09 240 22:48 19.05.2022
2028 Clear 13 1018 74 10000 3.09 240 22:20 19.05.2022
2029 Clear 13 1019 74 10000 4.12 200 21:48 19.05.2022
2030 Clear 14 1019 74 10000 4.12 200 21:22 19.05.2022
2031 Clouds 14 1019 72 10000 4.12 170 20:34 19.05.2022
2032 Clouds 14 1019 71 10000 3.6 170 19:52 19.05.2022
2033 Clouds 15 1019 69 10000 2.57 300 18:31 19.05.2022
2034 Clouds 14 1020 71 10000 1.54 0 16:51 19.05.2022
2035 Clouds 14 1021 74 10000 1.54 0 15:21 19.05.2022
2036 Clear 9 1022 93 10000 1.54 300 14:26 19.05.2022
2037 Clear 6 1022 100 10000 1.03 0 13:47 19.05.2022
2038 Clear 11 1021 69 10000 1.78 193 11:41 19.05.2022
2039 Clouds 9 1021 87 10000 2.06 300 09:29 19.05.2022
2040 Clouds 10 1022 75 10000 2.06 300 07:52 19.05.2022
2041 Clouds 12 1022 70 10000 2.06 270 06:18 19.05.2022
2042 Clouds 13 1022 67 10000 3.6 190 02:27 19.05.2022
2043 Clouds 12 1023 71 10000 4.63 200 00:40 19.05.2022
2044 Clouds 13 1021 79 10000 5.66 190 22:51 18.05.2022
2045 Clouds 13 1021 79 10000 5.66 190 22:24 18.05.2022
2046 Clouds 14 1021 79 10000 6.69 200 21:30 18.05.2022
2047 Clouds 14 1021 79 10000 8.23 190 20:50 18.05.2022
2048 Clouds 14 1021 78 10000 8.23 190 20:18 18.05.2022
2049 Clouds 14 1021 78 10000 8.23 190 20:18 18.05.2022
2050 Clouds 14 1022 80 10000 9.26 190 18:33 18.05.2022
2051 Clouds 14 1022 81 10000 9.77 190 17:41 18.05.2022
2052 Clouds 14 1022 81 10000 9.77 190 17:23 18.05.2022
2053 Clouds 14 1022 82 10000 9.26 180 16:34 18.05.2022
2054 Clouds 14 1022 81 10000 8.23 170 15:42 18.05.2022
2055 Clouds 14 1021 84 10000 9.26 180 14:35 18.05.2022
2056 Clouds 13 1022 82 10000 9.26 180 13:41 18.05.2022
2057 Clouds 13 1021 82 8000 8.75 180 12:48 18.05.2022
2058 Clouds 13 1020 82 10000 8.75 180 11:36 18.05.2022
2059 Clouds 13 1020 82 10000 8.75 180 11:18 18.05.2022
2060 Clouds 13 1019 82 10000 9.77 190 09:50 18.05.2022
2061 Clouds 14 1019 77 10000 10.29 180 07:51 18.05.2022
2062 Clouds 14 1019 77 10000 11.32 180 06:41 18.05.2022
2063 Clouds 13 1017 82 10000 13.38 200 01:53 18.05.2022
2064 Drizzle 13 1017 88 8000 11.32 200 00:23 18.05.2022
2065 Clouds 14 1014 86 10000 11.32 180 21:57 17.05.2022
2066 Clouds 14 1014 87 8000 11.32 200 21:20 17.05.2022
2067 Clouds 14 1014 87 8000 11.32 200 21:20 17.05.2022
2068 Clouds 14 1014 88 10000 10.29 180 20:22 17.05.2022
2069 Clouds 14 1013 90 7000 14.4 190 19:28 17.05.2022
2070 Clouds 14 1013 92 6000 11.83 190 17:52 17.05.2022
2071 Clouds 15 1013 91 6000 11.83 190 16:59 17.05.2022
2072 Clouds 15 1013 89 6000 10.29 190 16:30 17.05.2022
2073 Rain 14 1012 92 3000 10.29 180 15:32 17.05.2022
2074 Rain 12 1013 100 3000 11.83 200 14:30 17.05.2022
2075 Rain 12 1013 94 5000 10.8 200 13:35 17.05.2022
2076 Rain 13 1013 88 10000 10.8 200 11:46 17.05.2022
2077 Clouds 13 1013 82 10000 6.69 230 09:35 17.05.2022
2078 Clouds 13 1014 82 10000 9.77 200 08:33 17.05.2022
2079 Clouds 12 1015 94 10000 7.2 210 06:50 17.05.2022
2080 Clouds 11 1016 93 7000 10.29 220 03:45 17.05.2022
2081 Drizzle 11 1016 93 8000 10.29 200 00:45 17.05.2022
2082 Drizzle 12 1015 87 10000 9.26 200 22:44 16.05.2022
2083 Drizzle 13 1016 88 4000 8.23 200 21:45 16.05.2022
2084 Clouds 14 1015 72 10000 10.29 210 20:47 16.05.2022
2085 Clouds 14 1016 77 10000 10.29 200 19:49 16.05.2022
2086 Clouds 14 1016 77 10000 10.29 210 18:21 16.05.2022
2087 Drizzle 12 1016 94 10000 8.75 220 15:53 16.05.2022
2088 Drizzle 11 1016 87 10000 7.72 240 14:26 16.05.2022
2089 Drizzle 11 1016 87 10000 8.75 240 13:23 16.05.2022
2090 Drizzle 11 1014 87 8000 9.26 260 11:31 16.05.2022
2091 Drizzle 11 1015 82 8000 5.66 250 09:47 16.05.2022
2092 Clouds 12 1016 76 10000 8.23 220 06:58 16.05.2022
2093 Clouds 13 1017 62 10000 7.72 270 03:58 16.05.2022
2094 Clouds 12 1018 54 10000 4.63 260 23:44 15.05.2022
2095 Clouds 13 1018 50 10000 6.17 270 22:32 15.05.2022
2096 Clouds 13 1018 54 10000 6.17 260 21:47 15.05.2022
2097 Clouds 13 1018 54 10000 6.17 260 20:59 15.05.2022
2098 Clouds 14 1019 58 10000 6.17 250 19:53 15.05.2022
2099 Clouds 14 1020 58 10000 5.14 240 17:52 15.05.2022
2100 Clouds 14 1020 62 10000 5.66 230 16:31 15.05.2022
2101 Clear 9 1019 81 10000 5.14 220 13:59 15.05.2022
2102 Clear 9 1019 81 10000 5.14 220 13:23 15.05.2022
2103 Clouds 12 1018 66 10000 4.12 220 11:41 15.05.2022
2104 Clouds 12 1018 66 10000 3.09 220 10:35 15.05.2022
2105 Clouds 13 1018 62 10000 2.06 200 08:47 15.05.2022
2106 Clouds 13 1019 62 10000 4.12 180 06:59 15.05.2022
2107 Clear 12 1019 62 10000 2.57 200 05:57 15.05.2022
2108 Clouds 13 1018 88 10000 3.6 210 00:57 15.05.2022
2109 Clouds 15 1018 88 10000 4.12 210 23:52 14.05.2022
2110 Clouds 15 1018 88 10000 4.12 210 23:33 14.05.2022
2111 Clouds 17 1017 77 10000 4.12 220 21:43 14.05.2022
2112 Clouds 17 1017 77 10000 4.12 220 21:18 14.05.2022
2113 Clouds 17 1018 67 10000 3.09 220 19:40 14.05.2022
2114 Clouds 17 1018 67 10000 3.09 220 19:20 14.05.2022
2115 Clouds 17 1018 67 10000 4.12 210 18:47 14.05.2022
2116 Clouds 18 1018 63 10000 2.06 0 17:28 14.05.2022
2117 Clear 15 1019 77 10000 2.57 360 15:34 14.05.2022
2118 Clear 12 1019 87 10000 2.06 20 14:36 14.05.2022
2119 Clear 11 1019 82 10000 2.57 20 12:49 14.05.2022
2120 Clear 10 1018 87 10000 2.06 30 11:37 14.05.2022
2121 Clear 11 1019 82 10000 2.06 10 10:23 14.05.2022
2122 Clear 11 1019 87 10000 2.57 30 09:54 14.05.2022
2123 Clear 10 1019 87 10000 2.57 20 08:56 14.05.2022
2124 Clear 11 1019 82 10000 2.06 10 06:52 14.05.2022
2125 Clear 13 1019 71 10000 1.54 10 03:27 14.05.2022
2126 Clear 18 1017 57 10000 2.06 10 23:45 13.05.2022
2127 Clear 18 1017 57 10000 2.06 10 23:22 13.05.2022
2128 Clear 18 1017 52 10000 4.12 10 22:51 13.05.2022
2129 Clear 19 1016 55 10000 4.12 10 22:19 13.05.2022
2130 Clouds 20 1017 55 10000 4.63 10 20:49 13.05.2022
2131 Clouds 19 1018 55 10000 4.63 10 20:27 13.05.2022
2132 Clouds 19 1018 52 10000 4.63 10 19:34 13.05.2022
2133 Clouds 17 1020 59 10000 5.66 10 17:53 13.05.2022
2134 Clouds 18 1019 51 10000 5.66 10 17:29 13.05.2022
2135 Clear 16 1018 71 10000 5.66 30 16:23 13.05.2022
2136 Clear 16 1018 72 10000 5.66 30 15:39 13.05.2022
2137 Clear 10 1020 93 10000 4.12 40 13:57 13.05.2022
2138 Clear 10 1019 81 10000 3.09 50 12:33 13.05.2022
2139 Clear 9 1018 87 10000 2.57 40 11:29 13.05.2022
2140 Clear 9 1018 87 10000 2.57 30 09:43 13.05.2022
2141 Clear 9 1019 93 10000 2.57 40 08:50 13.05.2022
2142 Clear 8 1019 93 10000 2.06 30 07:49 13.05.2022
2143 Clear 8 1020 87 10000 1.54 320 06:35 13.05.2022
2144 Clear 11 1019 76 10000 2.06 70 04:22 13.05.2022
2145 Clear 12 1018 71 10000 3.09 120 00:39 13.05.2022
2146 Clear 15 1017 58 10000 3.6 130 22:46 12.05.2022
2147 Clear 16 1017 58 10000 3.6 130 21:58 12.05.2022
2148 Clouds 16 1019 59 10000 4.12 180 20:38 12.05.2022
2149 Clouds 16 1019 59 10000 2.57 150 19:18 12.05.2022
2150 Clouds 16 1021 59 10000 2.57 140 17:27 12.05.2022
2151 Clouds 15 1021 63 10000 3.09 150 16:23 12.05.2022
2152 Clouds 11 1021 87 10000 1.54 0 14:47 12.05.2022
2153 Clouds 7 1021 93 10000 1.54 310 13:47 12.05.2022
2154 Clouds 8 1020 81 10000 1.03 290 11:23 12.05.2022
2155 Clouds 12 1020 71 10000 2.57 180 09:31 12.05.2022
2156 Clouds 13 1021 67 10000 2.57 190 08:51 12.05.2022
2157 Clouds 13 1021 71 10000 3.09 190 07:41 12.05.2022
2158 Clouds 13 1021 67 10000 3.6 170 06:39 12.05.2022
2159 Clouds 14 1021 67 10000 4.63 170 02:59 12.05.2022
2160 Clear 13 1020 67 10000 5.66 170 00:39 12.05.2022
2161 Clear 14 1020 67 10000 7.2 170 22:41 11.05.2022
2162 Clear 14 1020 67 10000 6.69 160 21:55 11.05.2022
2163 Clear 15 1020 63 10000 7.72 160 21:24 11.05.2022
2164 Clouds 16 1019 72 10000 7.72 150 19:36 11.05.2022
2165 Clouds 17 1019 77 10000 8.75 150 16:59 11.05.2022
2166 Clouds 16 1019 72 10000 6.17 180 15:50 11.05.2022
2167 Clouds 14 1019 82 10000 5.66 180 14:39 11.05.2022
2168 Clouds 14 1019 82 10000 5.66 180 14:19 11.05.2022
2169 Clouds 14 1017 77 10000 4.63 200 11:55 11.05.2022
2170 Clouds 14 1017 77 10000 4.63 200 11:30 11.05.2022
2171 Clouds 15 1017 82 10000 4.12 200 08:55 11.05.2022
2172 Clouds 15 1017 94 10000 5.14 200 05:45 11.05.2022
2173 Rain 16 1017 72 10000 2.57 150 01:28 11.05.2022
2174 Clouds 16 1017 82 10000 3.6 170 22:53 10.05.2022
2175 Clouds 16 1017 82 10000 3.6 170 22:19 10.05.2022
2176 Clouds 18 1016 77 10000 5.14 170 20:59 10.05.2022
2177 Clouds 18 1016 77 10000 5.14 170 20:21 10.05.2022
2178 Clouds 18 1017 77 10000 4.63 130 18:35 10.05.2022
2179 Clouds 17 1017 94 10000 4.63 170 17:37 10.05.2022
2180 Fog 15 1018 94 6000 1.03 0 15:49 10.05.2022
2181 Mist 10 1017 100 4000 2.57 180 12:48 10.05.2022
2182 Clouds 9 1017 100 8000 1.54 340 11:53 10.05.2022
2183 Clouds 9 1017 100 8000 1.54 340 11:21 10.05.2022
2184 Clear 13 1016 94 10000 2.06 60 10:55 10.05.2022
2185 Clear 14 1017 100 10000 1.54 130 09:27 10.05.2022
2186 Fog 12 1018 100 800 0 0 07:47 10.05.2022
2187 Clouds 15 1018 94 8000 1.03 300 04:35 10.05.2022
2188 Clear 16 1019 88 10000 2.57 150 01:36 10.05.2022
2189 Clear 18 1018 72 10000 2.57 120 23:42 09.05.2022
2190 Clear 18 1018 72 10000 2.57 120 23:42 09.05.2022
2191 Clear 19 1018 77 10000 2.57 150 22:30 09.05.2022
2192 Clouds 20 1018 64 10000 3.6 190 21:25 09.05.2022
2193 Clouds 21 1020 64 10000 3.09 170 19:52 09.05.2022
2194 Clouds 20 1021 73 10000 3.09 190 17:59 09.05.2022
2195 Clear 20 1021 73 10000 1.03 0 16:55 09.05.2022
2196 Clear 20 1021 73 10000 1.03 0 16:55 09.05.2022
2197 Clear 20 1021 73 10000 1.03 0 15:54 09.05.2022
2198 Rain 18 1021 77 10000 1.03 0 15:34 09.05.2022
2199 Clear 14 1021 88 10000 2.06 20 14:33 09.05.2022
2200 Fog 12 1021 94 10000 2.57 30 13:51 09.05.2022
2201 Clear 10 1020 93 10000 2.06 20 12:32 09.05.2022
2202 Clear 10 1019 93 10000 2.06 20 11:52 09.05.2022
2203 Clear 10 1019 93 10000 1.54 10 10:46 09.05.2022
2204 Clear 9 1019 93 10000 1.03 340 09:59 09.05.2022
2205 Clear 12 1020 87 10000 1.54 20 07:56 09.05.2022
2206 Rain 12 1020 87 10000 1.54 10 04:33 09.05.2022
2207 Rain 12 1020 87 10000 1.54 10 04:33 09.05.2022
2208 Clear 16 1018 82 10000 1.54 0 00:22 09.05.2022
2209 Clear 21 1018 60 10000 2.57 320 22:58 08.05.2022
2210 Clear 22 1018 53 10000 3.09 350 22:29 08.05.2022
2211 Clear 23 1018 49 10000 4.12 350 20:53 08.05.2022
2212 Clear 23 1018 49 10000 4.12 350 20:18 08.05.2022
2213 Clear 23 1018 53 10000 5.66 340 19:27 08.05.2022
2214 Clear 23 1018 53 10000 5.66 340 19:27 08.05.2022
2215 Clear 22 1019 60 10000 5.14 340 18:35 08.05.2022
2216 Clear 20 1020 68 10000 5.66 10 17:22 08.05.2022
2217 Clear 17 1020 77 10000 5.66 360 15:44 08.05.2022
2218 Clear 17 1020 77 10000 5.66 360 15:20 08.05.2022
2219 Clear 11 1019 93 10000 3.6 10 12:46 08.05.2022
2220 Clear 12 1019 94 10000 3.09 20 10:56 08.05.2022
2221 Clear 12 1019 94 10000 3.09 20 10:22 08.05.2022
2222 Clear 13 1019 88 10000 3.09 20 09:51 08.05.2022
2223 Clear 13 1020 88 10000 2.57 20 07:41 08.05.2022
2224 Fog 14 1021 94 5000 3.09 10 04:56 08.05.2022
2225 Fog 14 1021 94 200 0 0 03:20 08.05.2022
2226 Clear 17 1021 88 10000 2.06 110 00:31 08.05.2022
2227 Clear 17 1021 88 10000 2.06 110 23:54 07.05.2022
2228 Clouds 20 1021 73 10000 2.06 250 22:58 07.05.2022
2229 Clouds 20 1021 73 10000 2.06 250 22:34 07.05.2022
2230 Clouds 23 1021 68 10000 2.57 250 21:55 07.05.2022
2231 Clouds 23 1021 68 10000 2.57 250 21:20 07.05.2022
2232 Clouds 23 1021 64 10000 2.57 360 19:59 07.05.2022
2233 Clouds 23 1022 64 10000 3.09 320 18:38 07.05.2022
2234 Clear 20 1024 83 10000 3.6 320 16:19 07.05.2022
2235 Clear 14 1024 94 10000 2.57 20 14:46 07.05.2022
2236 Clear 12 1023 94 8000 0 0 11:19 07.05.2022
2237 Clear 12 1023 94 8000 1.54 360 09:39 07.05.2022
2238 Clear 12 1023 94 8000 2.06 10 08:28 07.05.2022
2239 Fog 12 1023 94 8000 0 0 06:44 07.05.2022
2240 Fog 13 1023 94 10000 1.54 20 05:41 07.05.2022
2241 Clear 14 1023 94 10000 1.54 30 03:54 07.05.2022
2242 Clear 18 1022 82 10000 1.54 290 23:39 06.05.2022
2243 Clouds 20 1022 73 10000 3.09 280 22:33 06.05.2022
2244 Clouds 21 1022 64 10000 4.12 280 21:47 06.05.2022
2245 Clouds 21 1022 68 10000 4.63 270 20:37 06.05.2022
2246 Clouds 21 1021 73 10000 4.12 270 19:43 06.05.2022
2247 Clouds 21 1021 73 10000 4.12 270 19:19 06.05.2022
2248 Clouds 22 1022 60 10000 4.12 320 18:25 06.05.2022
2249 Clouds 20 1023 68 10000 3.6 310 17:27 06.05.2022
2250 Clear 15 1023 82 10000 3.6 330 15:49 06.05.2022
2251 Clear 15 1023 82 10000 3.6 330 14:58 06.05.2022
2252 Clear 10 1022 93 10000 3.09 10 13:38 06.05.2022
2253 Clear 10 1021 93 10000 2.57 10 12:42 06.05.2022
2254 Fog 10 1021 93 10000 2.06 360 11:58 06.05.2022
2255 Clear 10 1020 93 10000 2.06 10 10:36 06.05.2022
2256 Clear 10 1020 93 10000 2.57 350 09:46 06.05.2022
2257 Clear 11 1021 87 10000 3.6 10 08:52 06.05.2022
2258 Clear 12 1021 87 10000 3.09 10 07:27 06.05.2022
2259 Clear 12 1021 87 10000 3.6 10 06:24 06.05.2022
2260 Fog 15 1020 82 10000 1.03 40 02:54 06.05.2022
2261 Clear 15 1020 83 10000 1.03 70 01:57 06.05.2022
2262 Clouds 20 1020 64 10000 2.57 160 22:45 05.05.2022
2263 Clouds 21 1020 56 10000 2.57 350 21:45 05.05.2022
2264 Clouds 20 1020 64 10000 3.6 340 20:27 05.05.2022
2265 Clouds 20 1021 58 10000 4.63 320 18:36 05.05.2022
2266 Clear 19 1022 66 10000 2.57 360 16:40 05.05.2022
2267 Clear 13 1021 81 10000 2.57 360 14:53 05.05.2022
2268 Clear 9 1021 95 10000 3.6 30 13:25 05.05.2022
2269 Clear 10 1020 95 10000 2.57 20 12:53 05.05.2022
2270 Clear 10 1020 99 10000 2.06 10 10:53 05.05.2022
2271 Clear 10 1020 99 10000 1.54 360 09:40 05.05.2022
2272 Rain 10 1020 99 8000 2.57 40 07:45 05.05.2022
2273 Fog 12 1020 97 100 1.03 360 05:42 05.05.2022
2274 Clear 13 1020 90 8000 0 0 02:18 05.05.2022
2275 Clear 13 1020 88 10000 1.03 120 01:32 05.05.2022
2276 Clear 15 1019 75 10000 2.06 160 23:53 04.05.2022
2277 Clear 18 1019 63 10000 2.57 170 22:50 04.05.2022
2278 Clear 19 1019 55 10000 3.09 170 21:54 04.05.2022
2279 Clear 19 1019 55 10000 3.09 170 21:29 04.05.2022
2280 Clouds 20 1019 52 10000 3.09 170 20:30 04.05.2022
2281 Clear 19 1020 48 10000 3.09 310 19:55 04.05.2022
2282 Clear 19 1020 48 10000 3.09 310 19:24 04.05.2022
2283 Clouds 19 1021 55 10000 3.09 10 18:22 04.05.2022
2284 Clouds 19 1021 55 10000 3.6 340 17:58 04.05.2022
2285 Clear 15 1022 79 10000 3.09 350 15:42 04.05.2022
2286 Clear 14 1022 81 10000 3.09 350 15:24 04.05.2022
2287 Clear 11 1022 95 10000 3.09 10 14:21 04.05.2022
2288 Fog 8 1021 100 10000 2.06 10 13:49 04.05.2022
2289 Fog 7 1021 100 10000 2.06 20 12:34 04.05.2022
2290 Mist 10 1020 99 5000 1.54 350 10:57 04.05.2022
2291 Mist 10 1021 99 5000 1.03 0 09:45 04.05.2022
2292 Mist 10 1021 100 5000 1.54 360 08:49 04.05.2022
2293 Mist 11 1022 97 1500 1.54 350 07:33 04.05.2022
2294 Mist 13 1022 91 5000 1.03 0 02:59 04.05.2022
2295 Clouds 12 1021 90 10000 1.54 170 01:24 04.05.2022
2296 Clouds 16 1021 67 10000 3.6 180 22:50 03.05.2022
2297 Clouds 16 1021 72 10000 4.12 160 21:47 03.05.2022
2298 Clouds 17 1021 71 10000 4.12 160 21:20 03.05.2022
2299 Clouds 17 1021 70 10000 4.63 170 20:31 03.05.2022
2300 Clouds 18 1022 65 10000 3.6 190 18:54 03.05.2022
2301 Clouds 18 1022 65 10000 3.6 190 18:34 03.05.2022
2302 Clouds 18 1022 59 10000 3.09 140 17:19 03.05.2022
2303 Clouds 16 1023 77 10000 2.57 100 15:43 03.05.2022
2304 Clear 12 1023 94 10000 2.57 160 13:32 03.05.2022
2305 Clear 11 1022 93 10000 2.57 160 12:30 03.05.2022
2306 Clear 12 1022 91 10000 2.57 220 11:23 03.05.2022
2307 Clouds 13 1022 89 10000 2.57 180 09:58 03.05.2022
2308 Clouds 13 1023 91 10000 0 0 07:59 03.05.2022
2309 Clouds 13 1022 88 10000 2.06 170 06:45 03.05.2022
2310 Clouds 13 1022 78 10000 3.09 160 01:53 03.05.2022
2311 Clouds 14 1022 66 10000 4.12 130 22:47 02.05.2022
2312 Clouds 14 1022 66 10000 4.12 130 22:25 02.05.2022
2313 Clouds 14 1021 65 10000 5.14 130 21:26 02.05.2022
2314 Clouds 15 1022 55 10000 4.63 160 18:57 02.05.2022
2315 Clouds 15 1022 55 10000 4.12 160 18:25 02.05.2022
2316 Clouds 16 1023 53 10000 4.63 110 17:38 02.05.2022
2317 Clouds 15 1023 53 10000 5.14 120 16:25 02.05.2022
2318 Clouds 14 1023 57 10000 6.17 130 15:41 02.05.2022
2319 Clouds 13 1022 65 10000 6.17 150 14:20 02.05.2022
2320 Clear 13 1021 67 10000 6.17 150 12:52 02.05.2022
2321 Clouds 13 1021 72 10000 5.14 140 11:24 02.05.2022
2322 Clouds 12 1020 78 10000 4.63 140 09:32 02.05.2022
2323 Clouds 12 1020 75 10000 6.17 150 07:57 02.05.2022
2324 Clouds 13 1020 71 10000 6.17 160 05:59 02.05.2022
2325 Clouds 12 1017 77 10000 4.12 190 00:40 02.05.2022
2326 Clouds 12 1017 76 10000 4.12 190 00:21 02.05.2022
2327 Clouds 15 1017 66 10000 4.63 190 22:53 01.05.2022
2328 Clouds 16 1016 59 10000 5.66 210 21:41 01.05.2022
2329 Clear 17 1016 62 10000 5.66 210 20:29 01.05.2022
2330 Clear 16 1016 63 10000 5.14 220 19:21 01.05.2022
2331 Clear 16 1016 55 10000 5.14 220 18:52 01.05.2022
2332 Clear 16 1017 59 10000 6.17 220 17:49 01.05.2022
2333 Clear 16 1017 62 10000 5.66 220 16:29 01.05.2022
2334 Clear 15 1017 64 10000 4.63 230 15:45 01.05.2022
2335 Clear 12 1016 83 10000 1.54 330 14:45 01.05.2022
2336 Mist 8 1016 93 10000 1.54 340 12:24 01.05.2022
2337 Mist 10 1015 89 3000 1.54 330 10:22 01.05.2022
2338 Fog 10 1015 90 3000 1.54 340 08:49 01.05.2022
2339 Mist 10 1016 86 5000 1.03 240 06:31 01.05.2022
2340 Clear 12 1017 78 10000 1.03 120 01:56 01.05.2022
2341 Clear 13 1018 69 10000 2.57 180 22:18 30.04.2022
2342 Clear 14 1019 65 10000 3.09 200 21:32 30.04.2022
2343 Clouds 16 1020 51 10000 2.06 80 19:54 30.04.2022
2344 Clouds 15 1021 58 10000 2.06 50 18:53 30.04.2022
2345 Clouds 14 1022 62 10000 2.06 350 17:31 30.04.2022
2346 Clear 11 1022 76 10000 2.57 40 15:51 30.04.2022
2347 Clear 11 1022 76 10000 2.57 40 15:51 30.04.2022
2348 Clear 11 1022 76 10000 2.57 40 15:18 30.04.2022
2349 Fog 7 1023 94 9000 1.54 360 13:52 30.04.2022
2350 Clouds 4 1022 87 8000 1.03 350 11:48 30.04.2022
2351 Clouds 4 1022 87 8000 1.03 350 11:26 30.04.2022
2352 Clouds 5 1023 87 7000 1.03 10 09:57 30.04.2022
2353 Clouds 5 1024 87 7000 1.54 350 07:47 30.04.2022
2354 Clear 7 1026 81 9000 1.54 340 03:58 30.04.2022
2355 Clouds 9 1025 68 10000 2.06 210 23:55 29.04.2022
2356 Clouds 12 1026 62 10000 4.12 230 22:51 29.04.2022
2357 Clouds 12 1026 62 10000 4.63 210 21:56 29.04.2022
2358 Clouds 14 1026 57 10000 4.63 210 21:24 29.04.2022
2359 Clouds 14 1026 56 10000 4.12 240 20:18 29.04.2022
2360 Clouds 14 1026 59 10000 4.12 230 19:27 29.04.2022
2361 Clouds 14 1027 55 10000 5.14 230 17:34 29.04.2022
2362 Clouds 14 1027 56 10000 4.63 220 16:36 29.04.2022
2363 Clouds 12 1026 64 10000 3.09 220 14:36 29.04.2022
2364 Clouds 8 1025 69 10000 2.06 290 13:36 29.04.2022
2365 Clouds 9 1025 69 10000 2.57 220 12:36 29.04.2022
2366 Clouds 10 1025 58 10000 3.09 250 10:29 29.04.2022
2367 Clouds 11 1024 59 10000 2.57 240 07:54 29.04.2022
2368 Clouds 11 1024 60 10000 3.09 250 07:25 29.04.2022
2369 Clouds 11 1024 58 10000 4.12 240 06:30 29.04.2022
2370 Clear 13 1022 46 10000 5.14 230 01:47 29.04.2022
2371 Clear 12 1021 48 10000 3.6 240 23:55 28.04.2022
2372 Clear 13 1021 47 10000 5.14 250 23:25 28.04.2022
2373 Clear 16 1020 42 10000 6.17 240 22:24 28.04.2022
2374 Clear 16 1020 48 10000 6.17 230 21:41 28.04.2022
2375 Clear 16 1019 50 10000 6.69 230 20:45 28.04.2022
2376 Clear 17 1019 46 10000 6.69 220 19:52 28.04.2022
2377 Clear 17 1019 47 10000 6.69 220 19:24 28.04.2022
2378 Clear 17 1019 52 10000 6.17 220 18:51 28.04.2022
2379 Clear 17 1019 51 10000 5.66 210 17:53 28.04.2022
2380 Clear 19 1018 48 10000 4.63 200 16:52 28.04.2022
2381 Clear 18 1018 47 10000 4.63 200 16:20 28.04.2022
2382 Clear 18 1017 46 10000 3.6 160 15:48 28.04.2022
2383 Clear 15 1017 60 10000 6.17 190 14:58 28.04.2022
2384 Clear 13 1015 77 10000 8.23 180 13:37 28.04.2022
2385 Clear 10 1014 93 10000 1.03 160 12:29 28.04.2022
2386 Clear 10 1013 87 10000 2.06 10 10:59 28.04.2022
2387 Clear 10 1013 87 10000 2.06 10 10:26 28.04.2022
2388 Clear 10 1012 93 10000 2.06 240 09:50 28.04.2022
2389 Clouds 11 1012 89 8000 0 0 07:41 28.04.2022
2390 Clear 11 1012 91 10000 1.54 350 06:43 28.04.2022
2391 Clear 11 1012 88 10000 1.03 40 05:52 28.04.2022
2392 Clear 11 1011 84 10000 0 0 04:42 28.04.2022
2393 Clear 12 1010 79 10000 1.03 330 01:53 28.04.2022
2394 Clear 15 1010 72 10000 2.57 240 23:32 27.04.2022
2395 Clear 18 1010 59 10000 3.09 250 22:20 27.04.2022
2396 Clear 19 1009 55 10000 3.09 250 21:43 27.04.2022
2397 Clear 19 1009 59 10000 2.06 260 20:45 27.04.2022
2398 Clear 19 1009 55 10000 2.06 220 19:55 27.04.2022
2399 Clear 19 1009 55 10000 2.06 220 19:34 27.04.2022
2400 Clouds 19 1009 53 10000 5.14 210 18:39 27.04.2022
2401 Clouds 19 1007 60 10000 7.72 230 17:55 27.04.2022
2402 Clouds 19 1006 80 10000 7.72 240 16:18 27.04.2022
2403 Clouds 16 1002 100 3000 1.54 70 13:18 27.04.2022
2404 Rain 17 999 88 10000 3.09 210 11:25 27.04.2022
2405 Thunderstorm 17 999 88 10000 7.2 220 10:45 27.04.2022
2406 Clouds 24 995 83 10000 9.77 340 08:22 27.04.2022
2407 Clouds 23 996 88 10000 9.26 10 06:41 27.04.2022
2408 Clouds 23 998 85 10000 7.72 40 02:31 27.04.2022
2409 Clouds 22 1000 84 10000 6.17 40 01:23 27.04.2022
2410 Clouds 22 1000 83 10000 7.72 50 00:27 27.04.2022
2411 Clouds 24 1001 78 10000 6.69 40 23:24 26.04.2022
2412 Clear 25 1002 73 10000 7.2 40 22:45 26.04.2022
2413 Clear 25 1002 73 10000 7.2 40 22:19 26.04.2022
2414 Clear 26 1003 65 10000 7.2 30 21:24 26.04.2022
2415 Clouds 26 1004 65 10000 7.2 30 20:38 26.04.2022
2416 Clouds 25 1005 65 10000 6.69 40 19:45 26.04.2022
2417 Clouds 25 1005 65 10000 6.69 40 19:26 26.04.2022
2418 Clear 24 1007 69 10000 5.66 40 18:39 26.04.2022
2419 Clouds 21 1008 78 10000 8.23 40 17:41 26.04.2022
2420 Clouds 23 1010 74 10000 4.63 30 15:41 26.04.2022
2421 Clouds 19 1010 95 10000 3.09 50 13:51 26.04.2022
2422 Clouds 19 1010 95 10000 3.09 50 13:28 26.04.2022
2423 Clouds 20 1009 97 10000 3.09 60 11:24 26.04.2022
2424 Clouds 20 1009 96 10000 3.6 80 10:30 26.04.2022
2425 Clouds 19 1010 97 10000 3.6 110 08:34 26.04.2022
2426 Mist 19 1009 100 4000 2.57 140 04:59 26.04.2022
2427 Mist 19 1009 100 4000 2.57 140 04:22 26.04.2022
2428 Clouds 20 1008 94 8000 2.57 150 00:51 26.04.2022
2429 Clouds 21 1007 94 10000 3.09 110 23:50 25.04.2022
2430 Clouds 21 1007 94 10000 1.54 120 21:57 25.04.2022
2431 Clouds 21 1007 88 10000 1.54 90 21:26 25.04.2022
2432 Clouds 21 1006 88 10000 3.09 90 19:58 25.04.2022
2433 Drizzle 20 1007 94 8000 3.09 50 18:48 25.04.2022
2434 Clouds 20 1007 94 7000 3.09 130 17:40 25.04.2022
2435 Mist 19 1006 100 4000 1.54 40 16:44 25.04.2022
2436 Mist 19 1006 100 3000 5.14 130 15:23 25.04.2022
2437 Mist 19 1006 100 3000 2.06 130 14:34 25.04.2022
2438 Rain 19 1004 94 8000 5.66 340 12:49 25.04.2022
2439 Thunderstorm 20 1003 94 5000 5.14 330 10:44 25.04.2022
2440 Thunderstorm 20 1004 94 500 9.77 280 09:42 25.04.2022
2441 Thunderstorm 20 1005 56 10000 9.31 6 07:49 25.04.2022
2442 Thunderstorm 19 1006 55 10000 4.12 20 05:54 25.04.2022
2443 Clear 20 1007 37 10000 3.6 30 01:30 25.04.2022
2444 Clear 20 1007 45 10000 5.14 30 23:56 24.04.2022
2445 Clear 23 1007 38 10000 5.14 30 23:25 24.04.2022
2446 Clear 25 1008 23 10000 6.17 10 22:39 24.04.2022
2447 Clear 25 1008 25 10000 7.72 20 21:56 24.04.2022
2448 Clear 25 1008 25 10000 7.72 20 21:22 24.04.2022
2449 Clear 25 1008 27 10000 7.72 20 20:46 24.04.2022
2450 Clear 25 1008 27 10000 7.72 20 20:21 24.04.2022
2451 Clear 23 1010 40 10000 7.2 20 18:44 24.04.2022
2452 Clear 20 1012 52 10000 7.2 10 17:49 24.04.2022
2453 Clear 20 1012 52 10000 7.2 10 17:21 24.04.2022
2454 Clear 20 1012 52 10000 7.2 10 17:21 24.04.2022
2455 Clear 19 1012 55 10000 5.66 350 16:51 24.04.2022
2456 Clear 19 1012 55 10000 5.66 350 16:25 24.04.2022
2457 Clear 17 1012 59 10000 5.66 360 15:43 24.04.2022
2458 Clear 14 1012 72 10000 5.14 360 14:33 24.04.2022
2459 Clear 11 1011 82 10000 4.63 20 13:27 24.04.2022
2460 Clear 10 1011 87 10000 3.6 340 12:56 24.04.2022
2461 Clear 11 1010 76 10000 4.12 350 11:50 24.04.2022
2462 Clear 11 1009 82 10000 4.63 350 10:47 24.04.2022
2463 Clear 11 1009 82 10000 3.09 340 09:47 24.04.2022
2464 Clear 12 1009 82 10000 4.63 10 07:55 24.04.2022
2465 Clear 12 1009 76 10000 4.12 360 05:45 24.04.2022
2466 Clear 15 1008 63 10000 5.66 340 02:30 24.04.2022
2467 Clear 16 1007 59 10000 4.63 350 00:45 24.04.2022
2468 Clear 18 1006 52 10000 5.14 360 23:46 23.04.2022
2469 Clear 18 1006 52 10000 5.14 360 23:25 23.04.2022
2470 Clear 21 1006 40 10000 6.17 310 21:59 23.04.2022
2471 Clear 21 1006 40 10000 6.17 310 21:38 23.04.2022
2472 Clear 21 1005 39 10000 8.23 330 20:59 23.04.2022
2473 Clear 21 1006 41 10000 7.72 300 19:56 23.04.2022
2474 Clear 20 1006 42 10000 7.72 300 19:20 23.04.2022
2475 Clear 19 1007 45 10000 5.66 300 18:54 23.04.2022
2476 Clear 19 1007 45 10000 5.66 300 18:31 23.04.2022
2477 Clear 18 1007 59 10000 7.2 310 17:44 23.04.2022
2478 Clear 17 1007 62 10000 7.72 320 16:45 23.04.2022
2479 Clear 16 1007 75 10000 3.6 310 15:36 23.04.2022
2480 Clear 11 1006 78 10000 2.57 330 13:24 23.04.2022
2481 Clouds 12 1005 70 10000 1.54 340 11:29 23.04.2022
2482 Clouds 13 1005 67 10000 2.57 240 09:39 23.04.2022
2483 Clouds 14 1005 68 10000 3.6 230 07:52 23.04.2022
2484 Clouds 16 1006 66 10000 7.72 236 03:56 23.04.2022
2485 Clouds 16 1004 71 10000 2.57 280 02:34 23.04.2022
2486 Clouds 14 1004 84 10000 3.6 290 23:34 22.04.2022
2487 Clouds 15 1004 88 8000 5.66 270 22:40 22.04.2022
2488 Clouds 15 1004 94 6000 6.17 300 21:55 22.04.2022
2489 Clouds 15 1004 94 6000 6.17 300 21:37 22.04.2022
2490 Rain 15 1004 92 6000 4.63 310 20:29 22.04.2022
2491 Rain 15 1004 88 9000 4.12 320 19:23 22.04.2022
2492 Clouds 15 1005 76 9000 3.6 320 18:53 22.04.2022
2493 Rain 15 1005 75 9000 3.6 320 18:20 22.04.2022
2494 Rain 15 1005 72 10000 5.14 350 16:53 22.04.2022
2495 Rain 15 1006 72 10000 3.6 330 15:57 22.04.2022
2496 Rain 15 1006 72 10000 3.6 330 15:23 22.04.2022
2497 Rain 14 1006 76 10000 2.57 300 14:21 22.04.2022
2498 Rain 14 1005 81 10000 1.54 360 13:41 22.04.2022
2499 Rain 12 1005 88 10000 3.09 330 12:30 22.04.2022
2500 Rain 13 1006 89 10000 3.09 350 11:23 22.04.2022
2501 Clear 13 1006 92 10000 3.09 360 10:53 22.04.2022
2502 Rain 13 1006 92 10000 3.09 360 10:32 22.04.2022
2503 Rain 12 1006 94 10000 2.57 20 09:54 22.04.2022
2504 Clear 11 1007 93 10000 5.14 50 08:56 22.04.2022
2505 Clear 12 1007 92 10000 5.14 50 08:29 22.04.2022
2506 Clear 13 1009 74 10000 2.06 30 05:31 22.04.2022
2507 Clear 14 1009 77 10000 1.54 350 00:53 22.04.2022
2508 Clear 17 1009 65 10000 1.54 300 23:29 21.04.2022
2509 Clear 18 1010 59 10000 3.6 290 22:34 21.04.2022
2510 Clear 19 1010 59 10000 3.6 260 21:23 21.04.2022
2511 Clear 20 1010 53 10000 4.63 280 20:27 21.04.2022
2512 Clear 20 1011 48 10000 4.12 240 18:49 21.04.2022
2513 Clear 20 1011 47 10000 4.12 240 18:19 21.04.2022
2514 Clouds 19 1013 64 10000 4.63 250 16:56 21.04.2022
2515 Clouds 17 1014 82 10000 6.69 240 15:24 21.04.2022
2516 Clouds 17 1014 84 10000 4.63 260 14:51 21.04.2022
2517 Clear 16 1013 96 10000 2.06 250 13:59 21.04.2022
2518 Clear 16 1013 97 10000 2.06 250 13:21 21.04.2022
2519 Clear 17 1011 93 10000 3.09 350 11:46 21.04.2022
2520 Rain 17 1012 95 10000 3.6 30 09:24 21.04.2022
2521 Rain 17 1013 95 10000 2.06 30 08:29 21.04.2022
2522 Rain 18 1014 93 5000 5.14 300 06:36 21.04.2022
2523 Clear 21 1014 72 10000 3.6 50 03:39 21.04.2022
2524 Clear 21 1014 72 10000 3.6 50 03:39 21.04.2022
2525 Clear 20 1014 71 10000 3.6 50 03:18 21.04.2022
2526 Clear 21 1014 67 10000 3.09 50 02:43 21.04.2022
2527 Clouds 23 1014 56 10000 2.57 40 00:27 21.04.2022
2528 Clouds 25 1013 50 10000 3.09 20 23:25 20.04.2022
2529 Clouds 26 1013 44 10000 4.63 10 22:59 20.04.2022
2530 Clouds 26 1013 44 10000 4.63 10 22:59 20.04.2022
2531 Clouds 26 1013 44 10000 4.63 10 22:33 20.04.2022
2532 Clouds 27 1014 41 10000 4.63 10 21:36 20.04.2022
2533 Clouds 27 1014 44 10000 3.09 360 20:44 20.04.2022
2534 Clouds 26 1014 47 10000 3.09 360 20:21 20.04.2022
2535 Clouds 25 1015 50 10000 4.12 360 19:39 20.04.2022
2536 Clouds 25 1016 57 10000 4.63 30 18:45 20.04.2022
2537 Clouds 24 1017 57 10000 4.12 20 17:18 20.04.2022
2538 Clouds 22 1017 64 10000 5.14 20 16:39 20.04.2022
2539 Clouds 19 1017 76 10000 5.66 40 14:55 20.04.2022
2540 Clear 15 1016 97 10000 4.63 40 12:22 20.04.2022
2541 Clear 16 1016 91 10000 3.09 30 11:40 20.04.2022
2542 Clear 16 1016 87 10000 3.6 30 10:39 20.04.2022
2543 Clear 17 1016 81 10000 2.57 50 09:28 20.04.2022
2544 Clear 17 1017 82 10000 3.09 30 08:27 20.04.2022
2545 Clear 17 1017 83 10000 2.57 50 07:44 20.04.2022
2546 Clear 18 1017 79 10000 3.6 40 05:29 20.04.2022
2547 Clouds 18 1016 93 10000 2.06 110 01:35 20.04.2022
2548 Clear 19 1016 87 10000 4.12 120 00:21 20.04.2022
2549 Clouds 22 1016 73 10000 4.12 140 22:53 19.04.2022
2550 Clouds 22 1016 73 10000 4.63 130 22:23 19.04.2022
2551 Clouds 22 1016 78 10000 4.12 140 21:48 19.04.2022
2552 Clouds 24 1016 66 10000 4.63 140 20:57 19.04.2022
2553 Clouds 24 1016 66 10000 4.63 140 20:37 19.04.2022
2554 Clouds 25 1017 53 10000 3.6 140 19:32 19.04.2022
2555 Clouds 23 1017 64 10000 3.09 20 18:30 19.04.2022
2556 Clear 21 1018 73 10000 2.57 360 16:50 19.04.2022
2557 Clear 21 1018 73 10000 2.57 360 16:25 19.04.2022
2558 Clear 19 1018 82 10000 4.12 30 15:59 19.04.2022
2559 Clouds 18 1018 82 10000 4.63 40 14:46 19.04.2022
2560 Fog 16 1017 95 10000 3.6 60 12:53 19.04.2022
2561 Fog 16 1017 95 10000 3.6 60 12:34 19.04.2022
2562 Clear 16 1017 97 10000 0 0 11:34 19.04.2022
2563 Clear 16 1017 95 10000 0 0 09:35 19.04.2022
2564 Clear 15 1018 93 10000 2.06 40 07:43 19.04.2022
2565 Clear 16 1019 90 10000 4.12 70 04:25 19.04.2022
2566 Clear 18 1018 89 10000 3.09 100 01:42 19.04.2022
2567 Clouds 19 1018 77 10000 5.14 130 23:51 18.04.2022
2568 Clouds 22 1018 65 10000 6.17 120 22:53 18.04.2022
2569 Clouds 20 1019 73 10000 5.14 120 21:26 18.04.2022
2570 Clouds 21 1019 73 10000 5.14 190 20:39 18.04.2022
2571 Clouds 21 1019 71 10000 5.14 190 20:19 18.04.2022
2572 Clouds 23 1019 57 10000 5.14 130 19:33 18.04.2022
2573 Clouds 22 1020 64 10000 3.6 50 18:45 18.04.2022
2574 Clouds 22 1021 62 10000 5.66 40 17:49 18.04.2022
2575 Clouds 22 1021 64 10000 5.66 40 17:19 18.04.2022
2576 Clouds 21 1021 70 10000 5.14 50 16:39 18.04.2022
2577 Clear 19 1022 78 10000 5.66 80 15:32 18.04.2022
2578 Clear 16 1022 88 10000 4.12 90 14:27 18.04.2022
2579 Clear 15 1022 95 10000 3.09 100 13:24 18.04.2022
2580 Fog 14 1021 95 10000 3.09 90 12:27 18.04.2022
2581 Clouds 15 1021 95 10000 3.71 51 10:58 18.04.2022
2582 Clouds 15 1021 95 10000 3.73 51 10:18 18.04.2022
2583 Clear 15 1021 94 10000 1.54 80 09:30 18.04.2022
2584 Clear 17 1022 91 10000 3.09 80 07:29 18.04.2022
2585 Rain 18 1023 80 10000 5.14 100 03:51 18.04.2022
2586 Clouds 18 1022 77 10000 5.14 120 23:30 17.04.2022
2587 Clouds 20 1021 64 10000 5.66 120 22:37 17.04.2022
2588 Clouds 20 1022 56 10000 5.66 120 21:34 17.04.2022
2589 Clouds 21 1022 54 10000 4.12 120 20:53 17.04.2022
2590 Clouds 21 1022 55 10000 4.12 120 20:25 17.04.2022
2591 Clouds 21 1023 61 10000 3.09 110 19:20 17.04.2022
2592 Clouds 21 1024 60 10000 4.63 110 17:34 17.04.2022
2593 Rain 19 1024 68 10000 3.09 70 15:37 17.04.2022
2594 Clouds 19 1024 68 10000 3.09 70 14:53 17.04.2022
2595 Clouds 16 1024 87 10000 2.06 80 13:41 17.04.2022
2596 Clouds 15 1024 89 10000 2.57 80 12:52 17.04.2022
2597 Clouds 16 1023 89 10000 0 0 11:22 17.04.2022
2598 Rain 16 1023 89 10000 1.54 70 10:30 17.04.2022
2599 Rain 15 1023 89 10000 1.54 110 09:57 17.04.2022
2600 Clouds 15 1023 87 10000 1.54 110 09:23 17.04.2022
2601 Clouds 16 1023 84 10000 0 0 08:41 17.04.2022
2602 Clouds 17 1024 77 10000 1.54 80 06:52 17.04.2022
2603 Clouds 18 1024 79 10000 5.14 120 02:56 17.04.2022
2604 Clouds 17 1023 77 10000 3.09 140 00:43 17.04.2022
2605 Clouds 18 1023 76 10000 4.63 110 23:41 16.04.2022
2606 Clouds 20 1022 68 10000 5.14 130 21:55 16.04.2022
2607 Clouds 19 1022 69 10000 5.14 130 21:23 16.04.2022
2608 Clouds 21 1023 60 10000 4.63 130 19:33 16.04.2022
2609 Clouds 22 1023 53 10000 4.12 10 18:45 16.04.2022
2610 Clouds 20 1024 56 10000 3.09 10 17:38 16.04.2022
2611 Clouds 18 1025 72 10000 3.09 40 16:31 16.04.2022
2612 Clouds 17 1025 82 10000 3.09 50 15:23 16.04.2022
2613 Fog 15 1025 88 10000 2.06 50 14:43 16.04.2022
2614 Fog 13 1024 90 9000 1.54 60 13:55 16.04.2022
2615 Fog 13 1024 90 9000 1.54 60 13:25 16.04.2022
2616 Fog 11 1023 100 800 0 0 11:58 16.04.2022
2617 Fog 12 1022 100 600 0 0 10:37 16.04.2022
2618 Fog 11 1022 97 100 1.54 330 09:39 16.04.2022
2619 Fog 12 1022 95 10000 1.54 330 08:54 16.04.2022
2620 Clear 14 1022 95 10000 3.09 70 07:31 16.04.2022
2621 Clear 14 1022 93 10000 2.57 90 06:18 16.04.2022
2622 Clouds 16 1022 87 10000 4.12 130 01:53 16.04.2022
2623 Clouds 16 1022 81 10000 4.63 130 00:19 16.04.2022
2624 Clouds 19 1022 68 10000 5.14 110 22:52 15.04.2022
2625 Clouds 19 1022 68 10000 5.14 110 22:31 15.04.2022
2626 Clouds 20 1022 60 10000 4.63 140 21:35 15.04.2022
2627 Clouds 19 1021 91 10000 4.12 140 20:44 15.04.2022
2628 Clouds 19 1021 94 10000 4.02 144 19:52 15.04.2022
2629 Clouds 18 1022 94 10000 3.6 140 19:33 15.04.2022
2630 Clouds 18 1022 94 10000 5 60 18:45 15.04.2022
2631 Clouds 18 1022 94 10000 5 60 18:23 15.04.2022
2632 Clouds 17 1023 94 10000 5 20 17:29 15.04.2022
2633 Clouds 17 1023 93 10000 4 100 16:25 15.04.2022
2634 Clouds 17 1023 95 10000 6 100 15:54 15.04.2022
2635 Clouds 15 1023 82 10000 2 170 14:22 15.04.2022
2636 Clear 11 1022 90 10000 1.03 260 12:53 15.04.2022
2637 Clear 11 1022 90 10000 1.03 260 12:28 15.04.2022
2638 Clouds 12 1022 81 10000 4.63 150 11:54 15.04.2022
2639 Clouds 13 1022 75 10000 2.06 170 10:49 15.04.2022
2640 Clouds 14 1022 73 10000 2.06 170 10:21 15.04.2022
2641 Clouds 15 1022 73 10000 2.57 150 09:24 15.04.2022
2642 Clouds 15 1022 72 10000 2.57 170 08:57 15.04.2022
2643 Clouds 15 1022 73 10000 4.12 140 06:55 15.04.2022
2644 Clouds 15 1022 73 10000 3.09 150 05:56 15.04.2022
2645 Clouds 15 1022 73 10000 3.6 160 01:33 15.04.2022
2646 Clouds 16 1022 64 10000 6.17 180 23:30 14.04.2022
2647 Clouds 17 1022 58 10000 6.17 180 22:46 14.04.2022
2648 Clouds 17 1021 65 10000 6.17 180 22:27 14.04.2022
2649 Clouds 17 1021 65 10000 6.17 180 22:27 14.04.2022
2650 Clouds 17 1021 65 10000 6.69 200 21:53 14.04.2022
2651 Clouds 18 1021 62 10000 6.17 200 20:35 14.04.2022
2652 Clouds 18 1022 53 10000 6.69 200 19:22 14.04.2022
2653 Clouds 18 1022 55 10000 6.69 190 17:58 14.04.2022
2654 Clouds 18 1022 56 10000 6.69 190 17:28 14.04.2022
2655 Clouds 18 1022 63 10000 6.17 200 16:33 14.04.2022
2656 Clouds 18 1021 73 10000 5.36 216 14:27 14.04.2022
2657 Clouds 17 1021 81 10000 3.58 186 13:39 14.04.2022
2658 Clouds 9 1020 89 10000 1.54 270 12:51 14.04.2022
2659 Clouds 9 1020 89 10000 1.54 270 12:30 14.04.2022
2660 Clouds 13 1020 73 10000 1.03 200 11:23 14.04.2022
2661 Clear 13 1019 74 10000 2.06 330 10:36 14.04.2022
2662 Clear 9 1019 81 10000 2.06 330 09:56 14.04.2022
2663 Clear 9 1019 87 10000 2.06 310 08:44 14.04.2022
2664 Clear 9 1019 87 10000 0 0 06:51 14.04.2022
2665 Clear 12 1018 76 10000 0 0 02:53 14.04.2022
2666 Clear 16 1017 67 10000 3.6 240 22:56 13.04.2022
2667 Clouds 17 1017 61 10000 4.63 220 22:19 13.04.2022
2668 Clouds 17 1016 60 10000 5.66 220 21:34 13.04.2022
2669 Clouds 17 1016 66 10000 6.17 220 20:22 13.04.2022
2670 Clouds 18 1016 66 10000 5.66 220 19:32 13.04.2022
2671 Clouds 17 1016 66 10000 5.66 230 18:20 13.04.2022
2672 Clouds 17 1016 68 10000 5.14 220 17:24 13.04.2022
2673 Clouds 17 1016 69 10000 5.14 210 16:34 13.04.2022
2674 Clouds 16 1016 73 10000 4.63 250 15:38 13.04.2022
2675 Clouds 16 1016 75 10000 3.6 250 14:51 13.04.2022
2676 Clouds 16 1016 73 10000 3.6 250 14:26 13.04.2022
2677 Clouds 12 1016 82 10000 2.57 250 13:28 13.04.2022
2678 Clear 12 1012 82 10000 3.6 250 12:25 13.04.2022
2679 Clear 12 1012 82 10000 3.6 250 12:25 13.04.2022
2680 Clear 14 1014 69 10000 2.06 350 10:54 13.04.2022
2681 Clear 14 1014 62 10000 2.57 270 09:44 13.04.2022
2682 Clear 15 1014 63 10000 2.06 260 08:43 13.04.2022
2683 Clouds 17 1014 61 10000 1.54 320 06:52 13.04.2022
2684 Clouds 17 1014 51 10000 1.54 320 06:26 13.04.2022
2685 Clear 17 1014 58 10000 1.54 310 05:36 13.04.2022
2686 Clear 16 1012 71 10000 2.57 320 00:22 13.04.2022
2687 Clear 18 1011 57 10000 3.6 280 23:45 12.04.2022
2688 Clear 20 1009 45 10000 4.12 280 22:19 12.04.2022
2689 Clear 19 1009 48 10000 5.66 270 21:29 12.04.2022
2690 Clear 19 1008 51 10000 5.14 260 20:41 12.04.2022
2691 Clear 19 1009 46 10000 5.14 270 19:50 12.04.2022
2692 Clear 20 1009 45 10000 5.14 270 19:31 12.04.2022
2693 Clouds 20 1009 46 10000 5.66 270 18:31 12.04.2022
2694 Clouds 19 1010 52 10000 5.66 270 17:30 12.04.2022
2695 Clouds 19 1010 54 10000 5.14 270 16:23 12.04.2022
2696 Clouds 19 1010 56 10000 4.12 280 15:33 12.04.2022
2697 Clear 18 1010 64 10000 4.47 285 14:29 12.04.2022
2698 Clear 18 1010 62 10000 4.02 279 13:37 12.04.2022
2699 Clear 13 1010 82 10000 2.06 0 12:53 12.04.2022
2700 Clear 14 1009 76 10000 1.54 290 11:47 12.04.2022
2701 Clear 15 1009 74 10000 1.54 290 11:20 12.04.2022
2702 Clear 16 1009 82 10000 3.09 250 09:24 12.04.2022
2703 Clear 16 1009 87 10000 3.6 240 07:59 12.04.2022
2704 Clouds 16 1009 90 10000 4.12 250 06:32 12.04.2022
2705 Clouds 16 1009 90 10000 4.12 250 06:32 12.04.2022
2706 Clouds 17 1009 88 10000 5.66 250 05:34 12.04.2022
2707 Clouds 19 1006 100 10000 3.6 280 00:46 12.04.2022
2708 Clouds 22 1004 71 10000 5.66 280 22:53 11.04.2022
2709 Clouds 22 1004 74 10000 7.2 300 21:49 11.04.2022
2710 Clouds 22 1004 73 10000 4.12 280 20:59 11.04.2022
2711 Clouds 22 1003 74 10000 4.12 280 20:29 11.04.2022
2712 Clouds 22 1003 80 10000 5.14 270 19:56 11.04.2022
2713 Clouds 22 1002 82 10000 5.14 270 19:21 11.04.2022
2714 Clouds 22 1003 85 10000 5.66 290 18:48 11.04.2022
2715 Clouds 20 1004 92 8000 5.66 280 17:57 11.04.2022
2716 Rain 19 1005 97 8000 6.17 320 16:57 11.04.2022
2717 Rain 21 1005 94 10000 6.69 340 16:20 11.04.2022
2718 Drizzle 19 1006 100 2000 3.09 40 14:35 11.04.2022
2719 Rain 20 1006 100 5000 4.63 30 12:53 11.04.2022
2720 Rain 19 1006 100 1000 4.63 30 12:35 11.04.2022
2721 Rain 20 1006 94 10000 2.57 50 11:37 11.04.2022
2722 Rain 20 1006 94 10000 3.6 80 10:31 11.04.2022
2723 Rain 20 1007 88 10000 2.06 30 09:22 11.04.2022
2724 Clouds 20 1009 88 10000 2.57 80 06:51 11.04.2022
2725 Clouds 21 1010 77 10000 2.57 80 02:30 11.04.2022
2726 Clouds 22 1010 81 10000 6.69 40 22:39 10.04.2022
2727 Clouds 27 1011 46 10000 7.72 60 21:55 10.04.2022
2728 Clouds 27 1011 46 10000 7.72 60 21:33 10.04.2022
2729 Clouds 28 1011 47 10000 6.17 50 20:31 10.04.2022
2730 Clouds 27 1012 52 10000 5.66 60 19:45 10.04.2022
2731 Clouds 22 1011 75 10000 5.66 60 19:23 10.04.2022
2732 Clouds 22 1011 75 10000 5.14 40 18:45 10.04.2022
2733 Clouds 24 1012 71 10000 5.14 40 17:55 10.04.2022
2734 Clouds 24 1012 71 10000 5.14 40 17:35 10.04.2022
2735 Clear 23 1013 75 10000 6.17 30 16:25 10.04.2022
2736 Clear 23 1014 74 10000 6.17 20 15:20 10.04.2022
2737 Clouds 20 1015 83 10000 6.17 30 14:25 10.04.2022
2738 Clouds 18 1013 94 10000 5.14 40 12:35 10.04.2022
2739 Clear 18 1014 95 10000 3.09 30 11:49 10.04.2022
2740 Clear 18 1014 94 10000 3.09 30 11:29 10.04.2022
2741 Clear 18 1013 94 10000 3.09 40 10:54 10.04.2022
2742 Clear 18 1013 94 10000 3.09 40 10:54 10.04.2022
2743 Clear 18 1013 94 10000 3.09 40 09:58 10.04.2022
2744 Clear 18 1013 94 10000 2.57 20 09:37 10.04.2022
2745 Clouds 18 1013 95 10000 3.6 40 08:22 10.04.2022
2746 Clouds 18 1013 96 10000 2.57 40 07:27 10.04.2022
2747 Clear 18 1014 95 10000 0 0 05:46 10.04.2022
2748 Clear 19 1014 94 10000 2.06 120 02:25 10.04.2022
2749 Clouds 20 1014 79 10000 3.09 140 00:28 10.04.2022
2750 Clouds 20 1014 87 10000 4.12 130 23:48 09.04.2022
2751 Clouds 21 1014 86 10000 5.14 120 22:47 09.04.2022
2752 Clouds 21 1014 86 10000 4.63 140 21:35 09.04.2022
2753 Clouds 21 1014 87 10000 4.63 130 20:49 09.04.2022
2754 Clouds 20 1014 86 10000 4.63 130 20:26 09.04.2022
2755 Clouds 21 1015 87 7000 4.63 170 19:42 09.04.2022
2756 Clouds 21 1015 88 7000 5.14 170 18:58 09.04.2022
2757 Clouds 20 1015 88 10000 3.6 170 18:20 09.04.2022
2758 Clouds 19 1016 88 10000 3.13 186 17:39 09.04.2022
2759 Clouds 19 1016 88 10000 3.13 186 17:39 09.04.2022
2760 Clouds 21 1016 88 10000 2.68 196 16:50 09.04.2022
2761 Clouds 20 1016 88 10000 2.24 201 15:55 09.04.2022
2762 Clouds 20 1016 90 10000 3.09 360 15:30 09.04.2022
2763 Clouds 18 1016 100 7000 3.6 360 14:44 09.04.2022
2764 Clouds 18 1016 100 7000 3.6 360 14:22 09.04.2022
2765 Mist 18 1016 94 5000 2.06 360 13:18 09.04.2022
2766 Mist 18 1016 100 5000 2.57 350 12:41 09.04.2022
2767 Clouds 17 1016 100 10000 0 0 11:22 09.04.2022
2768 Clouds 18 1015 96 10000 0 0 10:21 09.04.2022
2769 Clear 18 1015 96 10000 1.03 50 09:38 09.04.2022
2770 Clouds 18 1015 95 10000 1.54 60 08:53 09.04.2022
2771 Clear 20 1016 95 10000 0 0 06:56 09.04.2022
2772 Clouds 20 1015 91 10000 5.14 120 01:32 09.04.2022
2773 Clouds 21 1015 76 10000 5.14 130 23:30 08.04.2022
2774 Clouds 22 1015 68 10000 4.63 140 21:58 08.04.2022
2775 Clouds 23 1015 66 10000 5.14 150 21:29 08.04.2022
2776 Clouds 20 1015 81 10000 5.14 150 20:38 08.04.2022
2777 Clouds 20 1015 80 10000 4.12 140 19:20 08.04.2022
2778 Clouds 20 1016 79 10000 5.14 180 18:29 08.04.2022
2779 Clouds 20 1016 79 10000 5.66 150 17:49 08.04.2022
2780 Clouds 20 1016 79 10000 5.66 150 17:25 08.04.2022
2781 Clouds 20 1016 79 10000 3.13 109 16:47 08.04.2022
2782 Clouds 19 1016 83 8000 3.13 80 15:57 08.04.2022
2783 Clouds 19 1016 83 8000 3.09 80 15:26 08.04.2022
2784 Mist 18 1016 95 4000 3.09 80 14:27 08.04.2022
2785 Mist 17 1016 100 3000 2.57 80 13:46 08.04.2022
2786 Fog 18 1016 100 200 2.57 70 13:27 08.04.2022
2787 Clouds 17 1016 97 10000 1.54 90 11:56 08.04.2022
2788 Clouds 17 1015 97 10000 2.57 130 10:33 08.04.2022
2789 Clouds 17 1015 96 10000 2.57 140 09:38 08.04.2022
2790 Clouds 18 1015 95 10000 2.57 130 08:44 08.04.2022
2791 Clouds 18 1016 96 10000 3.6 130 06:55 08.04.2022
2792 Clouds 18 1016 96 10000 3.6 130 05:18 08.04.2022
2793 Clear 20 1015 88 10000 4.12 140 01:27 08.04.2022
2794 Clear 21 1015 80 10000 3.6 140 00:25 08.04.2022
2795 Clear 21 1015 80 10000 3.6 140 00:25 08.04.2022
2796 Clear 21 1014 81 10000 3.09 130 22:59 07.04.2022
2797 Rain 21 1014 81 10000 3.09 130 22:39 07.04.2022
2798 Clear 21 1014 81 10000 3.09 130 22:21 07.04.2022
2799 Clouds 21 1014 80 10000 3.6 130 21:51 07.04.2022
2800 Rain 21 1014 79 10000 3.6 130 21:19 07.04.2022
2801 Clouds 22 1014 79 10000 4.12 120 20:31 07.04.2022
2802 Clouds 22 1014 80 10000 3.09 140 18:35 07.04.2022
2803 Clear 22 1015 81 10000 2.06 180 17:27 07.04.2022
2804 Clouds 22 1015 79 10000 1.03 0 16:44 07.04.2022
2805 Clouds 22 1015 78 10000 1.03 0 16:22 07.04.2022
2806 Clouds 22 1015 78 10000 1.03 0 16:22 07.04.2022
2807 Clouds 20 1016 83 10000 1.54 360 14:50 07.04.2022
2808 Clouds 19 1015 86 10000 1.54 0 13:43 07.04.2022
2809 Clouds 16 1015 97 10000 1.03 0 12:50 07.04.2022
2810 Clouds 17 1014 90 10000 2.06 360 11:34 07.04.2022
2811 Clouds 18 1014 91 10000 2.57 20 09:37 07.04.2022
2812 Clouds 17 1014 90 10000 3.09 30 08:38 07.04.2022
2813 Clear 18 1014 91 10000 1.54 20 06:43 07.04.2022
2814 Clear 20 1014 76 10000 2.57 110 02:54 07.04.2022
2815 Clear 20 1014 74 10000 2.57 110 02:27 07.04.2022
2816 Clouds 20 1013 72 10000 3.09 130 00:28 07.04.2022
2817 Clouds 22 1012 79 10000 3.6 160 22:52 06.04.2022
2818 Clouds 22 1013 78 10000 3.6 160 22:27 06.04.2022
2819 Clouds 22 1013 76 10000 4.12 10 21:45 06.04.2022
2820 Clouds 22 1013 75 10000 4.63 10 20:40 06.04.2022
2821 Clouds 22 1013 73 10000 4.63 360 19:57 06.04.2022
2822 Clouds 24 1014 62 10000 3.6 330 18:52 06.04.2022
2823 Clouds 25 1014 59 10000 3.6 330 18:33 06.04.2022
2824 Clouds 24 1015 61 10000 4.63 20 17:35 06.04.2022
2825 Clear 23 1015 68 10000 4.12 350 16:39 06.04.2022
2826 Clear 22 1015 72 10000 4.63 10 15:49 06.04.2022
2827 Clear 20 1016 73 10000 4.63 10 15:21 06.04.2022
2828 Clear 15 1016 95 10000 4.12 20 13:28 06.04.2022
2829 Clear 13 1016 95 10000 4.12 10 12:27 06.04.2022
2830 Clear 12 1015 95 10000 2.57 350 10:54 06.04.2022
2831 Clear 12 1015 95 10000 2.57 360 10:31 06.04.2022
2832 Clear 12 1015 94 10000 2.06 10 09:42 06.04.2022
2833 Clear 13 1015 93 10000 2.06 10 08:36 06.04.2022
2834 Clear 13 1015 93 10000 2.06 10 07:55 06.04.2022
2835 Clear 15 1016 81 10000 3.09 10 04:42 06.04.2022
2836 Clear 20 1014 71 10000 2.57 30 23:57 05.04.2022
2837 Clear 21 1014 70 10000 3.09 10 23:22 05.04.2022
2838 Clear 21 1015 59 10000 3.09 340 21:31 05.04.2022
2839 Clear 21 1015 60 10000 3.6 360 20:44 05.04.2022
2840 Clear 21 1015 54 10000 3.6 360 20:19 05.04.2022
2841 Clear 22 1016 40 10000 3.6 20 18:26 05.04.2022
2842 Clear 20 1017 46 10000 3.6 20 17:20 05.04.2022
2843 Clear 20 1018 46 10000 4.12 350 16:41 05.04.2022
2844 Clear 19 1018 53 10000 3.6 10 15:49 05.04.2022
2845 Clear 18 1018 58 10000 3.6 10 15:29 05.04.2022
2846 Clear 15 1018 64 10000 3.6 10 13:45 05.04.2022
2847 Clear 8 1017 89 10000 2.57 10 11:51 05.04.2022
2848 Rain 8 1017 89 10000 2.57 10 11:33 05.04.2022
2849 Rain 8 1017 81 10000 2.57 10 10:57 05.04.2022
2850 Clear 9 1017 76 10000 2.57 10 09:31 05.04.2022
2851 Rain 8 1018 81 10000 1.54 360 08:22 05.04.2022
2852 Clear 12 1017 60 10000 1.54 20 02:58 05.04.2022
2853 Clear 17 1016 50 10000 2.06 150 23:22 04.04.2022
2854 Clear 18 1016 49 10000 2.06 190 22:32 04.04.2022
2855 Clear 18 1016 48 10000 2.06 190 21:46 04.04.2022
2856 Clear 18 1016 51 10000 2.06 190 21:18 04.04.2022
2857 Clear 18 1016 52 10000 3.09 160 20:47 04.04.2022
2858 Clear 18 1016 54 10000 3.09 220 19:28 04.04.2022
2859 Clear 19 1017 51 10000 4.12 230 18:40 04.04.2022
2860 Clear 18 1017 46 10000 5.14 180 17:19 04.04.2022
2861 Clear 18 1017 47 10000 3.6 210 16:28 04.04.2022
2862 Clear 18 1017 51 10000 3.6 200 15:33 04.04.2022
2863 Clear 17 1016 52 10000 4.12 210 14:46 04.04.2022
2864 Clear 17 1016 54 10000 4.12 210 13:59 04.04.2022
2865 Clear 13 1016 63 10000 3.09 200 12:58 04.04.2022
2866 Clouds 16 1016 51 10000 6.17 200 11:29 04.04.2022
2867 Clouds 16 1015 60 10000 6.69 190 10:29 04.04.2022
2868 Clouds 18 1014 97 10000 4.12 270 05:34 04.04.2022
2869 Clouds 18 1014 95 10000 1.54 260 02:59 04.04.2022
2870 Clouds 20 1012 83 10000 2.06 330 23:19 03.04.2022
2871 Clouds 20 1012 83 10000 1.34 80 22:00 03.04.2022
2872 Clouds 21 1012 78 10000 3.09 180 21:31 03.04.2022
2873 Clouds 21 1012 76 10000 3.6 360 20:32 03.04.2022
2874 Clouds 23 1012 70 10000 3.09 10 18:47 03.04.2022
2875 Clouds 22 1013 72 10000 5.14 10 17:56 03.04.2022
2876 Clouds 22 1013 73 10000 5.14 10 17:36 03.04.2022
2877 Clouds 21 1013 76 10000 6.17 20 16:50 03.04.2022
2878 Clear 20 1014 78 10000 6.17 20 15:56 03.04.2022
2879 Clear 18 1015 85 10000 6.17 40 14:25 03.04.2022
2880 Clear 16 1015 93 10000 4.12 40 13:28 03.04.2022
2881 Clear 15 1015 95 10000 3.6 40 11:50 03.04.2022
2882 Clear 15 1016 93 10000 3.09 30 09:59 03.04.2022
2883 Clear 16 1016 93 10000 3.09 30 09:18 03.04.2022
2884 Clear 15 1017 82 10000 2.06 50 06:28 03.04.2022
2885 Clear 16 1018 66 10000 3.6 70 02:55 03.04.2022
2886 Clear 20 1017 52 10000 5.14 40 23:50 02.04.2022
2887 Clouds 19 1017 68 10000 5.66 40 22:51 02.04.2022
2888 Clouds 19 1018 68 10000 5.81 123 21:56 02.04.2022
2889 Clouds 19 1018 70 10000 5.14 40 21:21 02.04.2022
2890 Clouds 19 1019 61 10000 6.17 40 20:36 02.04.2022
2891 Clouds 18 1021 65 10000 5.66 50 18:49 02.04.2022
2892 Clouds 18 1021 65 10000 5.66 50 18:20 02.04.2022
2893 Clear 18 1023 68 10000 4.12 60 17:23 02.04.2022
2894 Clear 18 1024 65 10000 3.6 30 15:55 02.04.2022
2895 Clear 17 1024 70 10000 3.13 15 15:20 02.04.2022
2896 Clear 15 1024 74 10000 4.63 40 14:32 02.04.2022
2897 Clear 13 1025 78 10000 3.6 30 13:34 02.04.2022
2898 Fog 11 1024 91 10000 3.6 30 12:32 02.04.2022
2899 Clear 11 1024 97 10000 1.54 30 10:46 02.04.2022
2900 Clear 11 1025 95 10000 3.09 30 08:33 02.04.2022
2901 Clear 12 1026 91 10000 2.06 70 05:58 02.04.2022
2902 Clear 14 1026 86 10000 4.12 80 03:28 02.04.2022
2903 Clear 17 1024 71 10000 2.68 144 23:55 01.04.2022
2904 Clouds 18 1025 72 10000 3.6 150 22:51 01.04.2022
2905 Clouds 18 1025 70 10000 4.12 180 21:27 01.04.2022
2906 Clouds 18 1025 70 10000 4.63 210 20:49 01.04.2022
2907 Clouds 18 1025 71 10000 2.57 210 19:51 01.04.2022
2908 Clouds 18 1026 72 10000 2.57 210 19:27 01.04.2022
2909 Clouds 17 1026 70 10000 2.57 210 18:42 01.04.2022
2910 Clouds 17 1026 69 10000 2.06 330 17:45 01.04.2022
2911 Clouds 18 1027 66 10000 2.57 330 16:34 01.04.2022
2912 Clouds 17 1027 66 10000 3.09 340 15:19 01.04.2022
2913 Clouds 15 1027 65 10000 2.57 360 14:18 01.04.2022
2914 Clouds 12 1027 74 10000 2.06 10 13:32 01.04.2022
2915 Clouds 10 1027 71 10000 2.06 350 12:32 01.04.2022
2916 Clouds 10 1026 91 10000 2.06 340 11:18 01.04.2022
2917 Clear 10 1026 91 10000 1.54 340 09:53 01.04.2022
2918 Clear 10 1026 91 10000 2.06 320 07:50 01.04.2022
2919 Clouds 10 1026 92 10000 1.54 330 06:30 01.04.2022
2920 Clouds 10 1025 87 10000 1.54 10 04:45 01.04.2022
2921 Clouds 11 1025 76 10000 1.03 350 03:41 01.04.2022
2922 Clouds 11 1024 77 10000 0 0 01:53 01.04.2022
2923 Clouds 17 1023 62 10000 4.12 220 22:56 31.03.2022
2924 Clouds 17 1023 63 10000 4.63 230 21:49 31.03.2022
2925 Clouds 17 1023 63 10000 4.63 230 21:31 31.03.2022
2926 Clouds 17 1023 64 10000 5.14 230 20:28 31.03.2022
2927 Clouds 17 1023 65 10000 6.69 220 19:46 31.03.2022
2928 Clouds 17 1023 66 10000 6.17 230 18:38 31.03.2022
2929 Clouds 16 1023 68 10000 6.69 230 17:33 31.03.2022
2930 Clouds 15 1023 71 10000 6.17 240 16:18 31.03.2022
2931 Clouds 15 1023 73 10000 7.2 230 15:33 31.03.2022
2932 Clouds 15 1022 73 10000 7.2 230 14:54 31.03.2022
2933 Clouds 14 1023 70 10000 6.17 240 14:20 31.03.2022
2934 Clouds 12 1020 73 10000 4.12 260 11:34 31.03.2022
2935 Clouds 13 1020 71 10000 4.63 240 10:41 31.03.2022
2936 Clouds 13 1019 76 10000 5.14 240 09:44 31.03.2022
2937 Clouds 13 1019 70 10000 3.6 260 07:53 31.03.2022
2938 Clouds 13 1019 62 10000 5.66 240 04:42 31.03.2022
2939 Clouds 11 1017 82 8000 6.69 240 23:34 30.03.2022
2940 Clouds 15 1015 58 10000 6.17 260 22:23 30.03.2022
2941 Clouds 15 1015 55 10000 8.75 270 21:33 30.03.2022
2942 Clouds 15 1015 58 10000 7.72 260 20:44 30.03.2022
2943 Clouds 15 1015 58 10000 7.72 260 19:59 30.03.2022
2944 Clouds 15 1014 63 10000 8.75 250 18:50 30.03.2022
2945 Clouds 14 1014 66 10000 8.23 260 17:53 30.03.2022
2946 Clouds 14 1014 66 10000 8.23 260 17:34 30.03.2022
2947 Clouds 14 1013 69 10000 7.72 240 16:51 30.03.2022
2948 Clouds 14 1013 69 10000 7.72 240 16:30 30.03.2022
2949 Clouds 13 1012 74 10000 7.2 240 14:55 30.03.2022
2950 Clouds 13 1011 75 10000 7.72 230 13:34 30.03.2022
2951 Clouds 11 1012 76 10000 7.72 240 12:41 30.03.2022
2952 Clouds 13 1009 58 10000 9.77 230 10:54 30.03.2022
2953 Clouds 14 1009 58 10000 7.72 250 09:58 30.03.2022
2954 Clouds 15 1009 51 10000 6.17 230 08:29 30.03.2022
2955 Clouds 16 1009 55 10000 7.2 230 07:31 30.03.2022
2956 Clouds 17 1008 72 10000 4.63 250 05:40 30.03.2022
2957 Clear 18 1008 68 10000 4.63 230 03:21 30.03.2022
2958 Thunderstorm 18 1005 94 3000 7.2 230 23:32 29.03.2022
2959 Rain 26 1002 61 10000 4.63 290 22:19 29.03.2022
2960 Clouds 29 1002 51 10000 5.66 300 21:41 29.03.2022
2961 Clouds 29 1003 48 10000 7.2 320 20:44 29.03.2022
2962 Clouds 29 1004 48 10000 6.69 340 19:45 29.03.2022
2963 Clouds 27 1005 54 10000 7.2 350 18:54 29.03.2022
2964 Clouds 27 1005 54 10000 7.2 350 18:18 29.03.2022
2965 Clouds 26 1006 57 10000 7.72 360 17:20 29.03.2022
2966 Clouds 26 1006 57 10000 7.72 360 16:55 29.03.2022
2967 Clear 22 1008 68 10000 7.2 10 15:47 29.03.2022
2968 Clear 19 1008 72 10000 6.69 90 14:44 29.03.2022
2969 Clear 16 1008 88 10000 6.69 20 13:52 29.03.2022
2970 Clear 15 1009 94 10000 5.14 360 12:46 29.03.2022
2971 Clear 15 1009 88 10000 4.12 340 11:28 29.03.2022
2972 Clear 16 1010 88 10000 4.12 10 10:23 29.03.2022
2973 Clear 16 1010 88 10000 4.12 10 09:20 29.03.2022
2974 Clear 18 1011 77 10000 6.17 20 06:54 29.03.2022
2975 Clear 21 1012 56 10000 2.57 30 03:47 29.03.2022
2976 Clear 22 1011 79 10000 5.14 30 23:49 28.03.2022
2977 Clear 22 1011 78 10000 5.14 30 22:58 28.03.2022
2978 Clear 23 1011 73 10000 6.69 30 22:39 28.03.2022
2979 Clear 23 1011 73 10000 6.69 30 22:19 28.03.2022
2980 Clear 23 1012 72 10000 5.66 20 20:47 28.03.2022
2981 Clear 26 1013 55 10000 4.92 40 19:59 28.03.2022
2982 Clear 26 1014 53 10000 4.63 10 19:40 28.03.2022
2983 Clear 27 1014 53 10000 5.14 20 18:51 28.03.2022
2984 Clear 26 1014 52 10000 5.14 20 18:18 28.03.2022
2985 Clear 25 1015 60 10000 4.12 20 17:30 28.03.2022
2986 Clear 23 1017 77 10000 3.09 30 15:48 28.03.2022
2987 Clear 19 1017 83 10000 3.6 40 14:24 28.03.2022
2988 Clear 18 1017 83 10000 3.6 80 13:33 28.03.2022
2989 Clear 15 1017 96 8000 3.09 90 11:54 28.03.2022
2990 Clear 16 1016 95 10000 1.03 0 10:39 28.03.2022
2991 Clear 16 1016 94 10000 0 0 09:38 28.03.2022
2992 Clear 16 1016 93 10000 1.03 0 08:46 28.03.2022
2993 Clear 16 1016 93 10000 1.03 0 08:21 28.03.2022
2994 Clear 16 1016 91 10000 2.06 140 07:26 28.03.2022
2995 Clear 17 1014 78 10000 2.57 310 02:46 28.03.2022
2996 Clear 25 1011 44 10000 5.14 300 22:57 27.03.2022
2997 Clear 25 1011 43 10000 6.17 290 21:55 27.03.2022
2998 Clear 26 1011 44 10000 6.17 290 21:37 27.03.2022
2999 Clear 25 1011 47 10000 6.17 280 20:42 27.03.2022
3000 Clear 24 1011 50 10000 6.17 270 19:44 27.03.2022
3001 Clear 23 1011 52 10000 6.69 280 18:47 27.03.2022
3002 Clear 23 1012 54 10000 6.69 280 18:25 27.03.2022
3003 Clear 23 1012 59 10000 6.17 280 17:37 27.03.2022
3004 Clouds 20 1012 83 10000 5.14 310 15:55 27.03.2022
3005 Fog 17 1012 93 300 4.12 320 13:59 27.03.2022
3006 Fog 15 1012 100 300 2.57 320 13:33 27.03.2022
3007 Clear 13 1010 97 10000 2.06 350 11:41 27.03.2022
3008 Clear 16 1009 94 10000 2.06 320 09:49 27.03.2022
3009 Clouds 17 1008 91 10000 2.06 300 07:47 27.03.2022
3010 Clouds 18 1008 86 10000 4.12 260 05:18 27.03.2022
3011 Clouds 20 1006 85 10000 3.09 310 00:30 27.03.2022
3012 Clouds 20 1005 83 10000 6.17 280 22:53 26.03.2022
3013 Clouds 20 1005 83 10000 6.17 280 22:25 26.03.2022
3014 Clouds 20 1004 83 10000 4.92 267 21:31 26.03.2022
3015 Drizzle 19 1004 86 10000 6.17 270 19:39 26.03.2022
3016 Drizzle 19 1004 87 8000 7.2 270 18:44 26.03.2022
3017 Drizzle 18 1006 91 3000 6.69 260 17:44 26.03.2022
3018 Drizzle 18 1005 93 3500 6.69 270 16:47 26.03.2022
3019 Drizzle 19 1005 85 2000 6.69 250 15:43 26.03.2022
3020 Drizzle 18 1000 88 10000 7.72 260 14:18 26.03.2022
3021 Clouds 18 1004 87 10000 7.2 250 13:47 26.03.2022
3022 Clouds 17 1003 93 8000 6.69 260 12:31 26.03.2022
3023 Drizzle 17 1002 95 3000 6.17 280 10:56 26.03.2022
3024 Clouds 17 1002 96 8000 4.63 270 09:21 26.03.2022
3025 Drizzle 17 1002 96 5000 3.6 310 07:34 26.03.2022
3026 Clear 14 1003 95 10000 2.06 330 05:52 26.03.2022
3027 Clouds 15 1003 100 10000 3.6 220 03:22 26.03.2022
3028 Mist 15 998 96 500 6.17 120 22:50 25.03.2022
3029 Mist 15 998 92 1000 4.63 30 20:58 25.03.2022
3030 Mist 15 998 91 2000 6.17 30 20:26 25.03.2022
3031 Mist 15 1000 86 2000 6.17 10 19:20 25.03.2022
3032 Drizzle 15 1000 83 2000 7.72 330 18:37 25.03.2022
3033 Clouds 17 1000 76 5000 7.72 320 17:34 25.03.2022
3034 Clouds 17 1001 68 10000 7.2 290 16:29 25.03.2022
3035 Clouds 16 1002 70 10000 7.72 270 15:37 25.03.2022
3036 Drizzle 15 1001 93 10000 3.6 280 13:32 25.03.2022
3037 Clouds 11 1000 94 10000 3.09 320 11:38 25.03.2022
3038 Clouds 12 1000 97 10000 3.09 20 09:43 25.03.2022
3039 Clouds 12 1000 100 10000 3.09 20 08:56 25.03.2022
3040 Rain 12 1001 96 10000 5.66 20 07:46 25.03.2022
3041 Rain 12 1001 95 10000 5.66 20 07:19 25.03.2022
3042 Rain 12 1003 92 10000 2.06 10 03:45 25.03.2022
3043 Clouds 16 1003 61 10000 5.66 320 23:49 24.03.2022
3044 Clouds 19 1002 54 10000 8.23 310 22:24 24.03.2022
3045 Clouds 21 1001 49 10000 7.72 300 20:58 24.03.2022
3046 Clouds 22 1001 44 10000 6.69 340 19:49 24.03.2022
3047 Clouds 22 1002 58 10000 6.69 350 18:45 24.03.2022
3048 Clouds 19 1002 72 10000 7.2 320 17:36 24.03.2022
3049 Clouds 19 1003 77 10000 7.2 320 16:33 24.03.2022
3050 Drizzle 18 1003 83 8000 7.72 310 14:53 24.03.2022
3051 Clouds 18 1003 84 10000 7.72 320 14:22 24.03.2022
3052 Clouds 19 1002 83 10000 8.23 330 13:36 24.03.2022
3053 Clouds 19 1001 78 10000 9.26 330 12:29 24.03.2022
3054 Clouds 20 1000 89 10000 6.17 320 11:27 24.03.2022
3055 Thunderstorm 22 1001 84 10000 4.12 20 09:28 24.03.2022
3056 Clear 22 1001 86 10000 3.6 20 08:38 24.03.2022
3057 Clouds 23 1002 86 10000 5.14 60 05:36 24.03.2022
3058 Clouds 23 1004 85 10000 3.6 110 00:38 24.03.2022
3059 Clouds 23 1004 85 10000 6.17 110 22:21 23.03.2022
3060 Clouds 23 1004 84 10000 6.17 110 21:24 23.03.2022
3061 Clouds 23 1005 85 10000 5.66 110 20:36 23.03.2022
3062 Clouds 23 1005 83 10000 4.63 120 19:28 23.03.2022
3063 Clouds 23 1006 83 10000 4.12 140 18:18 23.03.2022
3064 Clouds 23 1007 85 10000 3.09 130 17:25 23.03.2022
3065 Clouds 23 1008 82 10000 2.06 20 15:56 23.03.2022
3066 Clouds 23 1009 82 10000 3.09 360 14:48 23.03.2022
3067 Clear 22 1009 89 10000 4.12 30 13:34 23.03.2022
3068 Clouds 19 1010 95 10000 3.6 20 11:33 23.03.2022
3069 Clouds 18 1010 96 10000 4.12 20 08:41 23.03.2022
3070 Clouds 20 1010 94 10000 2.57 40 05:50 23.03.2022
3071 Clouds 21 1012 90 10000 1.03 0 02:50 23.03.2022
3072 Clouds 21 1011 87 10000 1.54 20 00:27 23.03.2022
3073 Clouds 24 1010 76 10000 5.14 10 21:52 22.03.2022
3074 Clouds 24 1010 76 10000 5.14 10 21:23 22.03.2022
3075 Clouds 24 1011 75 10000 3.6 360 20:29 22.03.2022
3076 Clouds 24 1011 72 10000 4.63 350 19:27 22.03.2022
3077 Clouds 24 1011 75 10000 4.63 350 18:49 22.03.2022
3078 Rain 23 1012 78 10000 6.17 10 17:44 22.03.2022
3079 Clouds 22 1012 78 10000 8.23 10 16:58 22.03.2022
3080 Rain 22 1014 80 10000 7.2 30 15:43 22.03.2022
3081 Rain 21 1014 82 10000 7.2 30 15:20 22.03.2022
3082 Clouds 20 1014 85 10000 7.2 30 14:44 22.03.2022
3083 Clear 20 1014 87 10000 7.2 40 13:52 22.03.2022
3084 Clear 17 1016 94 10000 5.66 40 12:34 22.03.2022
3085 Clear 17 1015 95 10000 7.2 60 11:24 22.03.2022
3086 Rain 17 1017 93 10000 3.6 90 09:42 22.03.2022
3087 Rain 18 1018 86 10000 3.6 80 07:35 22.03.2022
3088 Clear 20 1018 70 10000 6.69 80 03:58 22.03.2022
3089 Clear 21 1018 59 10000 6.17 80 01:27 22.03.2022
3090 Clouds 23 1017 57 10000 4.92 58 22:57 21.03.2022
3091 Clouds 23 1017 55 10000 5.66 60 21:39 21.03.2022
3092 Clouds 23 1018 53 10000 6.69 60 20:44 21.03.2022
3093 Clouds 23 1018 51 10000 6.71 50 20:23 21.03.2022
3094 Clouds 23 1018 53 10000 7.72 50 19:47 21.03.2022
3095 Clouds 23 1019 52 10000 7.72 50 18:59 21.03.2022
3096 Clouds 22 1020 56 10000 8.05 35 17:36 21.03.2022
3097 Clear 21 1021 59 10000 8.23 50 16:59 21.03.2022
3098 Clear 20 1021 58 10000 8.23 50 16:33 21.03.2022
3099 Clear 20 1022 58 10000 8.23 60 15:44 21.03.2022
3100 Clear 19 1023 59 10000 8.05 56 14:45 21.03.2022
3101 Clear 18 1024 63 10000 6.71 57 13:20 21.03.2022
3102 Clear 14 1024 73 10000 4.12 80 11:59 21.03.2022
3103 Clear 12 1025 82 10000 3.6 90 11:28 21.03.2022
3104 Clear 13 1024 85 10000 5.66 80 09:51 21.03.2022
3105 Clear 13 1025 90 10000 3.6 80 07:53 21.03.2022
3106 Clear 12 1025 89 10000 2.57 60 06:29 21.03.2022
3107 Clear 13 1027 75 10000 4.63 80 02:23 21.03.2022
3108 Clear 17 1025 62 10000 5.81 70 23:26 20.03.2022
3109 Clear 17 1025 61 10000 5.81 86 22:36 20.03.2022
3110 Clear 17 1025 62 10000 6.17 120 21:40 20.03.2022
3111 Clouds 17 1025 63 10000 6.17 120 20:58 20.03.2022
3112 Clouds 17 1025 60 10000 6.17 120 20:36 20.03.2022
3113 Clouds 17 1026 62 10000 6.69 120 19:55 20.03.2022
3114 Clouds 17 1026 63 10000 6.69 120 19:24 20.03.2022
3115 Clouds 17 1027 65 10000 6.17 130 17:49 20.03.2022
3116 Clouds 17 1027 66 10000 6.17 130 17:27 20.03.2022
3117 Clouds 17 1027 65 10000 6.17 140 16:40 20.03.2022
3118 Clouds 17 1027 67 10000 5.14 100 14:53 20.03.2022
3119 Clouds 17 1027 71 10000 5.36 125 13:39 20.03.2022
3120 Clouds 15 1027 85 10000 4.12 130 12:20 20.03.2022
3121 Clouds 13 1026 93 10000 2.06 150 10:28 20.03.2022
3122 Clouds 13 1025 82 10000 1.03 250 08:35 20.03.2022
3123 Clouds 11 1025 82 10000 1.54 330 06:40 20.03.2022
3124 Clear 12 1025 81 10000 0 0 03:27 20.03.2022
3125 Clear 13 1024 71 10000 1.54 200 00:54 20.03.2022
3126 Clear 13 1024 71 10000 1.54 200 00:54 20.03.2022
3127 Clear 13 1024 71 10000 1.54 200 00:34 20.03.2022
3128 Clear 18 1023 63 10000 3.58 176 22:42 19.03.2022
3129 Clouds 18 1023 57 10000 2.57 190 21:27 19.03.2022
3130 Clouds 19 1023 54 10000 4.63 180 19:42 19.03.2022
3131 Clouds 19 1023 52 10000 4.63 180 18:44 19.03.2022
3132 Clouds 18 1023 54 10000 4.63 180 17:55 19.03.2022
3133 Clouds 18 1023 54 10000 5.66 190 17:33 19.03.2022
3134 Clouds 17 1024 55 10000 5.14 160 15:41 19.03.2022
3135 Clouds 17 1023 60 10000 6.17 160 14:21 19.03.2022
3136 Clouds 17 1022 59 10000 6.26 176 12:56 19.03.2022
3137 Clouds 16 1023 49 10000 4.63 170 12:37 19.03.2022
3138 Clouds 14 1022 56 10000 5.66 180 11:47 19.03.2022
3139 Clouds 15 1021 56 10000 6.69 180 09:55 19.03.2022
3140 Clouds 16 1020 54 10000 6.17 180 05:59 19.03.2022
3141 Clouds 16 1020 64 10000 6.17 170 02:37 19.03.2022
3142 Clouds 16 1020 62 10000 6.17 190 01:32 19.03.2022
3143 Clouds 15 1019 71 10000 8.75 170 23:22 18.03.2022
3144 Clouds 18 1017 79 10000 10.73 169 22:23 18.03.2022
3145 Rain 17 1016 82 10000 8.94 159 20:48 18.03.2022
3146 Rain 17 1017 82 7000 9.39 181 19:49 18.03.2022
3147 Rain 17 1017 81 7000 9.83 181 19:19 18.03.2022
3148 Rain 17 1017 83 4000 8.49 192 17:27 18.03.2022
3149 Rain 17 1017 81 3500 9.39 171 16:45 18.03.2022
3150 Clouds 17 1015 84 4000 9.26 150 14:37 18.03.2022
3151 Clouds 17 1015 86 4000 8.75 150 14:18 18.03.2022
3152 Rain 18 1014 80 7000 7.72 140 12:19 18.03.2022
3153 Rain 18 1013 82 7000 7.72 170 10:38 18.03.2022
3154 Clouds 20 1011 80 10000 7.72 170 09:21 18.03.2022
3155 Rain 21 1010 88 10000 7.72 160 07:45 18.03.2022
3156 Rain 23 1009 91 10000 0 0 05:46 18.03.2022
3157 Rain 23 1009 86 10000 1.54 150 02:50 18.03.2022
3158 Clouds 25 1008 81 10000 2.06 100 00:22 18.03.2022
3159 Clouds 26 1007 80 10000 2.57 100 22:56 17.03.2022
3160 Clouds 27 1008 60 10000 3.09 180 22:22 17.03.2022
3161 Clouds 27 1008 61 10000 3.6 230 21:47 17.03.2022
3162 Clouds 27 1008 61 10000 3.6 230 21:19 17.03.2022
3163 Clouds 28 1007 70 10000 3.6 250 20:32 17.03.2022
3164 Clouds 28 1007 70 10000 1.54 0 19:41 17.03.2022
3165 Clouds 28 1007 67 10000 3.6 280 18:57 17.03.2022
3166 Clouds 29 1009 63 10000 3.6 330 17:56 17.03.2022
3167 Clouds 27 1010 69 10000 3.6 340 16:43 17.03.2022
3168 Clouds 27 1010 68 10000 5.14 360 15:44 17.03.2022
3169 Clouds 26 1010 69 10000 5.14 360 15:22 17.03.2022
3170 Clouds 25 1009 78 10000 5.14 10 13:49 17.03.2022
3171 Clouds 22 1010 84 10000 5.14 20 12:49 17.03.2022
3172 Clouds 22 1010 87 10000 5.14 20 12:21 17.03.2022
3173 Clouds 21 1009 90 10000 5.14 20 11:25 17.03.2022
3174 Clouds 21 1009 94 10000 2.57 40 09:48 17.03.2022
3175 Clouds 20 1009 93 10000 1.54 50 08:34 17.03.2022
3176 Clouds 20 1009 93 10000 1.54 50 08:34 17.03.2022
3177 Clear 21 1010 92 10000 1.54 40 07:32 17.03.2022
3178 Clear 22 1010 89 10000 3.09 40 05:47 17.03.2022
3179 Clear 23 1011 83 10000 3.09 110 00:46 17.03.2022
3180 Clear 24 1010 71 10000 5.36 65 23:39 16.03.2022
3181 Clear 25 1010 70 10000 6.17 110 22:44 16.03.2022
3182 Clear 25 1010 70 10000 6.17 110 22:21 16.03.2022
3183 Clear 28 1010 48 10000 5.14 20 21:34 16.03.2022
3184 Clouds 28 1011 46 10000 5.14 30 19:40 16.03.2022
3185 Clouds 28 1011 50 10000 5.14 30 19:19 16.03.2022
3186 Clouds 27 1012 53 10000 4.63 360 18:35 16.03.2022
3187 Clouds 27 1013 53 10000 5.14 360 17:41 16.03.2022
3188 Clear 27 1014 56 10000 6.17 360 16:50 16.03.2022
3189 Clear 26 1014 59 10000 6.17 360 15:53 16.03.2022
3190 Clear 24 1015 67 10000 5.14 360 14:25 16.03.2022
3191 Clear 23 1015 70 10000 4.63 350 13:24 16.03.2022
3192 Clouds 17 1015 88 10000 3.09 20 11:53 16.03.2022
3193 Clouds 17 1015 88 10000 3.09 20 11:20 16.03.2022
3194 Clear 17 1015 82 10000 3.09 20 10:18 16.03.2022
3195 Clear 18 1015 77 10000 3.6 30 08:38 16.03.2022
3196 Mist 20 1016 94 4000 2.57 50 04:35 16.03.2022
3197 Clear 21 1015 88 10000 2.57 130 00:42 16.03.2022
3198 Clear 23 1014 80 10000 4.12 190 22:37 15.03.2022
3199 Clear 25 1014 73 10000 4.12 210 21:52 15.03.2022
3200 Clear 25 1014 65 10000 5.14 230 19:53 15.03.2022
3201 Clouds 25 1014 64 10000 5.14 270 18:45 15.03.2022
3202 Clouds 24 1015 63 10000 6.69 280 16:53 15.03.2022
3203 Clouds 25 1015 59 10000 6.69 280 16:20 15.03.2022
3204 Clear 25 1015 60 10000 4.63 270 14:57 15.03.2022
3205 Clear 25 1015 61 10000 4.63 300 14:34 15.03.2022
3206 Clear 23 1015 65 10000 3.6 300 13:27 15.03.2022
3207 Clear 14 1015 94 10000 2.57 10 11:57 15.03.2022
3208 Clear 14 1015 94 10000 2.57 10 11:28 15.03.2022
3209 Clear 15 1013 82 10000 2.06 340 09:39 15.03.2022
3210 Clear 15 1013 82 10000 2.06 350 08:32 15.03.2022
3211 Clear 15 1013 82 10000 1.54 350 07:50 15.03.2022
3212 Clear 16 1014 77 10000 1.54 360 06:51 15.03.2022
3213 Clear 17 1014 67 10000 0 0 02:38 15.03.2022
3214 Clear 23 1012 56 10000 1.54 150 23:38 14.03.2022
3215 Clear 23 1012 56 10000 1.54 150 23:20 14.03.2022
3216 Clear 24 1012 55 10000 2.06 150 22:19 14.03.2022
3217 Clear 24 1012 56 10000 3.09 160 21:22 14.03.2022
3218 Clouds 24 1013 57 10000 3.6 250 20:35 14.03.2022
3219 Clouds 24 1013 55 10000 3.6 170 19:59 14.03.2022
3220 Clear 23 1014 65 10000 3.6 170 18:31 14.03.2022
3221 Clouds 23 1014 61 10000 4.12 180 17:44 14.03.2022
3222 Clear 23 1014 62 10000 2.68 262 16:57 14.03.2022
3223 Clear 22 1015 67 10000 2.57 340 15:34 14.03.2022
3224 Clear 20 1016 73 10000 2.57 340 14:33 14.03.2022
3225 Fog 12 1016 94 10000 2.57 30 11:53 14.03.2022
3226 Clear 13 1015 88 10000 1.54 40 10:36 14.03.2022
3227 Clear 13 1015 88 10000 1.54 20 09:39 14.03.2022
3228 Rain 13 1015 88 10000 1.54 20 09:20 14.03.2022
3229 Clear 12 1015 87 10000 0 0 08:49 14.03.2022
3230 Clear 12 1015 87 10000 0 0 07:21 14.03.2022
3231 Clear 15 1016 77 10000 1.54 40 05:22 14.03.2022
3232 Clear 19 1017 63 10000 0 0 01:52 14.03.2022
3233 Clear 19 1017 63 10000 2.57 140 00:40 14.03.2022
3234 Clear 20 1016 67 10000 3.09 180 22:42 13.03.2022
3235 Clouds 20 1016 68 10000 4.63 190 21:28 13.03.2022
3236 Clouds 20 1016 70 10000 4.63 190 20:55 13.03.2022
3237 Clouds 20 1016 69 10000 5.66 180 20:29 13.03.2022
3238 Clouds 20 1017 68 10000 5.14 170 19:48 13.03.2022
3239 Clouds 21 1017 66 10000 5.14 170 19:25 13.03.2022
3240 Clouds 22 1018 56 10000 5.14 160 18:50 13.03.2022
3241 Clouds 20 1018 66 10000 5.14 160 18:30 13.03.2022
3242 Clouds 20 1018 66 10000 4.12 150 17:40 13.03.2022
3243 Clouds 20 1019 66 10000 3.6 160 16:49 13.03.2022
3244 Clouds 20 1019 67 10000 3.6 160 16:27 13.03.2022
3245 Clouds 19 1019 68 10000 2.57 80 15:44 13.03.2022
3246 Clear 20 1020 71 10000 2.06 340 14:50 13.03.2022
3247 Clear 20 1020 71 10000 2.06 340 14:50 13.03.2022
3248 Clear 18 1020 75 10000 2.57 350 13:30 13.03.2022
3249 Clear 14 1020 77 10000 1.54 0 12:37 13.03.2022
3250 Clear 12 1020 87 10000 2.06 40 11:51 13.03.2022
3251 Clear 12 1020 87 10000 2.06 40 11:30 13.03.2022
3252 Clouds 13 1019 88 10000 1.54 60 10:46 13.03.2022
3253 Clouds 13 1019 88 10000 1.03 20 09:53 13.03.2022
3254 Clouds 13 1019 88 10000 1.03 20 09:29 13.03.2022
3255 Clouds 14 1019 82 10000 2.57 40 08:40 13.03.2022
3256 Clouds 13 1019 88 10000 2.57 30 07:37 13.03.2022
3257 Clouds 14 1020 88 10000 2.57 40 05:40 13.03.2022
3258 Clouds 16 1019 72 10000 1.03 30 02:27 13.03.2022
3259 Clear 19 1018 65 10000 2.57 170 23:31 12.03.2022
3260 Clear 20 1018 61 10000 4.12 180 21:49 12.03.2022
3261 Clouds 21 1018 58 10000 5.14 180 20:29 12.03.2022
3262 Clouds 21 1018 59 10000 7.72 170 19:47 12.03.2022
3263 Clouds 21 1018 58 10000 7.72 170 18:55 12.03.2022
3264 Clouds 21 1018 58 10000 5.14 180 18:21 12.03.2022
3265 Clouds 21 1018 60 10000 5.14 200 17:23 12.03.2022
3266 Clouds 20 1018 61 10000 4.63 250 16:23 12.03.2022
3267 Clouds 20 1019 62 10000 4.12 200 15:22 12.03.2022
3268 Clouds 20 1019 66 10000 3.6 240 13:55 12.03.2022
3269 Clouds 14 1019 94 10000 1.54 240 12:35 12.03.2022
3270 Clouds 11 1019 100 10000 2.06 20 11:56 12.03.2022
3271 Clouds 11 1019 100 10000 2.06 20 11:34 12.03.2022
3272 Clouds 14 1018 82 10000 1.03 0 10:44 12.03.2022
3273 Clouds 14 1018 82 10000 1.03 0 09:44 12.03.2022
3274 Clouds 15 1018 72 10000 1.54 320 08:41 12.03.2022
3275 Clouds 17 1018 67 10000 4.63 160 06:53 12.03.2022
3276 Clouds 19 1017 68 10000 3.09 160 01:44 12.03.2022
3277 Clouds 21 1016 64 10000 4.47 192 23:51 11.03.2022
3278 Clouds 21 1016 63 10000 6.69 210 22:45 11.03.2022
3279 Clouds 22 1015 64 10000 6.17 210 21:35 11.03.2022
3280 Clouds 22 1015 66 10000 7.2 210 20:54 11.03.2022
3281 Clouds 22 1015 65 10000 7.2 210 20:28 11.03.2022
3282 Clouds 22 1015 69 10000 7.2 240 19:36 11.03.2022
3283 Clouds 22 1015 71 10000 5.66 250 18:51 11.03.2022
3284 Clouds 21 1015 67 10000 5.66 270 17:28 11.03.2022
3285 Clouds 21 1016 63 10000 6.17 270 16:27 11.03.2022
3286 Clouds 21 1016 60 10000 4.63 270 15:52 11.03.2022
3287 Clear 20 1016 57 10000 3.6 300 14:18 11.03.2022
3288 Clear 14 1017 82 10000 1.54 320 12:43 11.03.2022
3289 Clear 14 1017 82 10000 1.54 320 12:20 11.03.2022
3290 Clear 9 1016 93 10000 3 360 11:40 11.03.2022
3291 Clear 11 1015 82 10000 0 0 09:37 11.03.2022
3292 Clear 11 1015 82 10000 0 0 08:40 11.03.2022
3293 Clear 14 1015 58 10000 0 0 07:49 11.03.2022
3294 Clear 17 1015 45 10000 2.57 130 06:59 11.03.2022
3295 Clear 18 1015 42 10000 3.6 160 05:20 11.03.2022
3296 Clear 18 1015 52 10000 4.63 160 02:45 11.03.2022
3297 Clear 20 1014 62 10000 6.17 150 22:51 10.03.2022
3298 Clear 20 1013 61 10000 6.26 161 22:27 10.03.2022
3299 Clear 20 1013 63 10000 6.71 176 21:26 10.03.2022
3300 Clouds 21 1013 66 10000 6.71 181 20:39 10.03.2022
3301 Clouds 21 1013 69 10000 7.6 181 19:22 10.03.2022
3302 Clouds 21 1013 73 10000 7.2 150 18:30 10.03.2022
3303 Clouds 20 1013 82 10000 6.69 150 16:53 10.03.2022
3304 Clouds 20 1013 86 10000 8.49 149 15:36 10.03.2022
3305 Clouds 21 1013 88 10000 9.83 172 14:19 10.03.2022
3306 Clouds 21 1012 83 10000 5.14 180 12:46 10.03.2022
3307 Clouds 20 1011 94 10000 5.66 180 11:37 10.03.2022
3308 Clouds 21 1010 78 10000 6.17 180 10:19 10.03.2022
3309 Clouds 21 1011 83 10000 5.14 180 08:40 10.03.2022
3310 Clear 21 1013 88 10000 3.09 180 05:50 10.03.2022
3311 Rain 20 1013 88 10000 3.6 180 03:33 10.03.2022
3312 Rain 19 1013 94 4500 3.09 200 00:23 10.03.2022
3313 Rain 21 1012 87 10000 2.57 320 22:43 09.03.2022
3314 Clouds 21 1012 86 7000 2.57 80 21:48 09.03.2022
3315 Rain 20 1012 85 7000 3.13 52 20:59 09.03.2022
3316 Rain 21 1015 81 10000 2.68 305 19:28 09.03.2022
3317 Rain 22 1014 80 10000 2.57 150 17:57 09.03.2022
3318 Rain 22 1014 80 10000 2.57 150 17:23 09.03.2022
3319 Rain 22 1015 77 10000 3.6 10 15:42 09.03.2022
3320 Rain 21 1015 75 10000 1.54 0 14:27 09.03.2022
3321 Rain 21 1015 75 10000 1.54 0 14:27 09.03.2022
3322 Clouds 22 1016 75 10000 2.06 360 13:51 09.03.2022
3323 Clear 19 1017 72 10000 2.57 310 12:27 09.03.2022
3324 Clear 17 1016 82 10000 1.03 0 11:48 09.03.2022
3325 Clouds 17 1016 77 10000 1.03 20 10:59 09.03.2022
3326 Clear 17 1013 77 10000 4.12 40 09:40 09.03.2022
3327 Clear 17 1012 77 10000 3.6 50 08:45 09.03.2022
3328 Clear 18 1014 68 10000 3.09 50 06:27 09.03.2022
3329 Clear 22 1014 49 10000 2.06 120 01:53 09.03.2022
3330 Clear 22 1014 49 10000 2.06 150 00:22 09.03.2022
3331 Clear 24 1013 60 10000 3.6 160 22:46 08.03.2022
3332 Clear 24 1013 58 10000 3.09 210 21:51 08.03.2022
3333 Clear 24 1013 60 10000 3.09 210 21:21 08.03.2022
3334 Clear 24 1013 60 10000 3.09 170 20:22 08.03.2022
3335 Clear 24 1013 58 10000 2.57 180 19:21 08.03.2022
3336 Clouds 23 1014 64 10000 2.57 290 18:22 08.03.2022
3337 Clouds 24 1014 63 10000 3.09 220 16:44 08.03.2022
3338 Clear 24 1014 65 10000 3.6 200 14:57 08.03.2022
3339 Clear 23 1014 72 10000 3.6 240 13:45 08.03.2022
3340 Clear 19 1014 77 10000 1.03 0 12:20 08.03.2022
3341 Clear 16 1013 87 10000 1.54 350 11:42 08.03.2022
3342 Clear 19 1012 82 10000 1.54 350 10:28 08.03.2022
3343 Clear 20 1011 76 10000 1.54 340 08:57 08.03.2022
3344 Clear 20 1011 70 10000 3.09 270 06:30 08.03.2022
3345 Clear 22 1010 63 10000 5.66 270 02:37 08.03.2022
3346 Clouds 24 1006 67 10000 6.69 270 22:48 07.03.2022
3347 Clouds 24 1005 65 10000 8.23 270 21:45 07.03.2022
3348 Clouds 24 1005 64 10000 8.23 270 21:22 07.03.2022
3349 Clouds 24 1005 70 10000 9.26 280 20:33 07.03.2022
3350 Clouds 24 1004 74 10000 8.23 290 19:49 07.03.2022
3351 Clouds 24 1004 79 10000 8.23 290 18:57 07.03.2022
3352 Clouds 23 1004 80 10000 8.23 280 18:29 07.03.2022
3353 Clouds 23 1004 81 10000 9.77 290 17:31 07.03.2022
3354 Clouds 22 1003 86 10000 8.23 270 16:43 07.03.2022
3355 Clouds 20 1001 97 10000 7.2 320 14:51 07.03.2022
3356 Rain 22 1001 95 10000 7.72 350 12:34 07.03.2022
3357 Clouds 22 1002 95 3000 5.66 360 11:34 07.03.2022
3358 Thunderstorm 22 1001 96 10000 6.69 20 10:31 07.03.2022
3359 Clouds 21 1002 93 5000 3.09 50 08:34 07.03.2022
3360 Clouds 21 1002 93 5000 3.09 50 08:34 07.03.2022
3361 Clouds 22 1007 91 10000 5.66 90 02:50 07.03.2022
3362 Clouds 22 1007 89 10000 5.14 110 00:20 07.03.2022
3363 Clouds 23 1007 87 10000 6.69 110 23:23 06.03.2022
3364 Clouds 23 1007 85 10000 6.69 100 22:29 06.03.2022
3365 Clouds 23 1007 86 10000 7.2 110 21:37 06.03.2022
3366 Clouds 24 1008 88 10000 6.17 120 20:29 06.03.2022
3367 Clouds 24 1009 82 10000 4.92 92 19:43 06.03.2022
3368 Clouds 24 1009 82 10000 5.14 140 18:50 06.03.2022
3369 Clouds 24 1010 81 10000 5.14 160 17:49 06.03.2022
3370 Clouds 23 1010 83 10000 5.14 160 17:20 06.03.2022
3371 Clouds 23 1010 84 10000 4.47 146 16:39 06.03.2022
3372 Clouds 24 1010 85 10000 4.12 160 15:31 06.03.2022
3373 Clouds 24 1011 88 10000 2.57 140 14:42 06.03.2022
3374 Clouds 23 1010 92 8000 1.54 0 13:49 06.03.2022
3375 Mist 23 1010 94 3000 1.54 120 12:40 06.03.2022
3376 Fog 18 1010 99 400 2.06 170 11:46 06.03.2022
3377 Fog 20 1009 97 100 0 0 10:40 06.03.2022
3378 Clear 20 1009 96 10000 1.54 60 09:21 06.03.2022
3379 Clouds 21 1009 95 10000 2.57 70 08:28 06.03.2022
3380 Clouds 21 1009 94 10000 3.09 120 07:26 06.03.2022
3381 Clouds 21 1009 90 10000 2.57 30 02:45 06.03.2022
3382 Rain 22 1009 86 10000 5.14 80 00:36 06.03.2022
3383 Rain 23 1009 85 10000 5.14 80 00:18 06.03.2022
3384 Clouds 23 1008 88 10000 4.92 73 23:19 05.03.2022
3385 Clouds 23 1008 88 10000 4.92 73 22:35 05.03.2022
3386 Rain 24 1008 87 10000 4.63 140 21:30 05.03.2022
3387 Rain 23 1007 88 10000 4.12 100 20:38 05.03.2022
3388 Rain 24 1008 86 10000 3.6 110 19:22 05.03.2022
3389 Rain 24 1008 86 10000 4.63 120 18:48 05.03.2022
3390 Rain 24 1009 84 10000 5.66 140 17:35 05.03.2022
3391 Rain 24 1009 84 10000 5.66 120 16:19 05.03.2022
3392 Clouds 24 1009 86 10000 5.66 120 15:20 05.03.2022
3393 Clouds 24 1009 88 10000 5.14 120 14:36 05.03.2022
3394 Clouds 24 1009 90 10000 3.58 91 13:46 05.03.2022
3395 Clear 23 1010 94 10000 3.6 110 12:46 05.03.2022
3396 Clouds 21 1009 94 7000 4.12 110 11:21 05.03.2022
3397 Clear 21 1009 94 10000 3.09 120 10:53 05.03.2022
3398 Clear 21 1009 93 10000 2.06 120 09:37 05.03.2022
3399 Clear 21 1009 93 10000 0 160 08:31 05.03.2022
3400 Clear 22 1009 91 10000 0 0 07:23 05.03.2022
3401 Clear 22 1009 91 10000 0 0 07:23 05.03.2022
3402 Clear 23 1010 92 10000 0 0 05:39 05.03.2022
3403 Clouds 25 1010 83 10000 2.57 110 00:51 05.03.2022
3404 Clouds 25 1009 82 10000 2.57 130 23:21 04.03.2022
3405 Clouds 26 1009 81 10000 2.57 150 22:39 04.03.2022
3406 Clouds 25 1009 80 10000 2.57 160 21:43 04.03.2022
3407 Clouds 26 1009 75 10000 3.6 180 20:48 04.03.2022
3408 Clear 26 1010 78 10000 2.06 180 19:39 04.03.2022
3409 Clear 26 1010 74 10000 2.06 180 18:59 04.03.2022
3410 Clear 26 1010 74 10000 2.06 350 18:36 04.03.2022
3411 Clear 27 1011 71 10000 2.24 186 17:29 04.03.2022
3412 Rain 27 1011 68 10000 4.12 330 16:36 04.03.2022
3413 Rain 26 1012 74 10000 3.6 340 15:27 04.03.2022
3414 Rain 26 1012 74 10000 3.6 340 15:27 04.03.2022
3415 Clear 24 1011 80 10000 5.14 20 13:38 04.03.2022
3416 Clear 21 1011 83 10000 4.63 30 12:51 04.03.2022
3417 Clear 19 1011 87 10000 4.63 40 11:38 04.03.2022
3418 Clear 18 1011 92 10000 4.12 40 10:42 04.03.2022
3419 Clear 18 1011 92 10000 3.09 30 09:28 04.03.2022
3420 Clear 18 1011 82 10000 3.6 30 08:20 04.03.2022
3421 Clear 18 1012 82 10000 3.6 30 06:55 04.03.2022
3422 Clear 20 1012 81 10000 5.14 80 03:28 04.03.2022
3423 Clear 21 1012 78 10000 5.66 120 00:19 04.03.2022
3424 Clear 22 1012 77 10000 6.17 120 22:19 03.03.2022
3425 Clear 22 1012 77 10000 6.69 120 21:37 03.03.2022
3426 Clear 22 1012 77 10000 6.69 120 20:56 03.03.2022
3427 Clear 22 1012 72 10000 6.69 120 19:42 03.03.2022
3428 Clear 22 1013 75 10000 5.14 120 18:49 03.03.2022
3429 Clear 21 1013 69 10000 5.36 108 17:46 03.03.2022
3430 Clear 21 1014 69 10000 5.14 120 17:26 03.03.2022
3431 Clear 21 1014 71 10000 5.36 78 15:47 03.03.2022
3432 Clear 21 1015 72 10000 5.14 100 14:53 03.03.2022
3433 Clear 20 1015 72 10000 5.36 66 14:32 03.03.2022
3434 Clear 18 1015 74 10000 3.09 80 12:52 03.03.2022
3435 Clear 16 1015 81 10000 3.09 60 11:39 03.03.2022
3436 Clear 15 1015 88 10000 2.57 30 10:40 03.03.2022
3437 Clear 17 1014 76 10000 5.14 120 08:45 03.03.2022
3438 Clear 18 1014 71 10000 5.66 120 07:25 03.03.2022
3439 Clear 18 1014 70 10000 5.14 120 06:33 03.03.2022
3440 Clear 21 1011 72 10000 6.69 150 01:44 03.03.2022
3441 Clear 25 1008 66 10000 3.6 260 23:29 02.03.2022
3442 Clear 26 1008 57 10000 4.63 270 22:50 02.03.2022
3443 Clear 26 1008 57 10000 4.63 270 22:50 02.03.2022
3444 Clear 28 1008 53 10000 5.14 280 21:29 02.03.2022
3445 Clear 28 1008 50 10000 6.17 280 20:44 02.03.2022
3446 Clear 28 1008 52 10000 6.17 280 20:22 02.03.2022
3447 Clear 27 1008 54 10000 7.2 260 19:34 02.03.2022
3448 Clear 27 1008 55 10000 10.29 290 18:44 02.03.2022
3449 Clear 27 1009 54 10000 10.29 280 17:59 02.03.2022
3450 Clear 27 1008 51 10000 10.29 280 17:23 02.03.2022
3451 Clear 27 1008 43 10000 10.29 290 16:45 02.03.2022
3452 Clear 25 1009 56 10000 7.72 310 14:44 02.03.2022
3453 Clear 22 1010 59 10000 7.72 330 13:24 02.03.2022
3454 Clear 19 1010 69 10000 5.66 340 12:42 02.03.2022
3455 Clear 18 1009 77 10000 6.17 360 11:47 02.03.2022
3456 Clear 17 1009 79 10000 6.17 360 11:24 02.03.2022
3457 Clear 17 1009 83 10000 5.14 360 09:42 02.03.2022
3458 Clear 17 1009 81 10000 5.14 360 08:55 02.03.2022
3459 Clear 17 1010 81 10000 4.12 360 07:39 02.03.2022
3460 Clear 16 1010 81 10000 4.63 360 06:51 02.03.2022
3461 Clear 17 1011 69 10000 3.09 10 02:35 02.03.2022
3462 Clear 22 1010 48 10000 3.6 350 23:55 01.03.2022
3463 Clear 24 1010 39 10000 5.14 350 22:46 01.03.2022
3464 Clear 25 1010 37 10000 5.14 350 22:20 01.03.2022
3465 Clear 25 1010 44 10000 8.23 360 21:25 01.03.2022
3466 Clear 25 1010 43 10000 6.69 330 20:32 01.03.2022
3467 Clear 25 1011 43 10000 7.72 360 19:44 01.03.2022
3468 Clear 25 1012 41 10000 5.14 340 18:50 01.03.2022
3469 Clear 24 1012 43 10000 5.14 340 18:21 01.03.2022
3470 Clear 24 1013 45 10000 5.14 330 17:30 01.03.2022
3471 Clear 23 1013 48 10000 6.17 360 16:34 01.03.2022
3472 Clear 22 1014 51 10000 5.14 350 15:41 01.03.2022
3473 Clear 21 1015 57 10000 4.63 360 14:40 01.03.2022
3474 Clear 20 1015 60 10000 4.63 10 13:58 01.03.2022
3475 Clear 20 1014 59 10000 4.63 10 13:25 01.03.2022
3476 Clear 16 1015 66 10000 2.57 360 12:33 01.03.2022
3477 Clear 14 1014 62 10000 2.57 30 10:37 01.03.2022
3478 Clear 14 1014 62 10000 2.57 30 10:37 01.03.2022
3479 Clear 15 1014 59 10000 2.57 110 09:18 01.03.2022
3480 Clear 17 1015 48 10000 3.6 150 07:54 01.03.2022
3481 Clouds 18 1015 48 10000 4.12 170 06:26 01.03.2022
3482 Clouds 20 1014 68 10000 8.23 180 02:45 01.03.2022
3483 Clear 22 1012 49 10000 3.6 240 00:39 01.03.2022
3484 Clear 25 1010 59 10000 7.2 240 23:33 28.02.2022
3485 Clear 26 1009 54 10000 6.69 250 22:24 28.02.2022
3486 Clear 26 1008 60 10000 7.2 260 21:41 28.02.2022
3487 Clear 27 1008 59 10000 8.75 280 20:28 28.02.2022
3488 Clouds 26 1008 61 10000 8.75 250 19:41 28.02.2022
3489 Clouds 26 1008 72 10000 6.17 280 18:49 28.02.2022
3490 Clouds 25 1008 74 10000 5.14 280 17:33 28.02.2022
3491 Clouds 25 1008 74 10000 4.12 280 16:54 28.02.2022
3492 Clouds 25 1008 75 10000 2.57 300 15:58 28.02.2022
3493 Clouds 24 1008 77 10000 1.03 0 14:32 28.02.2022
3494 Clouds 24 1008 78 10000 4.12 120 13:48 28.02.2022
3495 Clouds 24 1007 80 10000 4.12 120 13:18 28.02.2022
3496 Fog 20 1007 99 10000 2.57 150 11:59 28.02.2022
3497 Fog 20 1007 99 10000 2.57 150 11:19 28.02.2022
3498 Clouds 20 1007 96 10000 0 0 10:22 28.02.2022
3499 Clouds 21 1007 96 10000 0 0 09:43 28.02.2022
3500 Clouds 21 1006 96 10000 1.54 350 08:52 28.02.2022
3501 Clouds 21 1007 95 10000 2.06 350 07:58 28.02.2022
3502 Rain 21 1007 95 10000 2.06 10 05:53 28.02.2022
3503 Clouds 21 1006 94 10000 2.06 280 04:30 28.02.2022
3504 Clouds 22 1006 91 10000 1.54 30 00:52 28.02.2022
3505 Clouds 24 1005 80 10000 4.12 320 22:44 27.02.2022
3506 Rain 24 1005 79 10000 4.12 320 22:26 27.02.2022
3507 Clouds 24 1006 78 10000 5.14 300 21:37 27.02.2022
3508 Clouds 25 1005 74 10000 5.14 310 20:43 27.02.2022
3509 Clouds 25 1005 74 10000 5.14 310 20:18 27.02.2022
3510 Rain 25 1005 74 10000 6.69 360 19:48 27.02.2022
3511 Rain 25 1005 74 10000 6.69 360 19:21 27.02.2022
3512 Clouds 24 1003 80 10000 6.26 30 18:24 27.02.2022
3513 Rain 24 1005 83 3500 6.17 350 17:45 27.02.2022
3514 Clouds 24 1006 85 10000 5.14 350 16:23 27.02.2022
3515 Rain 21 1007 94 5000 6.17 30 14:29 27.02.2022
3516 Rain 22 1007 88 8000 6.17 30 12:36 27.02.2022
3517 Rain 22 1008 94 5000 2.06 350 11:51 27.02.2022
3518 Rain 22 1007 94 10000 5.66 20 10:37 27.02.2022
3519 Rain 22 1007 94 10000 5.66 20 09:58 27.02.2022
3520 Rain 22 1008 100 10000 2.57 340 09:23 27.02.2022
3521 Rain 22 1009 100 10000 5.14 300 08:45 27.02.2022
3522 Rain 22 1009 100 10000 5.14 300 08:45 27.02.2022
3523 Thunderstorm 23 1010 94 10000 1.03 0 06:26 27.02.2022
3524 Thunderstorm 25 1008 83 10000 4.12 70 03:44 27.02.2022
3525 Clouds 26 1010 53 10000 3.09 40 23:57 26.02.2022
3526 Clouds 26 1009 84 10000 2.06 40 22:43 26.02.2022
3527 Rain 25 1010 86 10000 4.63 10 21:29 26.02.2022
3528 Thunderstorm 24 1010 88 10000 2.68 50 20:43 26.02.2022
3529 Thunderstorm 25 1011 86 10000 2.06 360 19:57 26.02.2022
3530 Rain 25 1011 81 8000 4.12 340 19:33 26.02.2022
3531 Rain 25 1011 81 8000 4.12 340 19:33 26.02.2022
3532 Clear 25 1012 80 10000 5.14 350 18:33 26.02.2022
3533 Clear 29 1013 58 10000 5.66 20 17:37 26.02.2022
3534 Clouds 27 1013 71 10000 7.2 20 16:39 26.02.2022
3535 Clouds 26 1014 70 10000 5.66 40 15:42 26.02.2022
3536 Rain 26 1014 70 10000 5.66 40 15:19 26.02.2022
3537 Clear 25 1014 69 10000 5.66 30 14:44 26.02.2022
3538 Clear 25 1015 66 10000 5.66 30 14:20 26.02.2022
3539 Clear 21 1016 73 10000 3.6 40 12:53 26.02.2022
3540 Clear 18 1015 82 10000 3.6 60 11:53 26.02.2022
3541 Clear 18 1015 82 10000 3.6 60 11:26 26.02.2022
3542 Clear 19 1015 63 10000 3.09 40 10:22 26.02.2022
3543 Clear 18 1014 72 10000 2.06 50 08:35 26.02.2022
3544 Clear 19 1015 72 10000 3.09 10 06:46 26.02.2022
3545 Clear 24 1015 50 10000 1.54 110 00:26 26.02.2022
3546 Clear 26 1013 58 10000 2.57 150 22:44 25.02.2022
3547 Clear 26 1014 57 10000 2.57 130 21:33 25.02.2022
3548 Clear 26 1014 56 10000 2.57 160 20:57 25.02.2022
3549 Clear 27 1014 52 10000 2.57 160 20:28 25.02.2022
3550 Clear 27 1014 60 10000 4.63 180 18:18 25.02.2022
3551 Clear 26 1015 59 10000 1.79 212 17:20 25.02.2022
3552 Clear 25 1015 59 10000 3.09 200 16:19 25.02.2022
3553 Clear 24 1015 65 10000 3.09 250 15:36 25.02.2022
3554 Clear 24 1015 67 10000 3.09 250 15:18 25.02.2022
3555 Clear 24 1015 69 10000 3.09 250 14:39 25.02.2022
3556 Clear 22 1016 78 10000 4.12 240 13:30 25.02.2022
3557 Clouds 19 1016 94 10000 1.54 290 12:42 25.02.2022
3558 Fog 17 1015 100 800 2.06 310 11:23 25.02.2022
3559 Fog 18 1014 100 100 2.57 290 10:28 25.02.2022
3560 Fog 18 1013 100 300 2.06 290 09:52 25.02.2022
3561 Fog 19 1013 94 300 1.54 290 08:44 25.02.2022
3562 Fog 19 1013 94 10000 1.03 290 07:36 25.02.2022
3563 Clouds 21 1013 88 10000 0.51 320 05:47 25.02.2022
3564 Clouds 22 1012 83 10000 2.06 350 02:58 25.02.2022
3565 Clouds 24 1009 82 10000 6.17 20 22:56 24.02.2022
3566 Clouds 24 1009 84 10000 8.75 40 21:54 24.02.2022
3567 Clouds 23 1008 84 10000 8.75 40 21:31 24.02.2022
3568 Clouds 23 1009 86 10000 8.75 40 20:57 24.02.2022
3569 Rain 22 1010 92 10000 6.71 58 19:38 24.02.2022
3570 Rain 20 1014 100 6000 4.12 20 18:38 24.02.2022
3571 Rain 20 1014 100 6000 4.12 20 18:18 24.02.2022
3572 Rain 20 1014 100 6000 3.09 10 17:33 24.02.2022
3573 Rain 21 1014 94 8000 1.54 340 16:45 24.02.2022
3574 Rain 21 1014 94 8000 1.54 340 16:21 24.02.2022
3575 Rain 21 1015 88 6000 5.14 300 14:53 24.02.2022
3576 Rain 22 1014 83 10000 6.17 50 14:26 24.02.2022
3577 Clouds 22 1010 83 10000 8.23 60 13:39 24.02.2022
3578 Clouds 22 1010 83 10000 8.23 60 13:39 24.02.2022
3579 Clouds 20 1011 88 10000 6.69 50 12:49 24.02.2022
3580 Clouds 19 1011 88 10000 6.69 70 10:40 24.02.2022
3581 Clouds 18 1012 88 10000 5.14 90 08:59 24.02.2022
3582 Clouds 18 1013 94 10000 4.12 80 08:40 24.02.2022
3583 Clouds 20 1014 83 10000 3.6 80 05:52 24.02.2022
3584 Clouds 21 1014 83 10000 7.2 110 01:56 24.02.2022
3585 Clouds 21 1014 83 10000 7.2 110 01:56 24.02.2022
3586 Clouds 23 1013 81 10000 6.17 120 22:56 23.02.2022
3587 Clouds 23 1013 81 10000 6.17 120 21:40 23.02.2022
3588 Clouds 23 1013 81 10000 5.66 130 20:31 23.02.2022
3589 Clouds 23 1014 80 10000 5.66 130 19:46 23.02.2022
3590 Clouds 24 1015 69 10000 5.66 130 18:32 23.02.2022
3591 Clouds 24 1016 64 10000 5.14 140 17:36 23.02.2022
3592 Clouds 23 1017 82 10000 3.6 170 14:42 23.02.2022
3593 Clouds 20 1017 94 10000 3.09 180 12:45 23.02.2022
3594 Clouds 18 1016 94 10000 4.12 160 11:34 23.02.2022
3595 Clouds 20 1016 83 10000 3.6 180 10:31 23.02.2022
3596 Clouds 20 1016 83 10000 2.06 190 08:59 23.02.2022
3597 Clouds 20 1016 83 10000 2.06 190 08:23 23.02.2022
3598 Clouds 21 1017 73 10000 3.6 180 03:49 23.02.2022
3599 Clouds 22 1016 82 10000 3.09 200 00:28 23.02.2022
3600 Clouds 22 1016 81 10000 3.6 200 23:36 22.02.2022
3601 Clouds 23 1015 79 10000 4.63 190 22:31 22.02.2022
3602 Clouds 23 1015 77 10000 5.66 190 21:49 22.02.2022
3603 Clouds 23 1015 79 10000 5.66 190 21:30 22.02.2022
3604 Clouds 23 1016 78 10000 6.69 210 20:55 22.02.2022
3605 Clouds 23 1016 79 10000 6.69 210 20:30 22.02.2022
3606 Clouds 24 1016 77 10000 6.17 210 19:42 22.02.2022
3607 Clouds 24 1016 77 10000 4.02 207 19:19 22.02.2022
3608 Clouds 24 1017 76 10000 5.66 200 17:49 22.02.2022
3609 Clouds 24 1017 75 10000 5.66 200 17:23 22.02.2022
3610 Clouds 24 1017 76 10000 4.12 200 16:37 22.02.2022
3611 Clouds 24 1017 77 10000 4.63 200 15:44 22.02.2022
3612 Clouds 24 1017 77 10000 4.63 200 15:44 22.02.2022
3613 Clouds 23 1017 80 10000 5.14 190 14:44 22.02.2022
3614 Clouds 21 1017 83 10000 6.17 190 12:31 22.02.2022
3615 Clouds 20 1016 88 10000 4.63 200 10:52 22.02.2022
3616 Clouds 21 1015 83 10000 3.6 170 08:41 22.02.2022
3617 Clouds 21 1015 83 10000 4.63 200 07:26 22.02.2022
3618 Clouds 20 1016 83 10000 3.09 210 04:59 22.02.2022
3619 Clouds 21 1016 83 10000 2.57 200 02:45 22.02.2022
3620 Clouds 22 1013 77 10000 5.14 210 22:46 21.02.2022
3621 Clouds 23 1013 77 10000 6.69 210 21:42 21.02.2022
3622 Clouds 23 1013 80 10000 7.2 210 20:35 21.02.2022
3623 Clouds 23 1013 82 8000 7.72 210 18:46 21.02.2022
3624 Drizzle 23 1013 83 10000 8.23 200 17:36 21.02.2022
3625 Clouds 23 1012 86 10000 8.75 210 15:22 21.02.2022
3626 Clouds 22 1011 89 10000 8.75 210 14:21 21.02.2022
3627 Clouds 22 1011 89 10000 8.75 210 14:21 21.02.2022
3628 Clouds 21 1010 92 10000 6.69 210 13:22 21.02.2022
3629 Clouds 22 1010 91 800 6.17 200 12:23 21.02.2022
3630 Clouds 20 1009 94 800 6.69 200 11:19 21.02.2022
3631 Clouds 21 1007 88 10000 4.63 170 09:34 21.02.2022
3632 Clouds 20 1007 94 10000 4.63 180 05:35 21.02.2022
3633 Thunderstorm 22 1005 83 2500 6.69 130 23:44 20.02.2022
3634 Rain 24 1004 86 9000 7.2 120 22:25 20.02.2022
3635 Thunderstorm 23 1004 84 10000 6.71 120 21:42 20.02.2022
3636 Rain 23 1005 83 10000 5.66 120 20:53 20.02.2022
3637 Clouds 24 1005 84 10000 5.66 120 20:35 20.02.2022
3638 Clouds 23 1005 85 10000 5.66 120 19:32 20.02.2022
3639 Clouds 23 1006 86 10000 6.26 117 18:50 20.02.2022
3640 Clouds 23 1006 86 10000 5.66 120 18:31 20.02.2022
3641 Clouds 23 1006 86 10000 4.47 114 18:31 20.02.2022
3642 Clouds 24 1007 78 10000 4.12 270 17:48 20.02.2022
3643 Clouds 24 1007 81 10000 5.14 120 15:37 20.02.2022
3644 Clouds 23 1007 83 10000 4.63 30 14:42 20.02.2022
3645 Clouds 24 1007 82 10000 3.6 30 13:23 20.02.2022
3646 Clouds 21 1007 88 10000 3.09 40 12:28 20.02.2022
3647 Rain 20 1006 88 10000 3.09 40 10:38 20.02.2022
3648 Rain 20 1006 88 10000 3.09 40 10:19 20.02.2022
3649 Clear 20 1007 88 10000 3.09 40 08:50 20.02.2022
3650 Clear 22 1008 78 10000 6.17 120 00:54 20.02.2022
3651 Clear 22 1008 78 10000 6.17 120 00:54 20.02.2022
3652 Clear 23 1008 83 10000 6.26 55 00:30 20.02.2022
3653 Clouds 23 1007 81 10000 7.2 120 22:47 19.02.2022
3654 Clouds 23 1007 80 10000 7.2 120 22:22 19.02.2022
3655 Clouds 23 1008 80 10000 7.72 140 20:51 19.02.2022
3656 Clouds 23 1008 84 10000 8.23 130 19:53 19.02.2022
3657 Clouds 23 1008 84 10000 8.23 130 19:28 19.02.2022
3658 Clouds 23 1009 79 10000 7.2 140 18:33 19.02.2022
3659 Clouds 23 1009 80 10000 6.69 120 17:35 19.02.2022
3660 Clouds 23 1010 81 10000 4.12 140 16:28 19.02.2022
3661 Clouds 22 1010 84 10000 3.6 120 14:56 19.02.2022
3662 Clouds 23 1010 84 10000 3.6 120 14:37 19.02.2022
3663 Clouds 22 1010 86 10000 3.6 70 13:22 19.02.2022
3664 Clouds 18 1010 94 10000 3.09 80 11:37 19.02.2022
3665 Clouds 18 1010 88 10000 1.54 80 09:45 19.02.2022
3666 Clear 19 1011 77 10000 2.57 80 06:54 19.02.2022
3667 Clear 21 1012 73 10000 5.14 90 03:38 19.02.2022
3668 Clear 23 1010 81 10000 8.75 120 23:29 18.02.2022
3669 Clouds 23 1011 78 10000 8.75 120 21:49 18.02.2022
3670 Clouds 23 1011 79 10000 8.23 130 20:42 18.02.2022
3671 Clouds 23 1011 78 10000 7.2 130 19:53 18.02.2022
3672 Clouds 23 1012 74 10000 6.17 120 18:50 18.02.2022
3673 Clouds 23 1012 74 10000 6.17 120 18:22 18.02.2022
3674 Clouds 23 1013 74 10000 5.66 130 17:50 18.02.2022
3675 Clouds 22 1014 73 10000 5.14 110 14:50 18.02.2022
3676 Clouds 22 1014 73 10000 5.14 110 13:55 18.02.2022
3677 Clouds 22 1014 76 10000 4.92 127 12:53 18.02.2022
3678 Clouds 19 1015 77 10000 4.12 110 12:32 18.02.2022
3679 Clouds 17 1015 82 10000 3.6 120 11:22 18.02.2022
3680 Clouds 20 1014 64 10000 5.66 110 09:52 18.02.2022
3681 Clouds 20 1015 73 10000 3.6 120 06:56 18.02.2022
3682 Clouds 19 1016 77 10000 5.66 140 05:39 18.02.2022
3683 Clouds 20 1015 76 10000 6.26 144 23:24 17.02.2022
3684 Clouds 20 1015 74 10000 7.6 131 21:44 17.02.2022
3685 Clouds 20 1015 75 10000 7.15 157 21:19 17.02.2022
3686 Clouds 21 1015 74 10000 7.2 150 20:36 17.02.2022
3687 Clouds 21 1015 75 10000 7.2 140 19:48 17.02.2022
3688 Clouds 20 1016 76 10000 8.75 150 18:41 17.02.2022
3689 Clouds 20 1016 77 10000 7.72 140 17:50 17.02.2022
3690 Clouds 21 1016 80 10000 8.49 146 16:25 17.02.2022
3691 Clouds 20 1016 82 10000 8.75 140 15:32 17.02.2022
3692 Clouds 20 1016 84 10000 9.39 138 14:26 17.02.2022
3693 Clouds 20 1015 77 10000 8.23 160 12:35 17.02.2022
3694 Clouds 20 1015 83 10000 9.26 150 11:21 17.02.2022
3695 Clouds 21 1014 88 10000 7.72 160 08:52 17.02.2022
3696 Clear 26 1012 65 10000 2.06 70 01:45 17.02.2022
3697 Clouds 27 1011 78 10000 3.09 120 23:19 16.02.2022
3698 Clouds 28 1011 71 10000 4.12 180 21:31 16.02.2022
3699 Clouds 30 1011 63 10000 3.09 290 19:46 16.02.2022
3700 Clouds 32 1012 43 10000 3.09 280 18:38 16.02.2022
3701 Clear 31 1012 53 10000 3.6 350 17:53 16.02.2022
3702 Clear 29 1013 57 10000 5.14 360 15:38 16.02.2022
3703 Clear 28 1013 60 10000 6.69 360 14:59 16.02.2022
3704 Clear 21 1014 73 10000 5.14 30 12:59 16.02.2022
3705 Clear 19 1014 82 10000 5.14 30 11:58 16.02.2022
3706 Clear 19 1014 82 10000 5.14 30 11:24 16.02.2022
3707 Clear 18 1013 82 10000 3.09 20 10:33 16.02.2022
3708 Clear 20 1013 73 10000 3.6 20 07:54 16.02.2022
3709 Clear 21 1013 64 10000 1.54 20 05:20 16.02.2022
3710 Clear 26 1011 71 10000 3.6 140 23:45 15.02.2022
3711 Clear 26 1011 72 10000 3.6 360 22:29 15.02.2022
3712 Clear 27 1011 72 10000 4.12 340 21:47 15.02.2022
3713 Clear 27 1011 72 10000 4.12 340 21:27 15.02.2022
3714 Clear 27 1011 72 10000 4.12 340 20:56 15.02.2022
3715 Clear 27 1012 69 10000 3.6 350 19:57 15.02.2022
3716 Clear 27 1012 64 10000 4.63 330 18:56 15.02.2022
3717 Clear 27 1013 66 10000 5.14 320 18:22 15.02.2022
3718 Clear 27 1013 64 10000 4.63 350 17:50 15.02.2022
3719 Clear 28 1013 53 10000 4.12 340 16:50 15.02.2022
3720 Clear 28 1014 47 10000 3.6 320 15:28 15.02.2022
3721 Clear 23 1014 68 10000 3.09 340 13:27 15.02.2022
3722 Clear 20 1014 68 10000 2.57 350 12:37 15.02.2022
3723 Clear 18 1013 70 10000 2.57 10 11:40 15.02.2022
3724 Clear 17 1012 63 10000 2.06 10 09:31 15.02.2022
3725 Clear 17 1012 73 10000 2.06 10 06:58 15.02.2022
3726 Clear 21 1012 54 10000 2.06 10 04:54 15.02.2022
3727 Clear 26 1010 48 10000 2.06 250 23:33 14.02.2022
3728 Clear 28 1009 44 10000 4.63 240 21:47 14.02.2022
3729 Clear 28 1011 39 10000 5.14 270 20:40 14.02.2022
3730 Clear 27 1010 47 10000 5.14 270 19:44 14.02.2022
3731 Clear 27 1010 47 10000 5.14 270 19:25 14.02.2022
3732 Clear 25 1010 50 10000 5.66 270 18:23 14.02.2022
3733 Clear 25 1010 55 10000 6.17 280 17:26 14.02.2022
3734 Clear 24 1011 56 10000 7.72 270 16:25 14.02.2022
3735 Clear 24 1011 64 10000 6.17 260 14:31 14.02.2022
3736 Clear 22 1011 64 10000 4.12 250 13:33 14.02.2022
3737 Clear 22 1011 64 10000 4.12 250 13:33 14.02.2022
3738 Clear 22 1011 63 10000 2.57 270 12:55 14.02.2022
3739 Clear 21 1010 69 10000 1.54 330 11:55 14.02.2022
3740 Clear 20 1009 76 10000 1.54 330 10:58 14.02.2022
3741 Clear 20 1008 77 10000 1.54 330 08:46 14.02.2022
3742 Clear 18 1009 86 10000 2.06 330 07:32 14.02.2022
3743 Clear 15 1009 82 10000 1.54 310 05:56 14.02.2022
3744 Clouds 21 1008 62 10000 4.12 270 22:43 13.02.2022
3745 Clouds 22 1008 60 10000 4.12 270 22:25 13.02.2022
3746 Clouds 21 1009 57 10000 5.66 250 21:36 13.02.2022
3747 Clouds 22 1009 57 10000 5.66 250 20:42 13.02.2022
3748 Clouds 21 1010 56 10000 7.2 240 19:51 13.02.2022
3749 Clouds 21 1010 54 10000 7.2 240 18:54 13.02.2022
3750 Clouds 21 1011 51 10000 7.2 240 18:35 13.02.2022
3751 Clouds 20 1012 65 10000 7.2 240 16:38 13.02.2022
3752 Clouds 19 1012 68 10000 8.75 230 15:27 13.02.2022
3753 Clouds 19 1013 69 10000 8.23 230 14:37 13.02.2022
3754 Clouds 17 1014 59 10000 6.17 230 12:52 13.02.2022
3755 Clouds 17 1014 59 10000 6.17 230 12:18 13.02.2022
3756 Clouds 16 1013 63 10000 3.6 240 10:38 13.02.2022
3757 Clouds 16 1013 62 10000 3.09 220 09:49 13.02.2022
3758 Clouds 16 1013 64 10000 4.12 230 07:53 13.02.2022
3759 Clouds 18 1015 73 10000 7.72 160 00:49 13.02.2022
3760 Clouds 18 1015 72 10000 7.72 160 00:20 13.02.2022
3761 Drizzle 19 1015 82 3000 8.94 186 22:34 12.02.2022
3762 Clouds 19 1015 84 10000 8.94 186 21:40 12.02.2022
3763 Clouds 19 1015 83 10000 8.49 186 20:52 12.02.2022
3764 Clouds 19 1015 85 10000 10.73 202 19:56 12.02.2022
3765 Clouds 20 1015 84 10000 12.07 193 18:54 12.02.2022
3766 Clouds 20 1015 84 10000 12.07 193 18:53 12.02.2022
3767 Clouds 20 1015 84 10000 10.73 193 18:35 12.02.2022
3768 Drizzle 20 1015 86 7000 12.07 171 17:38 12.02.2022
3769 Clouds 19 1015 93 800 11.62 190 16:44 12.02.2022
3770 Clouds 17 1016 98 800 9.77 170 15:52 12.02.2022
3771 Clouds 17 1016 98 800 9.77 170 15:20 12.02.2022
3772 Drizzle 18 1016 89 3000 8.75 170 14:25 12.02.2022
3773 Rain 18 1015 94 800 7.2 170 11:26 12.02.2022
3774 Rain 18 1015 94 3000 7.72 160 10:30 12.02.2022
3775 Rain 19 1015 88 2000 7.72 180 09:37 12.02.2022
3776 Rain 19 1014 94 2000 7.72 160 08:46 12.02.2022
3777 Rain 19 1015 88 10000 7.2 170 06:52 12.02.2022
3778 Clouds 19 1016 94 6000 7.72 170 04:44 12.02.2022
3779 Rain 21 1015 83 10000 7.72 160 02:19 12.02.2022
3780 Clouds 23 1012 86 10000 9.83 181 23:21 11.02.2022
3781 Rain 24 1012 81 10000 8.75 180 22:21 11.02.2022
3782 Clouds 24 1012 81 10000 7.2 160 21:32 11.02.2022
3783 Clouds 24 1012 81 10000 8.23 180 20:26 11.02.2022
3784 Clouds 25 1011 79 10000 7.72 180 19:28 11.02.2022
3785 Rain 24 1012 78 10000 6.17 190 18:29 11.02.2022
3786 Clouds 24 1012 79 10000 5.66 180 17:27 11.02.2022
3787 Clouds 25 1012 79 10000 4.92 172 16:39 11.02.2022
3788 Clouds 25 1012 78 10000 4.47 163 15:19 11.02.2022
3789 Clear 27 1011 71 10000 3.09 60 14:37 11.02.2022
3790 Clear 27 1011 71 10000 3.09 60 14:19 11.02.2022
3791 Clouds 25 1011 75 10000 4.12 40 13:40 11.02.2022
3792 Clear 25 1011 76 10000 4.12 40 13:21 11.02.2022
3793 Clouds 20 1012 88 10000 3.6 40 10:55 11.02.2022
3794 Clear 19 1011 94 10000 3.6 30 09:32 11.02.2022
3795 Clear 20 1011 83 10000 3.09 30 08:33 11.02.2022
3796 Clear 20 1011 83 10000 4.12 40 07:45 11.02.2022
3797 Clear 20 1011 83 10000 4.12 50 06:22 11.02.2022
3798 Clear 23 1011 56 10000 4.63 70 02:21 11.02.2022
3799 Clear 27 1008 61 10000 4.63 50 23:45 10.02.2022
3800 Clouds 25 1008 77 10000 4.63 40 22:26 10.02.2022
3801 Clouds 26 1008 72 10000 5.66 120 21:41 10.02.2022
3802 Clouds 25 1009 71 10000 6.17 70 20:50 10.02.2022
3803 Clouds 26 1009 71 10000 5.66 80 19:51 10.02.2022
3804 Clouds 26 1009 62 10000 5.66 80 19:22 10.02.2022
3805 Clouds 27 1010 50 10000 5.66 20 18:22 10.02.2022
3806 Clouds 27 1011 53 10000 5.14 30 17:21 10.02.2022
3807 Clear 26 1011 56 10000 6.17 40 16:43 10.02.2022
3808 Clear 25 1012 60 10000 6.69 20 15:40 10.02.2022
3809 Clear 25 1012 60 10000 6.69 20 15:21 10.02.2022
3810 Clear 23 1013 64 10000 6.69 40 14:35 10.02.2022
3811 Clear 20 1013 77 10000 7.2 30 13:40 10.02.2022
3812 Clear 20 1013 77 10000 7.2 30 13:19 10.02.2022
3813 Clear 19 1013 82 10000 4.63 50 11:52 10.02.2022
3814 Clear 19 1013 82 10000 4.63 50 11:30 10.02.2022
3815 Clear 18 1012 82 10000 3.6 30 10:23 10.02.2022
3816 Clear 18 1012 82 10000 4.12 40 09:44 10.02.2022
3817 Clear 18 1012 82 10000 3.09 50 08:25 10.02.2022
3818 Clear 19 1012 77 10000 5.14 60 06:32 10.02.2022
3819 Clear 22 1013 68 10000 4.12 110 02:43 10.02.2022
3820 Clear 22 1013 68 10000 5.14 110 00:53 10.02.2022
3821 Clear 23 1012 77 10000 5.14 110 00:30 10.02.2022
3822 Clouds 23 1012 76 10000 6.17 110 23:58 09.02.2022
3823 Clouds 23 1012 73 10000 6.17 120 22:54 09.02.2022
3824 Clouds 23 1012 73 10000 6.17 120 22:30 09.02.2022
3825 Clouds 23 1012 73 10000 5.14 150 21:47 09.02.2022
3826 Clouds 23 1013 73 10000 5.14 150 21:27 09.02.2022
3827 Clouds 23 1013 73 10000 5.14 190 20:43 09.02.2022
3828 Clouds 23 1013 72 10000 5.14 190 20:22 09.02.2022
3829 Clouds 23 1013 74 10000 4.63 170 19:41 09.02.2022
3830 Clouds 23 1014 71 10000 3.6 160 18:38 09.02.2022
3831 Clouds 22 1015 73 10000 3.6 320 16:55 09.02.2022
3832 Clouds 24 1015 61 10000 3.6 360 15:59 09.02.2022
3833 Clouds 24 1015 60 10000 3.6 360 15:22 09.02.2022
3834 Clear 18 1017 77 10000 2.06 90 12:43 09.02.2022
3835 Fog 16 1017 82 10000 3.09 80 11:23 09.02.2022
3836 Clear 14 1017 88 10000 0 0 10:33 09.02.2022
3837 Clear 14 1016 88 10000 1.03 330 09:47 09.02.2022
3838 Clear 14 1016 88 10000 1.03 330 09:21 09.02.2022
3839 Clear 14 1016 88 10000 1.03 350 08:43 09.02.2022
3840 Clear 17 1016 77 10000 2.57 50 05:55 09.02.2022
3841 Clear 19 1017 68 10000 1.54 100 03:51 09.02.2022
3842 Clouds 20 1017 64 10000 3.09 130 01:55 09.02.2022
3843 Clouds 22 1016 71 10000 4.12 150 23:45 08.02.2022
3844 Clouds 22 1016 70 10000 4.12 150 23:18 08.02.2022
3845 Clouds 22 1016 70 10000 4.02 135 22:38 08.02.2022
3846 Clouds 22 1016 71 10000 4.02 145 22:18 08.02.2022
3847 Clouds 22 1016 70 10000 4.63 160 21:22 08.02.2022
3848 Clouds 22 1016 70 10000 4.63 160 21:22 08.02.2022
3849 Clouds 22 1016 69 10000 4.47 164 20:57 08.02.2022
3850 Clouds 22 1016 71 10000 4.12 180 20:34 08.02.2022
3851 Clouds 22 1017 71 10000 5.14 180 19:18 08.02.2022
3852 Clouds 22 1017 71 10000 4.92 135 17:58 08.02.2022
3853 Clouds 22 1017 69 10000 5.14 180 16:55 08.02.2022
3854 Clouds 22 1018 67 10000 5.66 180 15:46 08.02.2022
3855 Clouds 21 1018 69 10000 4.12 160 14:58 08.02.2022
3856 Clouds 21 1017 70 10000 4.63 160 13:48 08.02.2022
3857 Clouds 20 1017 60 10000 2.57 150 12:24 08.02.2022
3858 Clouds 19 1016 63 10000 3.6 170 10:48 08.02.2022
3859 Clouds 19 1016 68 10000 2.06 170 09:47 08.02.2022
3860 Clouds 19 1016 68 10000 3.09 160 08:38 08.02.2022
3861 Clouds 19 1016 63 10000 3.09 140 06:24 08.02.2022
3862 Clouds 20 1017 60 10000 3.09 140 04:40 08.02.2022
3863 Clouds 20 1017 60 10000 3.09 140 04:22 08.02.2022
3864 Clouds 20 1017 60 10000 3.6 150 03:36 08.02.2022
3865 Clouds 20 1017 60 10000 3.6 150 03:18 08.02.2022
3866 Clouds 20 1017 56 10000 4.63 150 02:59 08.02.2022
3867 Clouds 20 1017 56 10000 4.63 150 02:36 08.02.2022
3868 Clouds 20 1017 56 10000 4.63 150 02:18 08.02.2022
3869 Clouds 20 1017 64 10000 5.14 170 01:44 08.02.2022
3870 Clouds 20 1017 64 10000 5.14 170 01:25 08.02.2022
3871 Clouds 19 1017 63 10000 6.69 180 00:55 08.02.2022
3872 Clouds 21 1016 74 10000 6.71 176 00:19 08.02.2022
3873 Clouds 21 1016 72 10000 6.71 176 23:43 07.02.2022
3874 Clouds 21 1016 74 10000 7.15 196 23:18 07.02.2022
3875 Clouds 21 1016 74 10000 7.15 176 22:59 07.02.2022
3876 Clouds 21 1016 72 10000 7.6 176 22:18 07.02.2022
3877 Clouds 21 1016 70 10000 7.6 181 21:50 07.02.2022
3878 Clouds 22 1016 69 10000 7.15 181 21:27 07.02.2022
3879 Clouds 22 1016 69 10000 7.15 193 20:43 07.02.2022
3880 Clouds 22 1016 67 10000 6.69 190 20:24 07.02.2022
3881 Clouds 22 1017 65 10000 6.69 200 19:47 07.02.2022
3882 Clouds 22 1017 61 10000 6.69 200 18:34 07.02.2022
3883 Clouds 22 1016 64 10000 7.72 180 16:53 07.02.2022
3884 Clouds 22 1016 64 10000 7.72 180 16:24 07.02.2022
3885 Clouds 21 1016 66 10000 7.2 190 15:48 07.02.2022
3886 Clouds 21 1016 69 10000 8.05 219 13:39 07.02.2022
3887 Clouds 21 1016 69 10000 7.72 180 13:21 07.02.2022
3888 Clouds 19 1015 66 10000 3.6 190 11:58 07.02.2022
3889 Clouds 19 1015 66 10000 3.6 190 11:38 07.02.2022
3890 Clouds 18 1015 68 10000 5.66 200 10:54 07.02.2022
3891 Clouds 18 1014 68 10000 5.66 210 10:36 07.02.2022
3892 Clouds 19 1013 65 10000 7.2 200 09:53 07.02.2022
3893 Clouds 20 1013 65 10000 7.2 200 09:18 07.02.2022
3894 Clouds 20 1013 71 10000 6.69 190 08:44 07.02.2022
3895 Clouds 20 1013 72 10000 7.2 200 07:34 07.02.2022
3896 Clouds 20 1013 73 10000 7.72 200 06:34 07.02.2022
3897 Clouds 18 1013 91 10000 7.72 190 04:22 07.02.2022
3898 Clouds 18 1012 93 10000 3.09 230 01:29 07.02.2022
3899 Rain 21 1010 73 10000 3.58 288 23:50 06.02.2022
3900 Rain 21 1010 73 10000 5.36 277 23:19 06.02.2022
3901 Clouds 20 1010 74 10000 4.92 268 22:39 06.02.2022
3902 Clouds 20 1011 76 10000 5.81 274 21:37 06.02.2022
3903 Clouds 20 1010 76 10000 6.26 261 21:18 06.02.2022
3904 Clouds 20 1010 73 10000 6.71 273 20:48 06.02.2022
3905 Clouds 20 1011 73 10000 5.36 271 20:21 06.02.2022
3906 Clouds 20 1011 67 10000 4.47 274 18:54 06.02.2022
3907 Clouds 20 1011 67 10000 5.81 260 18:27 06.02.2022
3908 Clouds 20 1011 67 10000 5.36 261 17:29 06.02.2022
3909 Clouds 19 1012 67 10000 5.81 275 16:50 06.02.2022
3910 Clouds 19 1012 64 10000 5.81 279 15:51 06.02.2022
3911 Clouds 19 1012 67 10000 4.92 298 15:28 06.02.2022
3912 Clouds 18 1012 68 10000 4.47 254 14:59 06.02.2022
3913 Clouds 18 1012 73 10000 4.47 274 13:59 06.02.2022
3914 Clouds 19 1012 73 10000 4.02 286 13:20 06.02.2022
3915 Clouds 16 1012 81 10000 6.17 250 12:19 06.02.2022
3916 Clouds 17 1010 75 10000 7.2 230 10:33 06.02.2022
3917 Rain 17 1010 74 10000 6.69 230 09:36 06.02.2022
3918 Rain 18 1010 78 8000 6.69 220 08:41 06.02.2022
3919 Rain 18 1009 82 5000 7.72 210 06:34 06.02.2022
3920 Clouds 19 1009 85 10000 9.26 210 05:28 06.02.2022
3921 Clouds 19 1009 85 10000 9.26 210 05:28 06.02.2022
3922 Clouds 18 1008 94 10000 7.72 200 02:25 06.02.2022
3923 Clouds 19 1008 88 10000 6.69 230 00:32 06.02.2022
3924 Clouds 21 1006 81 7000 6.26 181 23:38 05.02.2022
3925 Clouds 22 1005 82 10000 3.58 211 21:47 05.02.2022
3926 Clouds 19 1005 90 3000 4.92 186 20:41 05.02.2022
3927 Clouds 19 1005 90 3000 4.92 186 20:20 05.02.2022
3928 Rain 23 1005 82 5000 4.47 181 19:42 05.02.2022
3929 Rain 23 1005 79 10000 5.36 186 18:30 05.02.2022
3930 Clouds 24 1005 74 10000 4.02 194 17:35 05.02.2022
3931 Clouds 24 1005 77 10000 3.13 221 16:20 05.02.2022
3932 Clouds 24 1005 76 10000 2.24 215 15:31 05.02.2022
3933 Clouds 20 1006 89 10000 1.54 260 13:38 05.02.2022
3934 Rain 19 1005 91 10000 2.57 60 12:46 05.02.2022
3935 Thunderstorm 22 1005 83 10000 4.47 255 11:45 05.02.2022
3936 Mist 21 1005 94 3000 1.54 10 10:43 05.02.2022
3937 Clouds 19 1004 95 10000 2.57 20 09:50 05.02.2022
3938 Clouds 20 1005 95 10000 1.54 290 08:47 05.02.2022
3939 Clouds 20 1006 93 10000 0 0 06:59 05.02.2022
3940 Clouds 20 1006 93 10000 0 0 06:35 05.02.2022
3941 Clouds 20 1006 91 10000 1.54 150 02:40 05.02.2022
3942 Clouds 21 1005 87 10000 2.06 140 01:18 05.02.2022
3943 Clouds 21 1005 84 10000 2.57 160 00:36 05.02.2022
3944 Clouds 23 1005 80 10000 1.79 144 23:33 04.02.2022
3945 Clouds 23 1005 82 10000 3.13 165 22:39 04.02.2022
3946 Clouds 23 1005 81 10000 4.47 190 21:36 04.02.2022
3947 Clouds 23 1005 81 10000 4.47 190 21:18 04.02.2022
3948 Clouds 24 1006 79 10000 4.02 169 20:36 04.02.2022
3949 Clouds 24 1007 78 10000 4.02 170 19:18 04.02.2022
3950 Clouds 24 1007 84 10000 5.81 181 16:22 04.02.2022
3951 Clouds 24 1007 86 10000 4.92 181 15:19 04.02.2022
3952 Clouds 23 1007 89 10000 4.92 172 14:40 04.02.2022
3953 Mist 23 1008 91 5000 3.6 120 12:43 04.02.2022
3954 Mist 22 1007 94 4000 2.57 100 11:45 04.02.2022
3955 Drizzle 21 1007 96 8000 4.12 160 10:55 04.02.2022
3956 Clouds 21 1007 96 10000 0 0 09:56 04.02.2022
3957 Clouds 21 1007 95 10000 0 0 07:56 04.02.2022
3958 Clouds 21 1008 95 10000 2.57 90 03:31 04.02.2022
3959 Clouds 21 1008 95 10000 3.09 90 02:36 04.02.2022
3960 Rain 24 1007 88 7000 1.34 109 23:40 03.02.2022
3961 Rain 24 1007 87 7000 1.79 99 22:50 03.02.2022
3962 Mist 23 1008 87 6000 0.45 158 21:51 03.02.2022
3963 Rain 24 1008 88 6000 1.79 113 21:22 03.02.2022
3964 Clouds 23 1008 89 10000 3.58 155 20:21 03.02.2022
3965 Rain 23 1009 86 9000 2.24 157 19:42 03.02.2022
3966 Rain 24 1009 86 10000 1.79 186 18:56 03.02.2022
3967 Rain 24 1009 85 10000 4.02 163 17:55 03.02.2022
3968 Rain 25 1009 80 10000 3.58 194 16:48 03.02.2022
3969 Clouds 26 1010 77 10000 2.68 208 14:59 03.02.2022
3970 Clouds 25 1010 82 10000 2.24 249 13:45 03.02.2022
3971 Rain 21 1012 100 10000 4.12 280 11:47 03.02.2022
3972 Rain 22 1009 87 10000 5.14 20 08:55 03.02.2022
3973 Clear 22 1010 87 10000 1.54 40 07:41 03.02.2022
3974 Rain 25 1010 73 10000 2.06 140 00:47 03.02.2022
3975 Rain 25 1009 84 10000 2.24 99 00:22 03.02.2022
3976 Clear 26 1009 78 10000 2.68 105 22:38 02.02.2022
3977 Clear 26 1010 71 10000 4.47 119 21:45 02.02.2022
3978 Clear 26 1010 71 10000 3.58 125 21:27 02.02.2022
3979 Clear 26 1010 69 10000 4.02 117 20:20 02.02.2022
3980 Clear 26 1010 69 10000 4.92 74 19:46 02.02.2022
3981 Clear 26 1010 69 10000 4.02 136 18:55 02.02.2022
3982 Clear 26 1010 65 10000 3.13 86 18:24 02.02.2022
3983 Clear 26 1011 70 10000 3.58 145 17:20 02.02.2022
3984 Clear 26 1011 69 10000 4.47 134 16:54 02.02.2022
3985 Clear 26 1012 61 10000 3.13 33 14:42 02.02.2022
3986 Clear 20 1013 77 10000 4.12 30 12:29 02.02.2022
3987 Rain 18 1013 82 10000 3.6 30 11:44 02.02.2022
3988 Clear 19 1013 82 10000 3.6 30 11:24 02.02.2022
3989 Clear 18 1011 73 10000 3.09 20 08:29 02.02.2022
3990 Clear 21 1011 67 10000 2.57 120 01:46 02.02.2022
3991 Clear 23 1010 58 10000 1.79 115 22:29 01.02.2022
3992 Clear 23 1010 54 10000 2.24 144 20:50 01.02.2022
3993 Clear 23 1011 54 10000 2.68 203 19:23 01.02.2022
3994 Clear 24 1012 43 10000 2.24 324 16:57 01.02.2022
3995 Clear 23 1013 46 10000 2.68 327 16:19 01.02.2022
3996 Clear 17 1014 67 10000 3.6 30 12:57 01.02.2022
3997 Clear 15 1014 74 10000 2.57 20 11:57 01.02.2022
3998 Clear 12 1013 85 10000 2.06 10 08:51 01.02.2022
3999 Clouds 17 1013 59 10000 3.09 150 02:20 01.02.2022
4000 Clouds 21 1011 57 10000 4.92 163 23:37 31.01.2022
4001 Clouds 22 1011 49 10000 3.58 195 22:33 31.01.2022
4002 Clouds 22 1011 54 10000 4.02 176 21:35 31.01.2022
4003 Clouds 22 1011 54 10000 4.02 176 21:35 31.01.2022
4004 Clouds 22 1011 50 10000 2.68 199 20:34 31.01.2022
4005 Clouds 22 1011 51 10000 4.92 204 19:57 31.01.2022
4006 Clouds 22 1012 54 10000 4.47 196 18:32 31.01.2022
4007 Clouds 23 1012 57 10000 4.92 203 17:57 31.01.2022
4008 Clouds 23 1011 55 10000 5.81 196 17:18 31.01.2022
4009 Clouds 22 1011 60 10000 4.92 192 16:21 31.01.2022
4010 Clouds 22 1010 58 10000 7.15 186 14:53 31.01.2022
4011 Clouds 22 1010 66 10000 6.26 186 13:31 31.01.2022
4012 Clouds 20 1010 76 10000 8.23 160 12:37 31.01.2022
4013 Clouds 20 1009 87 10000 7.72 170 11:20 31.01.2022
4014 Clouds 21 1008 83 10000 8.23 180 10:47 31.01.2022
4015 Clear 21 1005 89 10000 3.6 240 09:36 31.01.2022
4016 Clear 20 1005 75 10000 2.06 330 08:56 31.01.2022
4017 Clear 20 1005 76 10000 2.06 330 08:20 31.01.2022
4018 Clear 20 1005 73 10000 2.57 20 07:40 31.01.2022
4019 Clear 20 1006 72 10000 2.06 40 05:24 31.01.2022
4020 Clear 28 1005 48 10000 1.79 41 00:24 31.01.2022
4021 Clouds 29 1005 45 10000 2.24 13 22:33 30.01.2022
4022 Clouds 29 1005 46 10000 3.58 41 21:46 30.01.2022
4023 Clouds 29 1005 46 10000 3.13 2 21:24 30.01.2022
4024 Clouds 28 1006 47 10000 4.02 12 20:53 30.01.2022
4025 Clouds 28 1006 47 10000 4.02 23 20:31 30.01.2022
4026 Clouds 28 1007 48 10000 4.02 11 19:56 30.01.2022
4027 Clouds 28 1007 51 10000 4.02 358 18:51 30.01.2022
4028 Clouds 28 1008 51 10000 2.68 23 18:22 30.01.2022
4029 Clouds 27 1009 54 10000 1.79 346 17:31 30.01.2022
4030 Clouds 27 1010 56 10000 2.24 25 16:42 30.01.2022
4031 Clouds 27 1010 58 10000 2.68 302 16:23 30.01.2022
4032 Clouds 26 1010 59 10000 2.68 328 15:54 30.01.2022
4033 Clouds 26 1010 59 10000 2.68 338 15:33 30.01.2022
4034 Clear 25 1011 60 10000 4.02 22 14:47 30.01.2022
4035 Clear 24 1011 68 10000 4.47 40 13:47 30.01.2022
4036 Clear 21 1012 72 10000 6.17 20 12:46 30.01.2022
4037 Clear 19 1012 82 10000 4.63 30 11:23 30.01.2022
4038 Clear 18 1012 89 10000 3.6 30 10:26 30.01.2022
4039 Clear 18 1012 88 10000 3.6 20 09:23 30.01.2022
4040 Clouds 20 1012 86 10000 5.71 11 08:00 30.01.2022
4041 Clear 21 1012 82 10000 3.6 80 02:44 30.01.2022
4042 Clear 22 1012 79 10000 3.6 100 01:54 30.01.2022
4043 Clear 24 1011 73 10000 5.81 82 23:49 29.01.2022
4044 Clouds 24 1011 72 10000 6.26 75 22:57 29.01.2022
4045 Clouds 25 1011 69 10000 6.26 81 21:35 29.01.2022
4046 Clouds 25 1012 68 10000 5.81 105 20:57 29.01.2022
4047 Clouds 25 1012 66 10000 5.36 82 20:20 29.01.2022
4048 Clouds 26 1012 66 10000 4.47 67 19:33 29.01.2022
4049 Clouds 25 1013 66 10000 4.92 96 18:44 29.01.2022
4050 Clouds 25 1013 66 10000 4.02 118 17:55 29.01.2022
4051 Clouds 26 1014 56 10000 2.24 47 16:59 29.01.2022
4052 Clouds 25 1014 61 10000 2.24 82 15:35 29.01.2022
4053 Clear 22 1016 68 10000 4.63 30 13:58 29.01.2022
4054 Clear 22 1016 68 10000 4.63 30 13:28 29.01.2022
4055 Clear 20 1016 77 10000 4.63 30 12:59 29.01.2022
4056 Clear 18 1015 82 10000 2.57 30 11:39 29.01.2022
4057 Clear 18 1015 82 10000 2.57 30 11:39 29.01.2022
4058 Clear 17 1015 94 10000 2.06 10 10:33 29.01.2022
4059 Clouds 17 1014 89 10000 2.06 30 08:20 29.01.2022
4060 Clouds 20 1015 80 10000 5.14 100 02:48 29.01.2022
4061 Clouds 22 1014 79 10000 4.47 112 00:32 29.01.2022
4062 Clear 22 1014 76 10000 4.92 115 23:31 28.01.2022
4063 Clouds 22 1014 75 10000 4.47 105 22:47 28.01.2022
4064 Clouds 22 1014 74 10000 5.36 132 22:19 28.01.2022
4065 Clouds 22 1014 72 10000 4.47 113 20:41 28.01.2022
4066 Clouds 22 1015 68 10000 4.02 147 19:57 28.01.2022
4067 Clouds 22 1015 69 10000 4.02 125 18:52 28.01.2022
4068 Clouds 22 1016 70 10000 4.02 121 17:53 28.01.2022
4069 Clouds 21 1017 70 10000 3.13 123 15:52 28.01.2022
4070 Clouds 22 1018 60 10000 3.09 130 14:54 28.01.2022
4071 Clouds 19 1018 68 10000 2.06 140 12:42 28.01.2022
4072 Clouds 16 1018 82 10000 1.03 0 11:49 28.01.2022
4073 Clouds 13 1018 85 10000 0 0 10:27 28.01.2022
4074 Clouds 13 1018 77 10000 0 0 09:46 28.01.2022
4075 Clouds 16 1018 73 10000 1.54 30 07:41 28.01.2022
4076 Clouds 15 1019 74 10000 2.06 140 05:31 28.01.2022
4077 Clouds 16 1020 70 10000 2.57 140 03:51 28.01.2022
4078 Clouds 18 1020 62 10000 2.57 150 02:27 28.01.2022
4079 Clouds 18 1019 62 10000 3.09 140 01:37 28.01.2022
4080 Clouds 18 1019 62 10000 3.09 140 01:37 28.01.2022
4081 Clouds 18 1019 62 10000 3.6 150 00:42 28.01.2022
4082 Clouds 20 1019 67 10000 4.47 135 22:20 27.01.2022
4083 Clouds 20 1019 66 10000 5.81 169 21:37 27.01.2022
4084 Clouds 21 1019 50 10000 6.17 150 20:59 27.01.2022
4085 Clouds 21 1019 50 10000 6.17 150 20:59 27.01.2022
4086 Clouds 20 1019 62 10000 6.71 159 19:38 27.01.2022
4087 Clouds 20 1019 65 10000 7.15 176 18:19 27.01.2022
4088 Clouds 20 1020 66 10000 8.49 176 16:55 27.01.2022
4089 Clouds 20 1019 70 10000 7.6 163 13:58 27.01.2022
4090 Clouds 18 1019 100 10000 7.2 180 12:49 27.01.2022
4091 Clouds 18 1018 59 10000 8.23 170 11:54 27.01.2022
4092 Clouds 18 1018 64 10000 7.2 170 09:48 27.01.2022
4093 Clouds 18 1017 64 10000 8.23 170 08:40 27.01.2022
4094 Clouds 18 1017 68 10000 7.72 170 07:52 27.01.2022
4095 Clouds 19 1016 68 10000 9.77 160 03:34 27.01.2022
4096 Clouds 21 1013 76 10000 10.29 160 00:24 27.01.2022
4097 Clouds 22 1011 91 3500 8.23 160 22:28 26.01.2022
4098 Clouds 24 1010 91 4000 12.96 168 21:44 26.01.2022
4099 Clouds 25 1010 85 2000 9.77 170 20:52 26.01.2022
4100 Clouds 25 1010 85 10000 9.77 170 20:32 26.01.2022
4101 Clouds 26 1009 76 10000 8.23 160 19:49 26.01.2022
4102 Clouds 25 1009 81 10000 8.23 170 18:48 26.01.2022
4103 Clouds 26 1009 80 10000 8.23 170 18:24 26.01.2022
4104 Clouds 26 1009 79 10000 4.63 150 17:33 26.01.2022
4105 Clouds 26 1008 85 10000 4.63 170 16:49 26.01.2022
4106 Rain 26 1008 83 10000 4.63 170 16:23 26.01.2022
4107 Mist 25 1007 97 10000 1.54 200 14:54 26.01.2022
4108 Clouds 24 1008 95 8000 2.06 270 12:22 26.01.2022
4109 Rain 23 1007 95 10000 0 0 10:52 26.01.2022
4110 Clouds 23 1007 95 10000 2.06 320 09:55 26.01.2022
4111 Clouds 23 1007 95 10000 2.06 320 09:36 26.01.2022
4112 Rain 23 1008 94 7000 1.54 290 06:42 26.01.2022
4113 Rain 26 1007 94 8000 2.57 350 00:26 26.01.2022
4114 Mist 26 1008 94 4000 2.06 50 23:43 25.01.2022
4115 Thunderstorm 26 1008 94 5000 5.14 100 22:49 25.01.2022
4116 Rain 26 1008 94 5000 5.14 100 22:19 25.01.2022
4117 Rain 26 1009 94 3000 2.57 190 21:27 25.01.2022
4118 Thunderstorm 28 1009 83 5000 3.09 160 20:45 25.01.2022
4119 Rain 29 1009 79 5000 3.09 190 19:57 25.01.2022
4120 Rain 31 1009 70 10000 3.6 220 19:28 25.01.2022
4121 Rain 31 1010 66 10000 3.09 30 17:56 25.01.2022
4122 Clouds 31 1010 66 10000 3.09 30 17:37 25.01.2022
4123 Rain 30 1010 70 10000 3.6 30 16:35 25.01.2022
4124 Clouds 29 1010 74 10000 3.6 20 15:39 25.01.2022
4125 Clouds 29 1010 74 10000 3.6 20 15:19 25.01.2022
4126 Clouds 29 1010 74 10000 3.6 20 14:56 25.01.2022
4127 Clear 25 1010 88 10000 3.6 100 12:22 25.01.2022
4128 Clouds 24 1009 83 10000 2.06 110 09:35 25.01.2022
4129 Clear 24 1009 83 10000 1.03 80 08:21 25.01.2022
4130 Clear 24 1009 78 10000 2.06 100 07:27 25.01.2022
4131 Clouds 24 1010 83 10000 1.03 360 05:26 25.01.2022
4132 Clear 24 1010 88 10000 4.63 120 00:35 25.01.2022
4133 Clear 26 1010 83 10000 5.14 110 23:36 24.01.2022
4134 Clear 26 1010 83 10000 5.14 110 23:18 24.01.2022
4135 Clear 26 1010 78 10000 4.63 160 22:42 24.01.2022
4136 Clear 26 1010 78 10000 4.63 160 22:23 24.01.2022
4137 Clear 27 1011 74 10000 5.14 170 21:42 24.01.2022
4138 Rain 27 1011 74 10000 5.14 170 21:24 24.01.2022
4139 Clouds 27 1011 74 10000 6.17 170 20:27 24.01.2022
4140 Rain 29 1011 70 10000 6.17 190 19:38 24.01.2022
4141 Clouds 30 1011 66 10000 1.54 0 18:50 24.01.2022
4142 Clouds 29 1012 70 10000 2.06 100 17:39 24.01.2022
4143 Clouds 29 1012 70 10000 2.06 100 17:21 24.01.2022
4144 Clouds 27 1012 78 10000 4.63 110 16:31 24.01.2022
4145 Clouds 27 1012 74 10000 4.63 130 15:35 24.01.2022
4146 Clouds 26 1012 83 10000 3.09 170 13:59 24.01.2022
4147 Clear 26 1012 78 10000 1.03 70 12:34 24.01.2022
4148 Clear 22 1012 94 10000 1.54 90 11:41 24.01.2022
4149 Fog 22 1011 94 5000 1.54 70 10:19 24.01.2022
4150 Fog 22 1011 94 8000 0 0 09:45 24.01.2022
4151 Clouds 22 1011 94 10000 0 0 08:18 24.01.2022
4152 Clouds 24 1012 83 10000 3.09 130 02:26 24.01.2022
4153 Clouds 24 1011 83 10000 2.57 130 01:26 24.01.2022
4154 Clouds 24 1011 88 10000 2.06 170 00:31 24.01.2022
4155 Rain 25 1011 78 10000 2.06 210 23:40 23.01.2022
4156 Clouds 25 1010 78 10000 2.57 210 22:20 23.01.2022
4157 Rain 26 1010 73 10000 3.09 210 21:40 23.01.2022
4158 Rain 26 1010 73 10000 3.09 210 21:20 23.01.2022
4159 Rain 26 1011 73 10000 3.6 220 20:22 23.01.2022
4160 Rain 28 1011 65 10000 3.09 240 18:56 23.01.2022
4161 Clouds 28 1011 65 10000 3.09 240 18:24 23.01.2022
4162 Clouds 26 1011 78 10000 5.14 180 16:56 23.01.2022
4163 Clouds 25 1010 88 10000 3.6 120 15:59 23.01.2022
4164 Clouds 24 1010 94 8000 3.6 120 14:52 23.01.2022
4165 Rain 24 1010 94 8000 3.6 120 14:18 23.01.2022
4166 Rain 23 1010 94 10000 3.6 300 12:46 23.01.2022
4167 Clouds 23 1010 94 10000 3.6 300 12:20 23.01.2022
4168 Rain 22 1009 94 10000 3.6 10 11:26 23.01.2022
4169 Clouds 22 1008 94 10000 4.63 300 10:58 23.01.2022
4170 Rain 22 1008 94 10000 4.63 300 10:25 23.01.2022
4171 Rain 22 1007 94 10000 2.57 330 09:32 23.01.2022
4172 Clouds 23 1006 94 10000 2.57 340 08:50 23.01.2022
4173 Rain 23 1010 94 7000 3.09 130 03:59 23.01.2022
4174 Thunderstorm 22 1008 94 7000 3.09 120 01:40 23.01.2022
4175 Thunderstorm 24 1006 83 1000 11.32 40 00:47 23.01.2022
4176 Thunderstorm 25 1006 78 10000 6.69 140 00:18 23.01.2022
4177 Rain 28 1005 65 10000 6.69 140 22:55 22.01.2022
4178 Rain 28 1005 65 10000 6.69 140 22:33 22.01.2022
4179 Clouds 30 1006 62 10000 4.12 170 20:47 22.01.2022
4180 Clear 31 1005 62 10000 4.63 90 19:46 22.01.2022
4181 Clear 30 1006 62 10000 4.12 70 18:41 22.01.2022
4182 Clouds 27 1008 69 10000 4.12 70 17:49 22.01.2022
4183 Clouds 27 1008 69 10000 4.12 70 17:31 22.01.2022
4184 Clouds 24 1008 88 10000 4.12 100 16:54 22.01.2022
4185 Rain 24 1009 88 4000 1.54 0 15:45 22.01.2022
4186 Rain 23 1010 94 10000 2.57 270 14:56 22.01.2022
4187 Rain 23 1009 94 10000 4.63 350 13:36 22.01.2022
4188 Rain 24 1010 83 10000 6.69 10 12:40 22.01.2022
4189 Rain 24 1009 83 10000 5.14 30 12:22 22.01.2022
4190 Rain 24 1007 88 10000 1.54 320 10:55 22.01.2022
4191 Rain 24 1007 88 10000 1.54 320 10:27 22.01.2022
4192 Rain 25 1007 83 10000 4.12 30 09:43 22.01.2022
4193 Rain 23 1006 88 10000 2.06 10 08:51 22.01.2022
4194 Rain 23 1006 83 10000 2.57 350 07:27 22.01.2022
4195 Rain 25 1008 83 10000 4.63 60 04:50 22.01.2022
4196 Thunderstorm 23 1010 83 10000 6.17 180 00:57 22.01.2022
4197 Rain 25 1008 94 10000 8.75 180 23:21 21.01.2022
4198 Clear 28 1007 78 10000 8.23 170 22:19 21.01.2022
4199 Clear 27 1008 83 10000 8.23 170 19:55 21.01.2022
4200 Rain 28 1009 78 10000 6.17 190 18:23 21.01.2022
4201 Rain 30 1009 62 10000 2.57 10 16:58 21.01.2022
4202 Clear 30 1010 66 10000 4.12 20 15:26 21.01.2022
4203 Clear 27 1010 78 10000 6.17 40 13:18 21.01.2022
4204 Rain 25 1010 88 10000 6.69 40 12:26 21.01.2022
4205 Clear 25 1010 88 10000 5.66 40 11:26 21.01.2022
4206 Clear 24 1010 94 10000 3.09 80 09:34 21.01.2022
4207 Clouds 24 1010 94 10000 3.6 80 08:22 21.01.2022
4208 Clear 25 1013 83 10000 3.6 50 04:37 21.01.2022
4209 Mist 26 1012 83 10000 6.17 120 23:20 20.01.2022
4210 Rain 26 1013 83 10000 5.66 160 21:50 20.01.2022
4211 Clouds 26 1013 83 10000 5.66 160 21:32 20.01.2022
4212 Rain 28 1013 78 10000 5.14 130 20:31 20.01.2022
4213 Clouds 29 1014 79 10000 4.63 110 19:19 20.01.2022
4214 Clouds 28 1014 78 10000 4.63 100 18:18 20.01.2022
4215 Clouds 25 1015 88 6000 5.66 110 16:40 20.01.2022
4216 Mist 25 1015 88 5000 4.63 110 15:40 20.01.2022
4217 Rain 24 1016 88 6000 2.06 130 14:40 20.01.2022
4218 Mist 24 1016 94 4000 2.06 120 13:33 20.01.2022
4219 Mist 23 1016 94 4000 3.09 150 12:32 20.01.2022
4220 Mist 22 1015 100 2000 2.57 150 11:50 20.01.2022
4221 Fog 22 1015 100 300 3.6 110 10:38 20.01.2022
4222 Mist 22 1015 100 1500 5.66 110 09:34 20.01.2022
4223 Clouds 22 1015 100 4000 5.14 120 07:50 20.01.2022
4224 Clouds 22 1015 88 8000 5.66 120 00:44 20.01.2022
4225 Clouds 22 1015 88 10000 6.17 120 22:54 19.01.2022
4226 Clouds 22 1015 88 10000 6.17 120 22:21 19.01.2022
4227 Clouds 23 1015 83 10000 6.69 120 21:23 19.01.2022
4228 Clouds 23 1016 83 10000 6.69 110 20:46 19.01.2022
4229 Clouds 23 1016 83 10000 7.2 110 19:42 19.01.2022
4230 Clouds 23 1016 83 10000 7.2 110 18:18 19.01.2022
4231 Clouds 24 1016 78 10000 7.72 120 17:44 19.01.2022
4232 Clouds 23 1016 88 10000 7.72 120 16:46 19.01.2022
4233 Clouds 22 1017 88 10000 6.69 130 14:42 19.01.2022
4234 Drizzle 21 1016 94 10000 6.69 110 12:42 19.01.2022
4235 Clouds 21 1016 94 10000 7.2 100 11:39 19.01.2022
4236 Clouds 21 1016 94 10000 7.72 110 10:20 19.01.2022
4237 Clouds 21 1016 94 10000 10.29 110 09:34 19.01.2022
4238 Clouds 21 1016 94 8000 9.77 110 06:35 19.01.2022
4239 Mist 21 1017 100 4000 9.26 120 02:38 19.01.2022
4240 Clouds 21 1015 94 1500 7.2 120 23:19 18.01.2022
4241 Clouds 21 1015 94 2000 7.72 110 22:19 18.01.2022
4242 Rain 21 1015 94 3000 7.72 110 20:58 18.01.2022
4243 Drizzle 23 1017 83 10000 7.72 110 19:54 18.01.2022
4244 Clouds 23 1017 83 10000 7.72 110 19:36 18.01.2022
4245 Clouds 23 1017 83 8000 6.69 110 18:51 18.01.2022
4246 Rain 23 1017 83 7000 6.69 110 17:58 18.01.2022
4247 Rain 23 1017 83 7000 5.14 120 16:50 18.01.2022
4248 Rain 22 1018 88 7000 4.12 110 15:41 18.01.2022
4249 Rain 22 1018 88 7000 4.12 110 15:21 18.01.2022
4250 Clouds 23 1015 78 10000 7.72 120 12:47 18.01.2022
4251 Clouds 22 1013 78 10000 11.32 100 10:47 18.01.2022
4252 Clouds 22 1013 83 10000 10.29 120 08:59 18.01.2022
4253 Clouds 22 1012 83 10000 7.72 130 07:51 18.01.2022
4254 Clouds 23 1012 78 10000 7.2 130 02:34 18.01.2022
4255 Clouds 23 1009 83 10000 9.26 150 23:39 17.01.2022
4256 Clouds 24 1009 83 10000 7.72 140 22:26 17.01.2022
4257 Clouds 25 1009 73 10000 7.72 140 21:34 17.01.2022
4258 Clouds 26 1008 65 10000 5.14 140 20:24 17.01.2022
4259 Clouds 26 1008 69 10000 7.2 80 18:30 17.01.2022
4260 Rain 24 1007 73 10000 6.17 80 17:44 17.01.2022
4261 Clouds 23 1006 78 10000 8.23 90 16:40 17.01.2022
4262 Rain 22 1006 88 8000 6.69 90 15:19 17.01.2022
4263 Rain 22 1006 88 8000 6.69 90 14:55 17.01.2022
4264 Mist 21 1006 100 2000 10.29 110 13:22 17.01.2022
4265 Rain 21 1006 100 2000 10.29 110 12:55 17.01.2022
4266 Thunderstorm 20 1008 100 1000 5.14 140 11:49 17.01.2022
4267 Thunderstorm 23 1007 94 1500 9.26 170 10:21 17.01.2022
4268 Thunderstorm 24 1006 88 10000 3.09 140 09:34 17.01.2022
4269 Thunderstorm 24 1004 88 10000 3.09 110 07:24 17.01.2022
4270 Thunderstorm 24 1005 88 10000 0 0 06:56 17.01.2022
4271 Clear 26 1004 78 10000 1.54 160 00:55 17.01.2022
4272 Clear 30 1002 62 10000 4.12 270 22:29 16.01.2022
4273 Clouds 30 1002 66 10000 4.12 300 20:36 16.01.2022
4274 Clouds 29 1003 65 10000 6.17 310 18:52 16.01.2022
4275 Rain 28 1004 69 10000 5.14 330 17:59 16.01.2022
4276 Clear 28 1004 69 10000 5.14 330 17:21 16.01.2022
4277 Rain 26 1003 78 10000 5.14 340 16:33 16.01.2022
4278 Rain 22 1004 94 10000 6.17 10 14:31 16.01.2022
4279 Rain 22 1003 94 10000 5.14 10 13:46 16.01.2022
4280 Rain 21 1002 100 5000 7.72 30 12:48 16.01.2022
4281 Rain 21 1003 100 5000 7.72 20 11:42 16.01.2022
4282 Rain 21 1004 100 5000 1.54 30 10:54 16.01.2022
4283 Rain 22 1005 94 3000 1.54 350 10:19 16.01.2022
4284 Thunderstorm 22 1004 94 5000 2.57 220 09:51 16.01.2022
4285 Thunderstorm 22 1004 94 5000 2.57 220 09:22 16.01.2022
4286 Thunderstorm 22 1004 94 10000 3.6 230 07:33 16.01.2022
4287 Rain 27 1005 74 10000 3.09 70 00:42 16.01.2022
4288 Rain 27 1005 74 10000 5.66 60 23:49 15.01.2022
4289 Clouds 25 1006 83 10000 4.63 90 21:37 15.01.2022
4290 Clouds 25 1006 83 10000 4.63 90 21:19 15.01.2022
4291 Thunderstorm 24 1008 83 7000 6.17 160 20:39 15.01.2022
4292 Thunderstorm 30 1006 67 7000 2.06 160 19:29 15.01.2022
4293 Thunderstorm 30 1006 64 9000 0.89 277 18:37 15.01.2022
4294 Clouds 30 1007 66 10000 2.06 270 16:58 15.01.2022
4295 Clouds 30 1009 68 10000 0.89 89 15:42 15.01.2022
4296 Clouds 32 1009 56 10000 2.24 134 13:52 15.01.2022
4297 Clouds 28 1010 47 10000 3.09 360 11:46 15.01.2022
4298 Clouds 26 1009 47 10000 3.6 10 10:25 15.01.2022
4299 Clear 28 1009 44 10000 3.6 40 06:40 15.01.2022
4300 Clear 31 1008 55 10000 1.79 65 23:49 14.01.2022
4301 Clear 33 1007 46 10000 1.34 171 21:41 14.01.2022
4302 Clear 40 1009 18 10000 5.14 240 20:37 14.01.2022
4303 Clear 41 1009 17 10000 5.66 250 19:58 14.01.2022
4304 Clear 41 1009 15 10000 5.66 330 18:46 14.01.2022
4305 Clear 39 1010 21 10000 5.66 340 17:54 14.01.2022
4306 Clear 38 1010 22 10000 7.2 340 16:47 14.01.2022
4307 Clear 36 1011 28 10000 7.72 340 15:33 14.01.2022
4308 Clear 36 1011 28 10000 7.72 340 15:33 14.01.2022
4309 Clear 34 1010 44 10000 2.24 30 14:30 14.01.2022
4310 Clear 30 1011 54 10000 4.92 14 13:34 14.01.2022
4311 Clear 26 1012 61 10000 8.23 20 12:24 14.01.2022
4312 Rain 21 1012 83 10000 2.57 20 10:47 14.01.2022
4313 Clear 22 1012 78 10000 3.6 30 08:54 14.01.2022
4314 Clear 22 1012 78 10000 3.6 40 07:56 14.01.2022
4315 Clear 25 1012 69 10000 6.69 60 03:55 14.01.2022
4316 Clear 25 1010 83 10000 4.47 61 00:50 14.01.2022
4317 Clear 26 1011 78 10000 5.36 78 22:35 13.01.2022
4318 Clear 26 1011 75 10000 4.92 57 21:30 13.01.2022
4319 Clear 26 1012 75 10000 4.47 74 20:54 13.01.2022
4320 Clear 26 1013 74 10000 4.02 92 19:32 13.01.2022
4321 Clear 34 1013 33 10000 4.63 100 18:57 13.01.2022
4322 Clear 33 1014 24 10000 4.12 70 17:25 13.01.2022
4323 Rain 31 1015 30 10000 5.14 50 16:19 13.01.2022
4324 Rain 28 1015 44 10000 4.63 40 15:35 13.01.2022
4325 Rain 23 1016 64 10000 6.17 30 13:48 13.01.2022
4326 Clear 19 1015 82 10000 3.6 20 12:25 13.01.2022
4327 Mist 16 1015 88 5000 1.54 30 09:38 13.01.2022
4328 Rain 17 1014 88 10000 2.06 20 08:54 13.01.2022
4329 Rain 17 1014 88 10000 2.06 20 08:24 13.01.2022
4330 Rain 18 1014 82 10000 4.12 60 07:21 13.01.2022
4331 Rain 18 1015 82 10000 3.09 70 05:57 13.01.2022
4332 Rain 19 1015 77 10000 3.09 60 05:18 13.01.2022
4333 Clear 22 1014 78 10000 5.66 120 01:53 13.01.2022
4334 Clear 23 1014 64 10000 5.14 110 00:40 13.01.2022
4335 Clear 24 1013 74 10000 5.81 114 23:45 12.01.2022
4336 Rain 24 1013 76 10000 4.92 113 22:57 12.01.2022
4337 Rain 24 1013 73 10000 5.81 117 21:56 12.01.2022
4338 Rain 24 1013 73 10000 5.36 116 21:21 12.01.2022
4339 Clear 24 1013 73 10000 5.36 128 20:56 12.01.2022
4340 Rain 24 1014 74 10000 5.36 113 19:35 12.01.2022
4341 Rain 24 1014 75 10000 4.47 98 18:30 12.01.2022
4342 Clear 23 1014 77 10000 4.47 121 16:59 12.01.2022
4343 Clear 23 1015 76 10000 6.26 126 16:26 12.01.2022
4344 Clear 23 1014 79 10000 5.81 120 14:48 12.01.2022
4345 Clear 23 1014 83 10000 5.81 127 12:58 12.01.2022
4346 Rain 21 1013 78 10000 5.14 150 10:38 12.01.2022
4347 Clear 22 1013 73 10000 5.66 150 08:37 12.01.2022
4348 Clear 22 1013 73 10000 4.63 150 07:36 12.01.2022
4349 Rain 22 1013 78 10000 5.14 150 06:49 12.01.2022
4350 Clear 36 1007 24 10000 2.06 270 23:40 11.01.2022
4351 Clear 37 1007 22 10000 3.09 300 22:49 11.01.2022
4352 Clear 34 1006 40 10000 2.24 266 22:22 11.01.2022
4353 Clouds 37 1008 22 10000 3.6 300 20:51 11.01.2022
4354 Clear 37 1009 25 10000 6.17 270 19:48 11.01.2022
4355 Clouds 35 1009 28 10000 6.17 270 18:31 11.01.2022
4356 Clouds 32 1008 41 10000 4.92 281 17:24 11.01.2022
4357 Clear 34 1010 29 10000 6.17 270 16:37 11.01.2022
4358 Clear 34 1009 36 10000 3.6 300 15:39 11.01.2022
4359 Clear 31 1009 47 10000 2.68 314 14:42 11.01.2022
4360 Clear 29 1009 54 10000 2.68 304 13:55 11.01.2022
4361 Clear 29 1008 58 10000 3.58 323 13:35 11.01.2022
4362 Clear 24 1010 69 10000 4.63 360 12:43 11.01.2022
4363 Rain 21 1010 78 10000 4.63 360 11:43 11.01.2022
4364 Rain 20 1009 77 10000 4.12 20 09:29 11.01.2022
4365 Rain 22 1009 64 10000 3.6 30 06:37 11.01.2022
4366 Clear 25 1009 78 10000 5.14 110 00:32 11.01.2022
4367 Clear 25 1009 73 10000 4.92 82 23:43 10.01.2022
4368 Clear 25 1009 73 10000 5.36 69 23:22 10.01.2022
4369 Clear 25 1009 74 10000 4.47 68 22:19 10.01.2022
4370 Clear 25 1009 75 10000 4.02 68 21:54 10.01.2022
4371 Clear 25 1009 75 10000 4.02 96 21:20 10.01.2022
4372 Clouds 25 1010 75 10000 3.58 76 20:56 10.01.2022
4373 Clouds 25 1010 75 10000 4.02 77 20:28 10.01.2022
4374 Clouds 25 1011 75 10000 4.47 93 19:42 10.01.2022
4375 Clouds 32 1011 37 10000 3.09 150 19:21 10.01.2022
4376 Clouds 32 1012 33 10000 2.06 30 18:48 10.01.2022
4377 Rain 32 1013 35 10000 3.09 90 17:41 10.01.2022
4378 Clear 27 1013 66 10000 4.47 126 16:42 10.01.2022
4379 Clear 29 1013 50 10000 0.89 23 15:49 10.01.2022
4380 Clear 27 1013 56 10000 3.58 10 14:30 10.01.2022
4381 Clear 20 1015 83 10000 7.72 30 11:58 10.01.2022
4382 Clear 20 1015 83 10000 7.72 30 11:25 10.01.2022
4383 Clear 20 1014 77 10000 3.6 30 09:50 10.01.2022
4384 Clear 21 1014 78 10000 4.63 40 07:18 10.01.2022
4385 Clear 22 1015 68 10000 5.14 50 05:49 10.01.2022
4386 Clear 22 1015 68 10000 5.14 50 05:49 10.01.2022
4387 Clear 27 1013 39 10000 5.66 70 01:30 10.01.2022
4388 Clear 25 1011 84 10000 4.47 84 00:25 10.01.2022
4389 Clear 25 1011 76 10000 4.47 84 23:40 09.01.2022
4390 Clear 25 1012 77 10000 4.47 65 22:38 09.01.2022
4391 Clear 25 1012 77 10000 4.47 75 21:46 09.01.2022
4392 Clear 25 1012 77 10000 5.36 88 21:24 09.01.2022
4393 Clear 25 1012 76 10000 5.36 115 20:52 09.01.2022
4394 Clear 25 1012 76 10000 4.92 92 20:34 09.01.2022
4395 Clear 25 1013 76 10000 4.92 91 19:45 09.01.2022
4396 Clear 25 1013 75 10000 7.15 108 19:23 09.01.2022
4397 Clouds 25 1014 76 10000 7.15 109 18:56 09.01.2022
4398 Rain 25 1014 76 10000 6.26 105 18:34 09.01.2022
4399 Clouds 25 1015 76 10000 6.71 121 17:40 09.01.2022
4400 Clouds 25 1015 75 10000 7.6 131 17:20 09.01.2022
4401 Clouds 27 1016 56 10000 5.36 44 15:59 09.01.2022
4402 Clouds 27 1016 56 10000 4.47 38 15:36 09.01.2022
4403 Clouds 25 1017 53 10000 9.26 40 14:41 09.01.2022
4404 Clouds 22 1018 68 10000 8.75 50 13:51 09.01.2022
4405 Clouds 22 1018 68 10000 8.75 50 13:25 09.01.2022
4406 Clear 21 1018 73 10000 6.69 60 11:55 09.01.2022
4407 Clear 19 1018 77 10000 3.6 70 11:19 09.01.2022
4408 Clear 18 1017 82 10000 4.12 80 09:51 09.01.2022
4409 Clear 18 1017 82 10000 4.12 80 08:54 09.01.2022
4410 Clear 20 1017 73 10000 4.63 70 05:54 09.01.2022
4411 Clear 24 1016 64 10000 7.2 100 01:25 09.01.2022
4412 Clear 24 1014 81 10000 9.39 63 00:37 09.01.2022
4413 Clear 24 1014 79 10000 8.94 85 23:27 08.01.2022
4414 Clouds 24 1013 80 10000 7.6 84 22:35 08.01.2022
4415 Clouds 24 1014 78 10000 7.15 106 21:26 08.01.2022
4416 Clouds 24 1014 77 10000 6.71 100 20:43 08.01.2022
4417 Clouds 24 1014 76 10000 6.71 84 20:21 08.01.2022
4418 Clouds 24 1015 75 10000 5.81 107 18:45 08.01.2022
4419 Clouds 23 1016 75 10000 6.71 100 17:23 08.01.2022
4420 Clouds 23 1017 74 10000 5.36 97 15:58 08.01.2022
4421 Clouds 24 1017 74 10000 4.92 81 14:46 08.01.2022
4422 Clouds 22 1018 68 10000 5.66 70 13:41 08.01.2022
4423 Clear 19 1018 77 10000 3.6 90 11:30 08.01.2022
4424 Clouds 18 1018 77 10000 2.57 80 10:31 08.01.2022
4425 Clouds 18 1018 77 10000 2.57 80 09:54 08.01.2022
4426 Clear 18 1018 77 10000 2.57 110 09:30 08.01.2022
4427 Clear 20 1017 73 10000 4.12 90 04:25 08.01.2022
4428 Clouds 24 1015 81 10000 8.49 109 00:58 08.01.2022
4429 Clouds 23 1015 80 10000 8.05 93 22:54 07.01.2022
4430 Clouds 24 1015 77 10000 7.15 109 21:34 07.01.2022
4431 Clouds 24 1016 73 10000 7.15 109 20:23 07.01.2022
4432 Clouds 24 1016 71 10000 6.71 125 19:26 07.01.2022
4433 Clouds 24 1016 71 10000 5.81 122 18:45 07.01.2022
4434 Clouds 23 1017 73 10000 5.81 111 17:58 07.01.2022
4435 Clouds 23 1017 73 10000 5.36 119 17:22 07.01.2022
4436 Clouds 23 1018 75 10000 4.47 126 14:50 07.01.2022
4437 Clouds 22 1018 68 10000 4.12 30 13:50 07.01.2022
4438 Clear 23 1018 60 10000 4.12 20 12:50 07.01.2022
4439 Clear 15 1018 88 10000 0 0 10:18 07.01.2022
4440 Clear 20 1017 64 10000 5.66 90 02:59 07.01.2022
4441 Clear 20 1017 64 10000 5.66 90 02:21 07.01.2022
4442 Clear 21 1016 64 10000 5.66 100 01:45 07.01.2022
4443 Clear 21 1016 64 10000 5.66 100 01:23 07.01.2022
4444 Clear 23 1015 78 10000 6.71 103 00:28 07.01.2022
4445 Clear 23 1015 72 8000 7.15 85 21:56 06.01.2022
4446 Clear 23 1016 71 10000 6.26 110 20:37 06.01.2022
4447 Clear 23 1016 71 10000 5.36 115 19:54 06.01.2022
4448 Clear 23 1016 70 10000 6.71 89 19:29 06.01.2022
4449 Clear 23 1017 69 10000 5.36 117 17:51 06.01.2022
4450 Clear 22 1017 67 10000 5.36 119 17:19 06.01.2022
4451 Clear 22 1017 72 10000 4.92 125 16:31 06.01.2022
4452 Clear 22 1018 67 10000 3.13 113 15:43 06.01.2022
4453 Clear 22 1018 66 10000 3.13 106 15:20 06.01.2022
4454 Clear 23 1018 53 10000 3.6 110 14:19 06.01.2022
4455 Clear 22 1019 53 10000 3.09 110 13:30 06.01.2022
4456 Clear 20 1018 68 10000 1.54 90 12:20 06.01.2022
4457 Clear 16 1018 88 10000 1.03 70 11:29 06.01.2022
4458 Clouds 14 1017 88 10000 1.54 250 09:50 06.01.2022
4459 Clouds 19 1016 63 10000 3.6 110 05:55 06.01.2022
4460 Clouds 20 1016 67 10000 7.15 135 00:27 06.01.2022
4461 Clouds 21 1015 62 10000 7.6 147 23:22 05.01.2022
4462 Clouds 21 1015 61 10000 8.49 127 22:42 05.01.2022
4463 Clouds 21 1015 61 10000 8.05 120 22:18 05.01.2022
4464 Clouds 21 1015 62 10000 8.05 136 21:25 05.01.2022
4465 Clouds 21 1015 61 10000 7.6 156 20:30 05.01.2022
4466 Clouds 21 1015 64 10000 6.26 150 19:29 05.01.2022
4467 Clouds 21 1015 64 10000 6.26 150 19:29 05.01.2022
4468 Clouds 21 1015 63 10000 6.26 155 18:21 05.01.2022
4469 Clouds 21 1016 65 10000 6.26 166 16:56 05.01.2022
4470 Clouds 21 1016 65 10000 7.15 152 16:18 05.01.2022
4471 Clouds 20 1015 71 10000 7.15 155 14:56 05.01.2022
4472 Clouds 20 1015 71 10000 8.05 152 13:34 05.01.2022
4473 Clouds 20 1014 52 10000 6.69 150 12:20 05.01.2022
4474 Clouds 19 1012 55 10000 7.72 160 08:35 05.01.2022
4475 Clouds 20 1012 60 10000 7.72 150 06:46 05.01.2022
4476 Clouds 22 1009 53 8000 9.77 160 01:46 05.01.2022
4477 Mist 23 1007 68 4000 12.86 160 23:43 04.01.2022
4478 Mist 23 1007 68 4000 12.86 160 23:21 04.01.2022
4479 Clouds 26 1005 65 10000 7.72 180 21:41 04.01.2022
4480 Clouds 27 1005 69 10000 7.72 180 20:42 04.01.2022
4481 Thunderstorm 28 1004 69 10000 6.17 90 18:39 04.01.2022
4482 Thunderstorm 28 1002 74 10000 4.47 308 17:30 04.01.2022
4483 Rain 29 1002 69 10000 4.02 261 16:33 04.01.2022
4484 Clouds 32 1002 54 10000 3.13 217 15:20 04.01.2022
4485 Clouds 32 1003 50 10000 2.68 323 14:37 04.01.2022
4486 Clouds 31 1003 55 10000 4.02 267 13:56 04.01.2022
4487 Clear 29 1003 64 10000 3.13 320 12:22 04.01.2022
4488 Clouds 22 1004 81 10000 2.57 350 10:23 04.01.2022
4489 Clear 22 1004 81 10000 1.54 310 08:57 04.01.2022
4490 Clear 24 1004 78 10000 2.06 40 06:28 04.01.2022
4491 Clouds 26 1006 75 10000 5.36 53 00:43 04.01.2022
4492 Clouds 26 1006 72 10000 5.36 53 23:56 03.01.2022
4493 Clouds 25 1005 80 10000 4.92 77 22:22 03.01.2022
4494 Clouds 26 1005 80 10000 3.13 101 21:40 03.01.2022
4495 Clouds 26 1006 79 10000 4.02 136 20:41 03.01.2022
4496 Clouds 26 1006 77 10000 2.24 151 19:38 03.01.2022
4497 Clouds 26 1007 75 10000 3.13 190 18:31 03.01.2022
4498 Clouds 26 1007 80 10000 1.79 181 17:23 03.01.2022
4499 Clouds 26 1007 81 10000 5.36 186 16:53 03.01.2022
4500 Clear 32 1009 46 10000 3.6 310 14:32 03.01.2022
4501 Clouds 29 1009 61 10000 1.03 0 13:25 03.01.2022
4502 Rain 23 1008 89 10000 2.24 218 12:22 03.01.2022
4503 Clouds 25 1009 80 10000 2.06 110 11:22 03.01.2022
4504 Clear 22 1007 84 10000 4.12 70 09:29 03.01.2022
4505 Clouds 23 1007 84 10000 3.6 70 07:55 03.01.2022
4506 Clear 23 1007 76 10000 0 0 04:23 03.01.2022
4507 Clear 26 1004 74 10000 1.79 108 23:32 02.01.2022
4508 Clear 26 1003 73 10000 1.79 119 22:57 02.01.2022
4509 Clear 27 1003 70 10000 1.79 125 22:22 02.01.2022
4510 Clouds 27 1003 71 10000 1.79 113 21:26 02.01.2022
4511 Clouds 27 1004 70 10000 1.34 117 20:30 02.01.2022
4512 Clouds 26 1004 72 10000 3.13 148 19:32 02.01.2022
4513 Clouds 26 1005 71 10000 3.58 130 18:56 02.01.2022
4514 Clouds 26 1005 72 10000 2.68 138 18:30 02.01.2022
4515 Clouds 26 1005 77 10000 2.24 115 17:42 02.01.2022
4516 Clouds 26 1005 74 10000 1.79 124 17:21 02.01.2022
4517 Clear 26 1005 72 10000 3.13 190 16:30 02.01.2022
4518 Clouds 26 1005 77 10000 2.24 200 15:49 02.01.2022
4519 Clouds 26 1006 79 10000 2.24 195 13:57 02.01.2022
4520 Clouds 23 1006 82 10000 1.34 326 12:33 02.01.2022
4521 Clouds 22 1006 81 10000 0 0 11:55 02.01.2022
4522 Clear 20 1005 95 10000 1.54 320 10:55 02.01.2022
4523 Clear 18 1005 95 10000 1.54 320 10:22 02.01.2022
4524 Clear 19 1004 93 10000 0 0 07:45 02.01.2022
4525 Clear 21 1005 84 10000 1.54 20 02:57 02.01.2022
4526 Clear 24 1003 79 10000 3.58 163 23:55 01.01.2022
4527 Clear 24 1003 78 10000 3.13 181 23:36 01.01.2022
4528 Clear 23 1003 79 10000 3.6 30 22:41 01.01.2022
4529 Clear 22 1003 83 10000 3.6 30 22:18 01.01.2022
4530 Clouds 22 1003 83 10000 5.14 30 21:42 01.01.2022
4531 Clouds 29 1003 45 10000 8.29 305 20:50 01.01.2022
4532 Rain 25 1005 57 10000 10.29 310 19:47 01.01.2022
4533 Rain 28 1004 58 10000 4.47 281 18:53 01.01.2022
4534 Rain 28 1004 58 10000 3.58 11 17:46 01.01.2022
4535 Clear 25 1005 65 10000 6.69 20 16:35 01.01.2022
4536 Clouds 32 1003 39 10000 3.24 337 15:50 01.01.2022
4537 Rain 31 1004 41 10000 4.32 356 14:40 01.01.2022
4538 Thunderstorm 21 1007 88 10000 5.66 340 13:42 01.01.2022
4539 Rain 22 1004 83 10000 6.69 30 12:26 01.01.2022
4540 Rain 22 1004 83 10000 6.69 30 11:46 01.01.2022
4541 Rain 22 1004 83 10000 6.69 30 11:18 01.01.2022
4542 Rain 21 1003 83 10000 5.14 40 09:48 01.01.2022
4543 Rain 21 1003 83 10000 5.14 40 09:20 01.01.2022
4544 Clear 21 1003 83 10000 5.66 30 08:22 01.01.2022
4545 Clear 22 1004 78 10000 6.17 50 07:41 01.01.2022
4546 Clear 22 1004 78 10000 5.14 40 06:45 01.01.2022
4547 Clear 23 1005 73 10000 5.66 40 05:26 01.01.2022
4548 Clear 24 1005 64 10000 5.14 40 04:37 01.01.2022
4549 Clear 25 1004 87 10000 4.47 82 00:41 01.01.2022
4550 Clear 24 1004 81 10000 4.47 69 22:59 31.12.2021
4551 Clouds 25 1004 83 10000 3.58 80 21:52 31.12.2021
4552 Rain 25 1005 82 10000 4.02 109 20:32 31.12.2021
4553 Rain 25 1005 81 10000 3.58 82 19:29 31.12.2021
4554 Rain 31 1006 51 10000 6.17 150 18:30 31.12.2021
4555 Clouds 24 1007 83 10000 4.02 109 17:37 31.12.2021
4556 Clouds 24 1007 83 10000 4.02 109 17:18 31.12.2021
4557 Clouds 25 1007 84 10000 3.58 150 16:21 31.12.2021
4558 Clouds 25 1008 82 10000 3.13 157 15:53 31.12.2021
4559 Clouds 25 1008 81 10000 2.68 161 15:28 31.12.2021
4560 Clouds 24 1008 82 10000 2.24 110 14:47 31.12.2021
4561 Clouds 25 1008 82 10000 2.24 123 14:28 31.12.2021
4562 Clouds 24 1008 82 10000 2.68 151 13:36 31.12.2021
4563 Clouds 25 1008 81 10000 1.34 137 12:44 31.12.2021
4564 Clear 23 1009 83 10000 1.54 100 11:43 31.12.2021
4565 Clear 23 1009 83 10000 1.54 100 11:24 31.12.2021
4566 Clouds 21 1008 88 10000 0 0 10:34 31.12.2021
4567 Clouds 21 1008 88 10000 1.54 90 09:52 31.12.2021
4568 Clear 21 1008 88 10000 1.54 110 09:32 31.12.2021
4569 Clear 21 1008 88 10000 0 0 08:25 31.12.2021
4570 Clear 22 1008 83 10000 1.54 330 07:30 31.12.2021
4571 Clear 26 1007 73 10000 3.13 74 23:23 30.12.2021
4572 Clear 25 1006 75 10000 4.47 57 22:33 30.12.2021
4573 Clear 26 1007 75 10000 2.24 61 21:54 30.12.2021
4574 Clear 26 1007 75 10000 3.13 61 21:36 30.12.2021
4575 Clouds 26 1007 75 10000 4.02 77 20:46 30.12.2021
4576 Clouds 26 1007 75 10000 5.36 137 20:25 30.12.2021
4577 Clouds 27 1008 71 10000 4.92 176 19:45 30.12.2021
4578 Clouds 28 1008 66 10000 4.02 181 18:45 30.12.2021
4579 Clouds 31 1009 45 10000 4.63 210 18:18 30.12.2021
4580 Clear 33 1008 32 10000 3.13 313 16:19 30.12.2021
4581 Clear 33 1008 35 10000 2.68 341 15:51 30.12.2021
4582 Clear 29 1008 43 10000 4.02 28 14:39 30.12.2021
4583 Clear 28 1009 42 10000 8.75 20 13:55 30.12.2021
4584 Clear 28 1009 42 10000 8.75 20 13:55 30.12.2021
4585 Clear 23 1010 60 10000 9.26 20 12:40 30.12.2021
4586 Clear 20 1010 77 10000 8.75 20 10:59 30.12.2021
4587 Clear 21 1010 68 10000 6.17 30 09:59 30.12.2021
4588 Clear 21 1010 68 10000 6.17 30 09:59 30.12.2021
4589 Clear 21 1010 68 10000 6.17 30 09:21 30.12.2021
4590 Clear 22 1010 68 10000 6.17 30 06:54 30.12.2021
4591 Clear 24 1011 57 10000 7.72 40 04:20 30.12.2021
4592 Clear 26 1011 47 10000 6.17 40 03:38 30.12.2021
4593 Clear 27 1008 67 10000 2.24 61 23:57 29.12.2021
4594 Clear 27 1008 68 10000 4.02 80 23:23 29.12.2021
4595 Clear 27 1008 67 10000 4.47 86 22:22 29.12.2021
4596 Clear 27 1008 66 10000 2.24 79 21:45 29.12.2021
4597 Clear 27 1009 67 10000 4.02 69 20:39 29.12.2021
4598 Clouds 27 1010 66 10000 2.24 92 19:50 29.12.2021
4599 Clear 35 1012 20 10000 7.72 20 18:57 29.12.2021
4600 Clear 34 1011 29 10000 4.47 6 17:57 29.12.2021
4601 Clear 33 1011 29 10000 3.13 21 17:28 29.12.2021
4602 Clear 30 1012 38 10000 4.92 30 16:44 29.12.2021
4603 Clear 30 1012 38 10000 4.92 30 16:19 29.12.2021
4604 Clear 25 1013 51 10000 4.92 32 14:40 29.12.2021
4605 Clear 25 1013 57 10000 4.47 48 12:48 29.12.2021
4606 Clear 24 1013 61 10000 6.71 37 12:20 29.12.2021
4607 Clear 21 1014 60 10000 5.14 10 10:31 29.12.2021
4608 Clear 22 1012 60 10000 6.17 30 08:24 29.12.2021
4609 Rain 23 1012 56 10000 5.66 30 06:45 29.12.2021
4610 Clear 23 1012 56 10000 5.66 30 06:24 29.12.2021
4611 Rain 24 1013 50 10000 5.66 30 05:42 29.12.2021
4612 Clear 26 1013 53 10000 3.6 60 03:20 29.12.2021
4613 Clear 25 1011 76 10000 4.47 73 00:24 29.12.2021
4614 Clear 26 1011 71 10000 4.47 73 23:47 28.12.2021
4615 Clear 26 1011 69 10000 5.36 73 22:45 28.12.2021
4616 Clear 26 1011 69 10000 4.92 90 22:24 28.12.2021
4617 Clear 26 1010 69 10000 5.81 71 21:53 28.12.2021
4618 Clear 26 1011 68 10000 4.92 71 20:49 28.12.2021
4619 Clear 27 1011 68 10000 2.68 65 19:44 28.12.2021
4620 Clear 27 1011 63 10000 2.24 100 18:50 28.12.2021
4621 Clear 27 1011 61 10000 2.68 133 18:23 28.12.2021
4622 Rain 27 1012 57 10000 3.58 186 16:35 28.12.2021
4623 Rain 30 1012 38 10000 1.79 303 15:52 28.12.2021
4624 Rain 29 1012 41 10000 2.24 21 15:27 28.12.2021
4625 Rain 28 1012 45 10000 2.68 28 14:53 28.12.2021
4626 Rain 27 1012 49 10000 0.89 352 14:21 28.12.2021
4627 Rain 26 1011 52 10000 2.68 15 13:54 28.12.2021
4628 Clear 25 1011 53 10000 4.02 21 13:33 28.12.2021
4629 Clear 23 1012 68 10000 4.02 5 12:55 28.12.2021
4630 Clear 22 1012 71 10000 5.36 43 12:18 28.12.2021
4631 Clear 16 1011 82 10000 2.57 10 09:30 28.12.2021
4632 Rain 17 1011 77 10000 3.09 40 07:33 28.12.2021
4633 Clear 20 1011 73 10000 2.57 70 03:28 28.12.2021
4634 Clear 23 1009 69 10000 4.02 97 23:26 27.12.2021
4635 Clear 22 1010 68 10000 3.58 125 22:20 27.12.2021
4636 Clear 22 1009 68 10000 3.13 127 21:30 27.12.2021
4637 Clear 23 1010 65 10000 3.13 129 20:27 27.12.2021
4638 Clear 22 1010 67 10000 2.68 98 19:47 27.12.2021
4639 Clear 22 1010 67 10000 3.58 140 18:57 27.12.2021
4640 Clear 22 1010 68 10000 3.13 82 17:51 27.12.2021
4641 Clear 22 1010 68 10000 2.68 134 17:28 27.12.2021
4642 Clear 22 1011 69 10000 2.24 113 15:54 27.12.2021
4643 Clear 22 1011 72 10000 4.02 130 14:56 27.12.2021
4644 Clear 23 1011 53 10000 4.12 140 14:21 27.12.2021
4645 Clouds 21 1011 68 10000 2.57 120 12:49 27.12.2021
4646 Clouds 19 1010 72 10000 3.09 150 10:37 27.12.2021
4647 Clouds 19 1010 72 10000 3.09 150 10:18 27.12.2021
4648 Clouds 20 1009 77 10000 2.57 150 08:42 27.12.2021
4649 Clouds 20 1009 73 10000 3.09 160 07:34 27.12.2021
4650 Clouds 22 1011 64 10000 2.57 150 02:29 27.12.2021
4651 Clouds 23 1010 53 10000 3.6 140 01:51 27.12.2021
4652 Clear 25 1009 63 10000 5.36 94 23:49 26.12.2021
4653 Clear 26 1008 59 10000 2.24 71 23:19 26.12.2021
4654 Clear 26 1008 56 10000 1.79 97 21:33 26.12.2021
4655 Clear 25 1010 63 10000 1.79 148 19:55 26.12.2021
4656 Clear 27 1011 61 10000 1.79 211 18:45 26.12.2021
4657 Clear 26 1011 63 10000 2.24 186 18:21 26.12.2021
4658 Clear 25 1013 59 10000 2.68 217 15:38 26.12.2021
4659 Clear 23 1013 60 10000 3.09 220 13:49 26.12.2021
4660 Clear 23 1013 60 10000 3.09 220 13:31 26.12.2021
4661 Clear 20 1013 83 10000 0 0 12:35 26.12.2021
4662 Clear 16 1013 94 10000 0 0 11:20 26.12.2021
4663 Clear 15 1012 94 7000 0 0 09:31 26.12.2021
4664 Clear 17 1012 82 10000 0 0 08:45 26.12.2021
4665 Clear 17 1012 82 10000 0 0 08:26 26.12.2021
4666 Clouds 20 1011 77 10000 3.09 150 01:50 26.12.2021
4667 Clouds 22 1010 82 10000 5.81 169 00:40 26.12.2021
4668 Clouds 22 1010 80 10000 5.36 149 23:37 25.12.2021
4669 Clouds 23 1010 78 10000 6.26 176 22:38 25.12.2021
4670 Clouds 23 1010 78 10000 6.26 169 22:20 25.12.2021
4671 Clouds 23 1010 79 10000 7.6 186 20:26 25.12.2021
4672 Clouds 24 1009 77 10000 6.71 186 19:19 25.12.2021
4673 Clouds 23 1009 78 10000 7.6 194 18:39 25.12.2021
4674 Clouds 24 1009 81 10000 5.81 197 16:50 25.12.2021
4675 Clouds 24 1008 79 10000 5.36 202 15:38 25.12.2021
4676 Clouds 26 1008 78 10000 3.58 207 14:24 25.12.2021
4677 Clouds 25 1008 68 10000 1.79 317 12:40 25.12.2021
4678 Clouds 23 1008 60 10000 2.06 360 11:21 25.12.2021
4679 Clear 23 1007 64 10000 4.12 10 09:49 25.12.2021
4680 Clear 23 1007 60 10000 5.14 20 07:39 25.12.2021
4681 Clear 25 1008 61 10000 3.6 90 01:45 25.12.2021
4682 Clear 25 1007 80 10000 3.13 77 00:23 25.12.2021
4683 Clouds 25 1007 75 10000 4.02 91 22:26 24.12.2021
4684 Clouds 25 1009 76 10000 4.02 65 19:36 24.12.2021
4685 Clouds 25 1009 75 10000 4.02 89 19:18 24.12.2021
4686 Clear 26 1010 72 10000 4.02 51 16:50 24.12.2021
4687 Clear 29 1011 52 10000 1.34 6 15:53 24.12.2021
4688 Clear 28 1011 51 10000 2.68 37 15:34 24.12.2021
4689 Clear 25 1013 61 10000 6.17 360 14:36 24.12.2021
4690 Clear 25 1013 61 10000 6.17 360 14:36 24.12.2021
4691 Clear 25 1013 61 10000 6.17 360 14:18 24.12.2021
4692 Clear 23 1014 64 10000 6.69 20 13:33 24.12.2021
4693 Clear 21 1014 78 10000 6.69 20 12:47 24.12.2021
4694 Clear 19 1014 88 10000 5.66 30 11:52 24.12.2021
4695 Clear 19 1014 88 10000 5.66 30 11:25 24.12.2021
4696 Clear 17 1014 94 10000 2.06 40 10:46 24.12.2021
4697 Clear 17 1014 94 10000 2.57 60 09:32 24.12.2021
4698 Clear 17 1013 88 10000 1.54 20 08:23 24.12.2021
4699 Clear 18 1013 88 10000 2.06 30 07:46 24.12.2021
4700 Clear 21 1015 73 10000 5.66 110 01:30 24.12.2021
4701 Clouds 23 1015 64 10000 5.66 120 23:56 23.12.2021
4702 Clouds 23 1015 64 10000 5.66 120 22:56 23.12.2021
4703 Clear 23 1015 76 10000 5.81 122 22:37 23.12.2021
4704 Clear 23 1015 76 10000 5.81 122 22:18 23.12.2021
4705 Clouds 23 1015 76 10000 5.36 133 20:56 23.12.2021
4706 Clouds 23 1016 77 10000 4.92 111 19:47 23.12.2021
4707 Clouds 23 1016 74 10000 4.92 133 18:35 23.12.2021
4708 Clouds 23 1017 75 10000 4.47 134 17:56 23.12.2021
4709 Rain 23 1017 74 10000 2.68 152 16:43 23.12.2021
4710 Rain 23 1017 74 10000 2.68 139 16:23 23.12.2021
4711 Rain 23 1017 74 10000 2.24 107 15:31 23.12.2021
4712 Rain 23 1018 77 10000 1.34 98 14:52 23.12.2021
4713 Clouds 23 1018 77 10000 1.79 104 14:30 23.12.2021
4714 Clouds 23 1018 68 10000 3.6 100 12:54 23.12.2021
4715 Rain 18 1017 88 10000 2.06 60 10:44 23.12.2021
4716 Rain 18 1017 88 10000 1.03 60 09:42 23.12.2021
4717 Rain 18 1016 88 10000 2.06 350 08:59 23.12.2021
4718 Rain 20 1016 77 10000 2.06 90 06:55 23.12.2021
4719 Rain 20 1016 83 10000 3.09 110 04:30 23.12.2021
4720 Clear 23 1014 77 10000 4.02 60 23:20 22.12.2021
4721 Clear 23 1014 76 10000 4.02 116 22:42 22.12.2021
4722 Clear 23 1014 77 10000 3.13 63 21:56 22.12.2021
4723 Clear 23 1014 76 10000 4.02 98 21:29 22.12.2021
4724 Clouds 23 1014 77 10000 4.02 134 20:47 22.12.2021
4725 Clouds 22 1014 77 10000 4.47 132 20:26 22.12.2021
4726 Clouds 23 1014 77 10000 4.47 132 19:28 22.12.2021
4727 Clouds 22 1014 77 10000 4.92 139 17:50 22.12.2021
4728 Clouds 22 1014 77 10000 4.02 145 16:40 22.12.2021
4729 Clouds 22 1014 84 10000 3.58 135 15:40 22.12.2021
4730 Clouds 22 1013 83 10000 4.47 121 13:33 22.12.2021
4731 Clouds 22 1013 86 10000 3.58 140 12:40 22.12.2021
4732 Clouds 19 1012 94 9000 2.06 140 10:36 22.12.2021
4733 Clouds 19 1011 94 9000 2.57 130 09:39 22.12.2021
4734 Clouds 19 1011 94 10000 2.57 130 07:30 22.12.2021
4735 Clouds 20 1010 88 10000 3.6 110 05:50 22.12.2021
4736 Clouds 20 1010 88 10000 3.6 110 05:26 22.12.2021
4737 Clear 20 1010 88 10000 3.09 110 04:50 22.12.2021
4738 Clear 20 1010 88 10000 3.09 110 04:26 22.12.2021
4739 Clear 20 1010 88 10000 3.6 130 03:32 22.12.2021
4740 Clouds 21 1009 78 10000 5.66 120 00:47 22.12.2021
4741 Clouds 22 1008 84 10000 7.15 139 23:25 21.12.2021
4742 Rain 23 1008 84 10000 4.02 122 22:28 21.12.2021
4743 Clouds 22 1008 84 10000 5.81 143 21:44 21.12.2021
4744 Clouds 22 1008 83 10000 6.71 138 21:22 21.12.2021
4745 Clouds 23 1008 87 10000 6.71 163 20:21 21.12.2021
4746 Clouds 23 1009 77 10000 3.58 136 19:42 21.12.2021
4747 Clouds 23 1008 79 10000 4.92 79 18:48 21.12.2021
4748 Clouds 23 1008 79 10000 5.36 75 18:21 21.12.2021
4749 Clouds 23 1009 81 10000 5.36 71 17:42 21.12.2021
4750 Clouds 22 1010 86 10000 5.36 94 16:26 21.12.2021
4751 Clouds 22 1010 86 10000 6.26 143 15:24 21.12.2021
4752 Clouds 22 1010 84 10000 1.34 58 13:50 21.12.2021
4753 Clouds 22 1011 85 10000 1.34 59 13:30 21.12.2021
4754 Clouds 21 1010 89 8000 3.13 40 11:49 21.12.2021
4755 Clouds 19 1010 88 10000 3.09 90 10:25 21.12.2021
4756 Rain 19 1010 88 10000 2.57 90 09:27 21.12.2021
4757 Rain 19 1010 88 10000 2.57 90 07:59 21.12.2021
4758 Clear 19 1011 88 10000 2.06 60 07:29 21.12.2021
4759 Clouds 20 1012 88 10000 2.06 120 06:50 21.12.2021
4760 Clouds 21 1011 88 10000 5.66 110 02:51 21.12.2021
4761 Clear 22 1011 89 10000 8.05 100 23:59 20.12.2021
4762 Clear 23 1011 89 10000 7.15 101 23:32 20.12.2021
4763 Clouds 22 1011 88 10000 8.49 117 22:30 20.12.2021
4764 Clouds 23 1011 88 10000 8.05 120 21:47 20.12.2021
4765 Clouds 23 1011 87 10000 6.71 119 21:23 20.12.2021
4766 Clouds 22 1012 85 10000 8.05 116 20:45 20.12.2021
4767 Clear 23 1012 84 10000 7.6 121 19:54 20.12.2021
4768 Rain 23 1012 84 10000 6.26 86 19:31 20.12.2021
4769 Rain 23 1012 84 10000 5.81 136 18:54 20.12.2021
4770 Clear 23 1012 82 10000 6.26 125 17:53 20.12.2021
4771 Clear 23 1013 79 10000 5.36 144 17:25 20.12.2021
4772 Clear 23 1013 79 10000 4.47 147 16:42 20.12.2021
4773 Clear 24 1013 81 10000 4.02 157 15:51 20.12.2021
4774 Clear 24 1013 79 10000 2.24 146 14:53 20.12.2021
4775 Clear 25 1014 69 10000 3.6 170 13:18 20.12.2021
4776 Clear 19 1013 94 10000 1.03 120 11:19 20.12.2021
4777 Clear 18 1011 94 10000 2.06 10 09:51 20.12.2021
4778 Clear 18 1011 94 10000 2.06 10 09:31 20.12.2021
4779 Rain 19 1011 88 10000 1.03 30 08:42 20.12.2021
4780 Rain 19 1011 88 10000 2.06 20 07:50 20.12.2021
4781 Rain 19 1011 88 10000 2.06 20 07:50 20.12.2021
4782 Clear 19 1011 88 10000 2.06 20 07:30 20.12.2021
4783 Rain 22 1011 83 10000 2.06 110 04:36 20.12.2021
4784 Clear 23 1010 82 10000 3.58 154 23:59 19.12.2021
4785 Clear 23 1010 80 10000 3.58 121 22:52 19.12.2021
4786 Clear 23 1010 78 10000 4.02 118 21:55 19.12.2021
4787 Clear 23 1010 78 10000 4.47 132 21:30 19.12.2021
4788 Clear 23 1010 76 10000 4.92 150 20:34 19.12.2021
4789 Clear 23 1010 82 10000 4.47 121 19:52 19.12.2021
4790 Clear 23 1010 83 10000 4.92 117 19:27 19.12.2021
4791 Clear 24 1011 76 10000 3.13 97 18:30 19.12.2021
4792 Clear 29 1012 39 10000 4.12 60 17:53 19.12.2021
4793 Clear 29 1012 39 10000 4.12 60 17:19 19.12.2021
4794 Clear 24 1012 71 10000 5.36 100 16:26 19.12.2021
4795 Clear 26 1013 58 10000 3.58 28 15:43 19.12.2021
4796 Clear 26 1013 58 10000 2.24 53 15:20 19.12.2021
4797 Clear 24 1013 62 10000 5.36 28 14:42 19.12.2021
4798 Clouds 21 1016 68 10000 6.17 30 13:22 19.12.2021
4799 Clear 20 1016 73 10000 6.17 30 12:46 19.12.2021
4800 Clear 20 1016 73 10000 6.17 30 12:23 19.12.2021
4801 Clear 18 1016 82 10000 3.6 60 11:21 19.12.2021
4802 Clear 16 1016 88 10000 3.09 80 10:26 19.12.2021
4803 Clear 16 1016 88 10000 1.54 90 09:42 19.12.2021
4804 Clear 17 1016 82 10000 1.03 110 08:35 19.12.2021
4805 Clear 20 1016 64 10000 5.14 80 04:45 19.12.2021
4806 Clear 24 1016 43 10000 5.14 70 01:33 19.12.2021
4807 Clear 23 1015 68 10000 4.63 110 00:52 19.12.2021
4808 Clear 26 1015 57 10000 6.69 120 22:37 18.12.2021
4809 Clear 26 1016 57 10000 7.2 130 21:58 18.12.2021
4810 Clear 26 1016 57 10000 7.2 130 21:36 18.12.2021
4811 Clear 26 1016 57 10000 7.72 110 20:44 18.12.2021
4812 Clear 26 1016 57 10000 7.72 110 20:19 18.12.2021
4813 Clouds 26 1017 57 10000 7.2 140 19:25 18.12.2021
4814 Clouds 27 1018 50 10000 6.69 120 18:22 18.12.2021
4815 Clouds 27 1019 50 10000 5.14 110 17:48 18.12.2021
4816 Clouds 26 1019 50 10000 4.12 70 16:26 18.12.2021
4817 Clouds 25 1020 53 10000 5.66 130 15:28 18.12.2021
4818 Clouds 24 1020 57 10000 4.12 50 14:51 18.12.2021
4819 Clouds 22 1020 68 10000 5.66 40 13:28 18.12.2021
4820 Clear 17 1020 82 10000 3.6 90 11:23 18.12.2021
4821 Clear 16 1019 82 10000 2.57 90 09:40 18.12.2021
4822 Clear 16 1019 82 10000 2.57 80 08:47 18.12.2021
4823 Clear 16 1019 82 10000 2.57 80 08:24 18.12.2021
4824 Clear 20 1019 68 10000 5.14 90 03:58 18.12.2021
4825 Clear 21 1018 73 10000 6.69 120 00:30 18.12.2021
4826 Clear 22 1018 68 10000 7.72 120 23:46 17.12.2021
4827 Clouds 24 1018 64 10000 7.72 120 21:58 17.12.2021
4828 Clouds 24 1018 64 10000 7.72 120 21:20 17.12.2021
4829 Clouds 25 1018 57 10000 7.2 110 20:41 17.12.2021
4830 Clouds 25 1019 61 10000 6.17 140 19:28 17.12.2021
4831 Clouds 25 1019 53 10000 5.14 100 18:39 17.12.2021
4832 Clouds 25 1020 50 10000 4.12 100 17:33 17.12.2021
4833 Clouds 25 1020 53 10000 4.12 100 16:49 17.12.2021
4834 Clouds 25 1020 53 10000 4.12 100 16:22 17.12.2021
4835 Clouds 24 1020 57 10000 5.14 110 15:25 17.12.2021
4836 Clouds 23 1021 60 10000 5.14 110 14:40 17.12.2021
4837 Clouds 23 1021 56 10000 5.14 120 13:21 17.12.2021
4838 Clear 18 1019 88 10000 3.6 100 11:50 17.12.2021
4839 Clouds 18 1019 88 10000 2.57 90 10:37 17.12.2021
4840 Clouds 18 1018 82 10000 1.54 50 09:34 17.12.2021
4841 Clouds 18 1018 82 10000 1.54 50 09:34 17.12.2021
4842 Clouds 19 1018 77 10000 2.57 90 08:30 17.12.2021
4843 Clouds 19 1018 77 10000 3.6 100 07:18 17.12.2021
4844 Clouds 17 1018 86 10000 4.63 110 04:39 17.12.2021
4845 Clouds 20 1017 73 10000 6.17 120 23:47 16.12.2021
4846 Clouds 22 1017 64 10000 6.69 130 22:24 16.12.2021
4847 Clouds 22 1017 64 10000 6.69 130 22:24 16.12.2021
4848 Clouds 22 1017 64 10000 6.69 130 22:24 16.12.2021
4849 Clouds 22 1017 64 10000 6.69 130 22:23 16.12.2021
4850 Clouds 22 1017 64 10000 6.69 130 22:23 16.12.2021
4851 Clouds 22 1017 64 10000 6.69 130 22:23 16.12.2021
4852 Clouds 22 1017 64 10000 6.69 130 22:23 16.12.2021
4853 Clouds 22 1017 68 10000 7.2 140 21:45 16.12.2021
4854 Clouds 22 1017 68 10000 7.2 140 20:57 16.12.2021
4855 Clouds 22 1017 64 10000 7.2 130 20:27 16.12.2021
4856 Clouds 23 1017 60 10000 7.2 140 19:33 16.12.2021
4857 Clouds 22 1017 64 10000 7.2 130 18:37 16.12.2021
4858 Clouds 23 1016 60 10000 8.23 150 17:48 16.12.2021
4859 Clouds 23 1016 60 10000 7.72 140 16:55 16.12.2021
4860 Clouds 23 1016 60 10000 7.72 140 16:20 16.12.2021
4861 Clouds 21 1016 78 10000 5.66 120 14:32 16.12.2021
4862 Clouds 19 1015 88 10000 5.14 130 12:34 16.12.2021
4863 Clouds 19 1015 88 10000 4.63 140 11:19 16.12.2021
4864 Clouds 19 1015 88 10000 4.63 140 11:19 16.12.2021
4865 Clouds 19 1014 88 10000 6.69 130 10:45 16.12.2021
4866 Clouds 19 1013 94 10000 6.69 130 09:52 16.12.2021
4867 Clouds 19 1013 94 10000 5.14 120 07:19 16.12.2021
4868 Clouds 19 1013 94 10000 5.14 130 06:19 16.12.2021
4869 Clouds 22 1012 86 10000 2.68 195 00:44 16.12.2021
4870 Clouds 22 1012 82 10000 2.24 197 23:21 15.12.2021
4871 Clouds 23 1012 80 10000 2.68 203 22:26 15.12.2021
4872 Clouds 24 1013 64 10000 4.12 180 21:46 15.12.2021
4873 Clouds 23 1012 80 10000 2.68 213 21:26 15.12.2021
4874 Clouds 23 1013 80 10000 3.58 181 19:55 15.12.2021
4875 Clouds 23 1013 80 10000 5.36 209 19:22 15.12.2021
4876 Clouds 24 1014 69 10000 4.63 240 18:26 15.12.2021
4877 Clouds 23 1013 86 10000 2.24 203 17:49 15.12.2021
4878 Clouds 22 1014 87 10000 2.24 196 17:27 15.12.2021
4879 Clouds 22 1014 88 10000 3.13 191 16:25 15.12.2021
4880 Clouds 22 1014 88 10000 2.24 129 15:42 15.12.2021
4881 Clouds 22 1014 88 10000 3.13 132 15:24 15.12.2021
4882 Rain 22 1014 89 10000 2.24 83 13:58 15.12.2021
4883 Clouds 21 1014 91 10000 4.02 78 11:57 15.12.2021
4884 Clouds 20 1016 85 10000 5.34 47 10:23 15.12.2021
4885 Clouds 20 1013 83 10000 2.57 70 08:48 15.12.2021
4886 Rain 20 1015 83 10000 3.6 60 05:59 15.12.2021
4887 Clouds 21 1015 78 10000 8.23 110 00:47 15.12.2021
4888 Clouds 22 1014 86 10000 8.05 77 23:41 14.12.2021
4889 Clouds 22 1014 86 10000 8.05 118 22:47 14.12.2021
4890 Clouds 22 1014 84 10000 7.6 108 21:51 14.12.2021
4891 Clouds 22 1014 80 10000 8.49 123 20:27 14.12.2021
4892 Clouds 22 1014 79 10000 8.94 117 19:40 14.12.2021
4893 Clouds 22 1015 79 10000 7.6 138 18:42 14.12.2021
4894 Clouds 22 1015 79 10000 7.6 126 17:58 14.12.2021
4895 Clouds 22 1015 80 10000 7.15 133 17:27 14.12.2021
4896 Rain 21 1016 80 10000 6.71 118 16:38 14.12.2021
4897 Rain 21 1016 82 10000 6.26 117 14:52 14.12.2021
4898 Clear 22 1016 64 10000 7.2 120 13:31 14.12.2021
4899 Clear 19 1015 82 10000 7.2 140 11:57 14.12.2021
4900 Clear 19 1015 82 10000 7.2 140 11:23 14.12.2021
4901 Clear 18 1015 94 10000 3.6 140 09:56 14.12.2021
4902 Clear 18 1015 94 10000 3.6 140 09:34 14.12.2021
4903 Clear 18 1014 94 10000 3.6 130 08:23 14.12.2021
4904 Clear 19 1014 82 10000 3.6 120 07:43 14.12.2021
4905 Rain 20 1015 68 10000 4.12 110 02:25 14.12.2021
4906 Clear 22 1013 73 10000 4.02 121 22:50 13.12.2021
4907 Clear 22 1013 72 10000 4.47 132 21:52 13.12.2021
4908 Clear 22 1013 71 10000 4.47 130 20:59 13.12.2021
4909 Clear 23 1012 71 10000 4.02 141 20:34 13.12.2021
4910 Clear 22 1012 71 10000 4.47 126 19:52 13.12.2021
4911 Clear 23 1013 68 10000 4.47 153 17:56 13.12.2021
4912 Clear 23 1013 68 10000 4.47 146 17:24 13.12.2021
4913 Clouds 22 1012 69 10000 5.36 176 15:50 13.12.2021
4914 Clouds 23 1012 71 10000 4.92 176 15:19 13.12.2021
4915 Clear 22 1012 88 10000 3.58 176 13:38 13.12.2021
4916 Clear 22 1011 90 10000 1.34 140 12:46 13.12.2021
4917 Clear 22 1011 83 10000 5.14 170 11:54 13.12.2021
4918 Rain 21 1010 88 10000 5.14 170 11:35 13.12.2021
4919 Clear 21 1009 88 10000 3.09 190 10:43 13.12.2021
4920 Rain 20 1008 94 10000 2.06 220 08:57 13.12.2021
4921 Rain 21 1007 88 10000 3.09 220 07:46 13.12.2021
4922 Clear 20 1007 88 10000 2.06 250 05:35 13.12.2021
4923 Clear 22 1005 78 10000 1.54 150 00:43 13.12.2021
4924 Clear 23 1003 81 10000 2.68 190 22:23 12.12.2021
4925 Clear 23 1003 82 10000 4.02 154 21:38 12.12.2021
4926 Clouds 23 1003 79 10000 1.34 181 19:47 12.12.2021
4927 Clouds 24 1003 75 10000 1.79 147 18:35 12.12.2021
4928 Clouds 23 1004 76 10000 1.34 158 17:31 12.12.2021
4929 Clouds 27 1004 70 10000 4.47 210 16:27 12.12.2021
4930 Clear 29 1005 48 10000 5.14 20 15:45 12.12.2021
4931 Clear 29 1005 48 10000 5.14 20 15:25 12.12.2021
4932 Clear 28 1004 58 10000 4.92 17 14:34 12.12.2021
4933 Clear 24 1005 60 10000 8.23 30 13:22 12.12.2021
4934 Clear 22 1005 68 10000 8.75 20 12:30 12.12.2021
4935 Clear 19 1005 77 10000 7.72 40 11:44 12.12.2021
4936 Clear 19 1005 77 10000 7.72 40 11:20 12.12.2021
4937 Clear 18 1005 82 10000 4.12 30 10:22 12.12.2021
4938 Clear 18 1004 82 10000 2.57 40 08:58 12.12.2021
4939 Clear 18 1004 82 10000 3.09 50 07:32 12.12.2021
4940 Clear 19 1005 77 10000 3.6 60 05:57 12.12.2021
4941 Clear 20 1006 73 10000 3.09 60 04:56 12.12.2021
4942 Clear 20 1006 83 10000 3.09 90 03:27 12.12.2021
4943 Rain 22 1004 77 10000 4.47 65 23:39 11.12.2021
4944 Clear 21 1005 79 10000 4.47 65 22:22 11.12.2021
4945 Clouds 21 1005 80 10000 4.92 87 21:51 11.12.2021
4946 Clouds 21 1005 80 10000 4.47 74 20:51 11.12.2021
4947 Clouds 21 1006 81 10000 4.47 63 19:23 11.12.2021
4948 Clouds 21 1006 79 10000 4.47 92 18:52 11.12.2021
4949 Clouds 21 1007 79 10000 4.92 131 18:21 11.12.2021
4950 Clouds 21 1007 79 10000 4.92 140 17:20 11.12.2021
4951 Clouds 21 1007 78 10000 3.58 119 15:53 11.12.2021
4952 Clouds 21 1008 78 10000 3.58 111 15:27 11.12.2021
4953 Clear 20 1009 75 10000 2.24 13 12:50 11.12.2021
4954 Clear 20 1009 75 10000 2.24 13 12:50 11.12.2021
4955 Clear 17 1009 77 10000 2.06 50 11:25 11.12.2021
4956 Clear 15 1009 88 10000 2.57 80 09:45 11.12.2021
4957 Clear 16 1009 82 10000 1.54 80 08:23 11.12.2021
4958 Clear 20 1011 68 10000 3.6 90 02:23 11.12.2021
4959 Clear 21 1009 83 10000 6.17 110 23:58 10.12.2021
4960 Clear 21 1010 84 10000 6.26 87 23:21 10.12.2021
4961 Rain 21 1010 82 10000 6.71 102 21:56 10.12.2021
4962 Rain 21 1011 82 10000 6.71 87 21:28 10.12.2021
4963 Clouds 21 1012 80 10000 6.71 117 19:21 10.12.2021
4964 Clouds 21 1013 79 10000 6.71 134 18:19 10.12.2021
4965 Clouds 21 1014 76 10000 6.26 129 16:56 10.12.2021
4966 Clouds 21 1014 77 10000 5.81 119 16:28 10.12.2021
4967 Clouds 21 1014 77 10000 6.26 127 15:41 10.12.2021
4968 Clouds 21 1015 75 10000 4.47 113 15:21 10.12.2021
4969 Clouds 20 1016 71 10000 3.58 46 13:51 10.12.2021
4970 Rain 20 1016 72 10000 4.02 60 13:26 10.12.2021
4971 Clear 19 1016 75 10000 4.47 59 12:39 10.12.2021
4972 Clear 17 1017 82 10000 3.6 80 11:28 10.12.2021
4973 Clear 16 1017 88 10000 0 0 10:37 10.12.2021
4974 Clear 17 1016 82 10000 4.12 90 08:57 10.12.2021
4975 Clear 17 1017 82 10000 2.06 80 06:50 10.12.2021
4976 Clear 19 1018 72 10000 5.14 90 02:48 10.12.2021
4977 Clear 19 1018 72 10000 5.14 90 02:48 10.12.2021
4978 Clear 21 1016 87 10000 8.05 78 00:38 10.12.2021
4979 Clear 21 1016 84 10000 8.05 61 23:22 09.12.2021
4980 Rain 21 1016 84 10000 8.94 76 22:26 09.12.2021
4981 Clear 21 1016 84 10000 8.05 83 21:59 09.12.2021
4982 Clear 21 1017 82 10000 7.6 98 21:18 09.12.2021
4983 Clear 21 1017 81 10000 6.71 82 20:28 09.12.2021
4984 Clear 21 1018 81 10000 8.05 133 19:22 09.12.2021
4985 Rain 21 1017 80 10000 8.49 83 18:49 09.12.2021
4986 Clear 21 1018 80 10000 8.05 77 17:56 09.12.2021
4987 Clear 21 1018 76 10000 8.49 86 17:27 09.12.2021
4988 Clear 21 1018 76 10000 8.05 86 16:56 09.12.2021
4989 Clouds 22 1019 79 10000 6.71 109 15:57 09.12.2021
4990 Clouds 21 1019 79 10000 6.26 84 14:50 09.12.2021
4991 Clouds 20 1020 73 10000 7.72 50 13:25 09.12.2021
4992 Clear 18 1020 82 10000 5.14 70 12:42 09.12.2021
4993 Clear 17 1020 82 10000 4.12 80 11:24 09.12.2021
4994 Clear 16 1020 82 10000 1.54 60 09:44 09.12.2021
4995 Clear 17 1019 77 10000 3.09 50 06:51 09.12.2021
4996 Clear 20 1019 68 10000 6.17 60 03:46 09.12.2021
4997 Clear 22 1017 83 10000 7.15 76 23:46 08.12.2021
4998 Clear 22 1017 83 10000 7.15 93 23:26 08.12.2021
4999 Clear 22 1017 82 10000 7.6 82 22:50 08.12.2021
5000 Clear 22 1017 82 10000 7.6 106 21:46 08.12.2021
5001 Clear 22 1017 82 10000 7.6 117 21:28 08.12.2021
5002 Clear 22 1017 81 10000 8.05 84 20:18 08.12.2021
5003 Clouds 22 1018 81 10000 8.05 93 19:37 08.12.2021
5004 Clouds 22 1018 80 10000 8.49 111 18:53 08.12.2021
5005 Clear 21 1019 76 10000 8.94 126 17:52 08.12.2021
5006 Clouds 21 1020 76 10000 4.92 98 15:58 08.12.2021
5007 Rain 21 1020 76 10000 4.92 127 15:29 08.12.2021
5008 Clouds 22 1020 75 10000 4.92 86 14:50 08.12.2021
5009 Clear 20 1022 68 10000 5.14 40 12:39 08.12.2021
5010 Clear 15 1021 88 10000 1.54 110 10:32 08.12.2021
5011 Clear 15 1020 88 10000 3.09 80 09:30 08.12.2021
5012 Clear 15 1020 82 10000 2.57 70 07:34 08.12.2021
5013 Clear 18 1021 63 10000 3.6 70 04:58 08.12.2021
5014 Clear 22 1018 77 10000 8.05 73 23:48 07.12.2021
5015 Clear 22 1018 78 10000 7.6 62 22:27 07.12.2021
5016 Clear 22 1018 77 10000 8.49 93 21:24 07.12.2021
5017 Clear 22 1019 80 10000 5.81 84 20:24 07.12.2021
5018 Clouds 22 1020 81 10000 6.26 86 18:56 07.12.2021
5019 Clouds 22 1020 81 10000 7.15 59 18:18 07.12.2021
5020 Clouds 22 1021 78 10000 5.81 130 17:20 07.12.2021
5021 Clouds 22 1022 77 10000 5.36 85 16:36 07.12.2021
5022 Clouds 23 1022 73 10000 4.92 74 15:35 07.12.2021
5023 Clouds 23 1022 70 10000 4.02 55 14:37 07.12.2021
5024 Clouds 21 1023 73 10000 6.17 40 13:19 07.12.2021
5025 Clouds 19 1023 82 10000 5.14 40 12:21 07.12.2021
5026 Clear 17 1023 88 10000 3.6 70 10:44 07.12.2021
5027 Clear 16 1022 94 10000 2.57 90 09:19 07.12.2021
5028 Clear 17 1022 88 10000 3.6 80 06:39 07.12.2021
5029 Clear 18 1022 88 10000 2.57 80 05:45 07.12.2021
5030 Clouds 20 1022 77 10000 5.14 110 01:43 07.12.2021
5031 Clouds 22 1021 84 10000 5.36 92 23:21 06.12.2021
5032 Clouds 22 1021 83 10000 5.81 94 22:40 06.12.2021
5033 Clouds 22 1021 82 10000 6.26 89 21:59 06.12.2021
5034 Clouds 22 1021 83 10000 6.26 117 21:21 06.12.2021
5035 Clouds 22 1021 80 10000 6.26 129 20:32 06.12.2021
5036 Clouds 22 1021 79 10000 5.36 125 19:24 06.12.2021
5037 Clouds 22 1022 78 10000 4.92 128 18:31 06.12.2021
5038 Clouds 22 1022 80 10000 5.81 163 17:53 06.12.2021
5039 Clouds 22 1022 80 10000 5.36 154 17:30 06.12.2021
5040 Clouds 21 1022 82 10000 4.92 139 15:51 06.12.2021
5041 Clouds 22 1022 84 10000 3.13 130 13:53 06.12.2021
5042 Clouds 21 1022 86 10000 3.13 108 12:40 06.12.2021
5043 Clouds 19 1022 88 10000 2.57 120 11:54 06.12.2021
5044 Clouds 19 1020 88 10000 1.54 110 09:44 06.12.2021
5045 Clouds 19 1020 82 10000 2.57 120 07:18 06.12.2021
5046 Clouds 19 1019 77 10000 4.12 100 00:38 06.12.2021
5047 Clouds 20 1018 82 10000 6.71 112 22:20 05.12.2021
5048 Clouds 20 1019 81 10000 6.26 113 21:25 05.12.2021
5049 Clouds 21 1018 82 10000 6.71 107 20:20 05.12.2021
5050 Clouds 21 1019 83 10000 5.36 94 19:58 05.12.2021
5051 Clouds 20 1019 84 10000 6.26 105 19:23 05.12.2021
5052 Clouds 20 1019 84 10000 5.36 138 18:26 05.12.2021
5053 Clouds 20 1019 83 10000 5.81 145 17:49 05.12.2021
5054 Clouds 20 1020 82 10000 4.02 140 16:58 05.12.2021
5055 Clouds 20 1020 81 10000 4.02 125 16:28 05.12.2021
5056 Clouds 20 1020 82 7000 3.13 122 15:58 05.12.2021
5057 Clouds 20 1020 82 10000 2.68 100 14:47 05.12.2021
5058 Clouds 20 1020 82 10000 2.68 104 14:29 05.12.2021
5059 Clouds 20 1020 83 10000 3.58 69 13:31 05.12.2021
5060 Rain 20 1021 83 10000 3.6 90 12:41 05.12.2021
5061 Rain 20 1021 83 10000 3.6 90 12:23 05.12.2021
5062 Clear 18 1021 94 10000 2.06 100 11:41 05.12.2021
5063 Clouds 18 1020 88 10000 2.06 80 10:21 05.12.2021
5064 Clouds 18 1020 88 10000 3.09 100 09:26 05.12.2021
5065 Clear 19 1021 72 10000 3.09 100 04:56 05.12.2021
5066 Clouds 20 1020 73 10000 5.66 120 01:23 05.12.2021
5067 Clouds 21 1019 68 10000 5.14 120 22:42 04.12.2021
5068 Clouds 22 1019 64 10000 6.17 130 21:37 04.12.2021
5069 Clouds 23 1019 64 10000 5.14 150 20:40 04.12.2021
5070 Clouds 23 1019 60 10000 5.14 140 19:43 04.12.2021
5071 Clouds 23 1019 60 10000 5.14 140 19:23 04.12.2021
5072 Clouds 23 1020 60 10000 5.66 170 17:52 04.12.2021
5073 Clouds 23 1020 60 10000 5.66 170 17:22 04.12.2021
5074 Clouds 23 1020 60 10000 3.09 150 16:46 04.12.2021
5075 Clouds 23 1020 60 10000 3.09 150 16:27 04.12.2021
5076 Clouds 19 1019 77 10000 3.09 60 12:44 04.12.2021
5077 Clouds 17 1019 88 10000 2.06 110 11:39 04.12.2021
5078 Clouds 18 1019 77 10000 1.54 100 10:59 04.12.2021
5079 Clear 17 1017 82 10000 1.54 110 09:42 04.12.2021
5080 Clear 17 1017 82 10000 1.03 0 08:35 04.12.2021
5081 Clear 19 1018 77 10000 2.57 100 04:43 04.12.2021
5082 Clear 20 1017 73 10000 2.57 60 03:36 04.12.2021
5083 Clouds 20 1016 73 10000 5.14 130 23:47 03.12.2021
5084 Clouds 21 1016 68 10000 6.17 140 22:53 03.12.2021
5085 Rain 21 1016 68 10000 7.2 150 21:58 03.12.2021
5086 Rain 21 1016 68 10000 7.2 150 21:24 03.12.2021
5087 Clouds 23 1016 60 10000 5.66 150 20:42 03.12.2021
5088 Clouds 25 1016 57 10000 6.17 120 19:28 03.12.2021
5089 Clouds 23 1016 60 10000 5.66 130 18:24 03.12.2021
5090 Clouds 24 1017 43 10000 4.12 40 17:33 03.12.2021
5091 Clear 20 1018 60 10000 6.17 40 13:45 03.12.2021
5092 Clear 19 1018 68 10000 6.17 50 12:51 03.12.2021
5093 Clear 17 1017 77 10000 5.14 60 11:24 03.12.2021
5094 Clear 14 1016 88 10000 3.6 60 09:44 03.12.2021
5095 Clear 15 1015 82 10000 4.12 40 08:21 03.12.2021
5096 Clear 15 1015 82 10000 1.54 40 07:29 03.12.2021
5097 Clear 19 1016 63 10000 4.63 100 01:51 03.12.2021
5098 Clear 19 1016 68 10000 6.69 110 00:42 03.12.2021
5099 Clear 20 1016 68 10000 6.69 110 23:42 02.12.2021
5100 Clouds 22 1016 64 10000 6.69 120 21:42 02.12.2021
5101 Clouds 23 1016 60 10000 7.2 110 20:56 02.12.2021
5102 Clouds 23 1016 60 10000 7.2 110 20:35 02.12.2021
5103 Clouds 23 1016 60 10000 7.2 110 20:35 02.12.2021
5104 Clouds 23 1016 56 10000 4.63 120 19:24 02.12.2021
5105 Clouds 23 1017 49 10000 2.57 90 17:36 02.12.2021
5106 Clouds 21 1018 56 10000 4.12 80 15:42 02.12.2021
5107 Clouds 19 1019 77 10000 2.06 90 14:58 02.12.2021
5108 Clouds 19 1019 63 10000 2.57 80 13:56 02.12.2021
5109 Clear 17 1018 72 10000 3.6 90 12:52 02.12.2021
5110 Clear 15 1018 77 10000 3.09 90 11:56 02.12.2021
5111 Clear 14 1017 77 10000 2.06 90 09:34 02.12.2021
5112 Clear 14 1016 77 10000 2.06 100 08:49 02.12.2021
5113 Clear 16 1017 72 10000 3.09 80 04:54 02.12.2021
5114 Clear 18 1016 59 10000 5.66 120 00:52 02.12.2021
5115 Clear 18 1015 63 10000 6.69 120 23:19 01.12.2021
5116 Clouds 19 1015 63 10000 5.14 130 22:23 01.12.2021
5117 Clouds 20 1015 64 10000 6.17 120 20:36 01.12.2021
5118 Clouds 21 1015 64 10000 6.17 130 19:53 01.12.2021
5119 Rain 21 1015 64 10000 6.17 130 19:28 01.12.2021
5120 Clouds 21 1016 52 10000 4.12 130 17:45 01.12.2021
5121 Clouds 21 1016 49 10000 3.6 100 16:42 01.12.2021
5122 Rain 21 1016 56 10000 5.14 100 14:52 01.12.2021
5123 Clouds 19 1016 63 10000 5.14 110 13:44 01.12.2021
5124 Clouds 18 1016 72 10000 3.6 90 12:37 01.12.2021
5125 Clouds 15 1014 82 10000 1.54 50 10:42 01.12.2021
5126 Clouds 15 1014 82 10000 0 0 09:20 01.12.2021
5127 Clouds 18 1013 63 10000 2.57 100 08:29 01.12.2021
5128 Clouds 18 1012 68 10000 4.63 120 07:33 01.12.2021
5129 Clouds 18 1013 68 10000 4.12 110 06:34 01.12.2021
5130 Clouds 18 1013 77 10000 5.14 130 03:45 01.12.2021
5131 Clouds 17 1012 72 10000 4.12 170 00:59 01.12.2021
5132 Clouds 18 1011 77 10000 5.66 160 23:54 30.11.2021
5133 Clouds 18 1011 77 10000 5.66 160 23:24 30.11.2021
5134 Clouds 20 1010 68 10000 7.2 170 21:39 30.11.2021
5135 Clouds 21 1010 64 10000 7.2 200 20:44 30.11.2021
5136 Clouds 21 1010 64 10000 7.2 210 19:53 30.11.2021
5137 Clouds 21 1010 64 10000 7.2 210 19:34 30.11.2021
5138 Clouds 21 1011 64 10000 6.17 200 18:37 30.11.2021
5139 Clouds 20 1010 68 10000 6.17 220 16:50 30.11.2021
5140 Clouds 20 1010 68 10000 6.69 210 15:44 30.11.2021
5141 Clouds 20 1010 68 10000 7.72 200 14:20 30.11.2021
5142 Clouds 18 1009 77 10000 6.17 200 13:27 30.11.2021
5143 Clouds 18 1008 72 10000 7.72 200 12:46 30.11.2021
5144 Clouds 17 1008 77 10000 5.14 210 11:50 30.11.2021
5145 Clouds 17 1008 77 10000 5.14 210 11:25 30.11.2021
5146 Clouds 17 1006 77 10000 6.69 210 10:34 30.11.2021
5147 Clouds 17 1005 82 10000 5.14 220 08:53 30.11.2021
5148 Clouds 17 1005 82 10000 5.14 220 08:31 30.11.2021
5149 Clouds 17 1005 82 10000 7.2 220 07:48 30.11.2021
5150 Clouds 18 1004 88 10000 9.26 210 02:41 30.11.2021
5151 Clouds 18 1003 88 9000 10.29 210 01:43 30.11.2021
5152 Clouds 18 1002 88 9000 9.77 210 00:33 30.11.2021
5153 Mist 19 1002 82 5000 9.26 210 23:25 29.11.2021
5154 Drizzle 19 1001 88 8000 11.32 210 22:57 29.11.2021
5155 Clouds 19 1001 88 10000 11.32 210 22:34 29.11.2021
5156 Drizzle 20 1001 83 8000 10.29 210 21:39 29.11.2021
5157 Clouds 20 1001 83 8000 10.29 210 21:18 29.11.2021
5158 Clouds 20 1000 88 8000 10.29 220 20:41 29.11.2021
5159 Mist 19 999 100 3500 10.29 220 19:56 29.11.2021
5160 Mist 19 999 100 3500 10.29 220 19:36 29.11.2021
5161 Clouds 19 1001 87 10000 12.33 202 18:52 29.11.2021
5162 Clouds 19 1000 89 10000 12.9 206 18:26 29.11.2021
5163 Clouds 19 999 91 10000 13.09 209 17:21 29.11.2021
5164 Clouds 19 999 91 10000 13.09 209 16:32 29.11.2021
5165 Clouds 19 998 92 10000 13.91 210 15:52 29.11.2021
5166 Rain 19 998 92 10000 13.58 215 14:43 29.11.2021
5167 Rain 19 997 92 10000 13.29 213 13:36 29.11.2021
5168 Clouds 19 997 92 10000 11.78 212 12:44 29.11.2021
5169 Clouds 19 997 93 10000 9.86 217 11:43 29.11.2021
5170 Clouds 18 997 92 10000 9.85 223 10:59 29.11.2021
5171 Rain 19 995 94 10000 9.77 210 09:50 29.11.2021
5172 Rain 19 997 94 9000 7.2 180 06:22 29.11.2021
5173 Rain 19 997 94 8000 5.14 140 04:53 29.11.2021
5174 Rain 20 1000 94 4000 5.14 120 00:44 29.11.2021
5175 Clouds 19 1001 94 5000 3.09 130 23:45 28.11.2021
5176 Clouds 19 1001 94 5000 3.09 130 23:25 28.11.2021
5177 Rain 19 1001 88 5000 4.12 120 21:53 28.11.2021
5178 Rain 19 1001 88 5000 4.12 120 21:26 28.11.2021
5179 Clouds 21 1003 94 5000 5.14 120 20:35 28.11.2021
5180 Rain 23 1004 78 10000 5.66 100 19:28 28.11.2021
5181 Rain 23 1005 78 10000 3.09 90 18:38 28.11.2021
5182 Rain 23 1006 73 10000 3.09 120 17:56 28.11.2021
5183 Rain 23 1006 73 10000 3.09 120 17:32 28.11.2021
5184 Clouds 22 1007 78 10000 3.6 60 16:44 28.11.2021
5185 Rain 22 1007 78 10000 3.6 60 16:22 28.11.2021
5186 Clouds 22 1008 78 10000 3.6 60 15:33 28.11.2021
5187 Clouds 20 1009 83 10000 3.6 90 14:49 28.11.2021
5188 Rain 20 1009 83 10000 2.57 60 13:49 28.11.2021
5189 Rain 19 1009 88 10000 4.12 90 12:54 28.11.2021
5190 Clouds 18 1009 88 10000 4.12 90 11:19 28.11.2021
5191 Rain 19 1009 88 10000 3.6 70 10:22 28.11.2021
5192 Rain 19 1009 82 10000 4.63 90 09:40 28.11.2021
5193 Clouds 19 1010 82 10000 4.12 80 08:19 28.11.2021
5194 Clouds 21 1009 83 10000 7.72 110 00:39 28.11.2021
5195 Clouds 23 1009 73 10000 6.17 150 21:45 27.11.2021
5196 Clouds 25 1009 65 10000 4.63 120 19:50 27.11.2021
5197 Clouds 25 1010 65 10000 4.63 120 18:20 27.11.2021
5198 Clouds 24 1012 64 10000 3.09 110 15:59 27.11.2021
5199 Clouds 22 1012 73 10000 4.12 90 14:30 27.11.2021
5200 Clouds 21 1012 78 10000 4.12 80 13:20 27.11.2021
5201 Clouds 19 1012 82 10000 2.57 100 10:57 27.11.2021
5202 Clouds 19 1011 82 10000 4.12 110 09:54 27.11.2021
5203 Clouds 19 1011 82 10000 3.6 130 08:45 27.11.2021
5204 Clouds 19 1011 82 10000 4.12 130 06:35 27.11.2021
5205 Clouds 19 1012 88 10000 4.12 130 03:52 27.11.2021
5206 Clear 20 1010 79 10000 6.66 104 00:19 27.11.2021
5207 Clouds 22 1010 73 10000 6.17 170 22:41 26.11.2021
5208 Clouds 22 1010 73 10000 6.17 170 22:19 26.11.2021
5209 Clouds 23 1010 68 10000 6.17 170 21:22 26.11.2021
5210 Clouds 24 1010 60 10000 6.17 190 20:40 26.11.2021
5211 Clear 24 1010 64 10000 7.2 170 19:55 26.11.2021
5212 Clouds 23 1010 73 10000 7.2 180 18:45 26.11.2021
5213 Clouds 24 1010 64 10000 6.17 190 17:26 26.11.2021
5214 Clouds 22 1010 73 10000 6.69 170 16:50 26.11.2021
5215 Clouds 23 1010 68 10000 6.17 170 14:57 26.11.2021
5216 Clouds 21 1010 83 10000 6.17 160 13:35 26.11.2021
5217 Mist 20 1008 94 5000 4.12 170 10:44 26.11.2021
5218 Clouds 19 1007 100 10000 5.14 200 09:53 26.11.2021
5219 Rain 19 1006 100 10000 4.12 200 08:50 26.11.2021
5220 Clouds 19 1006 100 10000 4.12 200 08:20 26.11.2021
5221 Clouds 19 1006 94 10000 2.57 160 06:31 26.11.2021
5222 Clouds 19 1006 100 10000 4.63 150 05:35 26.11.2021
5223 Clouds 19 1005 94 10000 3.09 210 03:41 26.11.2021
5224 Rain 17 1004 100 800 4.12 150 23:49 25.11.2021
5225 Rain 17 1003 100 800 5.14 200 22:34 25.11.2021
5226 Rain 23 1001 60 3000 5.14 110 20:53 25.11.2021
5227 Clouds 23 1002 60 10000 5.14 120 19:35 25.11.2021
5228 Clouds 21 1003 60 5000 5.14 120 18:35 25.11.2021
5229 Clouds 22 1005 53 10000 4.12 350 17:28 25.11.2021
5230 Clouds 22 1005 53 10000 4.12 40 16:47 25.11.2021
5231 Clouds 22 1005 53 10000 4.12 40 16:25 25.11.2021
5232 Clear 21 1006 52 10000 4.12 30 14:44 25.11.2021
5233 Rain 21 1007 52 10000 4.12 30 13:21 25.11.2021
5234 Clouds 21 1006 49 10000 3.09 30 12:19 25.11.2021
5235 Clear 19 1006 52 10000 2.57 20 10:50 25.11.2021
5236 Clear 19 1007 48 10000 4.12 30 08:30 25.11.2021
5237 Rain 23 1009 28 10000 3.6 20 03:42 25.11.2021
5238 Clear 25 1009 25 10000 3.09 40 02:44 25.11.2021
5239 Clear 32 1008 19 10000 6.17 10 22:43 24.11.2021
5240 Clear 32 1008 19 10000 6.17 10 22:20 24.11.2021
5241 Clear 32 1009 19 10000 6.17 10 21:26 24.11.2021
5242 Clear 32 1009 19 10000 7.2 20 20:28 24.11.2021
5243 Clear 32 1010 19 10000 6.69 10 19:46 24.11.2021
5244 Clear 31 1011 22 10000 5.66 360 18:29 24.11.2021
5245 Clear 29 1013 26 10000 6.69 350 16:53 24.11.2021
5246 Clear 27 1013 34 10000 7.72 20 15:22 24.11.2021
5247 Clear 24 1014 46 10000 6.17 20 14:31 24.11.2021
5248 Clear 21 1014 52 10000 5.14 360 13:51 24.11.2021
5249 Clear 15 1014 72 10000 4.12 10 11:50 24.11.2021
5250 Clear 15 1014 72 10000 4.12 10 11:20 24.11.2021
5251 Clear 12 1014 82 10000 4.12 10 10:39 24.11.2021
5252 Clear 12 1013 82 10000 4.63 10 09:40 24.11.2021
5253 Rain 13 1013 82 10000 4.12 20 07:42 24.11.2021
5254 Rain 14 1014 77 10000 5.14 20 06:51 24.11.2021
5255 Clear 15 1015 72 10000 3.09 20 03:50 24.11.2021
5256 Rain 18 1016 59 10000 4.12 110 23:44 23.11.2021
5257 Clear 20 1017 52 10000 4.12 110 22:39 23.11.2021
5258 Clear 20 1017 49 10000 4.63 140 21:46 23.11.2021
5259 Clear 20 1017 49 10000 5.66 180 20:48 23.11.2021
5260 Clear 21 1017 49 10000 5.66 180 19:37 23.11.2021
5261 Clear 21 1018 47 10000 5.14 150 18:39 23.11.2021
5262 Clear 21 1018 47 10000 5.14 150 17:57 23.11.2021
5263 Clear 21 1019 46 10000 3.6 170 16:55 23.11.2021
5264 Clear 22 1019 34 10000 4.37 155 15:57 23.11.2021
5265 Clear 23 1019 34 10000 4.33 150 15:19 23.11.2021
5266 Clear 19 1019 48 10000 3.6 160 13:46 23.11.2021
5267 Clear 17 1017 59 10000 5.66 160 11:40 23.11.2021
5268 Clouds 15 1016 62 10000 6.17 190 09:59 23.11.2021
5269 Clouds 16 1016 60 10000 7.72 180 08:44 23.11.2021
5270 Clouds 17 1015 65 10000 7.72 180 05:57 23.11.2021
5271 Clouds 18 1014 56 10000 6.69 180 03:42 23.11.2021
5272 Clouds 21 1009 60 10000 6.17 190 00:28 23.11.2021
5273 Clouds 21 1008 65 10000 13.38 170 23:20 22.11.2021
5274 Thunderstorm 28 1006 47 5000 6.69 210 22:32 22.11.2021
5275 Rain 31 1003 35 10000 6.69 280 21:48 22.11.2021
5276 Clouds 31 1003 35 10000 6.69 280 21:29 22.11.2021
5277 Clouds 32 1004 29 10000 7.72 270 20:50 22.11.2021
5278 Clouds 32 1004 26 10000 6.17 300 19:31 22.11.2021
5279 Clouds 34 1004 22 10000 5.14 320 18:58 22.11.2021
5280 Clouds 34 1004 22 10000 5.14 320 18:35 22.11.2021
5281 Clear 29 1006 37 10000 5.14 290 16:56 22.11.2021
5282 Clear 29 1006 37 10000 6.17 280 15:43 22.11.2021
5283 Clear 28 1007 43 10000 6.69 280 13:57 22.11.2021
5284 Clouds 24 1006 49 10000 4.12 350 11:41 22.11.2021
5285 Rain 23 1005 54 10000 3.6 350 10:38 22.11.2021
5286 Clear 21 1005 62 10000 3.09 330 09:24 22.11.2021
5287 Clear 20 1005 64 10000 2.06 350 08:36 22.11.2021
5288 Clear 21 1006 73 10000 3.09 360 04:32 22.11.2021
5289 Clear 29 1007 42 10000 5.14 280 23:24 21.11.2021
5290 Clouds 30 1007 36 10000 5.66 280 22:48 21.11.2021
5291 Clouds 30 1007 37 10000 6.69 270 21:48 21.11.2021
5292 Clouds 31 1008 37 10000 7.2 270 20:41 21.11.2021
5293 Clouds 32 1009 35 10000 6.69 280 19:46 21.11.2021
5294 Clear 32 1009 31 10000 6.17 280 18:18 21.11.2021
5295 Clear 32 1010 31 10000 6.69 280 17:38 21.11.2021
5296 Clear 31 1011 32 10000 7.72 280 15:28 21.11.2021
5297 Clear 30 1011 38 10000 5.14 300 14:45 21.11.2021
5298 Clear 28 1011 45 10000 5.14 320 13:40 21.11.2021
5299 Clear 24 1011 54 10000 5.14 340 12:35 21.11.2021
5300 Clear 19 1012 70 10000 3.6 350 11:42 21.11.2021
5301 Clear 18 1012 71 10000 3.6 350 11:23 21.11.2021
5302 Clouds 17 1011 78 10000 3.6 10 10:18 21.11.2021
5303 Clear 17 1011 73 10000 3.6 10 08:42 21.11.2021
5304 Clear 17 1011 70 10000 3.6 10 08:22 21.11.2021
5305 Clear 17 1011 69 10000 3.09 20 07:43 21.11.2021
5306 Rain 18 1012 63 10000 3.09 20 05:49 21.11.2021
5307 Rain 18 1012 60 10000 3.09 20 05:25 21.11.2021
5308 Clear 19 1013 55 10000 2.06 60 03:19 21.11.2021
5309 Clear 20 1013 55 10000 2.57 60 02:51 21.11.2021
5310 Clear 21 1012 62 10000 2.06 100 00:56 21.11.2021
5311 Clear 25 1012 47 10000 3.09 100 23:47 20.11.2021
5312 Clear 26 1012 38 10000 2.57 160 21:41 20.11.2021
5313 Clear 26 1012 38 10000 2.57 160 21:23 20.11.2021
5314 Clear 26 1014 34 10000 2.57 220 18:46 20.11.2021
5315 Clear 26 1014 34 10000 2.57 220 18:26 20.11.2021
5316 Clear 25 1015 36 10000 3.09 280 17:57 20.11.2021
5317 Clear 25 1015 38 10000 2.06 280 16:57 20.11.2021
5318 Rain 23 1016 56 10000 2.06 240 14:47 20.11.2021
5319 Rain 23 1016 56 10000 2.06 240 14:25 20.11.2021
5320 Clouds 15 1016 86 9000 1.03 350 12:23 20.11.2021
5321 Fog 11 1014 100 50 0 0 10:52 20.11.2021
5322 Fog 13 1014 97 275 0 0 09:39 20.11.2021
5323 Mist 15 1014 96 5000 0 0 07:37 20.11.2021
5324 Mist 16 1015 95 5000 0 0 05:28 20.11.2021
5325 Rain 16 1015 94 10000 2.06 20 04:50 20.11.2021
5326 Clear 18 1014 90 10000 2.06 160 01:58 20.11.2021
5327 Clear 18 1014 90 10000 3.09 180 00:40 20.11.2021
5328 Clear 20 1014 76 10000 4.63 170 23:41 19.11.2021
5329 Clear 22 1013 67 10000 5.14 160 22:39 19.11.2021
5330 Clouds 23 1013 56 10000 5.14 220 20:59 19.11.2021
5331 Clouds 23 1013 56 10000 5.14 220 20:37 19.11.2021
5332 Clouds 23 1014 55 10000 5.14 210 19:56 19.11.2021
5333 Clouds 24 1014 51 10000 6.69 210 18:55 19.11.2021
5334 Clouds 24 1014 53 10000 6.69 210 18:24 19.11.2021
5335 Clouds 25 1014 40 10000 6.69 270 17:36 19.11.2021
5336 Clouds 26 1015 29 10000 3.6 280 15:58 19.11.2021
5337 Clouds 23 1015 41 10000 4.12 320 13:56 19.11.2021
5338 Clouds 15 1014 72 10000 3.09 10 10:30 19.11.2021
5339 Clear 11 1013 76 10000 3.6 20 09:48 19.11.2021
5340 Clear 12 1013 68 10000 3.09 20 08:26 19.11.2021
5341 Clear 14 1014 65 10000 0 0 04:54 19.11.2021
5342 Clear 15 1013 62 10000 0 0 02:43 19.11.2021
5343 Clear 21 1012 43 10000 3.09 90 23:52 18.11.2021
5344 Clear 22 1012 40 10000 1.54 250 22:35 18.11.2021
5345 Clear 22 1012 40 10000 2.57 220 20:56 18.11.2021
5346 Clear 21 1012 40 10000 3.6 210 20:32 18.11.2021
5347 Clear 23 1013 33 10000 3.6 230 19:58 18.11.2021
5348 Clear 23 1013 33 10000 3.6 230 19:35 18.11.2021
5349 Clear 23 1013 38 10000 4.63 200 18:34 18.11.2021
5350 Clear 23 1013 33 10000 2.06 260 17:51 18.11.2021
5351 Clear 22 1014 33 10000 2.06 260 16:45 18.11.2021
5352 Clear 20 1014 40 10000 1.54 320 15:51 18.11.2021
5353 Clear 18 1015 48 10000 3.09 340 14:18 18.11.2021
5354 Clear 13 1015 71 10000 4.12 350 12:34 18.11.2021
5355 Clear 11 1015 67 10000 4.12 10 11:43 18.11.2021
5356 Clear 11 1015 66 10000 4.12 10 11:25 18.11.2021
5357 Clear 7 1015 94 10000 2.06 360 10:19 18.11.2021
5358 Clear 7 1014 90 10000 0 0 07:39 18.11.2021
5359 Clear 9 1015 85 10000 2.57 20 05:59 18.11.2021
5360 Clear 9 1015 85 10000 2.57 20 05:39 18.11.2021
5361 Clear 12 1015 60 10000 0 0 01:24 18.11.2021
5362 Clear 16 1015 44 10000 1.03 0 23:25 17.11.2021
5363 Clear 16 1015 41 10000 2.57 210 22:34 17.11.2021
5364 Clear 17 1016 45 10000 5.14 190 21:55 17.11.2021
5365 Clear 17 1016 45 10000 5.14 190 21:35 17.11.2021
5366 Clear 17 1017 50 10000 5.66 210 19:27 17.11.2021
5367 Clouds 18 1018 51 10000 5.14 220 17:31 17.11.2021
5368 Clouds 17 1018 50 10000 5.66 180 15:54 17.11.2021
5369 Clouds 15 1019 60 10000 7.2 200 12:56 17.11.2021
5370 Clouds 15 1019 60 10000 7.2 200 12:36 17.11.2021
5371 Clouds 13 1018 64 10000 6.69 220 10:52 17.11.2021
5372 Clouds 12 1018 69 10000 6.17 200 09:37 17.11.2021
5373 Clouds 12 1017 65 10000 5.66 190 07:46 17.11.2021
5374 Clouds 13 1017 61 10000 7.2 200 06:53 17.11.2021
5375 Clouds 15 1018 64 10000 5.66 170 02:47 17.11.2021
5376 Clouds 16 1016 68 10000 8.75 190 23:58 16.11.2021
5377 Clouds 17 1016 66 10000 8.23 180 22:25 16.11.2021
5378 Clouds 18 1016 71 10000 8.23 200 20:19 16.11.2021
5379 Clouds 18 1016 74 10000 7.72 200 19:37 16.11.2021
5380 Clouds 17 1016 80 10000 6.69 200 18:43 16.11.2021
5381 Clouds 17 1016 81 10000 6.69 200 17:56 16.11.2021
5382 Clouds 19 1014 82 10000 7.72 200 16:59 16.11.2021
5383 Clouds 19 1014 83 10000 7.72 200 16:19 16.11.2021
5384 Clouds 20 1013 83 10000 6.69 200 15:42 16.11.2021
5385 Clouds 20 1014 94 8000 5.14 200 13:42 16.11.2021
5386 Mist 18 1011 100 5000 2.57 100 10:27 16.11.2021
5387 Clouds 18 1010 100 6000 4.63 120 09:41 16.11.2021
5388 Thunderstorm 20 1009 94 10000 0 0 07:47 16.11.2021
5389 Clouds 20 1009 94 4000 2.57 290 06:43 16.11.2021
5390 Clouds 25 1008 65 10000 3.09 110 23:26 15.11.2021
5391 Clouds 27 1007 61 10000 3.6 130 22:41 15.11.2021
5392 Clouds 27 1007 61 10000 3.6 130 22:19 15.11.2021
5393 Clouds 30 1008 45 10000 6.17 30 21:31 15.11.2021
5394 Clouds 29 1008 48 10000 6.17 30 20:43 15.11.2021
5395 Clouds 30 1009 45 10000 6.17 10 19:26 15.11.2021
5396 Clouds 29 1010 48 10000 6.17 30 17:35 15.11.2021
5397 Clouds 26 1012 57 10000 5.14 20 15:55 15.11.2021
5398 Clouds 26 1012 57 10000 5.14 20 15:35 15.11.2021
5399 Clear 25 1013 57 10000 5.66 40 14:32 15.11.2021
5400 Clear 21 1014 55 10000 5.14 50 12:38 15.11.2021
5401 Clear 18 1014 58 10000 0 0 10:33 15.11.2021
5402 Clear 13 1013 72 10000 0 0 09:22 15.11.2021
5403 Rain 14 1013 74 10000 0 0 07:23 15.11.2021
5404 Clear 17 1013 68 10000 0 0 02:34 15.11.2021
5405 Clear 24 1012 41 10000 3.09 290 22:45 14.11.2021
5406 Clear 24 1012 41 10000 3.09 290 22:19 14.11.2021
5407 Clear 24 1012 50 10000 3.6 270 19:24 14.11.2021
5408 Clear 25 1012 50 10000 3.6 270 18:55 14.11.2021
5409 Clouds 25 1012 56 10000 5.14 280 18:37 14.11.2021
5410 Clouds 24 1012 60 10000 5.14 280 18:18 14.11.2021
5411 Clouds 23 1012 70 10000 3.6 270 17:58 14.11.2021
5412 Clouds 23 1012 70 10000 3.6 270 17:40 14.11.2021
5413 Clouds 23 1012 69 10000 3.6 270 17:22 14.11.2021
5414 Clouds 23 1012 70 10000 3.6 270 16:59 14.11.2021
5415 Clouds 21 1012 77 10000 5.66 270 16:40 14.11.2021
5416 Clouds 21 1012 81 10000 5.66 270 16:19 14.11.2021
5417 Clouds 20 1012 84 10000 5.14 320 15:20 14.11.2021
5418 Rain 20 1011 84 10000 5.14 320 14:45 14.11.2021
5419 Clouds 20 1011 84 10000 5.14 320 14:22 14.11.2021
5420 Clouds 20 1011 85 10000 5.14 320 13:52 14.11.2021
5421 Clouds 18 1011 93 10000 4.63 330 13:28 14.11.2021
5422 Rain 18 1011 95 10000 3.6 330 12:23 14.11.2021
5423 Rain 17 1011 99 10000 3.09 300 11:28 14.11.2021
5424 Rain 18 1005 97 10000 8.23 70 10:39 14.11.2021
5425 Rain 17 1009 96 10000 3.09 40 09:41 14.11.2021
5426 Thunderstorm 18 1009 95 6000 2.57 40 08:51 14.11.2021
5427 Rain 20 1010 79 10000 8.75 50 06:51 14.11.2021
5428 Clear 24 1007 53 10000 8.23 50 23:27 13.11.2021
5429 Clear 26 1007 40 10000 7.72 50 22:21 13.11.2021
5430 Clear 26 1009 37 10000 9.26 30 21:36 13.11.2021
5431 Clear 27 1008 36 10000 8.75 60 20:59 13.11.2021
5432 Clear 27 1010 36 10000 8.23 60 19:33 13.11.2021
5433 Clear 26 1012 37 10000 8.75 40 18:32 13.11.2021
5434 Clear 24 1014 44 10000 9.26 60 17:41 13.11.2021
5435 Clear 23 1014 45 10000 9.26 60 16:29 13.11.2021
5436 Clouds 22 1016 48 10000 9.77 50 14:45 13.11.2021
5437 Clouds 19 1017 59 10000 9.26 50 13:56 13.11.2021
5438 Clear 17 1018 67 10000 7.72 80 12:45 13.11.2021
5439 Clear 13 1018 82 10000 4.63 80 11:57 13.11.2021
5440 Clear 13 1018 82 10000 4.63 80 11:24 13.11.2021
5441 Clear 14 1019 72 10000 4.63 80 10:39 13.11.2021
5442 Clear 13 1019 76 10000 4.12 90 09:50 13.11.2021
5443 Clear 13 1019 76 10000 4.12 90 09:31 13.11.2021
5444 Clear 14 1019 72 10000 4.12 90 08:49 13.11.2021
5445 Clear 14 1019 72 10000 4.12 90 08:18 13.11.2021
5446 Clear 16 1021 77 10000 4.12 90 04:43 13.11.2021
5447 Clear 16 1021 75 10000 4.12 90 04:23 13.11.2021
5448 Clear 20 1020 56 10000 5.14 70 00:19 13.11.2021
5449 Clear 23 1019 54 10000 5.66 120 22:43 12.11.2021
5450 Clear 24 1019 51 10000 6.17 120 21:29 12.11.2021
5451 Clear 24 1021 48 10000 5.66 100 19:43 12.11.2021
5452 Clear 24 1021 47 10000 5.66 100 19:23 12.11.2021
5453 Clouds 24 1022 44 10000 5.14 100 18:20 12.11.2021
5454 Clouds 22 1023 46 10000 7.2 80 16:19 12.11.2021
5455 Clouds 21 1024 50 10000 7.2 70 14:53 12.11.2021
5456 Clear 14 1024 71 10000 3.6 80 11:31 12.11.2021
5457 Clear 15 1024 80 10000 3.6 70 10:48 12.11.2021
5458 Clear 12 1023 84 10000 3.6 90 09:27 12.11.2021
5459 Clear 12 1023 84 10000 4.12 80 08:35 12.11.2021
5460 Clear 16 1024 69 10000 6.69 100 02:22 12.11.2021
5461 Clear 19 1022 64 10000 6.69 110 23:33 11.11.2021
5462 Clear 20 1022 59 10000 8.23 110 22:28 11.11.2021
5463 Clouds 22 1022 55 10000 7.2 110 21:27 11.11.2021
5464 Clouds 22 1023 53 10000 7.2 130 20:38 11.11.2021
5465 Clouds 23 1023 52 10000 7.2 120 18:55 11.11.2021
5466 Clouds 23 1024 53 10000 6.69 140 17:42 11.11.2021
5467 Clouds 22 1024 49 10000 3.6 110 16:40 11.11.2021
5468 Clouds 20 1025 56 10000 4.63 50 14:45 11.11.2021
5469 Clouds 20 1025 56 10000 4.63 50 14:26 11.11.2021
5470 Clouds 20 1025 59 10000 5.66 60 13:37 11.11.2021
5471 Clouds 20 1025 59 10000 5.66 60 13:37 11.11.2021
5472 Clear 18 1025 64 10000 4.63 80 12:48 11.11.2021
5473 Clear 16 1025 86 10000 0 0 10:36 11.11.2021
5474 Clear 12 1024 90 10000 1.54 100 09:33 11.11.2021
5475 Clear 12 1023 87 10000 2.57 100 07:38 11.11.2021
5476 Clear 16 1023 72 10000 6.17 90 02:36 11.11.2021
5477 Clouds 19 1020 56 10000 7.72 80 22:59 10.11.2021
5478 Clouds 20 1020 54 10000 7.72 80 22:22 10.11.2021
5479 Clouds 21 1020 51 10000 7.72 120 21:21 10.11.2021
5480 Clouds 21 1020 56 10000 7.2 120 20:45 10.11.2021
5481 Clouds 22 1020 55 10000 6.69 120 19:46 10.11.2021
5482 Clouds 22 1021 54 10000 6.17 120 18:33 10.11.2021
5483 Clouds 22 1022 48 10000 4.63 100 16:34 10.11.2021
5484 Clouds 21 1022 51 10000 5.14 90 14:52 10.11.2021
5485 Clouds 20 1023 59 10000 5.14 80 13:41 10.11.2021
5486 Clouds 18 1023 69 10000 5.14 80 12:47 10.11.2021
5487 Clouds 17 1021 83 10000 2.57 70 10:48 10.11.2021
5488 Clouds 13 1020 92 10000 3.09 70 08:45 10.11.2021
5489 Clouds 14 1020 92 10000 2.57 80 07:44 10.11.2021
5490 Clouds 15 1020 88 10000 2.57 70 06:26 10.11.2021
5491 Clouds 15 1020 88 10000 5.14 90 05:51 10.11.2021
5492 Clouds 18 1019 73 10000 7.2 110 23:55 09.11.2021
5493 Clear 19 1019 68 10000 7.2 140 21:50 09.11.2021
5494 Clear 19 1019 68 10000 7.2 140 21:50 09.11.2021
5495 Clouds 21 1019 62 10000 7.2 150 20:32 09.11.2021
5496 Clouds 21 1019 62 10000 6.69 150 19:25 09.11.2021
5497 Clouds 21 1020 62 10000 5.14 120 17:44 09.11.2021
5498 Clouds 20 1020 66 10000 6.17 130 15:45 09.11.2021
5499 Clouds 20 1020 68 10000 6.17 120 14:43 09.11.2021
5500 Clouds 20 1020 74 10000 5.14 130 12:53 09.11.2021
5501 Clouds 20 1020 74 10000 5.14 130 12:53 09.11.2021
5502 Clouds 20 1020 74 10000 5.14 130 12:53 09.11.2021
5503 Clouds 19 1019 79 10000 5.14 130 11:56 09.11.2021
5504 Clouds 17 1018 97 10000 3.6 120 10:45 09.11.2021
5505 Clouds 16 1017 97 10000 2.06 110 09:28 09.11.2021
5506 Clear 16 1017 96 10000 2.57 100 08:27 09.11.2021
5507 Clear 17 1016 95 10000 3.09 120 05:56 09.11.2021
5508 Clouds 15 1016 94 10000 0 0 02:23 09.11.2021
5509 Clouds 16 1015 95 10000 3.09 40 01:46 09.11.2021
5510 Rain 21 1014 70 10000 3.09 110 23:58 08.11.2021
5511 Rain 22 1014 60 10000 3.09 110 22:51 08.11.2021
5512 Clouds 26 1014 47 10000 1.03 0 22:27 08.11.2021
5513 Clouds 25 1014 44 10000 2.06 260 20:56 08.11.2021
5514 Clouds 25 1015 47 10000 3.6 230 19:52 08.11.2021
5515 Clouds 25 1016 44 10000 3.09 240 18:57 08.11.2021
5516 Clouds 24 1017 50 10000 3.6 260 16:34 08.11.2021
5517 Clouds 24 1017 43 10000 3.6 260 15:26 08.11.2021
5518 Clear 22 1017 56 10000 3.09 340 14:42 08.11.2021
5519 Clear 19 1017 66 10000 3.6 340 13:49 08.11.2021
5520 Clear 16 1017 77 10000 4.12 350 12:20 08.11.2021
5521 Clear 13 1017 88 10000 3.09 10 11:24 08.11.2021
5522 Clear 11 1016 95 10000 3.09 10 09:47 08.11.2021
5523 Clear 11 1016 93 10000 0 0 08:55 08.11.2021
5524 Clear 11 1016 90 10000 0 0 07:36 08.11.2021
5525 Clear 13 1017 83 10000 2.06 50 04:55 08.11.2021
5526 Clear 15 1017 83 10000 5.14 90 03:30 08.11.2021
5527 Clear 17 1017 65 10000 4.12 140 23:47 07.11.2021
5528 Clear 19 1016 57 10000 5.14 140 22:20 07.11.2021
5529 Clouds 20 1016 53 10000 5.66 140 21:20 07.11.2021
5530 Clouds 21 1017 49 10000 6.17 130 19:55 07.11.2021
5531 Clouds 21 1017 46 10000 3.09 150 18:24 07.11.2021
5532 Clouds 21 1018 47 10000 2.06 190 17:35 07.11.2021
5533 Clouds 21 1019 54 10000 4.12 140 15:54 07.11.2021
5534 Clouds 19 1020 53 10000 2.06 180 14:40 07.11.2021
5535 Clouds 17 1021 60 10000 2.06 40 13:54 07.11.2021
5536 Clouds 14 1020 78 10000 2.06 30 11:49 07.11.2021
5537 Clear 11 1019 95 10000 0 0 09:58 07.11.2021
5538 Clouds 11 1020 95 10000 0 0 08:45 07.11.2021
5539 Clouds 13 1022 86 10000 4.12 110 02:44 07.11.2021
5540 Clouds 16 1021 68 10000 5.14 110 23:40 06.11.2021
5541 Clouds 17 1021 62 10000 4.63 120 22:50 06.11.2021
5542 Clouds 17 1021 63 10000 5.66 120 21:34 06.11.2021
5543 Clouds 17 1022 63 10000 5.14 140 20:52 06.11.2021
5544 Clouds 17 1022 63 10000 5.14 140 20:52 06.11.2021
5545 Clouds 17 1022 62 10000 5.66 140 18:56 06.11.2021
5546 Clouds 18 1023 62 10000 6.17 140 17:18 06.11.2021
5547 Clouds 17 1024 62 10000 6.17 140 15:31 06.11.2021
5548 Clouds 17 1023 70 10000 7.2 150 13:39 06.11.2021
5549 Clouds 15 1023 75 10000 5.66 150 12:29 06.11.2021
5550 Clouds 15 1022 74 10000 5.14 150 09:39 06.11.2021
5551 Clouds 15 1022 72 10000 6.69 140 07:57 06.11.2021
5552 Clouds 15 1023 64 10000 8.23 150 02:40 06.11.2021
5553 Clouds 15 1022 65 10000 8.23 160 23:38 05.11.2021
5554 Rain 15 1021 64 10000 8.23 160 22:50 05.11.2021
5555 Clouds 16 1021 60 10000 9.77 160 21:54 05.11.2021
5556 Clouds 16 1020 61 10000 8.75 170 20:20 05.11.2021
5557 Clouds 16 1021 61 8000 8.75 160 19:48 05.11.2021
5558 Rain 17 1020 62 8000 9.26 170 18:41 05.11.2021
5559 Rain 18 1021 59 10000 9.61 168 17:31 05.11.2021
5560 Rain 18 1019 64 10000 10.04 170 15:48 05.11.2021
5561 Rain 17 1019 80 10000 9.59 172 13:55 05.11.2021
5562 Rain 17 1015 93 2500 7.72 180 11:31 05.11.2021
5563 Clouds 19 1012 100 6000 4.12 230 08:41 05.11.2021
5564 Mist 19 1012 97 2500 2.57 240 07:39 05.11.2021
5565 Mist 19 1012 97 2500 2.57 240 07:39 05.11.2021
5566 Fog 19 1011 97 400 1.03 140 05:33 05.11.2021
5567 Fog 20 1011 95 600 2.57 180 02:26 05.11.2021
5568 Fog 20 1011 94 500 2.06 190 00:52 05.11.2021
5569 Mist 22 1010 80 10000 3.6 130 23:25 04.11.2021
5570 Mist 23 1009 73 10000 3.6 130 22:20 04.11.2021
5571 Clouds 24 1009 73 10000 3.6 140 21:43 04.11.2021
5572 Clouds 25 1008 69 10000 4.12 160 20:53 04.11.2021
5573 Clouds 25 1008 69 10000 4.12 160 20:22 04.11.2021
5574 Clouds 25 1009 69 10000 4.12 180 19:47 04.11.2021
5575 Clouds 24 1010 73 10000 3.6 200 18:52 04.11.2021
5576 Clouds 24 1010 73 10000 3.6 200 18:20 04.11.2021
5577 Clouds 24 1010 73 10000 4.12 170 16:53 04.11.2021
5578 Drizzle 24 1010 68 10000 3.09 120 15:18 04.11.2021
5579 Clouds 22 1010 78 10000 2.57 110 12:53 04.11.2021
5580 Mist 18 1009 97 5000 2.06 110 09:50 04.11.2021
5581 Clouds 18 1008 97 10000 2.06 110 08:31 04.11.2021
5582 Clouds 18 1008 95 10000 3.6 110 07:35 04.11.2021
5583 Clouds 18 1008 96 10000 4.63 110 06:18 04.11.2021
5584 Drizzle 19 1009 94 5000 5.66 100 22:53 03.11.2021
5585 Clouds 20 1008 88 10000 6.69 110 21:50 03.11.2021
5586 Clouds 20 1008 88 10000 6.69 110 21:31 03.11.2021
5587 Clouds 22 1008 78 10000 6.17 90 20:38 03.11.2021
5588 Clouds 22 1008 78 10000 6.17 90 20:18 03.11.2021
5589 Rain 22 1009 78 10000 6.17 80 19:19 03.11.2021
5590 Rain 21 1010 83 10000 5.14 110 18:25 03.11.2021
5591 Rain 22 1010 83 10000 5.14 90 17:41 03.11.2021
5592 Rain 21 1010 88 10000 5.66 100 16:27 03.11.2021
5593 Rain 21 1011 88 10000 4.63 100 15:47 03.11.2021
5594 Rain 21 1011 88 10000 4.63 100 15:28 03.11.2021
5595 Rain 21 1011 88 10000 4.63 100 15:28 03.11.2021
5596 Rain 19 1011 94 10000 3.6 100 12:33 03.11.2021
5597 Clouds 19 1011 94 10000 4.63 110 11:27 03.11.2021
5598 Rain 19 1011 100 10000 5.14 130 10:49 03.11.2021
5599 Rain 19 1011 100 10000 5.14 130 10:49 03.11.2021
5600 Rain 19 1011 100 10000 4.12 110 09:31 03.11.2021
5601 Rain 19 1011 100 10000 4.12 110 09:31 03.11.2021
5602 Clouds 19 1011 100 10000 3.6 110 08:37 03.11.2021
5603 Clouds 19 1013 100 10000 4.12 100 07:39 03.11.2021
5604 Clouds 19 1013 100 10000 6.69 110 05:44 03.11.2021
5605 Rain 19 1013 100 8000 6.17 110 03:19 03.11.2021
5606 Rain 20 1012 88 10000 5.14 120 23:57 02.11.2021
5607 Clouds 20 1012 93 10000 5.81 98 22:48 02.11.2021
5608 Clouds 20 1012 92 10000 5.36 103 21:45 02.11.2021
5609 Clouds 20 1012 92 10000 4.47 98 20:34 02.11.2021
5610 Clouds 20 1012 91 10000 4.02 94 19:55 02.11.2021
5611 Clouds 21 1013 93 10000 3.58 83 19:18 02.11.2021
5612 Clouds 20 1013 94 10000 4.02 127 18:26 02.11.2021
5613 Rain 20 1014 95 7000 2.68 123 17:43 02.11.2021
5614 Clouds 20 1014 94 7000 2.24 100 16:33 02.11.2021
5615 Drizzle 20 1014 94 9000 2.68 69 15:48 02.11.2021
5616 Clouds 20 1015 94 10000 2.24 104 14:50 02.11.2021
5617 Clouds 20 1015 88 6000 2.57 110 13:29 02.11.2021
5618 Mist 19 1015 94 4000 3.09 100 12:45 02.11.2021
5619 Mist 19 1015 94 5000 3.09 100 11:38 02.11.2021
5620 Mist 19 1015 100 5000 3.6 130 10:54 02.11.2021
5621 Mist 19 1015 100 5000 3.6 130 10:31 02.11.2021
5622 Rain 19 1014 94 8000 4.12 120 09:23 02.11.2021
5623 Clouds 19 1015 94 10000 3.6 120 07:45 02.11.2021
5624 Rain 19 1016 94 10000 3.6 110 04:39 02.11.2021
5625 Clouds 19 1016 94 10000 5.66 130 02:49 02.11.2021
5626 Mist 19 1015 95 5000 6.26 130 23:32 01.11.2021
5627 Clouds 19 1015 95 6000 5.81 122 21:28 01.11.2021
5628 Mist 19 1015 95 7000 6.71 135 20:40 01.11.2021
5629 Mist 19 1015 94 3500 6.26 140 19:58 01.11.2021
5630 Mist 19 1015 94 3500 6.26 140 19:58 01.11.2021
5631 Mist 19 1015 94 3500 5.36 144 19:38 01.11.2021
5632 Mist 18 1016 96 3500 6.71 130 18:23 01.11.2021
5633 Mist 18 1017 96 2000 6.71 153 17:35 01.11.2021
5634 Drizzle 18 1017 96 1000 7.6 150 16:51 01.11.2021
5635 Drizzle 18 1018 96 1000 6.71 146 15:56 01.11.2021
5636 Fog 17 1019 100 1000 4.63 140 15:27 01.11.2021
5637 Drizzle 17 1019 100 1200 4.12 140 14:44 01.11.2021
5638 Drizzle 17 1019 100 1200 4.12 140 14:23 01.11.2021
5639 Fog 17 1019 100 1000 3.6 140 13:49 01.11.2021
5640 Fog 16 1018 100 300 4.63 120 12:34 01.11.2021
5641 Fog 16 1018 100 300 3.6 140 11:26 01.11.2021
5642 Mist 16 1017 100 7000 5.14 140 09:43 01.11.2021
5643 Clouds 17 1018 94 7000 4.63 150 07:50 01.11.2021
5644 Clouds 17 1018 94 7000 4.63 150 07:30 01.11.2021
5645 Drizzle 17 1020 94 5000 5.66 150 03:45 01.11.2021
5646 Clouds 17 1019 94 7000 6.17 150 00:41 01.11.2021
5647 Drizzle 18 1018 95 1500 7.15 170 22:31 31.10.2021
5648 Drizzle 18 1017 93 2000 8.94 166 20:50 31.10.2021
5649 Drizzle 18 1018 94 2000 8.94 176 19:20 31.10.2021
5650 Drizzle 19 1018 94 2000 8.05 194 18:38 31.10.2021
5651 Mist 19 1018 94 2500 5.81 186 17:32 31.10.2021
5652 Clouds 21 1018 89 9000 5.36 181 15:50 31.10.2021
5653 Rain 20 1018 90 8000 2.24 109 14:23 31.10.2021
5654 Rain 20 1019 88 7000 1.03 0 12:49 31.10.2021
5655 Clouds 19 1018 94 8000 2.06 40 11:41 31.10.2021
5656 Clouds 19 1018 94 8000 0 0 10:42 31.10.2021
5657 Clouds 19 1017 94 10000 2.57 310 09:21 31.10.2021
5658 Clouds 19 1016 94 10000 3.6 20 08:19 31.10.2021
5659 Clear 22 1014 83 10000 0.45 96 00:58 31.10.2021
5660 Clouds 22 1013 81 10000 3.13 86 22:47 30.10.2021
5661 Clouds 22 1014 82 10000 2.24 66 21:35 30.10.2021
5662 Clouds 22 1014 82 10000 1.34 69 20:44 30.10.2021
5663 Clouds 22 1014 82 10000 4.02 83 18:45 30.10.2021
5664 Clouds 22 1015 81 10000 2.68 94 17:25 30.10.2021
5665 Clear 23 1016 76 10000 4.92 58 14:54 30.10.2021
5666 Clear 20 1017 77 10000 4.63 50 13:39 30.10.2021
5667 Clear 20 1017 77 10000 4.63 50 13:21 30.10.2021
5668 Clear 18 1017 82 10000 5.14 40 12:46 30.10.2021
5669 Clear 17 1017 82 10000 2.06 40 11:42 30.10.2021
5670 Clear 17 1016 88 10000 3.6 40 10:32 30.10.2021
5671 Clear 16 1015 88 10000 3.09 80 08:52 30.10.2021
5672 Clear 17 1015 82 10000 3.09 70 07:25 30.10.2021
5673 Clear 19 1017 72 10000 3.09 50 05:39 30.10.2021
5674 Clear 22 1015 81 10000 3.13 67 00:47 30.10.2021
5675 Clear 22 1015 78 10000 5.81 68 22:43 29.10.2021
5676 Clear 22 1015 78 10000 5.36 83 22:20 29.10.2021
5677 Clear 22 1015 82 10000 4.92 67 20:46 29.10.2021
5678 Clear 22 1017 82 10000 2.68 75 19:56 29.10.2021
5679 Clear 21 1018 81 10000 4.47 83 18:33 29.10.2021
5680 Clear 21 1019 85 10000 5.81 82 16:54 29.10.2021
5681 Clear 22 1021 60 10000 5.14 60 14:38 29.10.2021
5682 Rain 17 1022 82 10000 1.54 60 11:56 29.10.2021
5683 Rain 16 1021 77 10000 4.63 80 10:44 29.10.2021
5684 Rain 17 1021 59 10000 3.6 50 08:38 29.10.2021
5685 Clear 26 1020 65 10000 4.12 110 00:37 29.10.2021
5686 Clear 30 1020 45 10000 4.63 110 23:25 28.10.2021
5687 Clear 30 1020 45 10000 5.14 100 22:18 28.10.2021
5688 Clouds 33 1021 33 10000 6.17 120 20:54 28.10.2021
5689 Clouds 33 1021 33 10000 6.17 120 20:54 28.10.2021
5690 Clear 33 1022 38 10000 4.63 60 19:51 28.10.2021
5691 Clear 24 1022 74 10000 3.13 80 18:26 28.10.2021
5692 Clear 25 1022 74 10000 1.34 90 17:18 28.10.2021
5693 Clear 25 1022 71 10000 3.13 82 16:19 28.10.2021
5694 Clear 26 1023 53 10000 4.12 30 14:25 28.10.2021
5695 Clear 24 1023 57 10000 4.63 30 13:29 28.10.2021
5696 Clear 22 1023 60 10000 4.63 30 12:41 28.10.2021
5697 Rain 19 1022 77 10000 3.6 40 10:57 28.10.2021
5698 Rain 19 1021 72 10000 3.6 30 09:39 28.10.2021
5699 Rain 19 1021 72 10000 3.6 30 09:20 28.10.2021
5700 Clear 20 1021 73 10000 3.09 20 08:35 28.10.2021
5701 Rain 20 1021 68 10000 0 0 07:40 28.10.2021
5702 Rain 20 1021 68 10000 0 0 07:40 28.10.2021
5703 Clear 30 1020 32 10000 1.03 0 00:33 28.10.2021
5704 Clear 32 1019 25 10000 2.57 250 22:31 27.10.2021
5705 Clear 32 1019 29 10000 3.09 260 21:34 27.10.2021
5706 Clear 31 1019 30 10000 4.12 270 20:54 27.10.2021
5707 Clear 31 1019 30 10000 4.12 270 20:34 27.10.2021
5708 Clear 31 1019 29 10000 5.14 280 19:42 27.10.2021
5709 Clear 31 1020 29 10000 6.17 280 18:53 27.10.2021
5710 Clear 30 1020 35 10000 5.14 280 16:38 27.10.2021
5711 Clear 30 1020 35 10000 5.14 280 16:20 27.10.2021
5712 Clear 29 1020 39 10000 5.66 280 15:23 27.10.2021
5713 Clear 19 1019 72 10000 3.09 340 12:57 27.10.2021
5714 Clear 19 1016 68 10000 3.09 350 10:59 27.10.2021
5715 Clear 19 1017 71 10000 3.9 347 10:01 27.10.2021
5716 Rain 19 1014 63 10000 2.57 350 08:58 27.10.2021
5717 Clear 19 1014 63 10000 2.06 360 07:36 27.10.2021
5718 Rain 20 1014 56 10000 2.57 10 05:36 27.10.2021
5719 Clear 27 1013 32 10000 1.54 20 01:18 27.10.2021
5720 Clear 27 1012 34 10000 1.54 300 00:33 27.10.2021
5721 Clear 29 1012 32 10000 2.57 300 23:51 26.10.2021
5722 Clear 30 1012 30 10000 4.12 270 22:43 26.10.2021
5723 Clear 30 1012 30 10000 4.12 270 22:20 26.10.2021
5724 Clear 30 1012 28 10000 4.63 250 20:59 26.10.2021
5725 Clear 31 1013 35 10000 4.12 280 19:33 26.10.2021
5726 Clear 31 1013 35 10000 4.12 280 18:54 26.10.2021
5727 Rain 29 1013 42 10000 3.6 290 17:36 26.10.2021
5728 Clear 24 1014 53 10000 5.66 350 15:40 26.10.2021
5729 Rain 14 1013 62 6000 5.14 10 11:50 26.10.2021
5730 Rain 14 1013 67 10000 4.63 20 10:48 26.10.2021
5731 Clear 15 1013 63 10000 2.06 50 08:24 26.10.2021
5732 Clear 14 1014 67 10000 2.06 40 07:21 26.10.2021
5733 Clear 20 1010 72 10000 3.09 150 00:19 26.10.2021
5734 Clear 21 1010 72 10000 0.45 244 23:28 25.10.2021
5735 Clear 22 1009 73 10000 0.89 231 22:28 25.10.2021
5736 Clear 22 1009 68 10000 1.34 231 21:42 25.10.2021
5737 Clear 25 1010 38 10000 9.26 280 20:26 25.10.2021
5738 Clear 25 1010 41 10000 8.23 280 19:43 25.10.2021
5739 Clear 25 1010 41 10000 8.23 280 19:21 25.10.2021
5740 Clear 25 1010 38 10000 10.29 280 18:35 25.10.2021
5741 Clear 26 1009 34 10000 10.29 300 16:43 25.10.2021
5742 Clear 23 1007 42 10000 4.47 286 14:47 25.10.2021
5743 Clear 16 1008 55 10000 5.66 340 12:31 25.10.2021
5744 Clear 15 1007 55 10000 6.69 340 10:46 25.10.2021
5745 Clear 15 1007 55 10000 6.69 340 10:46 25.10.2021
5746 Clear 16 1008 50 10000 8.4 323 08:57 25.10.2021
5747 Clear 14 1010 62 10000 3.6 340 06:27 25.10.2021
5748 Clear 16 1010 55 10000 2.57 330 03:18 25.10.2021
5749 Clear 21 1009 37 10000 5.14 300 00:51 25.10.2021
5750 Clear 21 1009 37 10000 5.14 300 00:33 25.10.2021
5751 Clear 23 1009 31 10000 7.2 300 23:33 24.10.2021
5752 Clouds 23 1010 31 10000 9.26 290 22:38 24.10.2021
5753 Clouds 23 1009 36 10000 6.26 271 22:19 24.10.2021
5754 Clear 23 1009 40 10000 5.36 299 20:57 24.10.2021
5755 Clear 22 1009 41 10000 4.47 284 20:32 24.10.2021
5756 Clear 21 1011 43 10000 4.02 277 19:36 24.10.2021
5757 Clear 20 1013 42 10000 6.17 270 18:29 24.10.2021
5758 Clear 19 1013 45 10000 6.17 300 17:43 24.10.2021
5759 Clear 18 1013 49 10000 4.02 322 15:56 24.10.2021
5760 Clear 16 1013 55 10000 0.89 323 14:41 24.10.2021
5761 Clear 9 1012 81 10000 2.06 30 12:58 24.10.2021
5762 Clear 10 1012 76 10000 2.06 310 11:45 24.10.2021
5763 Clear 10 1012 76 10000 2.06 310 11:25 24.10.2021
5764 Clear 11 1011 71 10000 5.66 220 10:27 24.10.2021
5765 Clear 14 1010 62 10000 7.72 200 07:47 24.10.2021
5766 Clouds 14 1007 94 10000 3.09 300 01:22 24.10.2021
5767 Clouds 18 1005 80 10000 2.06 210 23:48 23.10.2021
5768 Clouds 19 1005 80 10000 0.89 244 22:18 23.10.2021
5769 Clouds 18 1005 85 10000 1.79 238 20:37 23.10.2021
5770 Clouds 18 1005 80 10000 1.79 228 18:59 23.10.2021
5771 Clouds 18 1005 79 10000 1.34 253 18:30 23.10.2021
5772 Rain 18 1006 84 10000 1.34 215 17:43 23.10.2021
5773 Rain 16 1006 82 10000 1.54 110 16:24 23.10.2021
5774 Clouds 15 1006 88 10000 5.14 90 14:35 23.10.2021
5775 Clouds 15 1008 94 10000 6.69 120 09:45 23.10.2021
5776 Rain 17 1009 88 7000 7.2 160 00:22 23.10.2021
5777 Rain 17 1009 88 4000 4.63 170 23:18 22.10.2021
5778 Clouds 21 1010 74 10000 2.24 186 20:50 22.10.2021
5779 Clouds 19 1010 78 10000 2.68 124 18:45 22.10.2021
5780 Clouds 19 1011 76 10000 2.24 108 17:44 22.10.2021
5781 Clear 19 1013 66 10000 2.24 270 15:37 22.10.2021
5782 Clear 19 1014 72 10000 2.24 269 14:23 22.10.2021
5783 Clear 13 1013 88 10000 3.6 10 11:33 22.10.2021
5784 Clear 13 1013 88 10000 3.6 10 10:48 22.10.2021
5785 Clear 14 1013 88 10000 4.12 20 09:56 22.10.2021
5786 Clear 14 1013 88 10000 3.6 20 08:36 22.10.2021
5787 Clear 15 1013 82 10000 4.12 20 07:25 22.10.2021
5788 Clear 18 1013 68 10000 3.6 50 03:48 22.10.2021
5789 Clear 19 1012 73 10000 4.02 62 00:19 22.10.2021
5790 Clouds 19 1013 69 10000 4.47 73 23:39 21.10.2021
5791 Clouds 19 1013 76 10000 4.02 64 22:21 21.10.2021
5792 Clouds 19 1013 75 10000 4.47 84 20:53 21.10.2021
5793 Clouds 19 1014 77 10000 4.92 72 20:19 21.10.2021
5794 Clouds 19 1014 78 10000 4.47 71 19:30 21.10.2021
5795 Clouds 19 1014 76 10000 4.02 69 18:52 21.10.2021
5796 Clouds 19 1015 76 10000 4.02 94 18:22 21.10.2021
5797 Clouds 20 1015 71 10000 4.02 97 17:42 21.10.2021
5798 Clouds 22 1016 56 10000 2.24 22 16:18 21.10.2021
5799 Clouds 21 1017 60 10000 2.68 332 15:21 21.10.2021
5800 Clouds 18 1018 63 10000 6.17 20 14:39 21.10.2021
5801 Clouds 16 1018 72 10000 6.69 20 13:26 21.10.2021
5802 Clear 12 1018 82 10000 3.6 30 11:27 21.10.2021
5803 Clear 13 1018 82 10000 4.12 30 08:59 21.10.2021
5804 Clear 14 1018 77 10000 4.63 30 07:29 21.10.2021
5805 Clear 15 1019 77 10000 5.14 40 05:33 21.10.2021
5806 Clear 18 1017 83 10000 5.36 67 23:45 20.10.2021
5807 Clouds 18 1017 80 10000 6.26 84 22:21 20.10.2021
5808 Clouds 18 1017 81 10000 5.36 94 21:43 20.10.2021
5809 Clouds 22 1018 53 10000 6.69 130 20:56 20.10.2021
5810 Clouds 22 1018 53 10000 5.66 110 20:35 20.10.2021
5811 Clouds 22 1018 53 10000 5.66 110 19:59 20.10.2021
5812 Clouds 24 1019 43 10000 4.12 30 18:59 20.10.2021
5813 Clouds 22 1020 49 10000 6.17 40 17:51 20.10.2021
5814 Clouds 20 1021 60 10000 6.17 20 15:47 20.10.2021
5815 Clear 14 1022 77 10000 5.66 40 12:33 20.10.2021
5816 Clear 12 1021 87 10000 2.57 30 09:19 20.10.2021
5817 Clear 15 1022 72 10000 4.63 70 05:23 20.10.2021
5818 Clear 17 1021 72 10000 6.17 130 00:53 20.10.2021
5819 Clear 17 1021 72 10000 6.17 130 00:26 20.10.2021
5820 Clear 20 1021 56 10000 5.14 160 21:47 19.10.2021
5821 Clear 20 1021 56 10000 5.14 160 21:27 19.10.2021
5822 Clouds 20 1021 52 10000 5.66 170 20:25 19.10.2021
5823 Clouds 21 1022 43 10000 1.54 100 19:45 19.10.2021
5824 Clouds 21 1022 43 10000 1.54 100 19:21 19.10.2021
5825 Clouds 20 1022 56 10000 2.06 100 18:23 19.10.2021
5826 Clear 16 1024 47 10000 0.59 15 16:24 19.10.2021
5827 Clouds 14 1024 82 10000 2.57 30 15:20 19.10.2021
5828 Mist 11 1024 87 10000 3.6 50 14:27 19.10.2021
5829 Fog 10 1024 87 10000 3.6 40 13:43 19.10.2021
5830 Clear 8 1022 93 6000 0 0 11:37 19.10.2021
5831 Mist 6 1022 100 2500 0 0 10:39 19.10.2021
5832 Rain 8 1022 93 7000 0 0 08:59 19.10.2021
5833 Rain 9 1022 93 10000 0 0 07:50 19.10.2021
5834 Clear 14 1021 58 10000 3.6 140 00:27 19.10.2021
5835 Clear 15 1021 51 10000 4.63 140 23:56 18.10.2021
5836 Clear 15 1021 51 10000 4.63 140 23:20 18.10.2021
5837 Clear 17 1021 45 10000 6.17 180 22:54 18.10.2021
5838 Clouds 17 1021 39 10000 5.14 180 21:54 18.10.2021
5839 Clouds 18 1021 36 10000 5.14 160 20:42 18.10.2021
5840 Clouds 18 1021 36 10000 5.14 160 20:20 18.10.2021
5841 Clouds 18 1022 63 10000 5.14 180 19:30 18.10.2021
5842 Clouds 18 1022 68 10000 5.14 180 18:58 18.10.2021
5843 Clouds 18 1022 72 10000 5.14 170 16:30 18.10.2021
5844 Clouds 16 1022 77 10000 1.54 0 14:33 18.10.2021
5845 Clear 11 1021 76 10000 1.54 10 11:47 18.10.2021
5846 Clear 11 1020 71 10000 2.57 350 09:47 18.10.2021
5847 Clouds 13 1020 69 10000 3.8 332 06:39 18.10.2021
5848 Clear 19 1019 48 10000 3.6 180 23:52 17.10.2021
5849 Clear 20 1019 45 10000 1.54 190 22:27 17.10.2021
5850 Clear 20 1019 45 10000 2.57 180 21:44 17.10.2021
5851 Clear 20 1020 45 10000 3.6 190 20:49 17.10.2021
5852 Clear 20 1020 45 10000 3.6 190 19:56 17.10.2021
5853 Clear 21 1020 43 10000 3.6 180 19:38 17.10.2021
5854 Clear 18 1022 47 10000 2.95 275 18:28 17.10.2021
5855 Clear 19 1022 39 10000 2.06 310 16:38 17.10.2021
5856 Clear 13 1022 62 10000 3.6 340 14:39 17.10.2021
5857 Clear 13 1022 62 10000 3.6 340 13:59 17.10.2021
5858 Clear 11 1022 66 10000 4.12 360 13:33 17.10.2021
5859 Clear 6 1021 75 10000 2.57 20 11:31 17.10.2021
5860 Clear 6 1021 75 10000 3.09 20 10:19 17.10.2021
5861 Clear 8 1021 61 10000 3.6 20 08:29 17.10.2021
5862 Clear 11 1023 50 10000 3.09 50 03:21 17.10.2021
5863 Clear 14 1022 41 10000 3.6 90 00:31 17.10.2021
5864 Clouds 17 1022 34 10000 4.12 180 22:54 16.10.2021
5865 Clouds 18 1023 32 10000 5.14 170 20:45 16.10.2021
5866 Clouds 18 1023 32 10000 5.14 170 20:27 16.10.2021
5867 Clouds 18 1023 34 10000 2.57 0 19:40 16.10.2021
5868 Clouds 18 1023 34 10000 2.57 0 19:19 16.10.2021
5869 Clouds 18 1023 34 10000 2.57 0 19:19 16.10.2021
5870 Clouds 17 1024 39 10000 3.6 160 18:44 16.10.2021
5871 Clouds 17 1024 39 10000 3.6 160 18:23 16.10.2021
5872 Clouds 17 1025 39 10000 3.6 180 17:33 16.10.2021
5873 Clouds 16 1025 36 10000 2.57 0 16:20 16.10.2021
5874 Clear 9 1025 76 10000 1.03 0 13:26 16.10.2021
5875 Clear 5 1025 87 10000 1.54 340 11:25 16.10.2021
5876 Clear 5 1025 87 10000 1.54 300 09:35 16.10.2021
5877 Clear 11 1024 58 10000 2.06 30 04:33 16.10.2021
5878 Clear 13 1023 50 10000 5.14 130 01:22 16.10.2021
5879 Clear 14 1022 44 10000 6.17 160 23:27 15.10.2021
5880 Clouds 15 1021 51 10000 7.2 180 22:21 15.10.2021
5881 Clouds 15 1021 55 10000 8.23 170 21:41 15.10.2021
5882 Clouds 15 1021 55 10000 7.2 170 20:54 15.10.2021
5883 Clouds 15 1021 55 10000 7.2 170 20:35 15.10.2021
5884 Clouds 15 1021 55 10000 7.72 170 19:20 15.10.2021
5885 Clouds 16 1021 55 10000 8.23 180 18:22 15.10.2021
5886 Clouds 15 1020 71 10000 5.81 200 16:19 15.10.2021
5887 Clouds 15 1019 79 10000 7.15 207 14:26 15.10.2021
5888 Clouds 13 1018 71 10000 5.66 200 12:26 15.10.2021
5889 Clouds 13 1016 71 10000 5.66 210 11:19 15.10.2021
5890 Clouds 14 1016 67 10000 5.66 210 10:32 15.10.2021
5891 Clouds 14 1013 67 10000 6.69 210 08:21 15.10.2021
5892 Clouds 15 1013 67 10000 10.29 190 05:30 15.10.2021
5893 Clouds 19 1005 81 10000 0.45 222 00:25 15.10.2021
5894 Clear 19 1005 82 10000 0.45 217 23:26 14.10.2021
5895 Clear 19 1004 78 10000 0.45 235 22:39 14.10.2021
5896 Clear 20 1003 74 10000 1.79 190 21:40 14.10.2021
5897 Clouds 20 1003 80 10000 2.24 251 20:22 14.10.2021
5898 Clouds 19 1003 85 10000 3.58 275 19:49 14.10.2021
5899 Clouds 18 1004 86 10000 3.58 265 18:44 14.10.2021
5900 Clouds 19 1004 84 10000 3.13 271 16:59 14.10.2021
5901 Clouds 19 1003 83 10000 2.68 284 16:33 14.10.2021
5902 Clouds 18 1003 91 10000 1.34 193 14:55 14.10.2021
5903 Clouds 18 1003 92 10000 1.34 203 14:27 14.10.2021
5904 Clouds 17 1004 94 10000 1.54 0 13:34 14.10.2021
5905 Mist 16 1004 100 2000 0 0 11:35 14.10.2021
5906 Clouds 16 1003 100 10000 2.06 150 09:28 14.10.2021
5907 Clouds 16 1005 91 10000 1.76 94 06:21 14.10.2021
5908 Rain 17 1007 92 10000 2 141 00:43 14.10.2021
5909 Rain 18 1005 88 10000 0.45 203 22:42 13.10.2021
5910 Rain 18 1005 85 10000 0.89 255 21:37 13.10.2021
5911 Rain 19 1005 86 10000 1.34 256 20:45 13.10.2021
5912 Rain 19 1005 86 10000 1.34 256 20:45 13.10.2021
5913 Rain 19 1007 87 10000 3.13 266 19:24 13.10.2021
5914 Rain 19 1007 88 10000 1.34 238 18:38 13.10.2021
5915 Rain 18 1007 88 10000 2.24 186 17:22 13.10.2021
5916 Clear 17 1008 94 10000 1.34 116 14:47 13.10.2021
5917 Mist 17 1008 94 10000 1.34 72 14:25 13.10.2021
5918 Mist 15 1009 94 3000 2.06 50 12:48 13.10.2021
5919 Fog 13 1009 100 100 0 0 11:37 13.10.2021
5920 Fog 13 1010 100 50 0 0 10:18 13.10.2021
5921 Clouds 16 1010 93 10000 1.29 325 07:53 13.10.2021
5922 Clouds 17 1012 88 10000 0 0 03:39 13.10.2021
5923 Clouds 17 1011 88 10000 0 0 02:21 13.10.2021
5924 Clouds 17 1010 93 10000 2.24 78 23:36 12.10.2021
5925 Clouds 17 1010 93 10000 2.68 110 22:51 12.10.2021
5926 Clouds 17 1010 93 10000 3.13 127 22:29 12.10.2021
5927 Clouds 17 1011 93 10000 0.89 157 20:54 12.10.2021
5928 Clouds 17 1011 94 10000 0.89 125 20:31 12.10.2021
5929 Clouds 17 1011 94 10000 0.89 103 19:42 12.10.2021
5930 Clouds 17 1012 95 10000 2.24 106 18:26 12.10.2021
5931 Clouds 17 1012 95 10000 1.79 55 17:21 12.10.2021
5932 Drizzle 17 1012 95 6000 3.58 69 16:24 12.10.2021
5933 Clouds 16 1012 96 6000 3.58 65 15:33 12.10.2021
5934 Drizzle 16 1013 100 300 1.54 100 13:46 12.10.2021
5935 Drizzle 16 1013 100 300 1.54 100 13:18 12.10.2021
5936 Drizzle 16 1012 100 5000 3.09 110 11:30 12.10.2021
5937 Mist 15 1012 100 5000 4.63 100 09:41 12.10.2021
5938 Clouds 15 1012 100 8000 4.63 110 08:31 12.10.2021
5939 Drizzle 15 1012 100 5000 4.63 130 06:46 12.10.2021
5940 Clouds 15 1013 100 10000 3.6 130 04:49 12.10.2021
5941 Clouds 15 1013 100 10000 3.6 120 04:28 12.10.2021
5942 Mist 16 1012 95 4000 3.58 59 23:56 11.10.2021
5943 Mist 16 1012 95 4000 3.58 59 23:36 11.10.2021
5944 Clouds 16 1012 95 8000 4.02 100 22:52 11.10.2021
5945 Drizzle 15 1012 95 8000 8.05 119 21:27 11.10.2021
5946 Drizzle 15 1013 95 8000 5.81 90 20:31 11.10.2021
5947 Drizzle 15 1014 95 3000 6.71 74 19:36 11.10.2021
5948 Drizzle 15 1015 95 6000 5.36 107 18:23 11.10.2021
5949 Drizzle 16 1016 94 3000 4.12 100 16:41 11.10.2021
5950 Clouds 15 1016 94 2500 4.12 100 16:21 11.10.2021
5951 Drizzle 15 1016 94 6000 5.14 100 15:45 11.10.2021
5952 Drizzle 15 1016 94 6000 5.14 100 14:54 11.10.2021
5953 Clouds 15 1017 94 5000 5.14 110 14:22 11.10.2021
5954 Rain 15 1017 94 2000 4.12 120 13:35 11.10.2021
5955 Rain 15 1017 94 5000 4.63 120 11:24 11.10.2021
5956 Rain 16 1017 82 10000 2.57 110 09:47 11.10.2021
5957 Rain 16 1018 82 10000 2.06 110 08:40 11.10.2021
5958 Clouds 17 1019 72 10000 5.14 70 01:47 11.10.2021
5959 Clouds 17 1019 72 10000 5.14 70 01:20 11.10.2021
5960 Clouds 18 1018 72 10000 4.63 90 00:42 11.10.2021
5961 Clouds 17 1018 86 10000 5.36 72 22:42 10.10.2021
5962 Clouds 17 1018 86 10000 4.02 117 21:50 10.10.2021
5963 Rain 17 1017 85 10000 5.81 90 21:26 10.10.2021
5964 Clouds 17 1018 85 10000 5.81 75 20:40 10.10.2021
5965 Clouds 17 1018 85 10000 5.81 73 20:20 10.10.2021
5966 Clouds 17 1018 84 10000 6.26 71 19:49 10.10.2021
5967 Clouds 17 1018 85 10000 5.36 76 19:30 10.10.2021
5968 Clouds 17 1019 85 10000 6.26 78 18:23 10.10.2021
5969 Clear 17 1020 82 10000 6.26 86 15:54 10.10.2021
5970 Clear 17 1020 83 10000 5.81 97 15:35 10.10.2021
5971 Clear 14 1020 77 10000 5.66 90 13:41 10.10.2021
5972 Clear 12 1020 82 10000 5.14 90 12:44 10.10.2021
5973 Clear 12 1020 82 10000 3.6 80 11:59 10.10.2021
5974 Clear 12 1020 82 10000 3.09 100 10:30 10.10.2021
5975 Clear 12 1020 82 10000 2.57 100 09:19 10.10.2021
5976 Clear 13 1020 76 10000 1.54 90 08:51 10.10.2021
5977 Clear 14 1021 72 10000 4.12 90 04:57 10.10.2021
5978 Clear 15 1021 77 10000 5.66 100 02:20 10.10.2021
5979 Clear 16 1019 72 10000 6.17 120 00:50 10.10.2021
5980 Clear 16 1019 83 10000 7.6 96 23:45 09.10.2021
5981 Clouds 16 1019 79 10000 7.6 110 22:20 09.10.2021
5982 Clouds 17 1019 79 10000 5.81 113 21:30 09.10.2021
5983 Clouds 16 1019 79 10000 7.15 142 20:42 09.10.2021
5984 Clouds 16 1019 81 10000 6.26 115 19:41 09.10.2021
5985 Clouds 16 1020 82 10000 5.36 90 18:48 09.10.2021
5986 Clouds 16 1020 81 10000 5.81 117 18:26 09.10.2021
5987 Clouds 16 1021 81 10000 4.02 103 16:21 09.10.2021
5988 Clouds 16 1021 77 10000 3.13 70 14:37 09.10.2021
5989 Clear 13 1021 67 10000 4.12 100 13:39 09.10.2021
5990 Clouds 8 1021 76 10000 3.09 120 12:35 09.10.2021
5991 Clear 8 1021 76 10000 0 0 10:47 09.10.2021
5992 Clear 8 1021 76 10000 0 0 10:21 09.10.2021
5993 Clear 7 1021 81 10000 0 0 09:29 09.10.2021
5994 Clear 9 1021 61 10000 0 0 08:20 09.10.2021
5995 Clear 10 1021 62 10000 0 0 06:46 09.10.2021
5996 Clear 9 1021 66 10000 2.06 90 05:20 09.10.2021
5997 Clear 12 1020 58 10000 5.66 100 02:47 09.10.2021
5998 Clear 13 1019 70 10000 5.81 113 00:43 09.10.2021
5999 Rain 13 1019 67 10000 5.81 129 23:35 08.10.2021
6000 Clouds 13 1019 66 10000 4.92 123 22:47 08.10.2021
6001 Clear 13 1019 59 10000 5.36 127 21:47 08.10.2021
6002 Clouds 13 1018 63 10000 5.81 125 20:31 08.10.2021
6003 Clear 13 1020 65 10000 4.02 82 18:23 08.10.2021
6004 Clear 13 1020 61 10000 4.47 126 17:18 08.10.2021
6005 Clear 13 1020 67 10000 3.58 123 16:44 08.10.2021
6006 Clear 13 1020 68 10000 4.02 136 16:22 08.10.2021
6007 Clear 10 1021 76 10000 3.09 80 13:48 08.10.2021
6008 Clear 6 1020 81 10000 0 0 11:56 08.10.2021
6009 Clear 6 1020 87 10000 0 0 10:47 08.10.2021
6010 Clear 6 1020 87 10000 0 0 10:25 08.10.2021
6011 Clear 7 1021 81 10000 3.09 70 06:49 08.10.2021
6012 Clear 12 1021 69 10000 4.47 132 23:28 07.10.2021
6013 Clear 12 1021 70 10000 4.47 122 22:55 07.10.2021
6014 Clear 12 1021 64 10000 2.24 133 21:30 07.10.2021
6015 Clouds 12 1021 67 10000 3.58 134 20:43 07.10.2021
6016 Clouds 12 1022 67 10000 1.79 155 19:39 07.10.2021
6017 Clouds 12 1022 67 10000 2.24 152 18:59 07.10.2021
6018 Clouds 12 1023 66 10000 3.13 138 17:35 07.10.2021
6019 Clouds 12 1023 67 10000 2.68 124 16:42 07.10.2021
6020 Clouds 12 1023 65 10000 1.34 161 14:56 07.10.2021
6021 Clouds 10 1023 62 10000 3.6 160 13:44 07.10.2021
6022 Clouds 10 1023 62 10000 3.6 160 13:20 07.10.2021
6023 Clouds 9 1022 61 10000 4.12 170 11:26 07.10.2021
6024 Clouds 9 1022 61 10000 4.12 170 10:47 07.10.2021
6025 Clear 9 1023 63 10000 3.85 159 09:47 07.10.2021
6026 Clear 10 1023 62 10000 4.26 159 08:55 07.10.2021
6027 Clear 10 1023 62 10000 4.97 159 08:20 07.10.2021
6028 Clouds 10 1022 57 10000 3.6 170 07:39 07.10.2021
6029 Clouds 10 1023 61 10000 5.4 164 06:47 07.10.2021
6030 Clouds 11 1022 71 10000 7.72 170 00:59 07.10.2021
6031 Clouds 12 1022 66 10000 7.72 180 23:30 06.10.2021
6032 Clouds 13 1021 67 10000 6.69 200 22:40 06.10.2021
6033 Clouds 14 1021 58 10000 6.69 200 21:40 06.10.2021
6034 Clouds 15 1020 66 10000 6.26 235 20:33 06.10.2021
6035 Clouds 14 1020 66 10000 6.71 197 19:23 06.10.2021
6036 Clouds 14 1020 69 10000 7.15 202 17:56 06.10.2021
6037 Clouds 14 1019 72 10000 7.6 197 16:40 06.10.2021
6038 Clouds 13 1019 82 10000 7.72 190 15:18 06.10.2021
6039 Clouds 14 1017 77 10000 2.57 240 13:31 06.10.2021
6040 Clear 9 1016 81 10000 0 0 12:47 06.10.2021
6041 Clear 9 1016 81 10000 0 0 12:28 06.10.2021
6042 Clear 9 1015 81 10000 2.06 20 11:38 06.10.2021
6043 Clear 10 1015 76 10000 0 0 09:40 06.10.2021
6044 Clear 11 1014 71 10000 5.39 355 08:59 06.10.2021
6045 Clear 11 1014 71 10000 5.39 355 08:39 06.10.2021
6046 Clear 12 1015 66 10000 2.57 20 06:18 06.10.2021
6047 Clear 15 1015 55 10000 2.57 20 02:52 06.10.2021
6048 Clear 18 1014 70 10000 0.89 90 00:24 06.10.2021
6049 Clear 18 1014 67 10000 0.89 90 23:51 05.10.2021
6050 Clear 18 1014 67 10000 1.34 98 23:31 05.10.2021
6051 Clear 18 1014 66 10000 2.24 147 22:35 05.10.2021
6052 Clear 18 1014 65 10000 2.24 167 21:57 05.10.2021
6053 Clear 18 1014 65 10000 2.24 167 21:57 05.10.2021
6054 Clear 19 1013 65 10000 2.68 191 21:29 05.10.2021
6055 Clear 20 1014 63 10000 2.24 186 20:33 05.10.2021
6056 Clear 23 1016 33 10000 4.63 340 19:51 05.10.2021
6057 Clear 23 1016 33 10000 4.63 340 19:25 05.10.2021
6058 Clear 22 1017 40 10000 5.66 340 18:21 05.10.2021
6059 Clear 18 1018 51 10000 4.92 329 15:36 05.10.2021
6060 Clear 16 1017 56 10000 4.47 346 13:52 05.10.2021
6061 Clear 11 1018 66 10000 5.14 360 13:26 05.10.2021
6062 Clear 9 1017 71 10000 5.14 10 12:35 05.10.2021
6063 Clear 7 1017 81 10000 3.09 20 11:41 05.10.2021
6064 Clear 7 1017 76 10000 2.57 10 10:37 05.10.2021
6065 Clear 9 1018 66 10000 3.09 20 08:36 05.10.2021
6066 Clear 14 1017 38 10000 1.54 20 01:47 05.10.2021
6067 Clear 18 1016 36 10000 2.06 270 22:56 04.10.2021
6068 Clouds 18 1016 36 10000 2.24 281 21:38 04.10.2021
6069 Clouds 17 1017 55 10000 5.36 268 18:52 04.10.2021
6070 Clouds 16 1018 51 10000 5.36 303 17:32 04.10.2021
6071 Clear 15 1018 51 10000 2.68 265 15:50 04.10.2021
6072 Clear 15 1018 53 10000 2.68 282 15:24 04.10.2021
6073 Clear 14 1018 60 10000 2.68 292 14:34 04.10.2021
6074 Clear 12 1018 66 10000 1.54 0 13:32 04.10.2021
6075 Clear 7 1017 76 10000 1.03 0 12:50 04.10.2021
6076 Clear 9 1016 66 10000 2.06 250 11:34 04.10.2021
6077 Clear 11 1016 54 10000 2.57 240 10:47 04.10.2021
6078 Clear 12 1016 50 10000 2.57 240 09:45 04.10.2021
6079 Clouds 13 1015 54 10000 4.12 230 07:54 04.10.2021
6080 Clouds 11 1015 58 10000 3.09 240 06:50 04.10.2021
6081 Clouds 14 1013 51 10000 2.68 212 23:38 03.10.2021
6082 Clouds 15 1013 52 10000 3.58 272 22:30 03.10.2021
6083 Clouds 15 1013 52 10000 4.02 215 21:34 03.10.2021
6084 Clouds 14 1013 54 10000 4.47 269 20:49 03.10.2021
6085 Clouds 14 1013 56 10000 4.47 275 19:49 03.10.2021
6086 Clouds 14 1013 62 10000 3.58 273 18:30 03.10.2021
6087 Clouds 13 1013 66 10000 3.58 257 17:37 03.10.2021
6088 Clouds 13 1013 72 10000 3.13 263 15:30 03.10.2021
6089 Clouds 13 1013 73 10000 3.13 227 14:31 03.10.2021
6090 Clouds 13 1013 73 10000 3.13 227 14:31 03.10.2021
6091 Clouds 13 1012 74 10000 3.58 176 13:36 03.10.2021
6092 Clouds 11 1013 76 10000 3.09 220 12:47 03.10.2021
6093 Clear 12 1011 66 10000 7.72 220 11:40 03.10.2021
6094 Clouds 13 1011 71 10000 6.69 220 10:21 03.10.2021
6095 Clear 13 1010 76 10000 5.14 280 06:42 03.10.2021
6096 Rain 19 1010 62 6000 1.79 271 22:59 02.10.2021
6097 Rain 19 1010 64 10000 1.34 283 21:59 02.10.2021
6098 Rain 22 1010 37 10000 2.68 282 20:34 02.10.2021
6099 Clear 21 1009 39 10000 4.92 21 18:57 02.10.2021
6100 Clear 20 1008 42 10000 6.71 34 18:20 02.10.2021
6101 Clear 20 1009 37 10000 6.26 41 17:38 02.10.2021
6102 Clear 19 1011 39 10000 6.26 37 16:39 02.10.2021
6103 Clear 11 1014 71 10000 0 0 07:51 02.10.2021
6104 Clear 18 1010 69 10000 8.94 53 15:37 30.09.2021
6105 Clouds 17 1012 75 10000 8.05 53 14:22 30.09.2021
6106 Clouds 14 1013 82 10000 5.14 50 11:58 30.09.2021
6107 Clouds 13 1013 88 10000 4.12 50 10:55 30.09.2021
6108 Clouds 13 1013 88 10000 4.12 50 10:25 30.09.2021
6109 Clouds 13 1013 88 10000 4.12 50 10:25 30.09.2021
6110 Clear 14 1014 82 10000 5.14 60 08:32 30.09.2021
6111 Clouds 14 1015 82 10000 5.66 60 07:45 30.09.2021
6112 Clouds 14 1017 82 10000 4.63 80 05:25 30.09.2021
6113 Clear 16 1018 72 10000 4.63 70 02:33 30.09.2021
6114 Clear 18 1017 63 10000 4.12 60 00:31 30.09.2021
6115 Clear 16 1016 82 10000 5.81 80 22:41 29.09.2021
6116 Clear 16 1016 83 10000 6.71 84 21:42 29.09.2021
6117 Clouds 16 1017 83 10000 6.26 99 20:31 29.09.2021
6118 Clouds 16 1018 81 10000 5.36 99 19:58 29.09.2021
6119 Clouds 16 1018 80 10000 5.81 50 19:18 29.09.2021
6120 Clouds 18 1021 59 10000 3.6 70 17:58 29.09.2021
6121 Clouds 17 1022 63 10000 4.12 70 16:55 29.09.2021
6122 Clouds 17 1022 63 10000 4.12 70 16:25 29.09.2021
6123 Clouds 14 1022 82 10000 5.66 90 14:42 29.09.2021
6124 Clouds 14 1022 82 10000 5.66 90 14:20 29.09.2021
6125 Clouds 12 1021 87 10000 4.63 90 13:32 29.09.2021
6126 Clear 10 1021 93 10000 3.6 90 12:38 29.09.2021
6127 Clear 11 1021 93 10000 3.09 100 10:57 29.09.2021
6128 Clear 11 1021 93 10000 0 0 10:25 29.09.2021
6129 Clear 11 1020 93 10000 1.54 90 09:39 29.09.2021
6130 Clear 11 1021 93 10000 0 0 07:48 29.09.2021
6131 Clear 13 1021 88 10000 4.12 90 05:52 29.09.2021
6132 Clouds 15 1020 90 10000 5.81 127 23:47 28.09.2021
6133 Clouds 15 1020 91 10000 6.26 114 22:25 28.09.2021
6134 Clouds 15 1019 91 10000 5.36 100 21:45 28.09.2021
6135 Clouds 15 1020 91 10000 4.92 126 20:44 28.09.2021
6136 Clouds 15 1020 93 10000 5.36 95 19:48 28.09.2021
6137 Clouds 15 1020 93 10000 5.81 116 19:25 28.09.2021
6138 Clouds 15 1020 93 10000 6.26 75 18:40 28.09.2021
6139 Drizzle 15 1021 95 3000 7.15 126 16:42 28.09.2021
6140 Drizzle 14 1022 94 3000 4.63 140 14:53 28.09.2021
6141 Mist 14 1021 94 6000 4.12 140 13:25 28.09.2021
6142 Drizzle 14 1020 94 4000 5.14 140 12:24 28.09.2021
6143 Drizzle 14 1020 94 5000 5.14 150 11:47 28.09.2021
6144 Clouds 14 1019 94 7000 6.17 150 11:25 28.09.2021
6145 Clouds 14 1018 94 8000 4.12 140 10:26 28.09.2021
6146 Clouds 14 1019 94 8000 3.6 130 09:25 28.09.2021
6147 Clouds 14 1020 94 7000 2.57 130 08:43 28.09.2021
6148 Clouds 15 1020 88 8000 3.6 120 07:49 28.09.2021
6149 Clouds 15 1020 88 8000 4.63 110 06:23 28.09.2021
6150 Clouds 14 1019 88 10000 7.2 110 01:29 28.09.2021
6151 Clouds 14 1018 88 10000 7.72 120 00:28 28.09.2021
6152 Clouds 15 1018 92 10000 8.05 100 23:48 27.09.2021
6153 Clouds 15 1018 92 10000 8.05 100 23:23 27.09.2021
6154 Clouds 14 1018 93 10000 8.49 119 22:20 27.09.2021
6155 Clouds 14 1018 92 10000 8.05 130 20:54 27.09.2021
6156 Rain 15 1018 92 10000 8.49 125 20:24 27.09.2021
6157 Clouds 14 1018 93 10000 7.6 147 19:36 27.09.2021
6158 Clouds 15 1018 92 10000 7.6 136 18:52 27.09.2021
6159 Clouds 15 1018 92 10000 7.6 136 18:52 27.09.2021
6160 Clouds 15 1019 92 10000 7.15 143 17:37 27.09.2021
6161 Clouds 16 1019 92 10000 6.26 67 16:56 27.09.2021
6162 Clouds 16 1019 92 10000 7.15 123 16:33 27.09.2021
6163 Clouds 16 1020 92 10000 6.71 123 15:36 27.09.2021
6164 Clouds 15 1020 88 10000 5.14 110 13:44 27.09.2021
6165 Mist 14 1019 94 10000 4.12 110 12:22 27.09.2021
6166 Mist 14 1019 100 5000 5.14 120 10:48 27.09.2021
6167 Mist 14 1019 100 2000 5.66 130 09:40 27.09.2021
6168 Clouds 15 1019 94 10000 5.14 150 07:44 27.09.2021
6169 Clouds 17 1018 67 10000 2.06 110 03:31 27.09.2021
6170 Clouds 18 1016 83 10000 2.68 134 23:49 26.09.2021
6171 Clouds 19 1016 77 10000 2.68 155 21:57 26.09.2021
6172 Clouds 19 1016 76 10000 3.13 167 21:27 26.09.2021
6173 Clouds 20 1015 75 10000 3.13 167 20:25 26.09.2021
6174 Clouds 20 1015 75 10000 3.58 146 19:54 26.09.2021
6175 Clouds 20 1016 71 10000 2.68 181 19:25 26.09.2021
6176 Clouds 20 1016 71 10000 2.68 181 19:25 26.09.2021
6177 Clouds 20 1016 71 10000 2.68 181 19:25 26.09.2021
6178 Clouds 21 1016 69 10000 2.68 194 18:41 26.09.2021
6179 Clouds 21 1017 56 10000 4.12 350 17:38 26.09.2021
6180 Clouds 21 1017 56 10000 4.12 350 17:20 26.09.2021
6181 Clouds 20 1016 71 10000 1.34 350 16:23 26.09.2021
6182 Clouds 19 1017 77 10000 2.24 343 15:27 26.09.2021
6183 Clouds 18 1017 86 10000 3.13 332 14:22 26.09.2021
6184 Clear 13 1017 100 10000 2.57 20 13:42 26.09.2021
6185 Mist 10 1017 100 3000 2.06 20 12:31 26.09.2021
6186 Fog 11 1016 100 5000 2.06 10 11:56 26.09.2021
6187 Mist 11 1016 100 5000 0 0 11:26 26.09.2021
6188 Fog 11 1016 100 5000 0 0 09:51 26.09.2021
6189 Fog 11 1016 100 2000 0 0 08:41 26.09.2021
6190 Clear 15 1016 94 10000 5.14 110 01:18 26.09.2021
6191 Clear 16 1016 89 10000 4.92 77 00:18 26.09.2021
6192 Clouds 17 1016 86 10000 4.92 75 22:39 25.09.2021
6193 Clouds 17 1016 85 10000 5.36 66 22:20 25.09.2021
6194 Clouds 17 1016 84 10000 5.36 85 21:46 25.09.2021
6195 Clouds 17 1017 85 10000 4.92 69 20:53 25.09.2021
6196 Clouds 17 1018 84 10000 4.02 98 19:41 25.09.2021
6197 Clouds 17 1019 85 10000 4.47 102 18:31 25.09.2021
6198 Clouds 17 1020 87 10000 3.58 109 17:46 25.09.2021
6199 Clouds 16 1022 90 10000 3.58 113 14:46 25.09.2021
6200 Clouds 15 1022 92 10000 2.68 70 13:55 25.09.2021
6201 Clouds 14 1022 88 10000 1.03 0 12:46 25.09.2021
6202 Clouds 14 1022 88 10000 1.03 0 12:46 25.09.2021
6203 Clouds 14 1022 94 10000 0 0 11:29 25.09.2021
6204 Clouds 14 1022 94 10000 1.54 60 10:20 25.09.2021
6205 Clouds 14 1022 94 10000 1.54 50 09:22 25.09.2021
6206 Clouds 14 1023 100 10000 4.12 110 07:49 25.09.2021
6207 Clouds 14 1023 82 10000 3.6 140 00:56 25.09.2021
6208 Clouds 15 1023 87 10000 4.47 152 23:25 24.09.2021
6209 Clouds 15 1023 85 10000 4.02 194 21:39 24.09.2021
6210 Clouds 15 1023 85 10000 4.02 163 20:32 24.09.2021
6211 Clouds 14 1023 85 10000 4.47 176 19:43 24.09.2021
6212 Clouds 15 1024 84 10000 4.47 186 18:29 24.09.2021
6213 Clouds 14 1024 85 10000 4.47 186 17:53 24.09.2021
6214 Clouds 14 1024 85 10000 4.02 176 17:34 24.09.2021
6215 Clouds 15 1025 72 10000 4.63 180 16:35 24.09.2021
6216 Clouds 13 1024 88 10000 2.06 150 13:41 24.09.2021
6217 Clouds 13 1023 82 10000 3.09 140 12:44 24.09.2021
6218 Clouds 13 1023 82 10000 3.09 140 12:26 24.09.2021
6219 Clouds 13 1023 88 10000 2.57 140 11:28 24.09.2021
6220 Clouds 13 1022 88 10000 2.57 120 09:59 24.09.2021
6221 Clouds 13 1022 88 10000 3.6 130 08:24 24.09.2021
6222 Clouds 13 1022 88 10000 5.66 120 07:31 24.09.2021
6223 Clouds 14 1023 82 10000 5.66 130 06:24 24.09.2021
6224 Clouds 14 1022 82 10000 4.63 120 04:52 24.09.2021
6225 Clear 15 1021 87 10000 4.92 147 22:44 23.09.2021
6226 Clear 15 1020 86 10000 6.71 137 21:59 23.09.2021
6227 Clouds 15 1020 85 10000 6.71 137 21:37 23.09.2021
6228 Clouds 15 1021 84 10000 6.26 139 20:32 23.09.2021
6229 Clouds 16 1021 84 10000 5.36 78 18:56 23.09.2021
6230 Clouds 15 1023 86 10000 4.02 96 16:49 23.09.2021
6231 Clouds 14 1024 82 9000 3.09 130 15:20 23.09.2021
6232 Rain 13 1024 88 9000 3.09 140 14:58 23.09.2021
6233 Rain 12 1023 82 10000 3.09 120 13:40 23.09.2021
6234 Rain 12 1023 82 10000 3.09 120 13:18 23.09.2021
6235 Rain 12 1023 82 8000 4.12 120 12:46 23.09.2021
6236 Rain 12 1023 82 10000 2.57 130 12:21 23.09.2021
6237 Rain 13 1022 76 10000 2.06 80 10:42 23.09.2021
6238 Clear 13 1022 76 10000 2.06 80 10:19 23.09.2021
6239 Clear 13 1022 76 10000 2.57 120 09:48 23.09.2021
6240 Clear 13 1023 71 10000 3.6 90 06:32 23.09.2021
6241 Clouds 14 1023 77 10000 5.14 110 00:28 23.09.2021
6242 Rain 15 1024 84 10000 6.26 102 22:58 22.09.2021
6243 Rain 15 1024 84 10000 5.36 98 22:23 22.09.2021
6244 Clouds 15 1024 83 10000 4.92 94 21:46 22.09.2021
6245 Clouds 15 1024 83 10000 4.92 94 21:46 22.09.2021
6246 Clouds 15 1024 82 10000 5.36 67 20:59 22.09.2021
6247 Clouds 15 1024 82 10000 4.47 111 20:38 22.09.2021
6248 Clouds 15 1024 81 10000 4.92 131 19:27 22.09.2021
6249 Clouds 16 1024 78 10000 4.47 75 18:36 22.09.2021
6250 Clouds 15 1025 81 10000 4.92 71 17:38 22.09.2021
6251 Clouds 15 1025 83 10000 5.36 65 16:36 22.09.2021
6252 Clouds 14 1026 80 10000 5.36 88 14:37 22.09.2021
6253 Mist 12 1027 94 4000 2.06 120 13:24 22.09.2021
6254 Mist 9 1026 100 5000 0 0 11:34 22.09.2021
6255 Mist 7 1026 93 5000 2.06 290 10:18 22.09.2021
6256 Clouds 11 1026 87 10000 2.57 110 08:52 22.09.2021
6257 Clouds 10 1027 87 10000 0 0 07:49 22.09.2021
6258 Clouds 11 1028 82 10000 2.06 80 06:56 22.09.2021
6259 Clouds 12 1028 76 10000 5.14 110 05:51 22.09.2021
6260 Clouds 12 1028 76 10000 5.14 110 05:23 22.09.2021
6261 Clouds 12 1028 76 10000 4.63 190 03:43 22.09.2021
6262 Clouds 13 1028 78 10000 5.36 135 00:20 22.09.2021
6263 Clouds 13 1027 75 10000 7.15 167 22:43 21.09.2021
6264 Clouds 13 1027 73 10000 7.15 146 21:31 21.09.2021
6265 Clear 13 1027 74 10000 8.49 160 19:39 21.09.2021
6266 Clear 13 1027 74 10000 8.49 160 19:20 21.09.2021
6267 Clouds 13 1028 77 10000 6.26 181 16:59 21.09.2021
6268 Clouds 12 1028 78 10000 5.81 176 16:29 21.09.2021
6269 Clouds 12 1028 79 10000 5.81 181 15:31 21.09.2021
6270 Clouds 12 1027 82 10000 8.05 176 14:56 21.09.2021
6271 Clouds 12 1027 82 10000 8.05 176 14:56 21.09.2021
6272 Clouds 11 1027 83 10000 7.6 169 13:40 21.09.2021
6273 Clouds 10 1026 76 10000 7.2 180 13:19 21.09.2021
6274 Clear 11 1025 65 10000 8.04 165 11:21 21.09.2021
6275 Clouds 11 1023 76 10000 7.2 190 09:54 21.09.2021
6276 Clouds 12 1023 71 10000 7.72 190 07:51 21.09.2021
6277 Clear 12 1023 71 10000 7.72 180 06:38 21.09.2021
6278 Clouds 14 1019 82 10000 7.2 190 23:58 20.09.2021
6279 Clouds 15 1016 82 10000 7.2 180 22:18 20.09.2021
6280 Clouds 16 1016 82 10000 9.26 170 21:36 20.09.2021
6281 Clouds 15 1015 88 10000 11.32 170 20:29 20.09.2021
6282 Clouds 15 1014 96 6000 12.96 193 19:28 20.09.2021
6283 Drizzle 15 1013 97 1500 6.71 208 17:39 20.09.2021
6284 Drizzle 15 1013 97 2000 4.92 200 16:33 20.09.2021
6285 Fog 15 1012 97 800 2.24 233 15:49 20.09.2021
6286 Fog 15 1012 97 800 3.13 215 15:22 20.09.2021
6287 Fog 15 1011 100 800 6.17 210 13:45 20.09.2021
6288 Fog 15 1010 100 100 4.12 220 12:35 20.09.2021
6289 Fog 15 1009 100 200 2.06 230 11:23 20.09.2021
6290 Drizzle 15 1009 100 800 3.09 120 09:57 20.09.2021
6291 Drizzle 15 1009 100 800 3.09 120 09:36 20.09.2021
6292 Drizzle 15 1009 100 800 3.09 120 09:18 20.09.2021
6293 Fog 15 1011 100 600 4.63 160 06:55 20.09.2021
6294 Clouds 17 1011 90 10000 5.36 69 23:45 19.09.2021
6295 Rain 17 1011 88 10000 4.47 73 22:26 19.09.2021
6296 Rain 17 1011 88 10000 4.47 73 22:26 19.09.2021
6297 Clouds 17 1011 88 10000 4.47 80 21:40 19.09.2021
6298 Clouds 17 1011 88 10000 4.47 88 20:34 19.09.2021
6299 Clouds 17 1013 91 10000 4.02 59 19:23 19.09.2021
6300 Clouds 17 1013 86 10000 4.47 63 18:29 19.09.2021
6301 Clouds 17 1014 87 10000 5.36 53 17:23 19.09.2021
6302 Clouds 16 1015 89 10000 4.47 75 15:55 19.09.2021
6303 Clouds 16 1015 88 10000 4.47 80 15:30 19.09.2021
6304 Clouds 16 1015 88 10000 4.47 80 15:30 19.09.2021
6305 Clouds 16 1016 88 10000 5.81 84 14:48 19.09.2021
6306 Clouds 15 1015 82 10000 3.09 80 13:24 19.09.2021
6307 Clouds 14 1016 88 10000 3.6 80 12:50 19.09.2021
6308 Clouds 15 1016 88 10000 3.09 70 11:28 19.09.2021
6309 Clouds 14 1015 100 10000 2.06 70 10:53 19.09.2021
6310 Clouds 15 1015 94 10000 2.57 70 09:40 19.09.2021
6311 Clouds 14 1015 100 10000 3.09 80 08:35 19.09.2021
6312 Fog 13 1017 100 500 3.09 70 06:42 19.09.2021
6313 Mist 14 1015 94 3000 6.17 110 23:43 18.09.2021
6314 Mist 20 1014 68 10000 5.14 120 22:24 18.09.2021
6315 Haze 15 1015 91 5000 1.34 127 20:56 18.09.2021
6316 Haze 15 1015 91 5000 1.34 127 20:36 18.09.2021
6317 Clouds 16 1015 90 7000 2.68 166 19:39 18.09.2021
6318 Clouds 16 1015 90 7000 3.58 149 19:20 18.09.2021
6319 Clouds 16 1016 88 7000 2.68 170 18:32 18.09.2021
6320 Clouds 16 1016 90 10000 2.68 171 17:34 18.09.2021
6321 Rain 18 1017 82 10000 3.09 10 16:20 18.09.2021
6322 Mist 13 1017 100 4000 4.63 10 13:49 18.09.2021
6323 Mist 13 1017 100 4000 4.63 10 13:29 18.09.2021
6324 Mist 13 1017 100 1500 0.51 0 12:49 18.09.2021
6325 Mist 13 1017 100 5000 2.57 10 11:41 18.09.2021
6326 Mist 13 1017 100 1500 3.6 360 10:32 18.09.2021
6327 Mist 13 1017 50 2000 3.6 20 09:35 18.09.2021
6328 Mist 13 1017 50 2000 3.6 20 09:35 18.09.2021
6329 Clear 11 1017 100 10000 2.06 10 08:59 18.09.2021
6330 Clouds 12 1018 83 10000 3.68 29 05:51 18.09.2021
6331 Clear 15 1019 76 10000 3.14 29 00:42 18.09.2021
6332 Clear 16 1019 71 10000 3.28 35 23:50 17.09.2021
6333 Clear 18 1017 83 10000 2.24 63 22:38 17.09.2021
6334 Clear 18 1017 83 10000 2.24 119 22:19 17.09.2021
6335 Clear 17 1017 77 10000 2.68 84 21:23 17.09.2021
6336 Clear 18 1018 66 10000 3.13 102 19:23 17.09.2021
6337 Clear 21 1020 35 10000 7.72 50 17:25 17.09.2021
6338 Clear 19 1021 39 10000 6.17 30 16:27 17.09.2021
6339 Clear 14 1023 54 10000 5.14 30 14:23 17.09.2021
6340 Clear 9 1022 81 10000 2.06 20 10:53 17.09.2021
6341 Clear 10 1023 76 10000 3.09 20 08:52 17.09.2021
6342 Clear 13 1023 58 10000 3.6 30 07:19 17.09.2021
6343 Rain 15 1024 51 10000 1.54 50 03:54 17.09.2021
6344 Clear 21 1024 35 10000 1.03 0 23:35 16.09.2021
6345 Clear 22 1024 24 10000 2.06 250 22:28 16.09.2021
6346 Clear 22 1024 28 10000 3.09 250 21:51 16.09.2021
6347 Clear 22 1024 28 10000 3.09 250 21:24 16.09.2021
6348 Clear 21 1024 30 10000 3.6 270 20:19 16.09.2021
6349 Clear 20 1026 37 10000 5.14 270 18:21 16.09.2021
6350 Clear 20 1027 37 10000 5.66 270 17:33 16.09.2021
6351 Clear 16 1026 55 10000 4.47 329 14:58 16.09.2021
6352 Clear 13 1027 62 10000 4.12 320 14:26 16.09.2021
6353 Clear 7 1026 81 10000 3.09 350 12:51 16.09.2021
6354 Clear 7 1026 81 10000 3.09 350 12:29 16.09.2021
6355 Clear 9 1025 71 10000 3.6 350 11:28 16.09.2021
6356 Clear 9 1024 71 10000 3.09 330 10:34 16.09.2021
6357 Clear 9 1024 71 10000 3.09 350 09:58 16.09.2021
6358 Clear 9 1024 71 10000 2.57 340 08:42 16.09.2021
6359 Clear 9 1023 71 10000 3.09 350 07:36 16.09.2021
6360 Clear 9 1023 76 10000 2.57 360 06:47 16.09.2021
6361 Clear 9 1023 76 10000 3.09 360 05:40 16.09.2021
6362 Clear 13 1022 84 10000 3.09 10 01:56 16.09.2021
6363 Clear 13 1021 67 10000 2.57 330 00:37 16.09.2021
6364 Clear 16 1021 54 10000 4.63 290 22:47 15.09.2021
6365 Clear 16 1021 54 10000 6.17 280 21:48 15.09.2021
6366 Clear 16 1021 54 10000 6.17 280 21:29 15.09.2021
6367 Clear 17 1020 59 10000 3.13 288 20:22 15.09.2021
6368 Clear 17 1021 41 10000 3.58 334 19:28 15.09.2021
6369 Clear 16 1021 49 10000 3.13 297 18:23 15.09.2021
6370 Clouds 15 1022 51 10000 1.79 359 17:23 15.09.2021
6371 Clouds 14 1022 70 10000 2.24 323 15:59 15.09.2021
6372 Clear 13 1022 77 10000 2.68 282 14:45 15.09.2021
6373 Clear 11 1021 83 10000 1.79 319 13:55 15.09.2021
6374 Clear 8 1021 90 10000 2.57 340 13:37 15.09.2021
6375 Clear 7 1021 93 10000 2.57 340 13:18 15.09.2021
6376 Clear 5 1020 93 10000 2.06 360 11:52 15.09.2021
6377 Clear 5 1020 93 10000 2.06 360 11:32 15.09.2021
6378 Clear 6 1019 93 10000 2.06 340 10:55 15.09.2021
6379 Rain 6 1019 93 10000 1.03 300 09:30 15.09.2021
6380 Clear 6 1019 93 10000 1.54 320 08:20 15.09.2021
6381 Clear 10 1019 71 10000 3.09 210 05:37 15.09.2021
6382 Clouds 13 1015 74 10000 2.68 224 23:54 14.09.2021
6383 Clouds 14 1014 73 10000 3.58 219 21:42 14.09.2021
6384 Clouds 14 1013 74 10000 2.24 245 20:39 14.09.2021
6385 Clouds 14 1015 67 10000 8.23 220 19:42 14.09.2021
6386 Clouds 14 1014 74 10000 5.36 279 17:45 14.09.2021
6387 Clouds 14 1014 75 10000 4.02 259 17:27 14.09.2021
6388 Clouds 12 1015 79 10000 8.23 220 15:37 14.09.2021
6389 Clouds 12 1014 83 10000 6.17 230 14:31 14.09.2021
6390 Clouds 12 1011 83 10000 6.69 220 12:45 14.09.2021
6391 Clouds 13 1011 84 10000 3.6 230 10:54 14.09.2021
6392 Clouds 13 1011 84 10000 2.57 220 09:51 14.09.2021
6393 Clouds 13 1009 84 10000 5.66 150 08:41 14.09.2021
6394 Clouds 13 1011 84 8000 8.23 170 06:38 14.09.2021
6395 Fog 13 1009 95 500 4.63 150 00:33 14.09.2021
6396 Fog 14 1007 96 300 6.71 194 22:53 13.09.2021
6397 Fog 14 1007 96 300 6.71 186 22:24 13.09.2021
6398 Fog 14 1007 96 1000 5.36 181 21:51 13.09.2021
6399 Fog 14 1008 91 1000 5.14 130 20:51 13.09.2021
6400 Mist 15 1007 91 2000 5.66 150 19:22 13.09.2021
6401 Mist 15 1007 91 3000 6.17 130 18:39 13.09.2021
6402 Fog 14 1009 95 200 7.72 160 16:50 13.09.2021
6403 Fog 14 1008 95 1000 4.12 120 15:31 13.09.2021
6404 Mist 14 1005 91 5000 7.72 160 12:54 13.09.2021
6405 Clear 13 1009 84 10000 3.6 170 10:58 13.09.2021
6406 Clear 13 1009 84 10000 4.12 200 09:40 13.09.2021
6407 Clouds 13 1010 84 10000 4.12 200 04:59 13.09.2021
6408 Clouds 22 1006 73 10000 5.66 30 23:41 12.09.2021
6409 Clear 23 1005 64 10000 7.72 30 22:25 12.09.2021
6410 Clear 23 1005 64 10000 7.72 30 22:25 12.09.2021
6411 Clear 23 1005 64 10000 7.72 30 22:25 12.09.2021
6412 Clear 23 1006 64 10000 8.23 30 21:37 12.09.2021
6413 Clear 23 1006 64 10000 8.23 40 20:29 12.09.2021
6414 Clear 22 1008 64 10000 9.26 30 19:51 12.09.2021
6415 Clear 22 1008 64 10000 9.26 30 19:20 12.09.2021
6416 Clear 19 1008 77 10000 4.47 50 18:29 12.09.2021
6417 Rain 18 1009 81 10000 5.36 17 16:32 12.09.2021
6418 Clear 15 1009 87 10000 6.71 40 14:56 12.09.2021
6419 Clear 15 1009 87 10000 6.71 40 14:56 12.09.2021
6420 Rain 13 1012 87 10000 6.69 50 13:45 12.09.2021
6421 Clear 13 1012 84 10000 4.12 50 11:31 12.09.2021
6422 Clouds 13 1012 84 10000 5.66 40 09:35 12.09.2021
6423 Clear 13 1012 84 10000 5.14 40 08:38 12.09.2021
6424 Clouds 13 1015 84 10000 4.12 70 02:22 12.09.2021
6425 Clouds 14 1015 89 10000 5.36 61 23:38 11.09.2021
6426 Clouds 16 1017 72 10000 4.63 50 21:56 11.09.2021
6427 Clouds 16 1017 72 10000 4.63 50 20:59 11.09.2021
6428 Clouds 16 1017 72 10000 5.14 20 19:25 11.09.2021
6429 Clouds 14 1019 83 10000 3.09 70 17:38 11.09.2021
6430 Drizzle 14 1020 83 10000 2.06 40 15:51 11.09.2021
6431 Drizzle 12 1019 95 8000 1.54 0 13:49 11.09.2021
6432 Drizzle 12 1019 95 8000 1.54 0 13:18 11.09.2021
6433 Clouds 13 1018 84 10000 1.03 110 11:20 11.09.2021
6434 Clouds 13 1018 84 10000 1.54 290 09:40 11.09.2021
6435 Drizzle 13 1018 84 4000 1.03 270 07:45 11.09.2021
6436 Drizzle 13 1018 84 4000 1.03 240 06:52 11.09.2021
6437 Clouds 14 1016 93 10000 2.68 190 23:38 10.09.2021
6438 Drizzle 14 1016 92 10000 3.13 213 22:25 10.09.2021
6439 Drizzle 14 1015 92 10000 2.68 236 21:54 10.09.2021
6440 Clouds 14 1015 91 10000 3.13 194 20:25 10.09.2021
6441 Clouds 14 1015 92 10000 3.13 224 18:28 10.09.2021
6442 Drizzle 14 1015 94 4000 4.47 181 16:54 10.09.2021
6443 Drizzle 12 1015 95 800 5.66 210 14:52 10.09.2021
6444 Drizzle 12 1012 95 1500 5.66 220 12:43 10.09.2021
6445 Drizzle 13 1010 84 5000 5.66 230 09:27 10.09.2021
6446 Clouds 13 1010 84 10000 3.09 270 07:50 10.09.2021
6447 Clouds 13 1008 84 10000 0 0 02:31 10.09.2021
6448 Clouds 15 1005 87 10000 0.45 223 22:32 09.09.2021
6449 Clouds 15 1004 87 10000 3.09 260 21:45 09.09.2021
6450 Clouds 16 1004 85 10000 2.68 278 20:47 09.09.2021
6451 Clouds 15 1003 88 10000 1.34 231 19:58 09.09.2021
6452 Clouds 15 1003 91 10000 0.89 233 18:32 09.09.2021
6453 Rain 13 1003 93 10000 0.45 121 16:40 09.09.2021
6454 Rain 12 1002 95 10000 1.03 0 15:43 09.09.2021
6455 Rain 12 1001 95 6000 4.12 10 12:53 09.09.2021
6456 Rain 13 1001 84 9000 4.63 20 11:47 09.09.2021
6457 Rain 13 1001 84 10000 3.09 30 09:50 09.09.2021
6458 Clouds 13 1002 84 8000 4.63 360 08:50 09.09.2021
6459 Clouds 13 1003 84 10000 3.6 340 06:26 09.09.2021
6460 Clouds 13 1003 84 10000 1.54 300 02:36 09.09.2021
6461 Drizzle 16 1002 95 800 5.14 40 22:45 08.09.2021
6462 Drizzle 14 1002 96 800 3.13 74 21:35 08.09.2021
6463 Rain 14 1003 96 1500 4.02 67 19:56 08.09.2021
6464 Rain 14 1004 96 1500 4.47 72 19:22 08.09.2021
6465 Mist 14 1005 96 3000 4.92 88 18:29 08.09.2021
6466 Rain 14 1005 96 2000 4.92 104 17:56 08.09.2021
6467 Rain 14 1007 95 1500 5.14 110 16:34 08.09.2021
6468 Mist 14 1009 95 4000 4.12 120 14:26 08.09.2021
6469 Rain 13 1009 95 1500 5.14 120 12:54 08.09.2021
6470 Rain 13 1009 95 1500 5.14 120 12:27 08.09.2021
6471 Rain 13 1010 84 4300 6.69 120 11:38 08.09.2021
6472 Rain 13 1009 84 3700 6.69 120 10:38 08.09.2021
6473 Rain 13 1010 84 4000 5.66 120 10:20 08.09.2021
6474 Rain 13 1011 84 10000 6.69 110 08:54 08.09.2021
6475 Rain 13 1012 84 10000 6.17 120 07:38 08.09.2021
6476 Clouds 13 1012 84 7000 7.72 110 05:34 08.09.2021
6477 Rain 15 1012 87 10000 6.17 120 22:46 07.09.2021
6478 Rain 14 1012 91 10000 7.15 114 21:59 07.09.2021
6479 Rain 14 1013 90 10000 7.6 61 19:54 07.09.2021
6480 Rain 14 1014 90 10000 7.15 78 18:45 07.09.2021
6481 Rain 14 1014 90 10000 8.49 91 18:18 07.09.2021
6482 Rain 14 1016 87 10000 7.2 100 16:42 07.09.2021
6483 Rain 14 1017 87 10000 5.14 100 15:37 07.09.2021
6484 Rain 14 1016 87 10000 6.69 100 14:44 07.09.2021
6485 Rain 13 1016 87 10000 6.17 110 12:44 07.09.2021
6486 Clouds 13 1016 84 10000 7.72 110 11:51 07.09.2021
6487 Rain 13 1015 84 10000 8.75 110 10:41 07.09.2021
6488 Rain 13 1018 84 10000 6.69 110 08:39 07.09.2021
6489 Clouds 13 1018 84 10000 6.69 120 07:44 07.09.2021
6490 Clouds 13 1019 84 10000 5.66 100 05:41 07.09.2021
6491 Clouds 13 1019 84 10000 6.69 110 02:38 07.09.2021
6492 Clouds 15 1018 87 10000 4.12 100 00:52 07.09.2021
6493 Clouds 14 1017 92 10000 6.71 81 23:35 06.09.2021
6494 Clouds 14 1018 92 10000 4.92 97 22:54 06.09.2021
6495 Clouds 14 1018 92 10000 5.81 89 22:35 06.09.2021
6496 Clouds 14 1018 91 10000 4.47 102 21:29 06.09.2021
6497 Clouds 14 1019 89 10000 4.92 145 19:31 06.09.2021
6498 Clouds 15 1019 86 10000 4.02 136 18:53 06.09.2021
6499 Clouds 16 1019 85 10000 2.24 99 18:24 06.09.2021
6500 Clouds 14 1019 86 10000 3.58 84 17:36 06.09.2021
6501 Clouds 14 1020 87 10000 5.36 83 15:55 06.09.2021
6502 Clouds 14 1020 87 10000 5.36 29 14:25 06.09.2021
6503 Clouds 11 1020 95 10000 3.09 110 12:48 06.09.2021
6504 Clouds 13 1020 84 10000 1.54 70 10:54 06.09.2021
6505 Clouds 13 1020 84 10000 2.57 100 09:59 06.09.2021
6506 Clouds 13 1020 84 10000 3.6 110 07:21 06.09.2021
6507 Clouds 13 1018 88 10000 4.92 132 23:40 05.09.2021
6508 Clouds 13 1018 87 10000 4.92 132 23:18 05.09.2021
6509 Clouds 13 1018 86 10000 4.02 118 22:30 05.09.2021
6510 Clouds 14 1017 87 10000 4.92 148 21:49 05.09.2021
6511 Clouds 14 1017 87 10000 4.47 142 20:50 05.09.2021
6512 Clouds 14 1018 88 10000 2.24 130 18:59 05.09.2021
6513 Clouds 14 1018 89 10000 3.58 128 17:34 05.09.2021
6514 Drizzle 13 1018 89 10000 5.36 148 15:40 05.09.2021
6515 Clouds 13 1018 92 10000 5.36 144 14:37 05.09.2021
6516 Clouds 13 1017 95 8000 2.06 120 12:34 05.09.2021
6517 Clouds 13 1016 94 10000 0 0 10:59 05.09.2021
6518 Clouds 13 1016 94 10000 0 0 10:34 05.09.2021
6519 Clouds 13 1015 92 10000 0 0 09:25 05.09.2021
6520 Clouds 13 1016 92 10000 0 0 08:22 05.09.2021
6521 Clouds 13 1016 92 10000 4.63 120 03:20 05.09.2021
6522 Clouds 14 1014 77 10000 3.09 120 00:32 05.09.2021
6523 Clouds 14 1014 84 10000 4.92 102 23:46 04.09.2021
6524 Clouds 14 1013 81 10000 5.36 80 22:36 04.09.2021
6525 Rain 14 1013 83 10000 5.81 94 21:59 04.09.2021
6526 Clouds 14 1015 86 10000 4.47 94 19:54 04.09.2021
6527 Clouds 14 1015 83 10000 4.02 86 19:29 04.09.2021
6528 Clouds 14 1018 82 10000 4.12 70 16:27 04.09.2021
6529 Mist 11 1018 95 2000 3.6 90 13:49 04.09.2021
6530 Clouds 11 1018 99 9000 2.06 90 11:21 04.09.2021
6531 Clouds 11 1017 99 9000 4.63 100 09:33 04.09.2021
6532 Clouds 11 1018 99 10000 2.06 110 06:55 04.09.2021
6533 Clouds 13 1019 88 10000 4.47 134 00:28 04.09.2021
6534 Clouds 13 1019 87 10000 4.47 134 23:32 03.09.2021
6535 Clouds 13 1019 87 10000 4.47 133 22:45 03.09.2021
6536 Clouds 14 1018 84 10000 5.81 136 21:36 03.09.2021
6537 Clouds 14 1018 83 10000 5.81 150 20:52 03.09.2021
6538 Clouds 14 1019 83 10000 5.36 145 19:56 03.09.2021
6539 Clouds 14 1019 83 10000 5.36 155 19:29 03.09.2021
6540 Clouds 14 1020 86 10000 6.26 140 17:57 03.09.2021
6541 Clouds 14 1020 85 10000 5.81 142 16:44 03.09.2021
6542 Clouds 14 1020 87 10000 5.81 135 15:34 03.09.2021
6543 Clouds 13 1020 88 8000 3.6 140 12:59 03.09.2021
6544 Clouds 14 1019 94 10000 4.63 140 10:43 03.09.2021
6545 Clouds 14 1018 96 10000 4.63 130 09:19 03.09.2021
6546 Clouds 14 1019 99 10000 6.17 130 07:51 03.09.2021
6547 Drizzle 13 1018 99 6000 6.69 130 06:21 03.09.2021
6548 Drizzle 14 1017 100 1000 5.14 130 23:54 02.09.2021
6549 Fog 14 1016 100 500 4.12 140 21:42 02.09.2021
6550 Mist 15 1017 96 2000 3.6 130 20:24 02.09.2021
6551 Fog 14 1018 100 500 4.63 140 17:33 02.09.2021
6552 Mist 14 1018 100 1500 3.6 130 16:20 02.09.2021
6553 Rain 14 1018 96 500 3.6 140 14:36 02.09.2021
6554 Rain 13 1017 100 2000 4.63 130 13:23 02.09.2021
6555 Rain 13 1017 99 5000 3.6 130 11:41 02.09.2021
6556 Mist 13 1017 99 2100 5.14 140 10:52 02.09.2021
6557 Rain 14 1017 99 10000 5.66 150 08:49 02.09.2021
6558 Rain 14 1017 99 10000 4.63 130 07:20 02.09.2021
6559 Rain 14 1017 99 10000 4.63 130 07:20 02.09.2021
6560 Rain 15 1016 99 10000 6.69 60 05:31 02.09.2021
6561 Rain 15 1016 99 10000 6.69 60 05:31 02.09.2021
6562 Mist 15 1018 99 5000 6.69 140 02:35 02.09.2021
6563 Clouds 15 1017 99 615 4.16 129 01:36 02.09.2021
6564 Rain 15 1016 96 1000 7.2 160 23:40 01.09.2021
6565 Rain 15 1016 94 2000 7.72 140 22:42 01.09.2021
6566 Rain 16 1015 92 10000 3.58 144 21:41 01.09.2021
6567 Rain 16 1014 91 10000 3.13 68 20:54 01.09.2021
6568 Rain 16 1014 88 10000 3.13 104 19:24 01.09.2021
6569 Rain 17 1016 89 10000 2.68 213 17:50 01.09.2021
6570 Rain 16 1016 88 10000 4.92 186 16:55 01.09.2021
6571 Rain 17 1015 86 10000 4.47 181 16:33 01.09.2021
6572 Clear 17 1016 86 10000 5.14 120 13:57 01.09.2021
6573 Rain 17 1015 89 10000 3.6 190 11:47 01.09.2021
6574 Clear 18 1013 86 10000 3.6 20 09:35 01.09.2021
6575 Clear 18 1014 87 10000 3.09 20 07:57 01.09.2021
6576 Clear 19 1014 87 10000 1.54 20 06:42 01.09.2021
6577 Clear 21 1014 67 10000 2.68 90 23:20 31.08.2021
6578 Clouds 28 1015 47 10000 5.14 20 21:45 31.08.2021
6579 Clear 28 1016 51 10000 5.66 10 19:49 31.08.2021
6580 Clear 27 1017 50 10000 6.17 350 18:56 31.08.2021
6581 Clear 25 1017 57 10000 6.17 10 17:39 31.08.2021
6582 Clear 25 1017 58 10000 6.17 10 17:21 31.08.2021
6583 Clear 23 1018 63 10000 5.66 10 16:28 31.08.2021
6584 Clear 19 1018 77 10000 6.17 10 14:57 31.08.2021
6585 Clear 16 1017 94 10000 6.17 30 11:41 31.08.2021
6586 Clear 16 1017 94 10000 6.17 30 11:18 31.08.2021
6587 Rain 16 1016 94 10000 7.2 20 10:22 31.08.2021
6588 Clear 17 1016 95 10000 6.17 30 09:40 31.08.2021
6589 Clear 16 1018 97 10000 4.63 30 07:39 31.08.2021
6590 Clouds 16 1018 93 10000 6.17 30 05:56 31.08.2021
6591 Clouds 16 1016 87 10000 2.68 69 23:36 30.08.2021
6592 Clouds 16 1016 87 10000 2.24 75 22:30 30.08.2021
6593 Clouds 25 1017 53 10000 4.12 20 21:35 30.08.2021
6594 Clouds 24 1017 57 10000 6.69 20 20:35 30.08.2021
6595 Clouds 23 1018 64 10000 5.66 40 19:32 30.08.2021
6596 Clouds 23 1018 64 10000 5.66 40 18:57 30.08.2021
6597 Clear 20 1021 77 10000 4.12 30 17:49 30.08.2021
6598 Clouds 18 1021 90 10000 2.24 19 16:26 30.08.2021
6599 Clouds 17 1022 88 8000 3.6 70 15:40 30.08.2021
6600 Fog 13 1022 100 300 3.6 40 13:51 30.08.2021
6601 Fog 13 1022 100 100 3.6 40 12:54 30.08.2021
6602 Fog 12 1021 97 200 0 0 10:42 30.08.2021
6603 Rain 12 1023 90 10000 4.12 110 03:24 30.08.2021
6604 Clear 16 1022 78 10000 2.24 176 21:33 29.08.2021
6605 Clear 16 1023 79 10000 1.34 158 20:45 29.08.2021
6606 Clear 15 1023 80 10000 1.34 144 19:26 29.08.2021
6607 Clear 15 1025 82 10000 1.34 186 17:58 29.08.2021
6608 Clear 15 1025 80 10000 1.79 210 15:54 29.08.2021
6609 Clear 14 1025 82 10000 2.68 329 14:27 29.08.2021
6610 Clear 14 1025 82 10000 2.68 329 14:27 29.08.2021
6611 Clear 13 1025 85 10000 3.13 339 13:47 29.08.2021
6612 Clear 8 1025 87 10000 3.09 20 12:42 29.08.2021
6613 Clear 7 1024 93 10000 2.57 20 11:54 29.08.2021
6614 Clear 7 1024 93 10000 2.57 20 11:32 29.08.2021
6615 Clear 8 1024 81 10000 0 0 10:46 29.08.2021
6616 Clear 10 1025 77 10000 3.77 17 10:27 29.08.2021
6617 Clear 10 1025 77 10000 3.77 17 10:27 29.08.2021
6618 Clear 10 1025 75 10000 3.65 21 09:21 29.08.2021
6619 Clear 14 1024 67 10000 3.6 60 02:38 29.08.2021
6620 Clear 14 1022 80 10000 3.13 42 22:29 28.08.2021
6621 Clear 14 1023 80 10000 2.68 94 20:30 28.08.2021
6622 Clear 18 1023 61 10000 3.58 19 18:53 28.08.2021
6623 Clear 18 1024 60 10000 3.58 32 18:21 28.08.2021
6624 Clear 17 1024 63 10000 3.13 50 17:45 28.08.2021
6625 Clear 15 1025 70 10000 2.68 40 16:21 28.08.2021
6626 Clear 12 1024 76 10000 3.58 33 14:43 28.08.2021
6627 Clear 10 1024 82 10000 4.92 23 13:47 28.08.2021
6628 Clear 8 1023 81 10000 5.66 40 12:46 28.08.2021
6629 Clear 7 1023 81 10000 4.63 30 11:58 28.08.2021
6630 Clear 6 1022 87 10000 1.54 50 10:44 28.08.2021
6631 Clear 6 1022 87 10000 1.54 80 09:33 28.08.2021
6632 Clear 7 1024 76 10000 1.03 70 07:25 28.08.2021
6633 Clear 12 1021 66 10000 1.79 186 22:50 27.08.2021
6634 Clear 12 1020 63 10000 2.68 191 21:26 27.08.2021
6635 Clear 12 1020 62 10000 2.24 203 20:35 27.08.2021
6636 Clear 13 1021 59 10000 1.79 194 19:29 27.08.2021
6637 Clear 13 1021 60 10000 1.79 236 18:38 27.08.2021
6638 Clear 13 1021 60 10000 1.79 199 17:30 27.08.2021
6639 Clear 13 1021 58 10000 2.24 241 16:28 27.08.2021
6640 Clear 12 1020 63 10000 2.68 277 14:44 27.08.2021
6641 Clear 5 1019 100 10000 2.06 300 12:55 27.08.2021
6642 Clear 6 1018 87 10000 0 0 11:42 27.08.2021
6643 Clear 7 1017 81 10000 0 0 10:48 27.08.2021
6644 Clear 7 1017 76 10000 0 0 09:52 27.08.2021
6645 Clear 9 1017 66 10000 0 0 08:55 27.08.2021
6646 Clear 10 1017 57 10000 0 0 07:39 27.08.2021
6647 Clear 11 1015 54 10000 5.14 340 05:33 27.08.2021
6648 Clear 14 1014 44 10000 4.63 360 00:39 27.08.2021
6649 Clear 18 1014 36 10000 4.63 330 23:28 26.08.2021
6650 Clear 19 1013 34 10000 6.17 320 22:23 26.08.2021
6651 Clear 19 1014 37 10000 6.69 300 21:32 26.08.2021
6652 Clear 18 1014 29 10000 7.72 270 19:30 26.08.2021
6653 Clear 17 1016 34 1000